<?xml version="1.0" encoding="UTF-8"?>
<TrainingCenterDatabase xmlns="http://www.garmin.com/xmlschemas/TrainingCenterDatabase/v2" xmlns:xsi="http://www.w3.org/2001/XMLSchema-instance" xsi:schemaLocation="http://www.garmin.com/xmlschemas/TrainingCenterDatabase/v2 http://www.garmin.com/xmlschemas/TrainingCenterDatabasev2.xsd">
  <Activities>
    <Activity Sport="Other">
      <Id>2018-06-21T07:22:03.000Z</Id>
      <Lap StartTime="2018-06-21T07:22:03.000Z">
        <TotalTimeSeconds>7545</TotalTimeSeconds>
        <DistanceMeters>10100</DistanceMeters>
        <Track>
          <Trackpoint>
            <Time>2018-06-21T07:22:03.000Z</Time>
            <Position>
              <LatitudeDegrees>41.736438274383544921875</LatitudeDegrees>
              <LongitudeDegrees>1.77674914710223674774169921875</LongitudeDegrees>
            </Position>
            <AltitudeMeters>312.399993896484375</AltitudeMeters>
            <DistanceMeters>0</DistanceMeters>
          </Trackpoint>
          <Trackpoint>
            <Time>2018-06-21T07:22:04.000Z</Time>
            <Position>
              <LatitudeDegrees>41.7364424653351306915283203125</LatitudeDegrees>
              <LongitudeDegrees>1.77673556841909885406494140625</LongitudeDegrees>
            </Position>
            <AltitudeMeters>312.20001220703125</AltitudeMeters>
            <DistanceMeters>1.2206402472688</DistanceMeters>
          </Trackpoint>
          <Trackpoint>
            <Time>2018-06-21T07:22:13.000Z</Time>
            <Position>
              <LatitudeDegrees>41.7365001328289508819580078125</LatitudeDegrees>
              <LongitudeDegrees>1.776609756052494049072265625</LongitudeDegrees>
            </Position>
            <AltitudeMeters>311.399993896484375</AltitudeMeters>
            <DistanceMeters>13.483873634009</DistanceMeters>
          </Trackpoint>
          <Trackpoint>
            <Time>2018-06-21T07:22:22.000Z</Time>
            <Position>
              <LatitudeDegrees>41.73655754886567592620849609375</LatitudeDegrees>
              <LongitudeDegrees>1.77648846991360187530517578125</LongitudeDegrees>
            </Position>
            <AltitudeMeters>311</AltitudeMeters>
            <DistanceMeters>25.413416993114</DistanceMeters>
          </Trackpoint>
          <Trackpoint>
            <Time>2018-06-21T07:22:29.000Z</Time>
            <Position>
              <LatitudeDegrees>41.7366305552423000335693359375</LatitudeDegrees>
              <LongitudeDegrees>1.7764308862388134002685546875</LongitudeDegrees>
            </Position>
            <AltitudeMeters>311.399993896484375</AltitudeMeters>
            <DistanceMeters>34.842155116041</DistanceMeters>
          </Trackpoint>
          <Trackpoint>
            <Time>2018-06-21T07:22:33.000Z</Time>
            <Position>
              <LatitudeDegrees>41.7366751469671726226806640625</LatitudeDegrees>
              <LongitudeDegrees>1.77642233669757843017578125</LongitudeDegrees>
            </Position>
            <AltitudeMeters>311.79998779296875</AltitudeMeters>
            <DistanceMeters>39.856108927154</DistanceMeters>
          </Trackpoint>
          <Trackpoint>
            <Time>2018-06-21T07:22:44.000Z</Time>
            <Position>
              <LatitudeDegrees>41.73679224215447902679443359375</LatitudeDegrees>
              <LongitudeDegrees>1.7763735540211200714111328125</LongitudeDegrees>
            </Position>
            <AltitudeMeters>312.79998779296875</AltitudeMeters>
            <DistanceMeters>53.504274257555</DistanceMeters>
          </Trackpoint>
          <Trackpoint>
            <Time>2018-06-21T07:22:57.000Z</Time>
            <Position>
              <LatitudeDegrees>41.7369463853538036346435546875</LatitudeDegrees>
              <LongitudeDegrees>1.7763386853039264678955078125</LongitudeDegrees>
            </Position>
            <AltitudeMeters>314.20001220703125</AltitudeMeters>
            <DistanceMeters>70.903507366625</DistanceMeters>
          </Trackpoint>
          <Trackpoint>
            <Time>2018-06-21T07:23:08.000Z</Time>
            <Position>
              <LatitudeDegrees>41.73707756213843822479248046875</LatitudeDegrees>
              <LongitudeDegrees>1.77631647326052188873291015625</LongitudeDegrees>
            </Position>
            <AltitudeMeters>315.399993896484375</AltitudeMeters>
            <DistanceMeters>85.620074678056</DistanceMeters>
          </Trackpoint>
          <Trackpoint>
            <Time>2018-06-21T07:23:17.000Z</Time>
            <Position>
              <LatitudeDegrees>41.73718585632741451263427734375</LatitudeDegrees>
              <LongitudeDegrees>1.7762883938848972320556640625</LongitudeDegrees>
            </Position>
            <AltitudeMeters>315.79998779296875</AltitudeMeters>
            <DistanceMeters>97.897290812121</DistanceMeters>
          </Trackpoint>
          <Trackpoint>
            <Time>2018-06-21T07:23:26.000Z</Time>
            <Position>
              <LatitudeDegrees>41.737286858260631561279296875</LatitudeDegrees>
              <LongitudeDegrees>1.7762645892798900604248046875</LongitudeDegrees>
            </Position>
            <AltitudeMeters>316</AltitudeMeters>
            <DistanceMeters>109.31157760252</DistanceMeters>
          </Trackpoint>
          <Trackpoint>
            <Time>2018-06-21T07:23:27.000Z</Time>
            <Position>
              <LatitudeDegrees>41.7372990958392620086669921875</LatitudeDegrees>
              <LongitudeDegrees>1.776258386671543121337890625</LongitudeDegrees>
            </Position>
            <AltitudeMeters>316</AltitudeMeters>
            <DistanceMeters>110.77140568855</DistanceMeters>
          </Trackpoint>
          <Trackpoint>
            <Time>2018-06-21T07:23:36.000Z</Time>
            <Position>
              <LatitudeDegrees>41.73740579746663570404052734375</LatitudeDegrees>
              <LongitudeDegrees>1.77623265422880649566650390625</LongitudeDegrees>
            </Position>
            <AltitudeMeters>316.600006103515625</AltitudeMeters>
            <DistanceMeters>122.83830183706</DistanceMeters>
          </Trackpoint>
          <Trackpoint>
            <Time>2018-06-21T07:23:38.000Z</Time>
            <Position>
              <LatitudeDegrees>41.7374293506145477294921875</LatitudeDegrees>
              <LongitudeDegrees>1.77622578106820583343505859375</LongitudeDegrees>
            </Position>
            <AltitudeMeters>317</AltitudeMeters>
            <DistanceMeters>125.52101891603</DistanceMeters>
          </Trackpoint>
          <Trackpoint>
            <Time>2018-06-21T07:23:43.000Z</Time>
            <Position>
              <LatitudeDegrees>41.7374910414218902587890625</LatitudeDegrees>
              <LongitudeDegrees>1.7762102745473384857177734375</LongitudeDegrees>
            </Position>
            <AltitudeMeters>318</AltitudeMeters>
            <DistanceMeters>132.50790615256</DistanceMeters>
          </Trackpoint>
          <Trackpoint>
            <Time>2018-06-21T07:23:51.000Z</Time>
            <Position>
              <LatitudeDegrees>41.73758366145193576812744140625</LatitudeDegrees>
              <LongitudeDegrees>1.77620164118707180023193359375</LongitudeDegrees>
            </Position>
            <AltitudeMeters>319.79998779296875</AltitudeMeters>
            <DistanceMeters>142.84181557864</DistanceMeters>
          </Trackpoint>
          <Trackpoint>
            <Time>2018-06-21T07:23:56.000Z</Time>
            <Position>
              <LatitudeDegrees>41.737638898193836212158203125</LatitudeDegrees>
              <LongitudeDegrees>1.77618085406720638275146484375</LongitudeDegrees>
            </Position>
            <AltitudeMeters>320.600006103515625</AltitudeMeters>
            <DistanceMeters>149.22772391034</DistanceMeters>
          </Trackpoint>
          <Trackpoint>
            <Time>2018-06-21T07:24:04.000Z</Time>
            <Position>
              <LatitudeDegrees>41.73772238194942474365234375</LatitudeDegrees>
              <LongitudeDegrees>1.77618957124650478363037109375</LongitudeDegrees>
            </Position>
            <AltitudeMeters>322.20001220703125</AltitudeMeters>
            <DistanceMeters>158.54809597324</DistanceMeters>
          </Trackpoint>
          <Trackpoint>
            <Time>2018-06-21T07:24:06.000Z</Time>
            <Position>
              <LatitudeDegrees>41.7377426661550998687744140625</LatitudeDegrees>
              <LongitudeDegrees>1.77619057707488536834716796875</LongitudeDegrees>
            </Position>
            <AltitudeMeters>322.600006103515625</AltitudeMeters>
            <DistanceMeters>160.80885320639</DistanceMeters>
          </Trackpoint>
          <Trackpoint>
            <Time>2018-06-21T07:24:11.000Z</Time>
            <Position>
              <LatitudeDegrees>41.737798489630222320556640625</LatitudeDegrees>
              <LongitudeDegrees>1.77620667032897472381591796875</LongitudeDegrees>
            </Position>
            <AltitudeMeters>324</AltitudeMeters>
            <DistanceMeters>167.16499684938</DistanceMeters>
          </Trackpoint>
          <Trackpoint>
            <Time>2018-06-21T07:24:19.000Z</Time>
            <Position>
              <LatitudeDegrees>41.737890355288982391357421875</LatitudeDegrees>
              <LongitudeDegrees>1.7762796767055988311767578125</LongitudeDegrees>
            </Position>
            <AltitudeMeters>326.399993896484375</AltitudeMeters>
            <DistanceMeters>179.05245520983</DistanceMeters>
          </Trackpoint>
          <Trackpoint>
            <Time>2018-06-21T07:24:26.000Z</Time>
            <Position>
              <LatitudeDegrees>41.737960763275623321533203125</LatitudeDegrees>
              <LongitudeDegrees>1.77631764672696590423583984375</LongitudeDegrees>
            </Position>
            <AltitudeMeters>328</AltitudeMeters>
            <DistanceMeters>187.49968339783</DistanceMeters>
          </Trackpoint>
          <Trackpoint>
            <Time>2018-06-21T07:24:34.000Z</Time>
            <Position>
              <LatitudeDegrees>41.7380232922732830047607421875</LatitudeDegrees>
              <LongitudeDegrees>1.77631529979407787322998046875</LongitudeDegrees>
            </Position>
            <AltitudeMeters>329.20001220703125</AltitudeMeters>
            <DistanceMeters>194.46197112179</DistanceMeters>
          </Trackpoint>
          <Trackpoint>
            <Time>2018-06-21T07:24:38.000Z</Time>
            <Position>
              <LatitudeDegrees>41.738070063292980194091796875</LatitudeDegrees>
              <LongitudeDegrees>1.776287555694580078125</LongitudeDegrees>
            </Position>
            <AltitudeMeters>329.600006103515625</AltitudeMeters>
            <DistanceMeters>200.15485653758</DistanceMeters>
          </Trackpoint>
          <Trackpoint>
            <Time>2018-06-21T07:24:46.000Z</Time>
            <Position>
              <LatitudeDegrees>41.73815019428730010986328125</LatitudeDegrees>
              <LongitudeDegrees>1.776235587894916534423828125</LongitudeDegrees>
            </Position>
            <AltitudeMeters>330.399993896484375</AltitudeMeters>
            <DistanceMeters>210.06318591738</DistanceMeters>
          </Trackpoint>
          <Trackpoint>
            <Time>2018-06-21T07:24:53.000Z</Time>
            <Position>
              <LatitudeDegrees>41.738238036632537841796875</LatitudeDegrees>
              <LongitudeDegrees>1.776208765804767608642578125</LongitudeDegrees>
            </Position>
            <AltitudeMeters>332</AltitudeMeters>
            <DistanceMeters>220.09109353961</DistanceMeters>
          </Trackpoint>
          <Trackpoint>
            <Time>2018-06-21T07:24:55.000Z</Time>
            <Position>
              <LatitudeDegrees>41.738263852894306182861328125</LatitudeDegrees>
              <LongitudeDegrees>1.77619359456002712249755859375</LongitudeDegrees>
            </Position>
            <AltitudeMeters>332.79998779296875</AltitudeMeters>
            <DistanceMeters>223.22841458214</DistanceMeters>
          </Trackpoint>
          <Trackpoint>
            <Time>2018-06-21T07:25:02.000Z</Time>
            <Position>
              <LatitudeDegrees>41.73834825865924358367919921875</LatitudeDegrees>
              <LongitudeDegrees>1.7761975340545177459716796875</LongitudeDegrees>
            </Position>
            <AltitudeMeters>335.79998779296875</AltitudeMeters>
            <DistanceMeters>232.62885755471</DistanceMeters>
          </Trackpoint>
          <Trackpoint>
            <Time>2018-06-21T07:25:08.000Z</Time>
            <Position>
              <LatitudeDegrees>41.73842537216842174530029296875</LatitudeDegrees>
              <LongitudeDegrees>1.77618739195168018341064453125</LongitudeDegrees>
            </Position>
            <AltitudeMeters>338.399993896484375</AltitudeMeters>
            <DistanceMeters>241.253284473</DistanceMeters>
          </Trackpoint>
          <Trackpoint>
            <Time>2018-06-21T07:25:11.000Z</Time>
            <Position>
              <LatitudeDegrees>41.7384539544582366943359375</LatitudeDegrees>
              <LongitudeDegrees>1.77618286572396755218505859375</LongitudeDegrees>
            </Position>
            <AltitudeMeters>339.20001220703125</AltitudeMeters>
            <DistanceMeters>244.45893994314</DistanceMeters>
          </Trackpoint>
          <Trackpoint>
            <Time>2018-06-21T07:25:18.000Z</Time>
            <Position>
              <LatitudeDegrees>41.73853383399546146392822265625</LatitudeDegrees>
              <LongitudeDegrees>1.7761371843516826629638671875</LongitudeDegrees>
            </Position>
            <AltitudeMeters>341.399993896484375</AltitudeMeters>
            <DistanceMeters>254.12554384741</DistanceMeters>
          </Trackpoint>
          <Trackpoint>
            <Time>2018-06-21T07:25:20.000Z</Time>
            <Position>
              <LatitudeDegrees>41.73855596221983432769775390625</LatitudeDegrees>
              <LongitudeDegrees>1.77612125873565673828125</LongitudeDegrees>
            </Position>
            <AltitudeMeters>342</AltitudeMeters>
            <DistanceMeters>256.92197839884</DistanceMeters>
          </Trackpoint>
          <Trackpoint>
            <Time>2018-06-21T07:25:24.000Z</Time>
            <Position>
              <LatitudeDegrees>41.73858446069061756134033203125</LatitudeDegrees>
              <LongitudeDegrees>1.7760764993727207183837890625</LongitudeDegrees>
            </Position>
            <AltitudeMeters>342.399993896484375</AltitudeMeters>
            <DistanceMeters>261.80823689772</DistanceMeters>
          </Trackpoint>
          <Trackpoint>
            <Time>2018-06-21T07:25:30.000Z</Time>
            <Position>
              <LatitudeDegrees>41.7385972850024700164794921875</LatitudeDegrees>
              <LongitudeDegrees>1.77597315050661563873291015625</LongitudeDegrees>
            </Position>
            <AltitudeMeters>341.399993896484375</AltitudeMeters>
            <DistanceMeters>270.50979945754</DistanceMeters>
          </Trackpoint>
          <Trackpoint>
            <Time>2018-06-21T07:25:31.000Z</Time>
            <Position>
              <LatitudeDegrees>41.73859887756407260894775390625</LatitudeDegrees>
              <LongitudeDegrees>1.77595403976738452911376953125</LongitudeDegrees>
            </Position>
            <AltitudeMeters>341.20001220703125</AltitudeMeters>
            <DistanceMeters>272.10556935236</DistanceMeters>
          </Trackpoint>
          <Trackpoint>
            <Time>2018-06-21T07:25:38.000Z</Time>
            <Position>
              <LatitudeDegrees>41.73857104964554309844970703125</LatitudeDegrees>
              <LongitudeDegrees>1.77583359181880950927734375</LongitudeDegrees>
            </Position>
            <AltitudeMeters>338.600006103515625</AltitudeMeters>
            <DistanceMeters>282.57792717721</DistanceMeters>
          </Trackpoint>
          <Trackpoint>
            <Time>2018-06-21T07:25:40.000Z</Time>
            <Position>
              <LatitudeDegrees>41.738595776259899139404296875</LatitudeDegrees>
              <LongitudeDegrees>1.77580417133867740631103515625</LongitudeDegrees>
            </Position>
            <AltitudeMeters>339</AltitudeMeters>
            <DistanceMeters>286.25829599921</DistanceMeters>
          </Trackpoint>
          <Trackpoint>
            <Time>2018-06-21T07:25:46.000Z</Time>
            <Position>
              <LatitudeDegrees>41.73864095471799373626708984375</LatitudeDegrees>
              <LongitudeDegrees>1.775729656219482421875</LongitudeDegrees>
            </Position>
            <AltitudeMeters>339.399993896484375</AltitudeMeters>
            <DistanceMeters>294.2326171815</DistanceMeters>
          </Trackpoint>
          <Trackpoint>
            <Time>2018-06-21T07:25:52.000Z</Time>
            <Position>
              <LatitudeDegrees>41.7386814393103122711181640625</LatitudeDegrees>
              <LongitudeDegrees>1.7756731621921062469482421875</LongitudeDegrees>
            </Position>
            <AltitudeMeters>340.20001220703125</AltitudeMeters>
            <DistanceMeters>300.738998539</DistanceMeters>
          </Trackpoint>
          <Trackpoint>
            <Time>2018-06-21T07:25:59.000Z</Time>
            <Position>
              <LatitudeDegrees>41.73871706239879131317138671875</LatitudeDegrees>
              <LongitudeDegrees>1.7755906842648983001708984375</LongitudeDegrees>
            </Position>
            <AltitudeMeters>341.20001220703125</AltitudeMeters>
            <DistanceMeters>308.65421618403</DistanceMeters>
          </Trackpoint>
          <Trackpoint>
            <Time>2018-06-21T07:26:06.000Z</Time>
            <Position>
              <LatitudeDegrees>41.73878897912800312042236328125</LatitudeDegrees>
              <LongitudeDegrees>1.7755135707557201385498046875</LongitudeDegrees>
            </Position>
            <AltitudeMeters>343.399993896484375</AltitudeMeters>
            <DistanceMeters>318.90565655379</DistanceMeters>
          </Trackpoint>
          <Trackpoint>
            <Time>2018-06-21T07:26:07.000Z</Time>
            <Position>
              <LatitudeDegrees>41.7387994565069675445556640625</LatitudeDegrees>
              <LongitudeDegrees>1.77550275810062885284423828125</LongitudeDegrees>
            </Position>
            <AltitudeMeters>343.79998779296875</AltitudeMeters>
            <DistanceMeters>320.37473390714</DistanceMeters>
          </Trackpoint>
          <Trackpoint>
            <Time>2018-06-21T07:26:12.000Z</Time>
            <Position>
              <LatitudeDegrees>41.7388641647994518280029296875</LatitudeDegrees>
              <LongitudeDegrees>1.77544743753969669342041015625</LongitudeDegrees>
            </Position>
            <AltitudeMeters>345.399993896484375</AltitudeMeters>
            <DistanceMeters>328.91710171376</DistanceMeters>
          </Trackpoint>
          <Trackpoint>
            <Time>2018-06-21T07:26:16.000Z</Time>
            <Position>
              <LatitudeDegrees>41.73890096135437488555908203125</LatitudeDegrees>
              <LongitudeDegrees>1.775397397577762603759765625</LongitudeDegrees>
            </Position>
            <AltitudeMeters>346.20001220703125</AltitudeMeters>
            <DistanceMeters>334.75177292932</DistanceMeters>
          </Trackpoint>
          <Trackpoint>
            <Time>2018-06-21T07:26:22.000Z</Time>
            <Position>
              <LatitudeDegrees>41.73892225138843059539794921875</LatitudeDegrees>
              <LongitudeDegrees>1.77532128989696502685546875</LongitudeDegrees>
            </Position>
            <AltitudeMeters>346.20001220703125</AltitudeMeters>
            <DistanceMeters>341.50201483137</DistanceMeters>
          </Trackpoint>
          <Trackpoint>
            <Time>2018-06-21T07:26:28.000Z</Time>
            <Position>
              <LatitudeDegrees>41.7389288730919361114501953125</LatitudeDegrees>
              <LongitudeDegrees>1.77520939148962497711181640625</LongitudeDegrees>
            </Position>
            <AltitudeMeters>345.79998779296875</AltitudeMeters>
            <DistanceMeters>350.82529300214</DistanceMeters>
          </Trackpoint>
          <Trackpoint>
            <Time>2018-06-21T07:26:30.000Z</Time>
            <Position>
              <LatitudeDegrees>41.73893985338509082794189453125</LatitudeDegrees>
              <LongitudeDegrees>1.77518608979880809783935546875</LongitudeDegrees>
            </Position>
            <AltitudeMeters>346</AltitudeMeters>
            <DistanceMeters>353.11383933934</DistanceMeters>
          </Trackpoint>
          <Trackpoint>
            <Time>2018-06-21T07:26:35.000Z</Time>
            <Position>
              <LatitudeDegrees>41.7389741353690624237060546875</LatitudeDegrees>
              <LongitudeDegrees>1.77511786110699176788330078125</LongitudeDegrees>
            </Position>
            <AltitudeMeters>346.600006103515625</AltitudeMeters>
            <DistanceMeters>359.94585698706</DistanceMeters>
          </Trackpoint>
          <Trackpoint>
            <Time>2018-06-21T07:26:41.000Z</Time>
            <Position>
              <LatitudeDegrees>41.7390197329223155975341796875</LatitudeDegrees>
              <LongitudeDegrees>1.775010488927364349365234375</LongitudeDegrees>
            </Position>
            <AltitudeMeters>347.20001220703125</AltitudeMeters>
            <DistanceMeters>370.20654221077</DistanceMeters>
          </Trackpoint>
          <Trackpoint>
            <Time>2018-06-21T07:26:49.000Z</Time>
            <Position>
              <LatitudeDegrees>41.7390874586999416351318359375</LatitudeDegrees>
              <LongitudeDegrees>1.7748889513313770294189453125</LongitudeDegrees>
            </Position>
            <AltitudeMeters>349.20001220703125</AltitudeMeters>
            <DistanceMeters>382.80502043853</DistanceMeters>
          </Trackpoint>
          <Trackpoint>
            <Time>2018-06-21T07:26:54.000Z</Time>
            <Position>
              <LatitudeDegrees>41.7391105927526950836181640625</LatitudeDegrees>
              <LongitudeDegrees>1.7748128436505794525146484375</LongitudeDegrees>
            </Position>
            <AltitudeMeters>350.399993896484375</AltitudeMeters>
            <DistanceMeters>389.63042624144</DistanceMeters>
          </Trackpoint>
          <Trackpoint>
            <Time>2018-06-21T07:26:58.000Z</Time>
            <Position>
              <LatitudeDegrees>41.73910279758274555206298828125</LatitudeDegrees>
              <LongitudeDegrees>1.77473095245659351348876953125</LongitudeDegrees>
            </Position>
            <AltitudeMeters>350.399993896484375</AltitudeMeters>
            <DistanceMeters>396.48685227599</DistanceMeters>
          </Trackpoint>
          <Trackpoint>
            <Time>2018-06-21T07:27:06.000Z</Time>
            <Position>
              <LatitudeDegrees>41.73905275762081146240234375</LatitudeDegrees>
              <LongitudeDegrees>1.77456934936344623565673828125</LongitudeDegrees>
            </Position>
            <AltitudeMeters>348.600006103515625</AltitudeMeters>
            <DistanceMeters>411.01817388022</DistanceMeters>
          </Trackpoint>
          <Trackpoint>
            <Time>2018-06-21T07:27:12.000Z</Time>
            <Position>
              <LatitudeDegrees>41.73903088085353374481201171875</LatitudeDegrees>
              <LongitudeDegrees>1.7744792439043521881103515625</LongitudeDegrees>
            </Position>
            <AltitudeMeters>348.20001220703125</AltitudeMeters>
            <DistanceMeters>418.88819893285</DistanceMeters>
          </Trackpoint>
          <Trackpoint>
            <Time>2018-06-21T07:27:13.000Z</Time>
            <Position>
              <LatitudeDegrees>41.73902995884418487548828125</LatitudeDegrees>
              <LongitudeDegrees>1.77446625195443630218505859375</LongitudeDegrees>
            </Position>
            <AltitudeMeters>348.20001220703125</AltitudeMeters>
            <DistanceMeters>419.97167017738</DistanceMeters>
          </Trackpoint>
          <Trackpoint>
            <Time>2018-06-21T07:27:18.000Z</Time>
            <Position>
              <LatitudeDegrees>41.73899374902248382568359375</LatitudeDegrees>
              <LongitudeDegrees>1.77443473599851131439208984375</LongitudeDegrees>
            </Position>
            <AltitudeMeters>347</AltitudeMeters>
            <DistanceMeters>424.77592614378</DistanceMeters>
          </Trackpoint>
          <Trackpoint>
            <Time>2018-06-21T07:27:25.000Z</Time>
            <Position>
              <LatitudeDegrees>41.73895963467657566070556640625</LatitudeDegrees>
              <LongitudeDegrees>1.77437455393373966217041015625</LongitudeDegrees>
            </Position>
            <AltitudeMeters>346.20001220703125</AltitudeMeters>
            <DistanceMeters>431.05344584518</DistanceMeters>
          </Trackpoint>
          <Trackpoint>
            <Time>2018-06-21T07:27:31.000Z</Time>
            <Position>
              <LatitudeDegrees>41.7389087565243244171142578125</LatitudeDegrees>
              <LongitudeDegrees>1.7743280343711376190185546875</LongitudeDegrees>
            </Position>
            <AltitudeMeters>344.79998779296875</AltitudeMeters>
            <DistanceMeters>437.90987187973</DistanceMeters>
          </Trackpoint>
          <Trackpoint>
            <Time>2018-06-21T07:27:34.000Z</Time>
            <Position>
              <LatitudeDegrees>41.73888067714869976043701171875</LatitudeDegrees>
              <LongitudeDegrees>1.7742914892733097076416015625</LongitudeDegrees>
            </Position>
            <AltitudeMeters>344</AltitudeMeters>
            <DistanceMeters>442.26661615558</DistanceMeters>
          </Trackpoint>
          <Trackpoint>
            <Time>2018-06-21T07:27:40.000Z</Time>
            <Position>
              <LatitudeDegrees>41.7389144562184810638427734375</LatitudeDegrees>
              <LongitudeDegrees>1.77419937215745449066162109375</LongitudeDegrees>
            </Position>
            <AltitudeMeters>345.399993896484375</AltitudeMeters>
            <DistanceMeters>450.79152408593</DistanceMeters>
          </Trackpoint>
          <Trackpoint>
            <Time>2018-06-21T07:27:43.000Z</Time>
            <Position>
              <LatitudeDegrees>41.73895158804953098297119140625</LatitudeDegrees>
              <LongitudeDegrees>1.774189062416553497314453125</LongitudeDegrees>
            </Position>
            <AltitudeMeters>346.600006103515625</AltitudeMeters>
            <DistanceMeters>455.0113950256</DistanceMeters>
          </Trackpoint>
          <Trackpoint>
            <Time>2018-06-21T07:27:51.000Z</Time>
            <Position>
              <LatitudeDegrees>41.73905275762081146240234375</LatitudeDegrees>
              <LongitudeDegrees>1.77418847568333148956298828125</LongitudeDegrees>
            </Position>
            <AltitudeMeters>350</AltitudeMeters>
            <DistanceMeters>466.27196043885</DistanceMeters>
          </Trackpoint>
          <Trackpoint>
            <Time>2018-06-21T07:27:57.000Z</Time>
            <Position>
              <LatitudeDegrees>41.73911587335169315338134765625</LatitudeDegrees>
              <LongitudeDegrees>1.77415587007999420166015625</LongitudeDegrees>
            </Position>
            <AltitudeMeters>353</AltitudeMeters>
            <DistanceMeters>473.80129108076</DistanceMeters>
          </Trackpoint>
          <Trackpoint>
            <Time>2018-06-21T07:28:04.000Z</Time>
            <Position>
              <LatitudeDegrees>41.73915929161012172698974609375</LatitudeDegrees>
              <LongitudeDegrees>1.77405486814677715301513671875</LongitudeDegrees>
            </Position>
            <AltitudeMeters>354.600006103515625</AltitudeMeters>
            <DistanceMeters>483.4818971225</DistanceMeters>
          </Trackpoint>
          <Trackpoint>
            <Time>2018-06-21T07:28:07.000Z</Time>
            <Position>
              <LatitudeDegrees>41.739174462854862213134765625</LatitudeDegrees>
              <LongitudeDegrees>1.77400474436581134796142578125</LongitudeDegrees>
            </Position>
            <AltitudeMeters>354.79998779296875</AltitudeMeters>
            <DistanceMeters>487.97335465606</DistanceMeters>
          </Trackpoint>
          <Trackpoint>
            <Time>2018-06-21T07:28:15.000Z</Time>
            <Position>
              <LatitudeDegrees>41.7391729541122913360595703125</LatitudeDegrees>
              <LongitudeDegrees>1.77389276213943958282470703125</LongitudeDegrees>
            </Position>
            <AltitudeMeters>353.399993896484375</AltitudeMeters>
            <DistanceMeters>497.27481488602</DistanceMeters>
          </Trackpoint>
          <Trackpoint>
            <Time>2018-06-21T07:28:19.000Z</Time>
            <Position>
              <LatitudeDegrees>41.739184856414794921875</LatitudeDegrees>
              <LongitudeDegrees>1.77383727394044399261474609375</LongitudeDegrees>
            </Position>
            <AltitudeMeters>353.399993896484375</AltitudeMeters>
            <DistanceMeters>502.0696636455</DistanceMeters>
          </Trackpoint>
          <Trackpoint>
            <Time>2018-06-21T07:28:26.000Z</Time>
            <Position>
              <LatitudeDegrees>41.739195249974727630615234375</LatitudeDegrees>
              <LongitudeDegrees>1.773726381361484527587890625</LongitudeDegrees>
            </Position>
            <AltitudeMeters>352.600006103515625</AltitudeMeters>
            <DistanceMeters>511.3512006559</DistanceMeters>
          </Trackpoint>
          <Trackpoint>
            <Time>2018-06-21T07:28:31.000Z</Time>
            <Position>
              <LatitudeDegrees>41.73922844231128692626953125</LatitudeDegrees>
              <LongitudeDegrees>1.7736722342669963836669921875</LongitudeDegrees>
            </Position>
            <AltitudeMeters>353.20001220703125</AltitudeMeters>
            <DistanceMeters>517.17037470939</DistanceMeters>
          </Trackpoint>
          <Trackpoint>
            <Time>2018-06-21T07:28:36.000Z</Time>
            <Position>
              <LatitudeDegrees>41.73927295021712779998779296875</LatitudeDegrees>
              <LongitudeDegrees>1.77361465059220790863037109375</LongitudeDegrees>
            </Position>
            <AltitudeMeters>354.20001220703125</AltitudeMeters>
            <DistanceMeters>524.05702567221</DistanceMeters>
          </Trackpoint>
          <Trackpoint>
            <Time>2018-06-21T07:28:41.000Z</Time>
            <Position>
              <LatitudeDegrees>41.73930916003882884979248046875</LatitudeDegrees>
              <LongitudeDegrees>1.77354323677718639373779296875</LongitudeDegrees>
            </Position>
            <AltitudeMeters>355</AltitudeMeters>
            <DistanceMeters>531.22760830348</DistanceMeters>
          </Trackpoint>
          <Trackpoint>
            <Time>2018-06-21T07:28:48.000Z</Time>
            <Position>
              <LatitudeDegrees>41.7393764667212963104248046875</LatitudeDegrees>
              <LongitudeDegrees>1.773446761071681976318359375</LongitudeDegrees>
            </Position>
            <AltitudeMeters>355.600006103515625</AltitudeMeters>
            <DistanceMeters>542.19691861068</DistanceMeters>
          </Trackpoint>
          <Trackpoint>
            <Time>2018-06-21T07:28:53.000Z</Time>
            <Position>
              <LatitudeDegrees>41.7394391633570194244384765625</LatitudeDegrees>
              <LongitudeDegrees>1.7734147422015666961669921875</LongitudeDegrees>
            </Position>
            <AltitudeMeters>356.79998779296875</AltitudeMeters>
            <DistanceMeters>549.66483345472</DistanceMeters>
          </Trackpoint>
          <Trackpoint>
            <Time>2018-06-21T07:28:55.000Z</Time>
            <Position>
              <LatitudeDegrees>41.7394589446485042572021484375</LatitudeDegrees>
              <LongitudeDegrees>1.77340845577418804168701171875</LongitudeDegrees>
            </Position>
            <AltitudeMeters>357.399993896484375</AltitudeMeters>
            <DistanceMeters>551.9275869419</DistanceMeters>
          </Trackpoint>
          <Trackpoint>
            <Time>2018-06-21T07:29:01.000Z</Time>
            <Position>
              <LatitudeDegrees>41.7395172826945781707763671875</LatitudeDegrees>
              <LongitudeDegrees>1.77341046743094921112060546875</LongitudeDegrees>
            </Position>
            <AltitudeMeters>359.20001220703125</AltitudeMeters>
            <DistanceMeters>558.42285576976</DistanceMeters>
          </Trackpoint>
          <Trackpoint>
            <Time>2018-06-21T07:29:08.000Z</Time>
            <Position>
              <LatitudeDegrees>41.73958676867187023162841796875</LatitudeDegrees>
              <LongitudeDegrees>1.7733949609100818634033203125</LongitudeDegrees>
            </Position>
            <AltitudeMeters>361</AltitudeMeters>
            <DistanceMeters>566.2635674996</DistanceMeters>
          </Trackpoint>
          <Trackpoint>
            <Time>2018-06-21T07:29:15.000Z</Time>
            <Position>
              <LatitudeDegrees>41.7396721802651882171630859375</LatitudeDegrees>
              <LongitudeDegrees>1.773421950638294219970703125</LongitudeDegrees>
            </Position>
            <AltitudeMeters>364</AltitudeMeters>
            <DistanceMeters>576.03053875756</DistanceMeters>
          </Trackpoint>
          <Trackpoint>
            <Time>2018-06-21T07:29:22.000Z</Time>
            <Position>
              <LatitudeDegrees>41.73976086080074310302734375</LatitudeDegrees>
              <LongitudeDegrees>1.77341717295348644256591796875</LongitudeDegrees>
            </Position>
            <AltitudeMeters>366.600006103515625</AltitudeMeters>
            <DistanceMeters>585.90874740354</DistanceMeters>
          </Trackpoint>
          <Trackpoint>
            <Time>2018-06-21T07:29:26.000Z</Time>
            <Position>
              <LatitudeDegrees>41.739813499152660369873046875</LatitudeDegrees>
              <LongitudeDegrees>1.7734234593808650970458984375</LongitudeDegrees>
            </Position>
            <AltitudeMeters>368.20001220703125</AltitudeMeters>
            <DistanceMeters>591.7912003726</DistanceMeters>
          </Trackpoint>
          <Trackpoint>
            <Time>2018-06-21T07:29:27.000Z</Time>
            <Position>
              <LatitudeDegrees>41.73982925713062286376953125</LatitudeDegrees>
              <LongitudeDegrees>1.77342555485665798187255859375</LongitudeDegrees>
            </Position>
            <AltitudeMeters>368.79998779296875</AltitudeMeters>
            <DistanceMeters>593.5536833645</DistanceMeters>
          </Trackpoint>
          <Trackpoint>
            <Time>2018-06-21T07:29:32.000Z</Time>
            <Position>
              <LatitudeDegrees>41.73989756964147090911865234375</LatitudeDegrees>
              <LongitudeDegrees>1.77344508469104766845703125</LongitudeDegrees>
            </Position>
            <AltitudeMeters>371.399993896484375</AltitudeMeters>
            <DistanceMeters>601.32847157485</DistanceMeters>
          </Trackpoint>
          <Trackpoint>
            <Time>2018-06-21T07:29:34.000Z</Time>
            <Position>
              <LatitudeDegrees>41.73991885967552661895751953125</LatitudeDegrees>
              <LongitudeDegrees>1.77345505915582180023193359375</LongitudeDegrees>
            </Position>
            <AltitudeMeters>372.399993896484375</AltitudeMeters>
            <DistanceMeters>603.8390478748</DistanceMeters>
          </Trackpoint>
          <Trackpoint>
            <Time>2018-06-21T07:29:42.000Z</Time>
            <Position>
              <LatitudeDegrees>41.740003265440464019775390625</LatitudeDegrees>
              <LongitudeDegrees>1.7734251357614994049072265625</LongitudeDegrees>
            </Position>
            <AltitudeMeters>375</AltitudeMeters>
            <DistanceMeters>613.5568943158</DistanceMeters>
          </Trackpoint>
          <Trackpoint>
            <Time>2018-06-21T07:29:43.000Z</Time>
            <Position>
              <LatitudeDegrees>41.74001927487552165985107421875</LatitudeDegrees>
              <LongitudeDegrees>1.77341415546834468841552734375</LongitudeDegrees>
            </Position>
            <AltitudeMeters>375.20001220703125</AltitudeMeters>
            <DistanceMeters>615.55923143555</DistanceMeters>
          </Trackpoint>
          <Trackpoint>
            <Time>2018-06-21T07:29:48.000Z</Time>
            <Position>
              <LatitudeDegrees>41.740069650113582611083984375</LatitudeDegrees>
              <LongitudeDegrees>1.77343209274113178253173828125</LongitudeDegrees>
            </Position>
            <AltitudeMeters>377.600006103515625</AltitudeMeters>
            <DistanceMeters>621.36131080273</DistanceMeters>
          </Trackpoint>
          <Trackpoint>
            <Time>2018-06-21T07:29:53.000Z</Time>
            <Position>
              <LatitudeDegrees>41.74012237228453159332275390625</LatitudeDegrees>
              <LongitudeDegrees>1.7734509520232677459716796875</LongitudeDegrees>
            </Position>
            <AltitudeMeters>379.79998779296875</AltitudeMeters>
            <DistanceMeters>627.43559202358</DistanceMeters>
          </Trackpoint>
          <Trackpoint>
            <Time>2018-06-21T07:29:55.000Z</Time>
            <Position>
              <LatitudeDegrees>41.740142069756984710693359375</LatitudeDegrees>
              <LongitudeDegrees>1.77345656789839267730712890625</LongitudeDegrees>
            </Position>
            <AltitudeMeters>380.399993896484375</AltitudeMeters>
            <DistanceMeters>629.67628890242</DistanceMeters>
          </Trackpoint>
          <Trackpoint>
            <Time>2018-06-21T07:29:59.000Z</Time>
            <Position>
              <LatitudeDegrees>41.74018506892025470733642578125</LatitudeDegrees>
              <LongitudeDegrees>1.77346788346767425537109375</LongitudeDegrees>
            </Position>
            <AltitudeMeters>381.79998779296875</AltitudeMeters>
            <DistanceMeters>634.55329837067</DistanceMeters>
          </Trackpoint>
          <Trackpoint>
            <Time>2018-06-21T07:30:06.000Z</Time>
            <Position>
              <LatitudeDegrees>41.74027626402676105499267578125</LatitudeDegrees>
              <LongitudeDegrees>1.77348389290273189544677734375</LongitudeDegrees>
            </Position>
            <AltitudeMeters>384.600006103515625</AltitudeMeters>
            <DistanceMeters>644.79019424452</DistanceMeters>
          </Trackpoint>
          <Trackpoint>
            <Time>2018-06-21T07:30:10.000Z</Time>
            <Position>
              <LatitudeDegrees>41.7403185926377773284912109375</LatitudeDegrees>
              <LongitudeDegrees>1.77347534336149692535400390625</LongitudeDegrees>
            </Position>
            <AltitudeMeters>385.399993896484375</AltitudeMeters>
            <DistanceMeters>649.55481512977</DistanceMeters>
          </Trackpoint>
          <Trackpoint>
            <Time>2018-06-21T07:30:12.000Z</Time>
            <Position>
              <LatitudeDegrees>41.74034248106181621551513671875</LatitudeDegrees>
              <LongitudeDegrees>1.77347668446600437164306640625</LongitudeDegrees>
            </Position>
            <AltitudeMeters>386</AltitudeMeters>
            <DistanceMeters>652.21556313213</DistanceMeters>
          </Trackpoint>
          <Trackpoint>
            <Time>2018-06-21T07:30:18.000Z</Time>
            <Position>
              <LatitudeDegrees>41.74040316604077816009521484375</LatitudeDegrees>
              <LongitudeDegrees>1.77345179021358489990234375</LongitudeDegrees>
            </Position>
            <AltitudeMeters>386.79998779296875</AltitudeMeters>
            <DistanceMeters>659.27893147541</DistanceMeters>
          </Trackpoint>
          <Trackpoint>
            <Time>2018-06-21T07:30:26.000Z</Time>
            <Position>
              <LatitudeDegrees>41.7404855601489543914794921875</LatitudeDegrees>
              <LongitudeDegrees>1.77344114519655704498291015625</LongitudeDegrees>
            </Position>
            <AltitudeMeters>388.600006103515625</AltitudeMeters>
            <DistanceMeters>668.49211325876</DistanceMeters>
          </Trackpoint>
          <Trackpoint>
            <Time>2018-06-21T07:30:32.000Z</Time>
            <Position>
              <LatitudeDegrees>41.740561164915561676025390625</LatitudeDegrees>
              <LongitudeDegrees>1.77342203445732593536376953125</LongitudeDegrees>
            </Position>
            <AltitudeMeters>389.79998779296875</AltitudeMeters>
            <DistanceMeters>677.05506956631</DistanceMeters>
          </Trackpoint>
          <Trackpoint>
            <Time>2018-06-21T07:30:37.000Z</Time>
            <Position>
              <LatitudeDegrees>41.74060919322073459625244140625</LatitudeDegrees>
              <LongitudeDegrees>1.7734194360673427581787109375</LongitudeDegrees>
            </Position>
            <AltitudeMeters>391</AltitudeMeters>
            <DistanceMeters>682.40449124074</DistanceMeters>
          </Trackpoint>
          <Trackpoint>
            <Time>2018-06-21T07:30:40.000Z</Time>
            <Position>
              <LatitudeDegrees>41.74062545411288738250732421875</LatitudeDegrees>
              <LongitudeDegrees>1.7733882553875446319580078125</LongitudeDegrees>
            </Position>
            <AltitudeMeters>390.399993896484375</AltitudeMeters>
            <DistanceMeters>685.56475460746</DistanceMeters>
          </Trackpoint>
          <Trackpoint>
            <Time>2018-06-21T07:30:43.000Z</Time>
            <Position>
              <LatitudeDegrees>41.74065965227782726287841796875</LatitudeDegrees>
              <LongitudeDegrees>1.7733815498650074005126953125</LongitudeDegrees>
            </Position>
            <AltitudeMeters>391</AltitudeMeters>
            <DistanceMeters>689.41304323594</DistanceMeters>
          </Trackpoint>
          <Trackpoint>
            <Time>2018-06-21T07:30:49.000Z</Time>
            <Position>
              <LatitudeDegrees>41.7407336644828319549560546875</LatitudeDegrees>
              <LongitudeDegrees>1.7733513750135898590087890625</LongitudeDegrees>
            </Position>
            <AltitudeMeters>392.399993896484375</AltitudeMeters>
            <DistanceMeters>698.02332358009</DistanceMeters>
          </Trackpoint>
          <Trackpoint>
            <Time>2018-06-21T07:30:58.000Z</Time>
            <Position>
              <LatitudeDegrees>41.7408355884253978729248046875</LatitudeDegrees>
              <LongitudeDegrees>1.7732997424900531768798828125</LongitudeDegrees>
            </Position>
            <AltitudeMeters>395</AltitudeMeters>
            <DistanceMeters>710.15105564833</DistanceMeters>
          </Trackpoint>
          <Trackpoint>
            <Time>2018-06-21T07:31:02.000Z</Time>
            <Position>
              <LatitudeDegrees>41.7408704571425914764404296875</LatitudeDegrees>
              <LongitudeDegrees>1.77326914854347705841064453125</LongitudeDegrees>
            </Position>
            <AltitudeMeters>395.600006103515625</AltitudeMeters>
            <DistanceMeters>714.78987793055</DistanceMeters>
          </Trackpoint>
          <Trackpoint>
            <Time>2018-06-21T07:31:06.000Z</Time>
            <Position>
              <LatitudeDegrees>41.7409066669642925262451171875</LatitudeDegrees>
              <LongitudeDegrees>1.77323696203529834747314453125</LongitudeDegrees>
            </Position>
            <AltitudeMeters>396.399993896484375</AltitudeMeters>
            <DistanceMeters>719.6259815264</DistanceMeters>
          </Trackpoint>
          <Trackpoint>
            <Time>2018-06-21T07:31:08.000Z</Time>
            <Position>
              <LatitudeDegrees>41.74092586152255535125732421875</LatitudeDegrees>
              <LongitudeDegrees>1.77322053350508213043212890625</LongitudeDegrees>
            </Position>
            <AltitudeMeters>397</AltitudeMeters>
            <DistanceMeters>722.16161052689</DistanceMeters>
          </Trackpoint>
          <Trackpoint>
            <Time>2018-06-21T07:31:13.000Z</Time>
            <Position>
              <LatitudeDegrees>41.7409599758684635162353515625</LatitudeDegrees>
              <LongitudeDegrees>1.773155741393566131591796875</LongitudeDegrees>
            </Position>
            <AltitudeMeters>397.20001220703125</AltitudeMeters>
            <DistanceMeters>728.74799703519</DistanceMeters>
          </Trackpoint>
          <Trackpoint>
            <Time>2018-06-21T07:31:17.000Z</Time>
            <Position>
              <LatitudeDegrees>41.74097858369350433349609375</LatitudeDegrees>
              <LongitudeDegrees>1.7731136642396450042724609375</LongitudeDegrees>
            </Position>
            <AltitudeMeters>397.20001220703125</AltitudeMeters>
            <DistanceMeters>732.80976385064</DistanceMeters>
          </Trackpoint>
          <Trackpoint>
            <Time>2018-06-21T07:31:23.000Z</Time>
            <Position>
              <LatitudeDegrees>41.74101219512522220611572265625</LatitudeDegrees>
              <LongitudeDegrees>1.7730167694389820098876953125</LongitudeDegrees>
            </Position>
            <AltitudeMeters>396.79998779296875</AltitudeMeters>
            <DistanceMeters>741.68344778637</DistanceMeters>
          </Trackpoint>
          <Trackpoint>
            <Time>2018-06-21T07:31:26.000Z</Time>
            <Position>
              <LatitudeDegrees>41.7410206608474254608154296875</LatitudeDegrees>
              <LongitudeDegrees>1.77296455018222332000732421875</LongitudeDegrees>
            </Position>
            <AltitudeMeters>396.20001220703125</AltitudeMeters>
            <DistanceMeters>746.12130726187</DistanceMeters>
          </Trackpoint>
          <Trackpoint>
            <Time>2018-06-21T07:31:32.000Z</Time>
            <Position>
              <LatitudeDegrees>41.7410394363105297088623046875</LatitudeDegrees>
              <LongitudeDegrees>1.77287645637989044189453125</LongitudeDegrees>
            </Position>
            <AltitudeMeters>395.399993896484375</AltitudeMeters>
            <DistanceMeters>753.72938126294</DistanceMeters>
          </Trackpoint>
          <Trackpoint>
            <Time>2018-06-21T07:31:33.000Z</Time>
            <Position>
              <LatitudeDegrees>41.74103985540568828582763671875</LatitudeDegrees>
              <LongitudeDegrees>1.7728610336780548095703125</LongitudeDegrees>
            </Position>
            <AltitudeMeters>395</AltitudeMeters>
            <DistanceMeters>755.011361728</DistanceMeters>
          </Trackpoint>
          <Trackpoint>
            <Time>2018-06-21T07:31:41.000Z</Time>
            <Position>
              <LatitudeDegrees>41.7410665936768054962158203125</LatitudeDegrees>
              <LongitudeDegrees>1.7727354727685451507568359375</LongitudeDegrees>
            </Position>
            <AltitudeMeters>393.79998779296875</AltitudeMeters>
            <DistanceMeters>765.855654491</DistanceMeters>
          </Trackpoint>
          <Trackpoint>
            <Time>2018-06-21T07:31:48.000Z</Time>
            <Position>
              <LatitudeDegrees>41.74107036553323268890380859375</LatitudeDegrees>
              <LongitudeDegrees>1.77263178862631320953369140625</LongitudeDegrees>
            </Position>
            <AltitudeMeters>392.20001220703125</AltitudeMeters>
            <DistanceMeters>774.47693973221</DistanceMeters>
          </Trackpoint>
          <Trackpoint>
            <Time>2018-06-21T07:31:55.000Z</Time>
            <Position>
              <LatitudeDegrees>41.74106734804809093475341796875</LatitudeDegrees>
              <LongitudeDegrees>1.77250958047807216644287109375</LongitudeDegrees>
            </Position>
            <AltitudeMeters>390</AltitudeMeters>
            <DistanceMeters>784.63146792969</DistanceMeters>
          </Trackpoint>
          <Trackpoint>
            <Time>2018-06-21T07:31:56.000Z</Time>
            <Position>
              <LatitudeDegrees>41.74106449820101261138916015625</LatitudeDegrees>
              <LongitudeDegrees>1.77249399013817310333251953125</LongitudeDegrees>
            </Position>
            <AltitudeMeters>389.600006103515625</AltitudeMeters>
            <DistanceMeters>785.96184193087</DistanceMeters>
          </Trackpoint>
          <Trackpoint>
            <Time>2018-06-21T07:32:00.000Z</Time>
            <Position>
              <LatitudeDegrees>41.74106466583907604217529296875</LatitudeDegrees>
              <LongitudeDegrees>1.77242986857891082763671875</LongitudeDegrees>
            </Position>
            <AltitudeMeters>388.600006103515625</AltitudeMeters>
            <DistanceMeters>791.28757851002</DistanceMeters>
          </Trackpoint>
          <Trackpoint>
            <Time>2018-06-21T07:32:04.000Z</Time>
            <Position>
              <LatitudeDegrees>41.741062067449092864990234375</LatitudeDegrees>
              <LongitudeDegrees>1.77236759103834629058837890625</LongitudeDegrees>
            </Position>
            <AltitudeMeters>387.399993896484375</AltitudeMeters>
            <DistanceMeters>796.4689313515</DistanceMeters>
          </Trackpoint>
          <Trackpoint>
            <Time>2018-06-21T07:32:09.000Z</Time>
            <Position>
              <LatitudeDegrees>41.7411054857075214385986328125</LatitudeDegrees>
              <LongitudeDegrees>1.77231528796255588531494140625</LongitudeDegrees>
            </Position>
            <AltitudeMeters>388.79998779296875</AltitudeMeters>
            <DistanceMeters>802.96767488609</DistanceMeters>
          </Trackpoint>
          <Trackpoint>
            <Time>2018-06-21T07:32:15.000Z</Time>
            <Position>
              <LatitudeDegrees>41.74117027781903743743896484375</LatitudeDegrees>
              <LongitudeDegrees>1.772283352911472320556640625</LongitudeDegrees>
            </Position>
            <AltitudeMeters>391.399993896484375</AltitudeMeters>
            <DistanceMeters>810.6513354584</DistanceMeters>
          </Trackpoint>
          <Trackpoint>
            <Time>2018-06-21T07:32:19.000Z</Time>
            <Position>
              <LatitudeDegrees>41.741214953362941741943359375</LatitudeDegrees>
              <LongitudeDegrees>1.77226063795387744903564453125</LongitudeDegrees>
            </Position>
            <AltitudeMeters>393</AltitudeMeters>
            <DistanceMeters>815.96943656899</DistanceMeters>
          </Trackpoint>
          <Trackpoint>
            <Time>2018-06-21T07:32:23.000Z</Time>
            <Position>
              <LatitudeDegrees>41.7412429489195346832275390625</LatitudeDegrees>
              <LongitudeDegrees>1.7722771503031253814697265625</LongitudeDegrees>
            </Position>
            <AltitudeMeters>394.600006103515625</AltitudeMeters>
            <DistanceMeters>819.37319744156</DistanceMeters>
          </Trackpoint>
          <Trackpoint>
            <Time>2018-06-21T07:32:29.000Z</Time>
            <Position>
              <LatitudeDegrees>41.741245798766613006591796875</LatitudeDegrees>
              <LongitudeDegrees>1.77235116250813007354736328125</LongitudeDegrees>
            </Position>
            <AltitudeMeters>395.79998779296875</AltitudeMeters>
            <DistanceMeters>825.52796556736</DistanceMeters>
          </Trackpoint>
          <Trackpoint>
            <Time>2018-06-21T07:32:34.000Z</Time>
            <Position>
              <LatitudeDegrees>41.74128837883472442626953125</LatitudeDegrees>
              <LongitudeDegrees>1.772387959063053131103515625</LongitudeDegrees>
            </Position>
            <AltitudeMeters>398.399993896484375</AltitudeMeters>
            <DistanceMeters>831.16746281761</DistanceMeters>
          </Trackpoint>
          <Trackpoint>
            <Time>2018-06-21T07:32:39.000Z</Time>
            <Position>
              <LatitudeDegrees>41.74134897999465465545654296875</LatitudeDegrees>
              <LongitudeDegrees>1.7723844386637210845947265625</LongitudeDegrees>
            </Position>
            <AltitudeMeters>401.20001220703125</AltitudeMeters>
            <DistanceMeters>837.91837355711</DistanceMeters>
          </Trackpoint>
          <Trackpoint>
            <Time>2018-06-21T07:32:43.000Z</Time>
            <Position>
              <LatitudeDegrees>41.7413810826838016510009765625</LatitudeDegrees>
              <LongitudeDegrees>1.77238267846405506134033203125</LongitudeDegrees>
            </Position>
            <AltitudeMeters>402.600006103515625</AltitudeMeters>
            <DistanceMeters>841.49294460385</DistanceMeters>
          </Trackpoint>
          <Trackpoint>
            <Time>2018-06-21T07:32:45.000Z</Time>
            <Position>
              <LatitudeDegrees>41.74141804687678813934326171875</LatitudeDegrees>
              <LongitudeDegrees>1.7723703570663928985595703125</LongitudeDegrees>
            </Position>
            <AltitudeMeters>404.20001220703125</AltitudeMeters>
            <DistanceMeters>845.7320308407</DistanceMeters>
          </Trackpoint>
          <Trackpoint>
            <Time>2018-06-21T07:32:49.000Z</Time>
            <Position>
              <LatitudeDegrees>41.74147236160933971405029296875</LatitudeDegrees>
              <LongitudeDegrees>1.772368848323822021484375</LongitudeDegrees>
            </Position>
            <AltitudeMeters>406.600006103515625</AltitudeMeters>
            <DistanceMeters>851.77874726547</DistanceMeters>
          </Trackpoint>
          <Trackpoint>
            <Time>2018-06-21T07:32:53.000Z</Time>
            <Position>
              <LatitudeDegrees>41.74152365885674953460693359375</LatitudeDegrees>
              <LongitudeDegrees>1.77235116250813007354736328125</LongitudeDegrees>
            </Position>
            <AltitudeMeters>408.600006103515625</AltitudeMeters>
            <DistanceMeters>857.67423403357</DistanceMeters>
          </Trackpoint>
          <Trackpoint>
            <Time>2018-06-21T07:33:00.000Z</Time>
            <Position>
              <LatitudeDegrees>41.7416013590991497039794921875</LatitudeDegrees>
              <LongitudeDegrees>1.772308163344860076904296875</LongitudeDegrees>
            </Position>
            <AltitudeMeters>410.79998779296875</AltitudeMeters>
            <DistanceMeters>867.03038500753</DistanceMeters>
          </Trackpoint>
          <Trackpoint>
            <Time>2018-06-21T07:33:03.000Z</Time>
            <Position>
              <LatitudeDegrees>41.74162843264639377593994140625</LatitudeDegrees>
              <LongitudeDegrees>1.77229315973818302154541015625</LongitudeDegrees>
            </Position>
            <AltitudeMeters>411.600006103515625</AltitudeMeters>
            <DistanceMeters>870.28912247749</DistanceMeters>
          </Trackpoint>
          <Trackpoint>
            <Time>2018-06-21T07:33:11.000Z</Time>
            <Position>
              <LatitudeDegrees>41.7417176999151706695556640625</LatitudeDegrees>
              <LongitudeDegrees>1.77222476340830326080322265625</LongitudeDegrees>
            </Position>
            <AltitudeMeters>413.600006103515625</AltitudeMeters>
            <DistanceMeters>881.73343236246</DistanceMeters>
          </Trackpoint>
          <Trackpoint>
            <Time>2018-06-21T07:33:18.000Z</Time>
            <Position>
              <LatitudeDegrees>41.74178467132151126861572265625</LatitudeDegrees>
              <LongitudeDegrees>1.77217765711247920989990234375</LongitudeDegrees>
            </Position>
            <AltitudeMeters>415.399993896484375</AltitudeMeters>
            <DistanceMeters>890.15228442248</DistanceMeters>
          </Trackpoint>
          <Trackpoint>
            <Time>2018-06-21T07:33:21.000Z</Time>
            <Position>
              <LatitudeDegrees>41.74181166104972362518310546875</LatitudeDegrees>
              <LongitudeDegrees>1.77218419499695301055908203125</LongitudeDegrees>
            </Position>
            <AltitudeMeters>416.79998779296875</AltitudeMeters>
            <DistanceMeters>893.20795113256</DistanceMeters>
          </Trackpoint>
          <Trackpoint>
            <Time>2018-06-21T07:33:26.000Z</Time>
            <Position>
              <LatitudeDegrees>41.7417825758457183837890625</LatitudeDegrees>
              <LongitudeDegrees>1.77225745283067226409912109375</LongitudeDegrees>
            </Position>
            <AltitudeMeters>417.600006103515625</AltitudeMeters>
            <DistanceMeters>900.09984507364</DistanceMeters>
          </Trackpoint>
          <Trackpoint>
            <Time>2018-06-21T07:33:34.000Z</Time>
            <Position>
              <LatitudeDegrees>41.74169716425240039825439453125</LatitudeDegrees>
              <LongitudeDegrees>1.77234403789043426513671875</LongitudeDegrees>
            </Position>
            <AltitudeMeters>416.20001220703125</AltitudeMeters>
            <DistanceMeters>912.0195440115</DistanceMeters>
          </Trackpoint>
          <Trackpoint>
            <Time>2018-06-21T07:33:41.000Z</Time>
            <Position>
              <LatitudeDegrees>41.74164419062435626983642578125</LatitudeDegrees>
              <LongitudeDegrees>1.77242986857891082763671875</LongitudeDegrees>
            </Position>
            <AltitudeMeters>416.600006103515625</AltitudeMeters>
            <DistanceMeters>921.26989559309</DistanceMeters>
          </Trackpoint>
          <Trackpoint>
            <Time>2018-06-21T07:33:42.000Z</Time>
            <Position>
              <LatitudeDegrees>41.7416365630924701690673828125</LatitudeDegrees>
              <LongitudeDegrees>1.77244286052882671356201171875</LongitudeDegrees>
            </Position>
            <AltitudeMeters>416.600006103515625</AltitudeMeters>
            <DistanceMeters>922.64696351198</DistanceMeters>
          </Trackpoint>
          <Trackpoint>
            <Time>2018-06-21T07:33:47.000Z</Time>
            <Position>
              <LatitudeDegrees>41.74157814122736454010009765625</LatitudeDegrees>
              <LongitudeDegrees>1.77248443476855754852294921875</LongitudeDegrees>
            </Position>
            <AltitudeMeters>414.20001220703125</AltitudeMeters>
            <DistanceMeters>930.00892784336</DistanceMeters>
          </Trackpoint>
          <Trackpoint>
            <Time>2018-06-21T07:33:51.000Z</Time>
            <Position>
              <LatitudeDegrees>41.74152986146509647369384765625</LatitudeDegrees>
              <LongitudeDegrees>1.77251209504902362823486328125</LongitudeDegrees>
            </Position>
            <AltitudeMeters>411.79998779296875</AltitudeMeters>
            <DistanceMeters>935.85365017958</DistanceMeters>
          </Trackpoint>
          <Trackpoint>
            <Time>2018-06-21T07:33:58.000Z</Time>
            <Position>
              <LatitudeDegrees>41.74145828001201152801513671875</LatitudeDegrees>
              <LongitudeDegrees>1.7726040445268154144287109375</LongitudeDegrees>
            </Position>
            <AltitudeMeters>410</AltitudeMeters>
            <DistanceMeters>946.88984839618</DistanceMeters>
          </Trackpoint>
          <Trackpoint>
            <Time>2018-06-21T07:34:03.000Z</Time>
            <Position>
              <LatitudeDegrees>41.74141234718263149261474609375</LatitudeDegrees>
              <LongitudeDegrees>1.7726603709161281585693359375</LongitudeDegrees>
            </Position>
            <AltitudeMeters>408.79998779296875</AltitudeMeters>
            <DistanceMeters>953.81963529976</DistanceMeters>
          </Trackpoint>
          <Trackpoint>
            <Time>2018-06-21T07:34:05.000Z</Time>
            <Position>
              <LatitudeDegrees>41.7414204776287078857421875</LatitudeDegrees>
              <LongitudeDegrees>1.77268509753048419952392578125</LongitudeDegrees>
            </Position>
            <AltitudeMeters>409.600006103515625</AltitudeMeters>
            <DistanceMeters>956.06435859133</DistanceMeters>
          </Trackpoint>
          <Trackpoint>
            <Time>2018-06-21T07:34:09.000Z</Time>
            <Position>
              <LatitudeDegrees>41.741428859531879425048828125</LatitudeDegrees>
              <LongitudeDegrees>1.77272449247539043426513671875</LongitudeDegrees>
            </Position>
            <AltitudeMeters>410.600006103515625</AltitudeMeters>
            <DistanceMeters>959.46546545891</DistanceMeters>
          </Trackpoint>
          <Trackpoint>
            <Time>2018-06-21T07:34:15.000Z</Time>
            <Position>
              <LatitudeDegrees>41.7414655722677707672119140625</LatitudeDegrees>
              <LongitudeDegrees>1.77277495153248310089111328125</LongitudeDegrees>
            </Position>
            <AltitudeMeters>413.20001220703125</AltitudeMeters>
            <DistanceMeters>965.31867910855</DistanceMeters>
          </Trackpoint>
          <Trackpoint>
            <Time>2018-06-21T07:34:21.000Z</Time>
            <Position>
              <LatitudeDegrees>41.74149197526276111602783203125</LatitudeDegrees>
              <LongitudeDegrees>1.7728179506957530975341796875</LongitudeDegrees>
            </Position>
            <AltitudeMeters>415.20001220703125</AltitudeMeters>
            <DistanceMeters>969.94385489934</DistanceMeters>
          </Trackpoint>
          <Trackpoint>
            <Time>2018-06-21T07:34:27.000Z</Time>
            <Position>
              <LatitudeDegrees>41.741530783474445343017578125</LatitudeDegrees>
              <LongitudeDegrees>1.7728610336780548095703125</LongitudeDegrees>
            </Position>
            <AltitudeMeters>417.600006103515625</AltitudeMeters>
            <DistanceMeters>975.55204143817</DistanceMeters>
          </Trackpoint>
          <Trackpoint>
            <Time>2018-06-21T07:34:31.000Z</Time>
            <Position>
              <LatitudeDegrees>41.74156707711517810821533203125</LatitudeDegrees>
              <LongitudeDegrees>1.7728682421147823333740234375</LongitudeDegrees>
            </Position>
            <AltitudeMeters>419.79998779296875</AltitudeMeters>
            <DistanceMeters>979.63597963457</DistanceMeters>
          </Trackpoint>
          <Trackpoint>
            <Time>2018-06-21T07:34:35.000Z</Time>
            <Position>
              <LatitudeDegrees>41.74159415066242218017578125</LatitudeDegrees>
              <LongitudeDegrees>1.7728985846042633056640625</LongitudeDegrees>
            </Position>
            <AltitudeMeters>422</AltitudeMeters>
            <DistanceMeters>983.56438906368</DistanceMeters>
          </Trackpoint>
          <Trackpoint>
            <Time>2018-06-21T07:34:42.000Z</Time>
            <Position>
              <LatitudeDegrees>41.74164519645273685455322265625</LatitudeDegrees>
              <LongitudeDegrees>1.77292448468506336212158203125</LongitudeDegrees>
            </Position>
            <AltitudeMeters>425.600006103515625</AltitudeMeters>
            <DistanceMeters>989.64015671089</DistanceMeters>
          </Trackpoint>
          <Trackpoint>
            <Time>2018-06-21T07:34:47.000Z</Time>
            <Position>
              <LatitudeDegrees>41.74167587421834468841552734375</LatitudeDegrees>
              <LongitudeDegrees>1.7729171924293041229248046875</LongitudeDegrees>
            </Position>
            <AltitudeMeters>427.399993896484375</AltitudeMeters>
            <DistanceMeters>993.10960794989</DistanceMeters>
          </Trackpoint>
          <Trackpoint>
            <Time>2018-06-21T07:34:53.000Z</Time>
            <Position>
              <LatitudeDegrees>41.74173119477927684783935546875</LatitudeDegrees>
              <LongitudeDegrees>1.7729181982576847076416015625</LongitudeDegrees>
            </Position>
            <AltitudeMeters>431</AltitudeMeters>
            <DistanceMeters>999.26804290242</DistanceMeters>
          </Trackpoint>
          <Trackpoint>
            <Time>2018-06-21T07:34:58.000Z</Time>
            <Position>
              <LatitudeDegrees>41.74176438711583614349365234375</LatitudeDegrees>
              <LongitudeDegrees>1.7729168571531772613525390625</LongitudeDegrees>
            </Position>
            <AltitudeMeters>433</AltitudeMeters>
            <DistanceMeters>1002.9631038739</DistanceMeters>
          </Trackpoint>
          <Trackpoint>
            <Time>2018-06-21T07:35:03.000Z</Time>
            <Position>
              <LatitudeDegrees>41.7417971603572368621826171875</LatitudeDegrees>
              <LongitudeDegrees>1.77293487824499607086181640625</LongitudeDegrees>
            </Position>
            <AltitudeMeters>435.399993896484375</AltitudeMeters>
            <DistanceMeters>1006.9064262849</DistanceMeters>
          </Trackpoint>
          <Trackpoint>
            <Time>2018-06-21T07:35:09.000Z</Time>
            <Position>
              <LatitudeDegrees>41.7417934723198413848876953125</LatitudeDegrees>
              <LongitudeDegrees>1.77300947718322277069091796875</LongitudeDegrees>
            </Position>
            <AltitudeMeters>436.399993896484375</AltitudeMeters>
            <DistanceMeters>1013.1145150618</DistanceMeters>
          </Trackpoint>
          <Trackpoint>
            <Time>2018-06-21T07:35:11.000Z</Time>
            <Position>
              <LatitudeDegrees>41.74179288558661937713623046875</LatitudeDegrees>
              <LongitudeDegrees>1.77304266951978206634521484375</LongitudeDegrees>
            </Position>
            <AltitudeMeters>436.79998779296875</AltitudeMeters>
            <DistanceMeters>1015.8719276835</DistanceMeters>
          </Trackpoint>
          <Trackpoint>
            <Time>2018-06-21T07:35:14.000Z</Time>
            <Position>
              <LatitudeDegrees>41.74180763773620128631591796875</LatitudeDegrees>
              <LongitudeDegrees>1.773093044757843017578125</LongitudeDegrees>
            </Position>
            <AltitudeMeters>438.600006103515625</AltitudeMeters>
            <DistanceMeters>1020.3663999556</DistanceMeters>
          </Trackpoint>
          <Trackpoint>
            <Time>2018-06-21T07:35:23.000Z</Time>
            <Position>
              <LatitudeDegrees>41.74182347953319549560546875</LatitudeDegrees>
              <LongitudeDegrees>1.77323427982628345489501953125</LongitudeDegrees>
            </Position>
            <AltitudeMeters>442</AltitudeMeters>
            <DistanceMeters>1032.22762211</DistanceMeters>
          </Trackpoint>
          <Trackpoint>
            <Time>2018-06-21T07:35:29.000Z</Time>
            <Position>
              <LatitudeDegrees>41.74182725138962268829345703125</LatitudeDegrees>
              <LongitudeDegrees>1.7733285762369632720947265625</LongitudeDegrees>
            </Position>
            <AltitudeMeters>443.79998779296875</AltitudeMeters>
            <DistanceMeters>1040.0694854462</DistanceMeters>
          </Trackpoint>
          <Trackpoint>
            <Time>2018-06-21T07:35:32.000Z</Time>
            <Position>
              <LatitudeDegrees>41.741827167570590972900390625</LatitudeDegrees>
              <LongitudeDegrees>1.7733681388199329376220703125</LongitudeDegrees>
            </Position>
            <AltitudeMeters>444.399993896484375</AltitudeMeters>
            <DistanceMeters>1043.3530675259</DistanceMeters>
          </Trackpoint>
          <Trackpoint>
            <Time>2018-06-21T07:35:39.000Z</Time>
            <Position>
              <LatitudeDegrees>41.74184116534888744354248046875</LatitudeDegrees>
              <LongitudeDegrees>1.77346159704029560089111328125</LongitudeDegrees>
            </Position>
            <AltitudeMeters>446.600006103515625</AltitudeMeters>
            <DistanceMeters>1051.2688555754</DistanceMeters>
          </Trackpoint>
          <Trackpoint>
            <Time>2018-06-21T07:35:46.000Z</Time>
            <Position>
              <LatitudeDegrees>41.74186396412551403045654296875</LatitudeDegrees>
              <LongitudeDegrees>1.77353837527334690093994140625</LongitudeDegrees>
            </Position>
            <AltitudeMeters>449.20001220703125</AltitudeMeters>
            <DistanceMeters>1058.1312056579</DistanceMeters>
          </Trackpoint>
          <Trackpoint>
            <Time>2018-06-21T07:35:52.000Z</Time>
            <Position>
              <LatitudeDegrees>41.74189028330147266387939453125</LatitudeDegrees>
              <LongitudeDegrees>1.77362236194312572479248046875</LongitudeDegrees>
            </Position>
            <AltitudeMeters>452.79998779296875</AltitudeMeters>
            <DistanceMeters>1065.6958335024</DistanceMeters>
          </Trackpoint>
          <Trackpoint>
            <Time>2018-06-21T07:35:54.000Z</Time>
            <Position>
              <LatitudeDegrees>41.74190034158527851104736328125</LatitudeDegrees>
              <LongitudeDegrees>1.77364826202392578125</LongitudeDegrees>
            </Position>
            <AltitudeMeters>454</AltitudeMeters>
            <DistanceMeters>1068.1204117678</DistanceMeters>
          </Trackpoint>
          <Trackpoint>
            <Time>2018-06-21T07:36:00.000Z</Time>
            <Position>
              <LatitudeDegrees>41.74189849756658077239990234375</LatitudeDegrees>
              <LongitudeDegrees>1.77370869554579257965087890625</LongitudeDegrees>
            </Position>
            <AltitudeMeters>455.399993896484375</AltitudeMeters>
            <DistanceMeters>1073.1433624529</DistanceMeters>
          </Trackpoint>
          <Trackpoint>
            <Time>2018-06-21T07:36:06.000Z</Time>
            <Position>
              <LatitudeDegrees>41.74188315868377685546875</LatitudeDegrees>
              <LongitudeDegrees>1.77378044463694095611572265625</LongitudeDegrees>
            </Position>
            <AltitudeMeters>456.399993896484375</AltitudeMeters>
            <DistanceMeters>1079.3427176891</DistanceMeters>
          </Trackpoint>
          <Trackpoint>
            <Time>2018-06-21T07:36:13.000Z</Time>
            <Position>
              <LatitudeDegrees>41.741877458989620208740234375</LatitudeDegrees>
              <LongitudeDegrees>1.773883290588855743408203125</LongitudeDegrees>
            </Position>
            <AltitudeMeters>458.600006103515625</AltitudeMeters>
            <DistanceMeters>1087.9077828395</DistanceMeters>
          </Trackpoint>
          <Trackpoint>
            <Time>2018-06-21T07:36:18.000Z</Time>
            <Position>
              <LatitudeDegrees>41.7418764531612396240234375</LatitudeDegrees>
              <LongitudeDegrees>1.77396635524928569793701171875</LongitudeDegrees>
            </Position>
            <AltitudeMeters>460.79998779296875</AltitudeMeters>
            <DistanceMeters>1094.807533778</DistanceMeters>
          </Trackpoint>
          <Trackpoint>
            <Time>2018-06-21T07:36:19.000Z</Time>
            <Position>
              <LatitudeDegrees>41.74187846481800079345703125</LatitudeDegrees>
              <LongitudeDegrees>1.7739808559417724609375</LongitudeDegrees>
            </Position>
            <AltitudeMeters>461.20001220703125</AltitudeMeters>
            <DistanceMeters>1096.0318673476</DistanceMeters>
          </Trackpoint>
          <Trackpoint>
            <Time>2018-06-21T07:36:25.000Z</Time>
            <Position>
              <LatitudeDegrees>41.7418514750897884368896484375</LatitudeDegrees>
              <LongitudeDegrees>1.7740564607083797454833984375</LongitudeDegrees>
            </Position>
            <AltitudeMeters>461.399993896484375</AltitudeMeters>
            <DistanceMeters>1102.9928579523</DistanceMeters>
          </Trackpoint>
          <Trackpoint>
            <Time>2018-06-21T07:36:32.000Z</Time>
            <Position>
              <LatitudeDegrees>41.741840578615665435791015625</LatitudeDegrees>
              <LongitudeDegrees>1.7741590552031993865966796875</LongitudeDegrees>
            </Position>
            <AltitudeMeters>461</AltitudeMeters>
            <DistanceMeters>1111.5989422531</DistanceMeters>
          </Trackpoint>
          <Trackpoint>
            <Time>2018-06-21T07:36:41.000Z</Time>
            <Position>
              <LatitudeDegrees>41.7418561689555644989013671875</LatitudeDegrees>
              <LongitudeDegrees>1.77429375238716602325439453125</LongitudeDegrees>
            </Position>
            <AltitudeMeters>462</AltitudeMeters>
            <DistanceMeters>1122.9190930832</DistanceMeters>
          </Trackpoint>
          <Trackpoint>
            <Time>2018-06-21T07:36:48.000Z</Time>
            <Position>
              <LatitudeDegrees>41.741811074316501617431640625</LatitudeDegrees>
              <LongitudeDegrees>1.774369776248931884765625</LongitudeDegrees>
            </Position>
            <AltitudeMeters>461.600006103515625</AltitudeMeters>
            <DistanceMeters>1130.9846166683</DistanceMeters>
          </Trackpoint>
          <Trackpoint>
            <Time>2018-06-21T07:36:53.000Z</Time>
            <Position>
              <LatitudeDegrees>41.74179506488144397735595703125</LatitudeDegrees>
              <LongitudeDegrees>1.77442635409533977508544921875</LongitudeDegrees>
            </Position>
            <AltitudeMeters>463.20001220703125</AltitudeMeters>
            <DistanceMeters>1136.011161594</DistanceMeters>
          </Trackpoint>
          <Trackpoint>
            <Time>2018-06-21T07:36:58.000Z</Time>
            <Position>
              <LatitudeDegrees>41.74175198189914226531982421875</LatitudeDegrees>
              <LongitudeDegrees>1.7744678445160388946533203125</LongitudeDegrees>
            </Position>
            <AltitudeMeters>464</AltitudeMeters>
            <DistanceMeters>1141.9165959749</DistanceMeters>
          </Trackpoint>
          <Trackpoint>
            <Time>2018-06-21T07:37:00.000Z</Time>
            <Position>
              <LatitudeDegrees>41.7417324520647525787353515625</LatitudeDegrees>
              <LongitudeDegrees>1.774480082094669342041015625</LongitudeDegrees>
            </Position>
            <AltitudeMeters>464</AltitudeMeters>
            <DistanceMeters>1144.3130785261</DistanceMeters>
          </Trackpoint>
          <Trackpoint>
            <Time>2018-06-21T07:37:07.000Z</Time>
            <Position>
              <LatitudeDegrees>41.74165827222168445587158203125</LatitudeDegrees>
              <LongitudeDegrees>1.7745794914662837982177734375</LongitudeDegrees>
            </Position>
            <AltitudeMeters>466.399993896484375</AltitudeMeters>
            <DistanceMeters>1155.9886099486</DistanceMeters>
          </Trackpoint>
          <Trackpoint>
            <Time>2018-06-21T07:37:13.000Z</Time>
            <Position>
              <LatitudeDegrees>41.74159607850015163421630859375</LatitudeDegrees>
              <LongitudeDegrees>1.77465735934674739837646484375</LongitudeDegrees>
            </Position>
            <AltitudeMeters>468</AltitudeMeters>
            <DistanceMeters>1165.4617773017</DistanceMeters>
          </Trackpoint>
          <Trackpoint>
            <Time>2018-06-21T07:37:20.000Z</Time>
            <Position>
              <LatitudeDegrees>41.74151024781167507171630859375</LatitudeDegrees>
              <LongitudeDegrees>1.77473145537078380584716796875</LongitudeDegrees>
            </Position>
            <AltitudeMeters>468.600006103515625</AltitudeMeters>
            <DistanceMeters>1176.8253195817</DistanceMeters>
          </Trackpoint>
          <Trackpoint>
            <Time>2018-06-21T07:37:26.000Z</Time>
            <Position>
              <LatitudeDegrees>41.7414524964988231658935546875</LatitudeDegrees>
              <LongitudeDegrees>1.77478216588497161865234375</LongitudeDegrees>
            </Position>
            <AltitudeMeters>468.20001220703125</AltitudeMeters>
            <DistanceMeters>1184.5101552952</DistanceMeters>
          </Trackpoint>
          <Trackpoint>
            <Time>2018-06-21T07:37:33.000Z</Time>
            <Position>
              <LatitudeDegrees>41.74135736189782619476318359375</LatitudeDegrees>
              <LongitudeDegrees>1.774785183370113372802734375</LongitudeDegrees>
            </Position>
            <AltitudeMeters>464</AltitudeMeters>
            <DistanceMeters>1195.1016915229</DistanceMeters>
          </Trackpoint>
          <Trackpoint>
            <Time>2018-06-21T07:37:40.000Z</Time>
            <Position>
              <LatitudeDegrees>41.74128703773021697998046875</LatitudeDegrees>
              <LongitudeDegrees>1.77484109066426753997802734375</LongitudeDegrees>
            </Position>
            <AltitudeMeters>462.399993896484375</AltitudeMeters>
            <DistanceMeters>1204.2024530924</DistanceMeters>
          </Trackpoint>
          <Trackpoint>
            <Time>2018-06-21T07:37:48.000Z</Time>
            <Position>
              <LatitudeDegrees>41.741201542317867279052734375</LatitudeDegrees>
              <LongitudeDegrees>1.774914264678955078125</LongitudeDegrees>
            </Position>
            <AltitudeMeters>460.20001220703125</AltitudeMeters>
            <DistanceMeters>1215.4934503573</DistanceMeters>
          </Trackpoint>
          <Trackpoint>
            <Time>2018-06-21T07:37:56.000Z</Time>
            <Position>
              <LatitudeDegrees>41.7411500774323940277099609375</LatitudeDegrees>
              <LongitudeDegrees>1.77505575120449066162109375</LongitudeDegrees>
            </Position>
            <AltitudeMeters>460.600006103515625</AltitudeMeters>
            <DistanceMeters>1228.5654102925</DistanceMeters>
          </Trackpoint>
          <Trackpoint>
            <Time>2018-06-21T07:37:58.000Z</Time>
            <Position>
              <LatitudeDegrees>41.7411416955292224884033203125</LatitudeDegrees>
              <LongitudeDegrees>1.77509455941617488861083984375</LongitudeDegrees>
            </Position>
            <AltitudeMeters>461</AltitudeMeters>
            <DistanceMeters>1231.9197321687</DistanceMeters>
          </Trackpoint>
          <Trackpoint>
            <Time>2018-06-21T07:38:02.000Z</Time>
            <Position>
              <LatitudeDegrees>41.741135157644748687744140625</LatitudeDegrees>
              <LongitudeDegrees>1.7751645483076572418212890625</LongitudeDegrees>
            </Position>
            <AltitudeMeters>462</AltitudeMeters>
            <DistanceMeters>1237.7768014368</DistanceMeters>
          </Trackpoint>
          <Trackpoint>
            <Time>2018-06-21T07:38:08.000Z</Time>
            <Position>
              <LatitudeDegrees>41.74113809131085872650146484375</LatitudeDegrees>
              <LongitudeDegrees>1.7752768658101558685302734375</LongitudeDegrees>
            </Position>
            <AltitudeMeters>464.20001220703125</AltitudeMeters>
            <DistanceMeters>1247.1107275952</DistanceMeters>
          </Trackpoint>
          <Trackpoint>
            <Time>2018-06-21T07:38:14.000Z</Time>
            <Position>
              <LatitudeDegrees>41.74112216569483280181884765625</LatitudeDegrees>
              <LongitudeDegrees>1.77538725547492504119873046875</LongitudeDegrees>
            </Position>
            <AltitudeMeters>465.399993896484375</AltitudeMeters>
            <DistanceMeters>1256.4475556428</DistanceMeters>
          </Trackpoint>
          <Trackpoint>
            <Time>2018-06-21T07:38:17.000Z</Time>
            <Position>
              <LatitudeDegrees>41.74110976047813892364501953125</LatitudeDegrees>
              <LongitudeDegrees>1.775441654026508331298828125</LongitudeDegrees>
            </Position>
            <AltitudeMeters>465.600006103515625</AltitudeMeters>
            <DistanceMeters>1261.1702973059</DistanceMeters>
          </Trackpoint>
          <Trackpoint>
            <Time>2018-06-21T07:38:21.000Z</Time>
            <Position>
              <LatitudeDegrees>41.7411024682223796844482421875</LatitudeDegrees>
              <LongitudeDegrees>1.77551466040313243865966796875</LongitudeDegrees>
            </Position>
            <AltitudeMeters>466.399993896484375</AltitudeMeters>
            <DistanceMeters>1267.2875382513</DistanceMeters>
          </Trackpoint>
          <Trackpoint>
            <Time>2018-06-21T07:38:28.000Z</Time>
            <Position>
              <LatitudeDegrees>41.74107338301837444305419921875</LatitudeDegrees>
              <LongitudeDegrees>1.7756483517587184906005859375</LongitudeDegrees>
            </Position>
            <AltitudeMeters>467</AltitudeMeters>
            <DistanceMeters>1278.8527227413</DistanceMeters>
          </Trackpoint>
          <Trackpoint>
            <Time>2018-06-21T07:38:30.000Z</Time>
            <Position>
              <LatitudeDegrees>41.74106215126812458038330078125</LatitudeDegrees>
              <LongitudeDegrees>1.77569705061614513397216796875</LongitudeDegrees>
            </Position>
            <AltitudeMeters>467.20001220703125</AltitudeMeters>
            <DistanceMeters>1283.0875464469</DistanceMeters>
          </Trackpoint>
          <Trackpoint>
            <Time>2018-06-21T07:38:36.000Z</Time>
            <Position>
              <LatitudeDegrees>41.74106307327747344970703125</LatitudeDegrees>
              <LongitudeDegrees>1.77581573836505413055419921875</LongitudeDegrees>
            </Position>
            <AltitudeMeters>467</AltitudeMeters>
            <DistanceMeters>1292.9447074244</DistanceMeters>
          </Trackpoint>
          <Trackpoint>
            <Time>2018-06-21T07:38:45.000Z</Time>
            <Position>
              <LatitudeDegrees>41.74101655371487140655517578125</LatitudeDegrees>
              <LongitudeDegrees>1.7759628407657146453857421875</LongitudeDegrees>
            </Position>
            <AltitudeMeters>464</AltitudeMeters>
            <DistanceMeters>1306.2134451349</DistanceMeters>
          </Trackpoint>
          <Trackpoint>
            <Time>2018-06-21T07:38:46.000Z</Time>
            <Position>
              <LatitudeDegrees>41.741009093821048736572265625</LatitudeDegrees>
              <LongitudeDegrees>1.7759772576391696929931640625</LongitudeDegrees>
            </Position>
            <AltitudeMeters>463.600006103515625</AltitudeMeters>
            <DistanceMeters>1307.6670743475</DistanceMeters>
          </Trackpoint>
          <Trackpoint>
            <Time>2018-06-21T07:38:53.000Z</Time>
            <Position>
              <LatitudeDegrees>41.7409837804734706878662109375</LatitudeDegrees>
              <LongitudeDegrees>1.7760984599590301513671875</LongitudeDegrees>
            </Position>
            <AltitudeMeters>463.600006103515625</AltitudeMeters>
            <DistanceMeters>1318.1191490133</DistanceMeters>
          </Trackpoint>
          <Trackpoint>
            <Time>2018-06-21T07:38:55.000Z</Time>
            <Position>
              <LatitudeDegrees>41.74098269082605838775634765625</LatitudeDegrees>
              <LongitudeDegrees>1.776138357818126678466796875</LongitudeDegrees>
            </Position>
            <AltitudeMeters>464</AltitudeMeters>
            <DistanceMeters>1321.4342060313</DistanceMeters>
          </Trackpoint>
          <Trackpoint>
            <Time>2018-06-21T07:39:03.000Z</Time>
            <Position>
              <LatitudeDegrees>41.740982271730899810791015625</LatitudeDegrees>
              <LongitudeDegrees>1.77629317156970500946044921875</LongitudeDegrees>
            </Position>
            <AltitudeMeters>465.79998779296875</AltitudeMeters>
            <DistanceMeters>1334.2912888801</DistanceMeters>
          </Trackpoint>
          <Trackpoint>
            <Time>2018-06-21T07:39:09.000Z</Time>
            <Position>
              <LatitudeDegrees>41.74098168499767780303955078125</LatitudeDegrees>
              <LongitudeDegrees>1.77640465088188648223876953125</LongitudeDegrees>
            </Position>
            <AltitudeMeters>467.20001220703125</AltitudeMeters>
            <DistanceMeters>1343.549446667</DistanceMeters>
          </Trackpoint>
          <Trackpoint>
            <Time>2018-06-21T07:39:15.000Z</Time>
            <Position>
              <LatitudeDegrees>41.7409626580774784088134765625</LatitudeDegrees>
              <LongitudeDegrees>1.7765257693827152252197265625</LongitudeDegrees>
            </Position>
            <AltitudeMeters>468</AltitudeMeters>
            <DistanceMeters>1353.8285966547</DistanceMeters>
          </Trackpoint>
          <Trackpoint>
            <Time>2018-06-21T07:39:20.000Z</Time>
            <Position>
              <LatitudeDegrees>41.74095737747848033905029296875</LatitudeDegrees>
              <LongitudeDegrees>1.7766206525266170501708984375</LongitudeDegrees>
            </Position>
            <AltitudeMeters>468.20001220703125</AltitudeMeters>
            <DistanceMeters>1361.7306836329</DistanceMeters>
          </Trackpoint>
          <Trackpoint>
            <Time>2018-06-21T07:39:26.000Z</Time>
            <Position>
              <LatitudeDegrees>41.740979254245758056640625</LatitudeDegrees>
              <LongitudeDegrees>1.7767027951776981353759765625</LongitudeDegrees>
            </Position>
            <AltitudeMeters>469.20001220703125</AltitudeMeters>
            <DistanceMeters>1368.9745620288</DistanceMeters>
          </Trackpoint>
          <Trackpoint>
            <Time>2018-06-21T07:39:32.000Z</Time>
            <Position>
              <LatitudeDegrees>41.74099266529083251953125</LatitudeDegrees>
              <LongitudeDegrees>1.77677647210657596588134765625</LongitudeDegrees>
            </Position>
            <AltitudeMeters>469.79998779296875</AltitudeMeters>
            <DistanceMeters>1375.2729051299</DistanceMeters>
          </Trackpoint>
          <Trackpoint>
            <Time>2018-06-21T07:39:37.000Z</Time>
            <Position>
              <LatitudeDegrees>41.74101345241069793701171875</LatitudeDegrees>
              <LongitudeDegrees>1.776839755475521087646484375</LongitudeDegrees>
            </Position>
            <AltitudeMeters>470.600006103515625</AltitudeMeters>
            <DistanceMeters>1381.0155386001</DistanceMeters>
          </Trackpoint>
          <Trackpoint>
            <Time>2018-06-21T07:39:40.000Z</Time>
            <Position>
              <LatitudeDegrees>41.7410434596240520477294921875</LatitudeDegrees>
              <LongitudeDegrees>1.7768533341586589813232421875</LongitudeDegrees>
            </Position>
            <AltitudeMeters>471.600006103515625</AltitudeMeters>
            <DistanceMeters>1384.5417852255</DistanceMeters>
          </Trackpoint>
          <Trackpoint>
            <Time>2018-06-21T07:39:42.000Z</Time>
            <Position>
              <LatitudeDegrees>41.74105376936495304107666015625</LatitudeDegrees>
              <LongitudeDegrees>1.776873953640460968017578125</LongitudeDegrees>
            </Position>
            <AltitudeMeters>472</AltitudeMeters>
            <DistanceMeters>1386.6062939035</DistanceMeters>
          </Trackpoint>
          <Trackpoint>
            <Time>2018-06-21T07:39:46.000Z</Time>
            <Position>
              <LatitudeDegrees>41.74106684513390064239501953125</LatitudeDegrees>
              <LongitudeDegrees>1.77693019621074199676513671875</LongitudeDegrees>
            </Position>
            <AltitudeMeters>472.79998779296875</AltitudeMeters>
            <DistanceMeters>1391.4980934269</DistanceMeters>
          </Trackpoint>
          <Trackpoint>
            <Time>2018-06-21T07:39:51.000Z</Time>
            <Position>
              <LatitudeDegrees>41.74110573716461658477783203125</LatitudeDegrees>
              <LongitudeDegrees>1.77697755396366119384765625</LongitudeDegrees>
            </Position>
            <AltitudeMeters>474.399993896484375</AltitudeMeters>
            <DistanceMeters>1397.3466769793</DistanceMeters>
          </Trackpoint>
          <Trackpoint>
            <Time>2018-06-21T07:39:55.000Z</Time>
            <Position>
              <LatitudeDegrees>41.7411289550364017486572265625</LatitudeDegrees>
              <LongitudeDegrees>1.77702273242175579071044921875</LongitudeDegrees>
            </Position>
            <AltitudeMeters>475.600006103515625</AltitudeMeters>
            <DistanceMeters>1401.9020162277</DistanceMeters>
          </Trackpoint>
          <Trackpoint>
            <Time>2018-06-21T07:40:02.000Z</Time>
            <Position>
              <LatitudeDegrees>41.74116005189716815948486328125</LatitudeDegrees>
              <LongitudeDegrees>1.77712197415530681610107421875</LongitudeDegrees>
            </Position>
            <AltitudeMeters>477.600006103515625</AltitudeMeters>
            <DistanceMeters>1410.8410959596</DistanceMeters>
          </Trackpoint>
          <Trackpoint>
            <Time>2018-06-21T07:40:05.000Z</Time>
            <Position>
              <LatitudeDegrees>41.7411678470671176910400390625</LatitudeDegrees>
              <LongitudeDegrees>1.77717075683176517486572265625</LongitudeDegrees>
            </Position>
            <AltitudeMeters>478.600006103515625</AltitudeMeters>
            <DistanceMeters>1414.9853938973</DistanceMeters>
          </Trackpoint>
          <Trackpoint>
            <Time>2018-06-21T07:40:09.000Z</Time>
            <Position>
              <LatitudeDegrees>41.74118754453957080841064453125</LatitudeDegrees>
              <LongitudeDegrees>1.77722238935530185699462890625</LongitudeDegrees>
            </Position>
            <AltitudeMeters>479.79998779296875</AltitudeMeters>
            <DistanceMeters>1419.8009142542</DistanceMeters>
          </Trackpoint>
          <Trackpoint>
            <Time>2018-06-21T07:40:14.000Z</Time>
            <Position>
              <LatitudeDegrees>41.74121704883873462677001953125</LatitudeDegrees>
              <LongitudeDegrees>1.777252145111560821533203125</LongitudeDegrees>
            </Position>
            <AltitudeMeters>480.79998779296875</AltitudeMeters>
            <DistanceMeters>1423.910201656</DistanceMeters>
          </Trackpoint>
          <Trackpoint>
            <Time>2018-06-21T07:40:17.000Z</Time>
            <Position>
              <LatitudeDegrees>41.74122476018965244293212890625</LatitudeDegrees>
              <LongitudeDegrees>1.7773015983402729034423828125</LongitudeDegrees>
            </Position>
            <AltitudeMeters>481.79998779296875</AltitudeMeters>
            <DistanceMeters>1428.1053916385</DistanceMeters>
          </Trackpoint>
          <Trackpoint>
            <Time>2018-06-21T07:40:23.000Z</Time>
            <Position>
              <LatitudeDegrees>41.741199195384979248046875</LatitudeDegrees>
              <LongitudeDegrees>1.77741366438567638397216796875</LongitudeDegrees>
            </Position>
            <AltitudeMeters>483</AltitudeMeters>
            <DistanceMeters>1437.838094341</DistanceMeters>
          </Trackpoint>
          <Trackpoint>
            <Time>2018-06-21T07:40:26.000Z</Time>
            <Position>
              <LatitudeDegrees>41.741189472377300262451171875</LatitudeDegrees>
              <LongitudeDegrees>1.777457334101200103759765625</LongitudeDegrees>
            </Position>
            <AltitudeMeters>483.600006103515625</AltitudeMeters>
            <DistanceMeters>1441.6224967034</DistanceMeters>
          </Trackpoint>
          <Trackpoint>
            <Time>2018-06-21T07:40:31.000Z</Time>
            <Position>
              <LatitudeDegrees>41.7411631532013416290283203125</LatitudeDegrees>
              <LongitudeDegrees>1.77753235213458538055419921875</LongitudeDegrees>
            </Position>
            <AltitudeMeters>484.399993896484375</AltitudeMeters>
            <DistanceMeters>1448.5078362978</DistanceMeters>
          </Trackpoint>
          <Trackpoint>
            <Time>2018-06-21T07:40:37.000Z</Time>
            <Position>
              <LatitudeDegrees>41.741139851510524749755859375</LatitudeDegrees>
              <LongitudeDegrees>1.777620278298854827880859375</LongitudeDegrees>
            </Position>
            <AltitudeMeters>485.399993896484375</AltitudeMeters>
            <DistanceMeters>1456.2570303432</DistanceMeters>
          </Trackpoint>
          <Trackpoint>
            <Time>2018-06-21T07:40:43.000Z</Time>
            <Position>
              <LatitudeDegrees>41.74111428670585155487060546875</LatitudeDegrees>
              <LongitudeDegrees>1.7777320928871631622314453125</LongitudeDegrees>
            </Position>
            <AltitudeMeters>486.79998779296875</AltitudeMeters>
            <DistanceMeters>1465.9692998274</DistanceMeters>
          </Trackpoint>
          <Trackpoint>
            <Time>2018-06-21T07:40:44.000Z</Time>
            <Position>
              <LatitudeDegrees>41.74111068248748779296875</LatitudeDegrees>
              <LongitudeDegrees>1.7777478508651256561279296875</LongitudeDegrees>
            </Position>
            <AltitudeMeters>487</AltitudeMeters>
            <DistanceMeters>1467.3397945922</DistanceMeters>
          </Trackpoint>
          <Trackpoint>
            <Time>2018-06-21T07:40:53.000Z</Time>
            <Position>
              <LatitudeDegrees>41.741066761314868927001953125</LatitudeDegrees>
              <LongitudeDegrees>1.77790517918765544891357421875</LongitudeDegrees>
            </Position>
            <AltitudeMeters>489.20001220703125</AltitudeMeters>
            <DistanceMeters>1481.2902858925</DistanceMeters>
          </Trackpoint>
          <Trackpoint>
            <Time>2018-06-21T07:40:59.000Z</Time>
            <Position>
              <LatitudeDegrees>41.74104236997663974761962890625</LatitudeDegrees>
              <LongitudeDegrees>1.77800995297729969024658203125</LongitudeDegrees>
            </Position>
            <AltitudeMeters>490.79998779296875</AltitudeMeters>
            <DistanceMeters>1490.4054234867</DistanceMeters>
          </Trackpoint>
          <Trackpoint>
            <Time>2018-06-21T07:41:04.000Z</Time>
            <Position>
              <LatitudeDegrees>41.741027869284152984619140625</LatitudeDegrees>
              <LongitudeDegrees>1.77810198627412319183349609375</LongitudeDegrees>
            </Position>
            <AltitudeMeters>492.20001220703125</AltitudeMeters>
            <DistanceMeters>1498.2172898839</DistanceMeters>
          </Trackpoint>
          <Trackpoint>
            <Time>2018-06-21T07:41:10.000Z</Time>
            <Position>
              <LatitudeDegrees>41.74101747572422027587890625</LatitudeDegrees>
              <LongitudeDegrees>1.7781793512403964996337890625</LongitudeDegrees>
            </Position>
            <AltitudeMeters>493.600006103515625</AltitudeMeters>
            <DistanceMeters>1504.7465311026</DistanceMeters>
          </Trackpoint>
          <Trackpoint>
            <Time>2018-06-21T07:41:12.000Z</Time>
            <Position>
              <LatitudeDegrees>41.74102485179901123046875</LatitudeDegrees>
              <LongitudeDegrees>1.7782061733305454254150390625</LongitudeDegrees>
            </Position>
            <AltitudeMeters>494.20001220703125</AltitudeMeters>
            <DistanceMeters>1507.1221989618</DistanceMeters>
          </Trackpoint>
          <Trackpoint>
            <Time>2018-06-21T07:41:16.000Z</Time>
            <Position>
              <LatitudeDegrees>41.74103247933089733123779296875</LatitudeDegrees>
              <LongitudeDegrees>1.7782735638320446014404296875</LongitudeDegrees>
            </Position>
            <AltitudeMeters>496</AltitudeMeters>
            <DistanceMeters>1512.7832714132</DistanceMeters>
          </Trackpoint>
          <Trackpoint>
            <Time>2018-06-21T07:41:20.000Z</Time>
            <Position>
              <LatitudeDegrees>41.7410484887659549713134765625</LatitudeDegrees>
              <LongitudeDegrees>1.7783288843929767608642578125</LongitudeDegrees>
            </Position>
            <AltitudeMeters>497.600006103515625</AltitudeMeters>
            <DistanceMeters>1517.7100193752</DistanceMeters>
          </Trackpoint>
          <Trackpoint>
            <Time>2018-06-21T07:41:28.000Z</Time>
            <Position>
              <LatitudeDegrees>41.74105695448815822601318359375</LatitudeDegrees>
              <LongitudeDegrees>1.7784802615642547607421875</LongitudeDegrees>
            </Position>
            <AltitudeMeters>501.600006103515625</AltitudeMeters>
            <DistanceMeters>1530.3167376403</DistanceMeters>
          </Trackpoint>
          <Trackpoint>
            <Time>2018-06-21T07:41:29.000Z</Time>
            <Position>
              <LatitudeDegrees>41.74105904996395111083984375</LatitudeDegrees>
              <LongitudeDegrees>1.77849526517093181610107421875</LongitudeDegrees>
            </Position>
            <AltitudeMeters>502</AltitudeMeters>
            <DistanceMeters>1531.5845521405</DistanceMeters>
          </Trackpoint>
          <Trackpoint>
            <Time>2018-06-21T07:41:34.000Z</Time>
            <Position>
              <LatitudeDegrees>41.7410608939826488494873046875</LatitudeDegrees>
              <LongitudeDegrees>1.7785796709358692169189453125</LongitudeDegrees>
            </Position>
            <AltitudeMeters>504.20001220703125</AltitudeMeters>
            <DistanceMeters>1538.5978841867</DistanceMeters>
          </Trackpoint>
          <Trackpoint>
            <Time>2018-06-21T07:41:38.000Z</Time>
            <Position>
              <LatitudeDegrees>41.7410637438297271728515625</LatitudeDegrees>
              <LongitudeDegrees>1.77863524295389652252197265625</LongitudeDegrees>
            </Position>
            <AltitudeMeters>505.399993896484375</AltitudeMeters>
            <DistanceMeters>1543.2240360619</DistanceMeters>
          </Trackpoint>
          <Trackpoint>
            <Time>2018-06-21T07:41:40.000Z</Time>
            <Position>
              <LatitudeDegrees>41.7410717904567718505859375</LatitudeDegrees>
              <LongitudeDegrees>1.778651587665081024169921875</LongitudeDegrees>
            </Position>
            <AltitudeMeters>506</AltitudeMeters>
            <DistanceMeters>1544.8506314012</DistanceMeters>
          </Trackpoint>
          <Trackpoint>
            <Time>2018-06-21T07:41:45.000Z</Time>
            <Position>
              <LatitudeDegrees>41.7411299608647823333740234375</LatitudeDegrees>
              <LongitudeDegrees>1.77867799066007137298583984375</LongitudeDegrees>
            </Position>
            <AltitudeMeters>507.600006103515625</AltitudeMeters>
            <DistanceMeters>1551.685952573</DistanceMeters>
          </Trackpoint>
          <Trackpoint>
            <Time>2018-06-21T07:41:49.000Z</Time>
            <Position>
              <LatitudeDegrees>41.74117664806544780731201171875</LatitudeDegrees>
              <LongitudeDegrees>1.77867849357426166534423828125</LongitudeDegrees>
            </Position>
            <AltitudeMeters>508.600006103515625</AltitudeMeters>
            <DistanceMeters>1556.8820981221</DistanceMeters>
          </Trackpoint>
          <Trackpoint>
            <Time>2018-06-21T07:41:55.000Z</Time>
            <Position>
              <LatitudeDegrees>41.7412137798964977264404296875</LatitudeDegrees>
              <LongitudeDegrees>1.77871294319629669189453125</LongitudeDegrees>
            </Position>
            <AltitudeMeters>510.20001220703125</AltitudeMeters>
            <DistanceMeters>1561.9077447286</DistanceMeters>
          </Trackpoint>
          <Trackpoint>
            <Time>2018-06-21T07:42:02.000Z</Time>
            <Position>
              <LatitudeDegrees>41.74130983650684356689453125</LatitudeDegrees>
              <LongitudeDegrees>1.77871755324304103851318359375</LongitudeDegrees>
            </Position>
            <AltitudeMeters>511.79998779296875</AltitudeMeters>
            <DistanceMeters>1572.6057440206</DistanceMeters>
          </Trackpoint>
          <Trackpoint>
            <Time>2018-06-21T07:42:04.000Z</Time>
            <Position>
              <LatitudeDegrees>41.741340346634387969970703125</LatitudeDegrees>
              <LongitudeDegrees>1.77872459404170513153076171875</LongitudeDegrees>
            </Position>
            <AltitudeMeters>512.5999755859375</AltitudeMeters>
            <DistanceMeters>1576.0516909911</DistanceMeters>
          </Trackpoint>
          <Trackpoint>
            <Time>2018-06-21T07:42:08.000Z</Time>
            <Position>
              <LatitudeDegrees>41.74137965776026248931884765625</LatitudeDegrees>
              <LongitudeDegrees>1.77874923683702945709228515625</LongitudeDegrees>
            </Position>
            <AltitudeMeters>513.79998779296875</AltitudeMeters>
            <DistanceMeters>1580.8821896746</DistanceMeters>
          </Trackpoint>
          <Trackpoint>
            <Time>2018-06-21T07:42:12.000Z</Time>
            <Position>
              <LatitudeDegrees>41.74142056144773960113525390625</LatitudeDegrees>
              <LongitudeDegrees>1.77877706475555896759033203125</LongitudeDegrees>
            </Position>
            <AltitudeMeters>515.20001220703125</AltitudeMeters>
            <DistanceMeters>1585.9871676978</DistanceMeters>
          </Trackpoint>
          <Trackpoint>
            <Time>2018-06-21T07:42:15.000Z</Time>
            <Position>
              <LatitudeDegrees>41.74144939519464969635009765625</LatitudeDegrees>
              <LongitudeDegrees>1.77878879941999912261962890625</LongitudeDegrees>
            </Position>
            <AltitudeMeters>516</AltitudeMeters>
            <DistanceMeters>1589.3401432678</DistanceMeters>
          </Trackpoint>
          <Trackpoint>
            <Time>2018-06-21T07:42:19.000Z</Time>
            <Position>
              <LatitudeDegrees>41.7414863593876361846923828125</LatitudeDegrees>
              <LongitudeDegrees>1.77881176583468914031982421875</LongitudeDegrees>
            </Position>
            <AltitudeMeters>517.20001220703125</AltitudeMeters>
            <DistanceMeters>1593.8746205323</DistanceMeters>
          </Trackpoint>
          <Trackpoint>
            <Time>2018-06-21T07:42:27.000Z</Time>
            <Position>
              <LatitudeDegrees>41.7414977587759494781494140625</LatitudeDegrees>
              <LongitudeDegrees>1.7789169587194919586181640625</LongitudeDegrees>
            </Position>
            <AltitudeMeters>520</AltitudeMeters>
            <DistanceMeters>1602.7023926018</DistanceMeters>
          </Trackpoint>
          <Trackpoint>
            <Time>2018-06-21T07:42:31.000Z</Time>
            <Position>
              <LatitudeDegrees>41.74151577986776828765869140625</LatitudeDegrees>
              <LongitudeDegrees>1.77896775305271148681640625</LongitudeDegrees>
            </Position>
            <AltitudeMeters>521.5999755859375</AltitudeMeters>
            <DistanceMeters>1607.373223865</DistanceMeters>
          </Trackpoint>
          <Trackpoint>
            <Time>2018-06-21T07:42:38.000Z</Time>
            <Position>
              <LatitudeDegrees>41.74150505103170871734619140625</LatitudeDegrees>
              <LongitudeDegrees>1.77905517630279064178466796875</LongitudeDegrees>
            </Position>
            <AltitudeMeters>523.4000244140625</AltitudeMeters>
            <DistanceMeters>1614.7315075207</DistanceMeters>
          </Trackpoint>
          <Trackpoint>
            <Time>2018-06-21T07:42:44.000Z</Time>
            <Position>
              <LatitudeDegrees>41.74148275516927242279052734375</LatitudeDegrees>
              <LongitudeDegrees>1.77912239916622638702392578125</LongitudeDegrees>
            </Position>
            <AltitudeMeters>524.20001220703125</AltitudeMeters>
            <DistanceMeters>1620.8406241461</DistanceMeters>
          </Trackpoint>
          <Trackpoint>
            <Time>2018-06-21T07:42:50.000Z</Time>
            <Position>
              <LatitudeDegrees>41.741495244204998016357421875</LatitudeDegrees>
              <LongitudeDegrees>1.7791935615241527557373046875</LongitudeDegrees>
            </Position>
            <AltitudeMeters>525.79998779296875</AltitudeMeters>
            <DistanceMeters>1626.9126750451</DistanceMeters>
          </Trackpoint>
          <Trackpoint>
            <Time>2018-06-21T07:42:54.000Z</Time>
            <Position>
              <LatitudeDegrees>41.74151846207678318023681640625</LatitudeDegrees>
              <LongitudeDegrees>1.77923387847840785980224609375</LongitudeDegrees>
            </Position>
            <AltitudeMeters>527</AltitudeMeters>
            <DistanceMeters>1631.1432319248</DistanceMeters>
          </Trackpoint>
          <Trackpoint>
            <Time>2018-06-21T07:43:01.000Z</Time>
            <Position>
              <LatitudeDegrees>41.7415438592433929443359375</LatitudeDegrees>
              <LongitudeDegrees>1.7793038673698902130126953125</LongitudeDegrees>
            </Position>
            <AltitudeMeters>528.5999755859375</AltitudeMeters>
            <DistanceMeters>1637.6064458026</DistanceMeters>
          </Trackpoint>
          <Trackpoint>
            <Time>2018-06-21T07:43:06.000Z</Time>
            <Position>
              <LatitudeDegrees>41.74156255088746547698974609375</LatitudeDegrees>
              <LongitudeDegrees>1.77937318570911884307861328125</LongitudeDegrees>
            </Position>
            <AltitudeMeters>529.4000244140625</AltitudeMeters>
            <DistanceMeters>1643.7281136507</DistanceMeters>
          </Trackpoint>
          <Trackpoint>
            <Time>2018-06-21T07:43:11.000Z</Time>
            <Position>
              <LatitudeDegrees>41.74153958447277545928955078125</LatitudeDegrees>
              <LongitudeDegrees>1.77945918403565883636474609375</LongitudeDegrees>
            </Position>
            <AltitudeMeters>531.4000244140625</AltitudeMeters>
            <DistanceMeters>1651.3141980937</DistanceMeters>
          </Trackpoint>
          <Trackpoint>
            <Time>2018-06-21T07:43:20.000Z</Time>
            <Position>
              <LatitudeDegrees>41.74146465025842189788818359375</LatitudeDegrees>
              <LongitudeDegrees>1.77961458452045917510986328125</LongitudeDegrees>
            </Position>
            <AltitudeMeters>532.5999755859375</AltitudeMeters>
            <DistanceMeters>1666.6803439624</DistanceMeters>
          </Trackpoint>
          <Trackpoint>
            <Time>2018-06-21T07:43:27.000Z</Time>
            <Position>
              <LatitudeDegrees>41.74139373935759067535400390625</LatitudeDegrees>
              <LongitudeDegrees>1.7796763591468334197998046875</LongitudeDegrees>
            </Position>
            <AltitudeMeters>532.4000244140625</AltitudeMeters>
            <DistanceMeters>1676.0942257452</DistanceMeters>
          </Trackpoint>
          <Trackpoint>
            <Time>2018-06-21T07:43:28.000Z</Time>
            <Position>
              <LatitudeDegrees>41.74138267524540424346923828125</LatitudeDegrees>
              <LongitudeDegrees>1.7796793766319751739501953125</LongitudeDegrees>
            </Position>
            <AltitudeMeters>532.20001220703125</AltitudeMeters>
            <DistanceMeters>1677.3548975717</DistanceMeters>
          </Trackpoint>
          <Trackpoint>
            <Time>2018-06-21T07:43:31.000Z</Time>
            <Position>
              <LatitudeDegrees>41.7413361556828022003173828125</LatitudeDegrees>
              <LongitudeDegrees>1.779680885374546051025390625</LongitudeDegrees>
            </Position>
            <AltitudeMeters>531.20001220703125</AltitudeMeters>
            <DistanceMeters>1682.5336355491</DistanceMeters>
          </Trackpoint>
          <Trackpoint>
            <Time>2018-06-21T07:43:35.000Z</Time>
            <Position>
              <LatitudeDegrees>41.74128695391118526458740234375</LatitudeDegrees>
              <LongitudeDegrees>1.77965498529374599456787109375</LongitudeDegrees>
            </Position>
            <AltitudeMeters>529.79998779296875</AltitudeMeters>
            <DistanceMeters>1688.4168560115</DistanceMeters>
          </Trackpoint>
          <Trackpoint>
            <Time>2018-06-21T07:43:41.000Z</Time>
            <Position>
              <LatitudeDegrees>41.74119609408080577850341796875</LatitudeDegrees>
              <LongitudeDegrees>1.77963889203965663909912109375</LongitudeDegrees>
            </Position>
            <AltitudeMeters>527.5999755859375</AltitudeMeters>
            <DistanceMeters>1698.6175212283</DistanceMeters>
          </Trackpoint>
          <Trackpoint>
            <Time>2018-06-21T07:43:43.000Z</Time>
            <Position>
              <LatitudeDegrees>41.74116893671452999114990234375</LatitudeDegrees>
              <LongitudeDegrees>1.77962816320359706878662109375</LongitudeDegrees>
            </Position>
            <AltitudeMeters>526.79998779296875</AltitudeMeters>
            <DistanceMeters>1701.7692007945</DistanceMeters>
          </Trackpoint>
          <Trackpoint>
            <Time>2018-06-21T07:43:47.000Z</Time>
            <Position>
              <LatitudeDegrees>41.74112417735159397125244140625</LatitudeDegrees>
              <LongitudeDegrees>1.77962883375585079193115234375</LongitudeDegrees>
            </Position>
            <AltitudeMeters>525.79998779296875</AltitudeMeters>
            <DistanceMeters>1706.7524437367</DistanceMeters>
          </Trackpoint>
          <Trackpoint>
            <Time>2018-06-21T07:43:54.000Z</Time>
            <Position>
              <LatitudeDegrees>41.74106516875326633453369140625</LatitudeDegrees>
              <LongitudeDegrees>1.77969329059123992919921875</LongitudeDegrees>
            </Position>
            <AltitudeMeters>525.5999755859375</AltitudeMeters>
            <DistanceMeters>1715.2258219182</DistanceMeters>
          </Trackpoint>
          <Trackpoint>
            <Time>2018-06-21T07:44:01.000Z</Time>
            <Position>
              <LatitudeDegrees>41.7410427890717983245849609375</LatitudeDegrees>
              <LongitudeDegrees>1.7798213660717010498046875</LongitudeDegrees>
            </Position>
            <AltitudeMeters>527.20001220703125</AltitudeMeters>
            <DistanceMeters>1726.1505882937</DistanceMeters>
          </Trackpoint>
          <Trackpoint>
            <Time>2018-06-21T07:44:08.000Z</Time>
            <Position>
              <LatitudeDegrees>41.74100347794592380523681640625</LatitudeDegrees>
              <LongitudeDegrees>1.7799281515181064605712890625</LongitudeDegrees>
            </Position>
            <AltitudeMeters>527</AltitudeMeters>
            <DistanceMeters>1736.0402171019</DistanceMeters>
          </Trackpoint>
          <Trackpoint>
            <Time>2018-06-21T07:44:09.000Z</Time>
            <Position>
              <LatitudeDegrees>41.7409985326230525970458984375</LatitudeDegrees>
              <LongitudeDegrees>1.7799460887908935546875</LongitudeDegrees>
            </Position>
            <AltitudeMeters>526.5999755859375</AltitudeMeters>
            <DistanceMeters>1737.6303181692</DistanceMeters>
          </Trackpoint>
          <Trackpoint>
            <Time>2018-06-21T07:44:16.000Z</Time>
            <Position>
              <LatitudeDegrees>41.7409995384514331817626953125</LatitudeDegrees>
              <LongitudeDegrees>1.78008028306066989898681640625</LongitudeDegrees>
            </Position>
            <AltitudeMeters>525.4000244140625</AltitudeMeters>
            <DistanceMeters>1748.7760241424</DistanceMeters>
          </Trackpoint>
          <Trackpoint>
            <Time>2018-06-21T07:44:19.000Z</Time>
            <Position>
              <LatitudeDegrees>41.74098738469183444976806640625</LatitudeDegrees>
              <LongitudeDegrees>1.78013359196484088897705078125</LongitudeDegrees>
            </Position>
            <AltitudeMeters>524.5999755859375</AltitudeMeters>
            <DistanceMeters>1753.4060782973</DistanceMeters>
          </Trackpoint>
          <Trackpoint>
            <Time>2018-06-21T07:44:26.000Z</Time>
            <Position>
              <LatitudeDegrees>41.74093298614025115966796875</LatitudeDegrees>
              <LongitudeDegrees>1.780253536999225616455078125</LongitudeDegrees>
            </Position>
            <AltitudeMeters>523.5999755859375</AltitudeMeters>
            <DistanceMeters>1765.0638075137</DistanceMeters>
          </Trackpoint>
          <Trackpoint>
            <Time>2018-06-21T07:44:31.000Z</Time>
            <Position>
              <LatitudeDegrees>41.7409331537783145904541015625</LatitudeDegrees>
              <LongitudeDegrees>1.78035068325698375701904296875</LongitudeDegrees>
            </Position>
            <AltitudeMeters>523.4000244140625</AltitudeMeters>
            <DistanceMeters>1773.1315699673</DistanceMeters>
          </Trackpoint>
          <Trackpoint>
            <Time>2018-06-21T07:44:36.000Z</Time>
            <Position>
              <LatitudeDegrees>41.74092619679868221282958984375</LatitudeDegrees>
              <LongitudeDegrees>1.7804444767534732818603515625</LongitudeDegrees>
            </Position>
            <AltitudeMeters>523.20001220703125</AltitudeMeters>
            <DistanceMeters>1780.9596028459</DistanceMeters>
          </Trackpoint>
          <Trackpoint>
            <Time>2018-06-21T07:44:41.000Z</Time>
            <Position>
              <LatitudeDegrees>41.7409274540841579437255859375</LatitudeDegrees>
              <LongitudeDegrees>1.78053005598485469818115234375</LongitudeDegrees>
            </Position>
            <AltitudeMeters>523.20001220703125</AltitudeMeters>
            <DistanceMeters>1788.0682108517</DistanceMeters>
          </Trackpoint>
          <Trackpoint>
            <Time>2018-06-21T07:44:48.000Z</Time>
            <Position>
              <LatitudeDegrees>41.7409187369048595428466796875</LatitudeDegrees>
              <LongitudeDegrees>1.7806769907474517822265625</LongitudeDegrees>
            </Position>
            <AltitudeMeters>522.79998779296875</AltitudeMeters>
            <DistanceMeters>1800.3097025332</DistanceMeters>
          </Trackpoint>
          <Trackpoint>
            <Time>2018-06-21T07:44:56.000Z</Time>
            <Position>
              <LatitudeDegrees>41.740893758833408355712890625</LatitudeDegrees>
              <LongitudeDegrees>1.78082275204360485076904296875</LongitudeDegrees>
            </Position>
            <AltitudeMeters>518.5999755859375</AltitudeMeters>
            <DistanceMeters>1812.7302430194</DistanceMeters>
          </Trackpoint>
          <Trackpoint>
            <Time>2018-06-21T07:44:59.000Z</Time>
            <Position>
              <LatitudeDegrees>41.74087607301771640777587890625</LatitudeDegrees>
              <LongitudeDegrees>1.7808662541210651397705078125</LongitudeDegrees>
            </Position>
            <AltitudeMeters>516.79998779296875</AltitudeMeters>
            <DistanceMeters>1816.84282532</DistanceMeters>
          </Trackpoint>
          <Trackpoint>
            <Time>2018-06-21T07:45:03.000Z</Time>
            <Position>
              <LatitudeDegrees>41.74088294617831707000732421875</LatitudeDegrees>
              <LongitudeDegrees>1.78091528825461864471435546875</LongitudeDegrees>
            </Position>
            <AltitudeMeters>515.4000244140625</AltitudeMeters>
            <DistanceMeters>1820.9849437688</DistanceMeters>
          </Trackpoint>
          <Trackpoint>
            <Time>2018-06-21T07:45:06.000Z</Time>
            <Position>
              <LatitudeDegrees>41.74086995422840118408203125</LatitudeDegrees>
              <LongitudeDegrees>1.7809470556676387786865234375</LongitudeDegrees>
            </Position>
            <AltitudeMeters>514.5999755859375</AltitudeMeters>
            <DistanceMeters>1823.992955836</DistanceMeters>
          </Trackpoint>
          <Trackpoint>
            <Time>2018-06-21T07:45:07.000Z</Time>
            <Position>
              <LatitudeDegrees>41.7408640868961811065673828125</LatitudeDegrees>
              <LongitudeDegrees>1.78095585666596889495849609375</LongitudeDegrees>
            </Position>
            <AltitudeMeters>514.4000244140625</AltitudeMeters>
            <DistanceMeters>1824.9713157407</DistanceMeters>
          </Trackpoint>
          <Trackpoint>
            <Time>2018-06-21T07:45:07.000Z</Time>
            <Position>
              <LatitudeDegrees>41.7408640868961811065673828125</LatitudeDegrees>
              <LongitudeDegrees>1.78095585666596889495849609375</LongitudeDegrees>
            </Position>
            <AltitudeMeters>514.4000244140625</AltitudeMeters>
            <DistanceMeters>1824.9713157407</DistanceMeters>
          </Trackpoint>
          <Trackpoint>
            <Time>2018-06-21T07:45:12.000Z</Time>
            <Position>
              <LatitudeDegrees>41.74086266197264194488525390625</LatitudeDegrees>
              <LongitudeDegrees>1.780983768403530120849609375</LongitudeDegrees>
            </Position>
            <AltitudeMeters>513.79998779296875</AltitudeMeters>
            <DistanceMeters>1827.2951026744</DistanceMeters>
          </Trackpoint>
          <Trackpoint>
            <Time>2018-06-21T07:45:19.000Z</Time>
            <Position>
              <LatitudeDegrees>41.740879677236080169677734375</LatitudeDegrees>
              <LongitudeDegrees>1.780945546925067901611328125</LongitudeDegrees>
            </Position>
            <AltitudeMeters>514.79998779296875</AltitudeMeters>
            <DistanceMeters>1830.9913853557</DistanceMeters>
          </Trackpoint>
          <Trackpoint>
            <Time>2018-06-21T07:45:25.000Z</Time>
            <Position>
              <LatitudeDegrees>41.7409532703459262847900390625</LatitudeDegrees>
              <LongitudeDegrees>1.780873797833919525146484375</LongitudeDegrees>
            </Position>
            <AltitudeMeters>517.4000244140625</AltitudeMeters>
            <DistanceMeters>1841.1205377662</DistanceMeters>
          </Trackpoint>
          <Trackpoint>
            <Time>2018-06-21T07:45:30.000Z</Time>
            <Position>
              <LatitudeDegrees>41.7409502528607845306396484375</LatitudeDegrees>
              <LongitudeDegrees>1.78077933378517627716064453125</LongitudeDegrees>
            </Position>
            <AltitudeMeters>520.79998779296875</AltitudeMeters>
            <DistanceMeters>1848.9727579592</DistanceMeters>
          </Trackpoint>
          <Trackpoint>
            <Time>2018-06-21T07:45:36.000Z</Time>
            <Position>
              <LatitudeDegrees>41.7409284599125385284423828125</LatitudeDegrees>
              <LongitudeDegrees>1.7806771583855152130126953125</LongitudeDegrees>
            </Position>
            <AltitudeMeters>523</AltitudeMeters>
            <DistanceMeters>1857.798483958</DistanceMeters>
          </Trackpoint>
          <Trackpoint>
            <Time>2018-06-21T07:45:43.000Z</Time>
            <Position>
              <LatitudeDegrees>41.7409398593008518218994140625</LatitudeDegrees>
              <LongitudeDegrees>1.78055335767567157745361328125</LongitudeDegrees>
            </Position>
            <AltitudeMeters>523.20001220703125</AltitudeMeters>
            <DistanceMeters>1868.1577034489</DistanceMeters>
          </Trackpoint>
          <Trackpoint>
            <Time>2018-06-21T07:45:48.000Z</Time>
            <Position>
              <LatitudeDegrees>41.74093726091086864471435546875</LatitudeDegrees>
              <LongitudeDegrees>1.78045637905597686767578125</LongitudeDegrees>
            </Position>
            <AltitudeMeters>523.4000244140625</AltitudeMeters>
            <DistanceMeters>1876.2170669387</DistanceMeters>
          </Trackpoint>
          <Trackpoint>
            <Time>2018-06-21T07:45:51.000Z</Time>
            <Position>
              <LatitudeDegrees>41.74093164503574371337890625</LatitudeDegrees>
              <LongitudeDegrees>1.7803953588008880615234375</LongitudeDegrees>
            </Position>
            <AltitudeMeters>523.4000244140625</AltitudeMeters>
            <DistanceMeters>1881.3238135322</DistanceMeters>
          </Trackpoint>
          <Trackpoint>
            <Time>2018-06-21T07:45:56.000Z</Time>
            <Position>
              <LatitudeDegrees>41.74091815017163753509521484375</LatitudeDegrees>
              <LongitudeDegrees>1.780300475656986236572265625</LongitudeDegrees>
            </Position>
            <AltitudeMeters>523.20001220703125</AltitudeMeters>
            <DistanceMeters>1889.3455542872</DistanceMeters>
          </Trackpoint>
          <Trackpoint>
            <Time>2018-06-21T07:46:00.000Z</Time>
            <Position>
              <LatitudeDegrees>41.74093927256762981414794921875</LatitudeDegrees>
              <LongitudeDegrees>1.7802342586219310760498046875</LongitudeDegrees>
            </Position>
            <AltitudeMeters>523.5999755859375</AltitudeMeters>
            <DistanceMeters>1895.3269557008</DistanceMeters>
          </Trackpoint>
          <Trackpoint>
            <Time>2018-06-21T07:46:05.000Z</Time>
            <Position>
              <LatitudeDegrees>41.74099476076662540435791015625</LatitudeDegrees>
              <LongitudeDegrees>1.7801673710346221923828125</LongitudeDegrees>
            </Position>
            <AltitudeMeters>524.4000244140625</AltitudeMeters>
            <DistanceMeters>1903.6340517147</DistanceMeters>
          </Trackpoint>
          <Trackpoint>
            <Time>2018-06-21T07:46:06.000Z</Time>
            <Position>
              <LatitudeDegrees>41.74099945463240146636962890625</LatitudeDegrees>
              <LongitudeDegrees>1.78015186451375484466552734375</LongitudeDegrees>
            </Position>
            <AltitudeMeters>524.79998779296875</AltitudeMeters>
            <DistanceMeters>1905.0241727019</DistanceMeters>
          </Trackpoint>
          <Trackpoint>
            <Time>2018-06-21T07:46:09.000Z</Time>
            <Position>
              <LatitudeDegrees>41.74100406467914581298828125</LatitudeDegrees>
              <LongitudeDegrees>1.7801021598279476165771484375</LongitudeDegrees>
            </Position>
            <AltitudeMeters>525.20001220703125</AltitudeMeters>
            <DistanceMeters>1909.1847804151</DistanceMeters>
          </Trackpoint>
          <Trackpoint>
            <Time>2018-06-21T07:46:11.000Z</Time>
            <Position>
              <LatitudeDegrees>41.740995347499847412109375</LatitudeDegrees>
              <LongitudeDegrees>1.78008229471743106842041015625</LongitudeDegrees>
            </Position>
            <AltitudeMeters>525.20001220703125</AltitudeMeters>
            <DistanceMeters>1911.0995156543</DistanceMeters>
          </Trackpoint>
          <Trackpoint>
            <Time>2018-06-21T07:46:17.000Z</Time>
            <Position>
              <LatitudeDegrees>41.741014458239078521728515625</LatitudeDegrees>
              <LongitudeDegrees>1.77998657338321208953857421875</LongitudeDegrees>
            </Position>
            <AltitudeMeters>526.5999755859375</AltitudeMeters>
            <DistanceMeters>1919.3285218673</DistanceMeters>
          </Trackpoint>
          <Trackpoint>
            <Time>2018-06-21T07:46:22.000Z</Time>
            <Position>
              <LatitudeDegrees>41.74104605801403522491455078125</LatitudeDegrees>
              <LongitudeDegrees>1.77990677766501903533935546875</LongitudeDegrees>
            </Position>
            <AltitudeMeters>528</AltitudeMeters>
            <DistanceMeters>1926.831421077</DistanceMeters>
          </Trackpoint>
          <Trackpoint>
            <Time>2018-06-21T07:46:25.000Z</Time>
            <Position>
              <LatitudeDegrees>41.741068772971630096435546875</LatitudeDegrees>
              <LongitudeDegrees>1.77984475158154964447021484375</LongitudeDegrees>
            </Position>
            <AltitudeMeters>528.20001220703125</AltitudeMeters>
            <DistanceMeters>1932.5701220443</DistanceMeters>
          </Trackpoint>
          <Trackpoint>
            <Time>2018-06-21T07:46:29.000Z</Time>
            <Position>
              <LatitudeDegrees>41.7410823516547679901123046875</LatitudeDegrees>
              <LongitudeDegrees>1.77976227365434169769287109375</LongitudeDegrees>
            </Position>
            <AltitudeMeters>527.20001220703125</AltitudeMeters>
            <DistanceMeters>1939.5840978402</DistanceMeters>
          </Trackpoint>
          <Trackpoint>
            <Time>2018-06-21T07:46:30.000Z</Time>
            <Position>
              <LatitudeDegrees>41.7410880513489246368408203125</LatitudeDegrees>
              <LongitudeDegrees>1.77974316291511058807373046875</LongitudeDegrees>
            </Position>
            <AltitudeMeters>527</AltitudeMeters>
            <DistanceMeters>1941.2945786989</DistanceMeters>
          </Trackpoint>
          <Trackpoint>
            <Time>2018-06-21T07:46:32.000Z</Time>
            <Position>
              <LatitudeDegrees>41.74110087566077709197998046875</LatitudeDegrees>
              <LongitudeDegrees>1.7796979844570159912109375</LongitudeDegrees>
            </Position>
            <AltitudeMeters>526.4000244140625</AltitudeMeters>
            <DistanceMeters>1945.3082623406</DistanceMeters>
          </Trackpoint>
          <Trackpoint>
            <Time>2018-06-21T07:46:37.000Z</Time>
            <Position>
              <LatitudeDegrees>41.7411641590297222137451171875</LatitudeDegrees>
              <LongitudeDegrees>1.77964425645768642425537109375</LongitudeDegrees>
            </Position>
            <AltitudeMeters>527</AltitudeMeters>
            <DistanceMeters>1953.6462812026</DistanceMeters>
          </Trackpoint>
          <Trackpoint>
            <Time>2018-06-21T07:46:45.000Z</Time>
            <Position>
              <LatitudeDegrees>41.74124085344374179840087890625</LatitudeDegrees>
              <LongitudeDegrees>1.7796612717211246490478515625</LongitudeDegrees>
            </Position>
            <AltitudeMeters>528.79998779296875</AltitudeMeters>
            <DistanceMeters>1962.298931883</DistanceMeters>
          </Trackpoint>
          <Trackpoint>
            <Time>2018-06-21T07:46:49.000Z</Time>
            <Position>
              <LatitudeDegrees>41.7412942461669445037841796875</LatitudeDegrees>
              <LongitudeDegrees>1.7796820588409900665283203125</LongitudeDegrees>
            </Position>
            <AltitudeMeters>530.4000244140625</AltitudeMeters>
            <DistanceMeters>1968.4880824123</DistanceMeters>
          </Trackpoint>
          <Trackpoint>
            <Time>2018-06-21T07:46:53.000Z</Time>
            <Position>
              <LatitudeDegrees>41.74133908934891223907470703125</LatitudeDegrees>
              <LongitudeDegrees>1.77968365140259265899658203125</LongitudeDegrees>
            </Position>
            <AltitudeMeters>531.4000244140625</AltitudeMeters>
            <DistanceMeters>1973.4803775744</DistanceMeters>
          </Trackpoint>
          <Trackpoint>
            <Time>2018-06-21T07:46:58.000Z</Time>
            <Position>
              <LatitudeDegrees>41.7414102517068386077880859375</LatitudeDegrees>
              <LongitudeDegrees>1.779647357761859893798828125</LongitudeDegrees>
            </Position>
            <AltitudeMeters>532.20001220703125</AltitudeMeters>
            <DistanceMeters>1981.9553541546</DistanceMeters>
          </Trackpoint>
          <Trackpoint>
            <Time>2018-06-21T07:47:03.000Z</Time>
            <Position>
              <LatitudeDegrees>41.74148107878863811492919921875</LatitudeDegrees>
              <LongitudeDegrees>1.779593043029308319091796875</LongitudeDegrees>
            </Position>
            <AltitudeMeters>532.5999755859375</AltitudeMeters>
            <DistanceMeters>1991.0372437289</DistanceMeters>
          </Trackpoint>
          <Trackpoint>
            <Time>2018-06-21T07:47:07.000Z</Time>
            <Position>
              <LatitudeDegrees>41.7415116727352142333984375</LatitudeDegrees>
              <LongitudeDegrees>1.77952925674617290496826171875</LongitudeDegrees>
            </Position>
            <AltitudeMeters>532</AltitudeMeters>
            <DistanceMeters>1997.3348699279</DistanceMeters>
          </Trackpoint>
          <Trackpoint>
            <Time>2018-06-21T07:47:13.000Z</Time>
            <Position>
              <LatitudeDegrees>41.74157227389514446258544921875</LatitudeDegrees>
              <LongitudeDegrees>1.77944895811378955841064453125</LongitudeDegrees>
            </Position>
            <AltitudeMeters>530.5999755859375</AltitudeMeters>
            <DistanceMeters>2006.8199451311</DistanceMeters>
          </Trackpoint>
          <Trackpoint>
            <Time>2018-06-21T07:47:19.000Z</Time>
            <Position>
              <LatitudeDegrees>41.741566993296146392822265625</LatitudeDegrees>
              <LongitudeDegrees>1.779363043606281280517578125</LongitudeDegrees>
            </Position>
            <AltitudeMeters>529.20001220703125</AltitudeMeters>
            <DistanceMeters>2013.9798155191</DistanceMeters>
          </Trackpoint>
          <Trackpoint>
            <Time>2018-06-21T07:47:20.000Z</Time>
            <Position>
              <LatitudeDegrees>41.741562299430370330810546875</LatitudeDegrees>
              <LongitudeDegrees>1.779353655874729156494140625</LongitudeDegrees>
            </Position>
            <AltitudeMeters>529.20001220703125</AltitudeMeters>
            <DistanceMeters>2014.9205319968</DistanceMeters>
          </Trackpoint>
          <Trackpoint>
            <Time>2018-06-21T07:47:22.000Z</Time>
            <Position>
              <LatitudeDegrees>41.7415547557175159454345703125</LatitudeDegrees>
              <LongitudeDegrees>1.77933446131646633148193359375</LongitudeDegrees>
            </Position>
            <AltitudeMeters>529</AltitudeMeters>
            <DistanceMeters>2016.7185218096</DistanceMeters>
          </Trackpoint>
          <Trackpoint>
            <Time>2018-06-21T07:47:27.000Z</Time>
            <Position>
              <LatitudeDegrees>41.741547882556915283203125</LatitudeDegrees>
              <LongitudeDegrees>1.7792820744216442108154296875</LongitudeDegrees>
            </Position>
            <AltitudeMeters>528</AltitudeMeters>
            <DistanceMeters>2021.1359866024</DistanceMeters>
          </Trackpoint>
          <Trackpoint>
            <Time>2018-06-21T07:47:31.000Z</Time>
            <Position>
              <LatitudeDegrees>41.7415376566350460052490234375</LatitudeDegrees>
              <LongitudeDegrees>1.77923924289643764495849609375</LongitudeDegrees>
            </Position>
            <AltitudeMeters>527.4000244140625</AltitudeMeters>
            <DistanceMeters>2024.8711530118</DistanceMeters>
          </Trackpoint>
          <Trackpoint>
            <Time>2018-06-21T07:47:36.000Z</Time>
            <Position>
              <LatitudeDegrees>41.74151594750583171844482421875</LatitudeDegrees>
              <LongitudeDegrees>1.77919347770512104034423828125</LongitudeDegrees>
            </Position>
            <AltitudeMeters>526.20001220703125</AltitudeMeters>
            <DistanceMeters>2029.3746573909</DistanceMeters>
          </Trackpoint>
          <Trackpoint>
            <Time>2018-06-21T07:47:40.000Z</Time>
            <Position>
              <LatitudeDegrees>41.7415329627692699432373046875</LatitudeDegrees>
              <LongitudeDegrees>1.7791405878961086273193359375</LongitudeDegrees>
            </Position>
            <AltitudeMeters>525.5999755859375</AltitudeMeters>
            <DistanceMeters>2034.1581930821</DistanceMeters>
          </Trackpoint>
          <Trackpoint>
            <Time>2018-06-21T07:47:44.000Z</Time>
            <Position>
              <LatitudeDegrees>41.74155584536492824554443359375</LatitudeDegrees>
              <LongitudeDegrees>1.7791120894253253936767578125</LongitudeDegrees>
            </Position>
            <AltitudeMeters>524.79998779296875</AltitudeMeters>
            <DistanceMeters>2037.6341450786</DistanceMeters>
          </Trackpoint>
          <Trackpoint>
            <Time>2018-06-21T07:47:49.000Z</Time>
            <Position>
              <LatitudeDegrees>41.74158099107444286346435546875</LatitudeDegrees>
              <LongitudeDegrees>1.77906137891113758087158203125</LongitudeDegrees>
            </Position>
            <AltitudeMeters>524</AltitudeMeters>
            <DistanceMeters>2042.6911379093</DistanceMeters>
          </Trackpoint>
          <Trackpoint>
            <Time>2018-06-21T07:47:54.000Z</Time>
            <Position>
              <LatitudeDegrees>41.74158476293087005615234375</LatitudeDegrees>
              <LongitudeDegrees>1.77899683825671672821044921875</LongitudeDegrees>
            </Position>
            <AltitudeMeters>522.79998779296875</AltitudeMeters>
            <DistanceMeters>2048.0675004991</DistanceMeters>
          </Trackpoint>
          <Trackpoint>
            <Time>2018-06-21T07:48:00.000Z</Time>
            <Position>
              <LatitudeDegrees>41.74158275127410888671875</LatitudeDegrees>
              <LongitudeDegrees>1.7789179645478725433349609375</LongitudeDegrees>
            </Position>
            <AltitudeMeters>520.79998779296875</AltitudeMeters>
            <DistanceMeters>2054.622277667</DistanceMeters>
          </Trackpoint>
          <Trackpoint>
            <Time>2018-06-21T07:48:05.000Z</Time>
            <Position>
              <LatitudeDegrees>41.741566993296146392822265625</LatitudeDegrees>
              <LongitudeDegrees>1.77890748716890811920166015625</LongitudeDegrees>
            </Position>
            <AltitudeMeters>520.5999755859375</AltitudeMeters>
            <DistanceMeters>2056.5789974763</DistanceMeters>
          </Trackpoint>
          <Trackpoint>
            <Time>2018-06-21T07:48:09.000Z</Time>
            <Position>
              <LatitudeDegrees>41.741533465683460235595703125</LatitudeDegrees>
              <LongitudeDegrees>1.77889089100062847137451171875</LongitudeDegrees>
            </Position>
            <AltitudeMeters>520</AltitudeMeters>
            <DistanceMeters>2060.5565210689</DistanceMeters>
          </Trackpoint>
          <Trackpoint>
            <Time>2018-06-21T07:48:13.000Z</Time>
            <Position>
              <LatitudeDegrees>41.7414950765669345855712890625</LatitudeDegrees>
              <LongitudeDegrees>1.77888535894453525543212890625</LongitudeDegrees>
            </Position>
            <AltitudeMeters>519.20001220703125</AltitudeMeters>
            <DistanceMeters>2064.8548389264</DistanceMeters>
          </Trackpoint>
          <Trackpoint>
            <Time>2018-06-21T07:48:19.000Z</Time>
            <Position>
              <LatitudeDegrees>41.741416454315185546875</LatitudeDegrees>
              <LongitudeDegrees>1.77885686047375202178955078125</LongitudeDegrees>
            </Position>
            <AltitudeMeters>517.20001220703125</AltitudeMeters>
            <DistanceMeters>2073.9198097284</DistanceMeters>
          </Trackpoint>
          <Trackpoint>
            <Time>2018-06-21T07:48:21.000Z</Time>
            <Position>
              <LatitudeDegrees>41.74139558337628841400146484375</LatitudeDegrees>
              <LongitudeDegrees>1.7788502387702465057373046875</LongitudeDegrees>
            </Position>
            <AltitudeMeters>516.5999755859375</AltitudeMeters>
            <DistanceMeters>2076.3049613294</DistanceMeters>
          </Trackpoint>
          <Trackpoint>
            <Time>2018-06-21T07:48:24.000Z</Time>
            <Position>
              <LatitudeDegrees>41.74135736189782619476318359375</LatitudeDegrees>
              <LongitudeDegrees>1.77885065786540508270263671875</LongitudeDegrees>
            </Position>
            <AltitudeMeters>516</AltitudeMeters>
            <DistanceMeters>2080.5589327907</DistanceMeters>
          </Trackpoint>
          <Trackpoint>
            <Time>2018-06-21T07:48:27.000Z</Time>
            <Position>
              <LatitudeDegrees>41.74132995307445526123046875</LatitudeDegrees>
              <LongitudeDegrees>1.77883674390614032745361328125</LongitudeDegrees>
            </Position>
            <AltitudeMeters>515.20001220703125</AltitudeMeters>
            <DistanceMeters>2083.8204401187</DistanceMeters>
          </Trackpoint>
          <Trackpoint>
            <Time>2018-06-21T07:48:32.000Z</Time>
            <Position>
              <LatitudeDegrees>41.74126088619232177734375</LatitudeDegrees>
              <LongitudeDegrees>1.7788170464336872100830078125</LongitudeDegrees>
            </Position>
            <AltitudeMeters>513.4000244140625</AltitudeMeters>
            <DistanceMeters>2091.6795573005</DistanceMeters>
          </Trackpoint>
          <Trackpoint>
            <Time>2018-06-21T07:48:36.000Z</Time>
            <Position>
              <LatitudeDegrees>41.7411963455379009246826171875</LatitudeDegrees>
              <LongitudeDegrees>1.77880204282701015472412109375</LongitudeDegrees>
            </Position>
            <AltitudeMeters>511.79998779296875</AltitudeMeters>
            <DistanceMeters>2098.9700325902</DistanceMeters>
          </Trackpoint>
          <Trackpoint>
            <Time>2018-06-21T07:48:41.000Z</Time>
            <Position>
              <LatitudeDegrees>41.741146557033061981201171875</LatitudeDegrees>
              <LongitudeDegrees>1.7787479795515537261962890625</LongitudeDegrees>
            </Position>
            <AltitudeMeters>509.600006103515625</AltitudeMeters>
            <DistanceMeters>2106.102735492</DistanceMeters>
          </Trackpoint>
          <Trackpoint>
            <Time>2018-06-21T07:48:42.000Z</Time>
            <Position>
              <LatitudeDegrees>41.74114479683339595794677734375</LatitudeDegrees>
              <LongitudeDegrees>1.77872844971716403961181640625</LongitudeDegrees>
            </Position>
            <AltitudeMeters>509</AltitudeMeters>
            <DistanceMeters>2107.7376369041</DistanceMeters>
          </Trackpoint>
          <Trackpoint>
            <Time>2018-06-21T07:48:47.000Z</Time>
            <Position>
              <LatitudeDegrees>41.74114085733890533447265625</LatitudeDegrees>
              <LongitudeDegrees>1.7786510847508907318115234375</LongitudeDegrees>
            </Position>
            <AltitudeMeters>507.399993896484375</AltitudeMeters>
            <DistanceMeters>2114.1777565542</DistanceMeters>
          </Trackpoint>
          <Trackpoint>
            <Time>2018-06-21T07:48:52.000Z</Time>
            <Position>
              <LatitudeDegrees>41.7411396838724613189697265625</LatitudeDegrees>
              <LongitudeDegrees>1.7785598896443843841552734375</LongitudeDegrees>
            </Position>
            <AltitudeMeters>505</AltitudeMeters>
            <DistanceMeters>2121.7525242552</DistanceMeters>
          </Trackpoint>
          <Trackpoint>
            <Time>2018-06-21T07:49:00.000Z</Time>
            <Position>
              <LatitudeDegrees>41.7411165498197078704833984375</LatitudeDegrees>
              <LongitudeDegrees>1.77841546945273876190185546875</LongitudeDegrees>
            </Position>
            <AltitudeMeters>501</AltitudeMeters>
            <DistanceMeters>2134.0194388576</DistanceMeters>
          </Trackpoint>
          <Trackpoint>
            <Time>2018-06-21T07:49:01.000Z</Time>
            <Position>
              <LatitudeDegrees>41.74111068248748779296875</LatitudeDegrees>
              <LongitudeDegrees>1.77839786745607852935791015625</LongitudeDegrees>
            </Position>
            <AltitudeMeters>500.399993896484375</AltitudeMeters>
            <DistanceMeters>2135.6208575131</DistanceMeters>
          </Trackpoint>
          <Trackpoint>
            <Time>2018-06-21T07:49:06.000Z</Time>
            <Position>
              <LatitudeDegrees>41.74110598862171173095703125</LatitudeDegrees>
              <LongitudeDegrees>1.77829946391284465789794921875</LongitudeDegrees>
            </Position>
            <AltitudeMeters>497.79998779296875</AltitudeMeters>
            <DistanceMeters>2143.8097126023</DistanceMeters>
          </Trackpoint>
          <Trackpoint>
            <Time>2018-06-21T07:49:09.000Z</Time>
            <Position>
              <LatitudeDegrees>41.7410890571773052215576171875</LatitudeDegrees>
              <LongitudeDegrees>1.77826057188212871551513671875</LongitudeDegrees>
            </Position>
            <AltitudeMeters>496.600006103515625</AltitudeMeters>
            <DistanceMeters>2147.5485036282</DistanceMeters>
          </Trackpoint>
          <Trackpoint>
            <Time>2018-06-21T07:49:15.000Z</Time>
            <Position>
              <LatitudeDegrees>41.7410932481288909912109375</LatitudeDegrees>
              <LongitudeDegrees>1.77817205898463726043701171875</LongitudeDegrees>
            </Position>
            <AltitudeMeters>494.79998779296875</AltitudeMeters>
            <DistanceMeters>2154.9147597568</DistanceMeters>
          </Trackpoint>
          <Trackpoint>
            <Time>2018-06-21T07:49:19.000Z</Time>
            <Position>
              <LatitudeDegrees>41.7411078326404094696044921875</LatitudeDegrees>
              <LongitudeDegrees>1.77808857522904872894287109375</LongitudeDegrees>
            </Position>
            <AltitudeMeters>493.399993896484375</AltitudeMeters>
            <DistanceMeters>2162.0347912986</DistanceMeters>
          </Trackpoint>
          <Trackpoint>
            <Time>2018-06-21T07:49:23.000Z</Time>
            <Position>
              <LatitudeDegrees>41.74110758118331432342529296875</LatitudeDegrees>
              <LongitudeDegrees>1.7780043371021747589111328125</LongitudeDegrees>
            </Position>
            <AltitudeMeters>491.79998779296875</AltitudeMeters>
            <DistanceMeters>2169.0307197092</DistanceMeters>
          </Trackpoint>
          <Trackpoint>
            <Time>2018-06-21T07:49:28.000Z</Time>
            <Position>
              <LatitudeDegrees>41.7411222495138645172119140625</LatitudeDegrees>
              <LongitudeDegrees>1.7779020778834819793701171875</LongitudeDegrees>
            </Position>
            <AltitudeMeters>490</AltitudeMeters>
            <DistanceMeters>2177.6786728259</DistanceMeters>
          </Trackpoint>
          <Trackpoint>
            <Time>2018-06-21T07:49:33.000Z</Time>
            <Position>
              <LatitudeDegrees>41.74116189591586589813232421875</LatitudeDegrees>
              <LongitudeDegrees>1.77780996076762676239013671875</LongitudeDegrees>
            </Position>
            <AltitudeMeters>489</AltitudeMeters>
            <DistanceMeters>2186.5095131126</DistanceMeters>
          </Trackpoint>
          <Trackpoint>
            <Time>2018-06-21T07:49:36.000Z</Time>
            <Position>
              <LatitudeDegrees>41.7411936633288860321044921875</LatitudeDegrees>
              <LongitudeDegrees>1.7777491919696331024169921875</LongitudeDegrees>
            </Position>
            <AltitudeMeters>488.600006103515625</AltitudeMeters>
            <DistanceMeters>2192.6723453774</DistanceMeters>
          </Trackpoint>
          <Trackpoint>
            <Time>2018-06-21T07:49:38.000Z</Time>
            <Position>
              <LatitudeDegrees>41.7412005364894866943359375</LatitudeDegrees>
              <LongitudeDegrees>1.7777089588344097137451171875</LongitudeDegrees>
            </Position>
            <AltitudeMeters>488</AltitudeMeters>
            <DistanceMeters>2196.1012168433</DistanceMeters>
          </Trackpoint>
          <Trackpoint>
            <Time>2018-06-21T07:49:45.000Z</Time>
            <Position>
              <LatitudeDegrees>41.74119458533823490142822265625</LatitudeDegrees>
              <LongitudeDegrees>1.77757375873625278472900390625</LongitudeDegrees>
            </Position>
            <AltitudeMeters>485.600006103515625</AltitudeMeters>
            <DistanceMeters>2207.3489442129</DistanceMeters>
          </Trackpoint>
          <Trackpoint>
            <Time>2018-06-21T07:49:50.000Z</Time>
            <Position>
              <LatitudeDegrees>41.74123263917863368988037109375</LatitudeDegrees>
              <LongitudeDegrees>1.77750687114894390106201171875</LongitudeDegrees>
            </Position>
            <AltitudeMeters>485.20001220703125</AltitudeMeters>
            <DistanceMeters>2214.3345388979</DistanceMeters>
          </Trackpoint>
          <Trackpoint>
            <Time>2018-06-21T07:49:55.000Z</Time>
            <Position>
              <LatitudeDegrees>41.74122777767479419708251953125</LatitudeDegrees>
              <LongitudeDegrees>1.7774209566414356231689453125</LongitudeDegrees>
            </Position>
            <AltitudeMeters>483.600006103515625</AltitudeMeters>
            <DistanceMeters>2221.4899937008</DistanceMeters>
          </Trackpoint>
          <Trackpoint>
            <Time>2018-06-21T07:49:58.000Z</Time>
            <Position>
              <LatitudeDegrees>41.741228364408016204833984375</LatitudeDegrees>
              <LongitudeDegrees>1.77738659083843231201171875</LongitudeDegrees>
            </Position>
            <AltitudeMeters>483.20001220703125</AltitudeMeters>
            <DistanceMeters>2224.3439609313</DistanceMeters>
          </Trackpoint>
          <Trackpoint>
            <Time>2018-06-21T07:50:03.000Z</Time>
            <Position>
              <LatitudeDegrees>41.74121989868581295013427734375</LatitudeDegrees>
              <LongitudeDegrees>1.777295060455799102783203125</LongitudeDegrees>
            </Position>
            <AltitudeMeters>481.600006103515625</AltitudeMeters>
            <DistanceMeters>2232.0034913775</DistanceMeters>
          </Trackpoint>
          <Trackpoint>
            <Time>2018-06-21T07:50:08.000Z</Time>
            <Position>
              <LatitudeDegrees>41.7412050627171993255615234375</LatitudeDegrees>
              <LongitudeDegrees>1.77722708322107791900634765625</LongitudeDegrees>
            </Position>
            <AltitudeMeters>480.20001220703125</AltitudeMeters>
            <DistanceMeters>2237.8844090593</DistanceMeters>
          </Trackpoint>
          <Trackpoint>
            <Time>2018-06-21T07:50:15.000Z</Time>
            <Position>
              <LatitudeDegrees>41.74121998250484466552734375</LatitudeDegrees>
              <LongitudeDegrees>1.77718274295330047607421875</LongitudeDegrees>
            </Position>
            <AltitudeMeters>479.79998779296875</AltitudeMeters>
            <DistanceMeters>2241.9250003788</DistanceMeters>
          </Trackpoint>
          <Trackpoint>
            <Time>2018-06-21T07:50:19.000Z</Time>
            <Position>
              <LatitudeDegrees>41.7412080802023410797119140625</LatitudeDegrees>
              <LongitudeDegrees>1.77711459808051586151123046875</LongitudeDegrees>
            </Position>
            <AltitudeMeters>478.399993896484375</AltitudeMeters>
            <DistanceMeters>2247.7371872285</DistanceMeters>
          </Trackpoint>
          <Trackpoint>
            <Time>2018-06-21T07:50:20.000Z</Time>
            <Position>
              <LatitudeDegrees>41.74120699055492877960205078125</LatitudeDegrees>
              <LongitudeDegrees>1.77710085175931453704833984375</LongitudeDegrees>
            </Position>
            <AltitudeMeters>478.20001220703125</AltitudeMeters>
            <DistanceMeters>2248.8814603971</DistanceMeters>
          </Trackpoint>
          <Trackpoint>
            <Time>2018-06-21T07:50:25.000Z</Time>
            <Position>
              <LatitudeDegrees>41.74117178656160831451416015625</LatitudeDegrees>
              <LongitudeDegrees>1.77702985703945159912109375</LongitudeDegrees>
            </Position>
            <AltitudeMeters>476.399993896484375</AltitudeMeters>
            <DistanceMeters>2255.9614289239</DistanceMeters>
          </Trackpoint>
          <Trackpoint>
            <Time>2018-06-21T07:50:29.000Z</Time>
            <Position>
              <LatitudeDegrees>41.74113356508314609527587890625</LatitudeDegrees>
              <LongitudeDegrees>1.77698266692459583282470703125</LongitudeDegrees>
            </Position>
            <AltitudeMeters>475</AltitudeMeters>
            <DistanceMeters>2261.7463630896</DistanceMeters>
          </Trackpoint>
          <Trackpoint>
            <Time>2018-06-21T07:50:34.000Z</Time>
            <Position>
              <LatitudeDegrees>41.741112358868122100830078125</LatitudeDegrees>
              <LongitudeDegrees>1.77691586315631866455078125</LongitudeDegrees>
            </Position>
            <AltitudeMeters>474</AltitudeMeters>
            <DistanceMeters>2267.775881127</DistanceMeters>
          </Trackpoint>
          <Trackpoint>
            <Time>2018-06-21T07:50:40.000Z</Time>
            <Position>
              <LatitudeDegrees>41.7410575412213802337646484375</LatitudeDegrees>
              <LongitudeDegrees>1.77687856368720531463623046875</LongitudeDegrees>
            </Position>
            <AltitudeMeters>472.20001220703125</AltitudeMeters>
            <DistanceMeters>2274.6191242499</DistanceMeters>
          </Trackpoint>
          <Trackpoint>
            <Time>2018-06-21T07:50:44.000Z</Time>
            <Position>
              <LatitudeDegrees>41.74104966223239898681640625</LatitudeDegrees>
              <LongitudeDegrees>1.77681737579405307769775390625</LongitudeDegrees>
            </Position>
            <AltitudeMeters>471.79998779296875</AltitudeMeters>
            <DistanceMeters>2279.7768955907</DistanceMeters>
          </Trackpoint>
          <Trackpoint>
            <Time>2018-06-21T07:50:52.000Z</Time>
            <Position>
              <LatitudeDegrees>41.74102594144642353057861328125</LatitudeDegrees>
              <LongitudeDegrees>1.776710338890552520751953125</LongitudeDegrees>
            </Position>
            <AltitudeMeters>470.79998779296875</AltitudeMeters>
            <DistanceMeters>2289.0501592004</DistanceMeters>
          </Trackpoint>
          <Trackpoint>
            <Time>2018-06-21T07:50:53.000Z</Time>
            <Position>
              <LatitudeDegrees>41.74101688899099826812744140625</LatitudeDegrees>
              <LongitudeDegrees>1.77668896503746509552001953125</LongitudeDegrees>
            </Position>
            <AltitudeMeters>470.399993896484375</AltitudeMeters>
            <DistanceMeters>2291.0904692848</DistanceMeters>
          </Trackpoint>
          <Trackpoint>
            <Time>2018-06-21T07:50:58.000Z</Time>
            <Position>
              <LatitudeDegrees>41.74103784374892711639404296875</LatitudeDegrees>
              <LongitudeDegrees>1.7765673436224460601806640625</LongitudeDegrees>
            </Position>
            <AltitudeMeters>470.79998779296875</AltitudeMeters>
            <DistanceMeters>2301.4566599875</DistanceMeters>
          </Trackpoint>
          <Trackpoint>
            <Time>2018-06-21T07:51:04.000Z</Time>
            <Position>
              <LatitudeDegrees>41.74105477519333362579345703125</LatitudeDegrees>
              <LongitudeDegrees>1.77645586431026458740234375</LongitudeDegrees>
            </Position>
            <AltitudeMeters>470.20001220703125</AltitudeMeters>
            <DistanceMeters>2310.9050109401</DistanceMeters>
          </Trackpoint>
          <Trackpoint>
            <Time>2018-06-21T07:51:06.000Z</Time>
            <Position>
              <LatitudeDegrees>41.7410451360046863555908203125</LatitudeDegrees>
              <LongitudeDegrees>1.7764087580144405364990234375</LongitudeDegrees>
            </Position>
            <AltitudeMeters>469.399993896484375</AltitudeMeters>
            <DistanceMeters>2314.9634416016</DistanceMeters>
          </Trackpoint>
          <Trackpoint>
            <Time>2018-06-21T07:51:13.000Z</Time>
            <Position>
              <LatitudeDegrees>41.7410263605415821075439453125</LatitudeDegrees>
              <LongitudeDegrees>1.77624036557972431182861328125</LongitudeDegrees>
            </Position>
            <AltitudeMeters>466.600006103515625</AltitudeMeters>
            <DistanceMeters>2329.1035955124</DistanceMeters>
          </Trackpoint>
          <Trackpoint>
            <Time>2018-06-21T07:51:19.000Z</Time>
            <Position>
              <LatitudeDegrees>41.74103365279734134674072265625</LatitudeDegrees>
              <LongitudeDegrees>1.776104159653186798095703125</LongitudeDegrees>
            </Position>
            <AltitudeMeters>465.20001220703125</AltitudeMeters>
            <DistanceMeters>2340.4440694317</DistanceMeters>
          </Trackpoint>
          <Trackpoint>
            <Time>2018-06-21T07:51:24.000Z</Time>
            <Position>
              <LatitudeDegrees>41.74106248654425144195556640625</LatitudeDegrees>
              <LongitudeDegrees>1.77599745802581310272216796875</LongitudeDegrees>
            </Position>
            <AltitudeMeters>466.20001220703125</AltitudeMeters>
            <DistanceMeters>2349.8684968362</DistanceMeters>
          </Trackpoint>
          <Trackpoint>
            <Time>2018-06-21T07:51:26.000Z</Time>
            <Position>
              <LatitudeDegrees>41.74107053317129611968994140625</LatitudeDegrees>
              <LongitudeDegrees>1.77595688961446285247802734375</LongitudeDegrees>
            </Position>
            <AltitudeMeters>466.79998779296875</AltitudeMeters>
            <DistanceMeters>2353.3535295215</DistanceMeters>
          </Trackpoint>
          <Trackpoint>
            <Time>2018-06-21T07:51:31.000Z</Time>
            <Position>
              <LatitudeDegrees>41.74109257757663726806640625</LatitudeDegrees>
              <LongitudeDegrees>1.77586175501346588134765625</LongitudeDegrees>
            </Position>
            <AltitudeMeters>468.20001220703125</AltitudeMeters>
            <DistanceMeters>2361.6263131744</DistanceMeters>
          </Trackpoint>
          <Trackpoint>
            <Time>2018-06-21T07:51:36.000Z</Time>
            <Position>
              <LatitudeDegrees>41.7411014623939990997314453125</LatitudeDegrees>
              <LongitudeDegrees>1.77575647830963134765625</LongitudeDegrees>
            </Position>
            <AltitudeMeters>469.20001220703125</AltitudeMeters>
            <DistanceMeters>2370.425396958</DistanceMeters>
          </Trackpoint>
          <Trackpoint>
            <Time>2018-06-21T07:51:40.000Z</Time>
            <Position>
              <LatitudeDegrees>41.74111403524875640869140625</LatitudeDegrees>
              <LongitudeDegrees>1.77565095014870166778564453125</LongitudeDegrees>
            </Position>
            <AltitudeMeters>469</AltitudeMeters>
            <DistanceMeters>2379.301115909</DistanceMeters>
          </Trackpoint>
          <Trackpoint>
            <Time>2018-06-21T07:51:48.000Z</Time>
            <Position>
              <LatitudeDegrees>41.741125769913196563720703125</LatitudeDegrees>
              <LongitudeDegrees>1.7754813842475414276123046875</LongitudeDegrees>
            </Position>
            <AltitudeMeters>467</AltitudeMeters>
            <DistanceMeters>2393.4438240384</DistanceMeters>
          </Trackpoint>
          <Trackpoint>
            <Time>2018-06-21T07:51:52.000Z</Time>
            <Position>
              <LatitudeDegrees>41.7411522567272186279296875</LatitudeDegrees>
              <LongitudeDegrees>1.7754022590816020965576171875</LongitudeDegrees>
            </Position>
            <AltitudeMeters>467</AltitudeMeters>
            <DistanceMeters>2400.6458209208</DistanceMeters>
          </Trackpoint>
          <Trackpoint>
            <Time>2018-06-21T07:52:01.000Z</Time>
            <Position>
              <LatitudeDegrees>41.741164661943912506103515625</LatitudeDegrees>
              <LongitudeDegrees>1.77521827630698680877685546875</LongitudeDegrees>
            </Position>
            <AltitudeMeters>464.399993896484375</AltitudeMeters>
            <DistanceMeters>2415.9875594961</DistanceMeters>
          </Trackpoint>
          <Trackpoint>
            <Time>2018-06-21T07:52:08.000Z</Time>
            <Position>
              <LatitudeDegrees>41.74118385650217533111572265625</LatitudeDegrees>
              <LongitudeDegrees>1.775092296302318572998046875</LongitudeDegrees>
            </Position>
            <AltitudeMeters>462.79998779296875</AltitudeMeters>
            <DistanceMeters>2426.6661270655</DistanceMeters>
          </Trackpoint>
          <Trackpoint>
            <Time>2018-06-21T07:52:16.000Z</Time>
            <Position>
              <LatitudeDegrees>41.741237081587314605712890625</LatitudeDegrees>
              <LongitudeDegrees>1.7749459482729434967041015625</LongitudeDegrees>
            </Position>
            <AltitudeMeters>462.399993896484375</AltitudeMeters>
            <DistanceMeters>2440.1873299589</DistanceMeters>
          </Trackpoint>
          <Trackpoint>
            <Time>2018-06-21T07:52:21.000Z</Time>
            <Position>
              <LatitudeDegrees>41.7413056455552577972412109375</LatitudeDegrees>
              <LongitudeDegrees>1.774897836148738861083984375</LongitudeDegrees>
            </Position>
            <AltitudeMeters>464.600006103515625</AltitudeMeters>
            <DistanceMeters>2448.8018043025</DistanceMeters>
          </Trackpoint>
          <Trackpoint>
            <Time>2018-06-21T07:52:28.000Z</Time>
            <Position>
              <LatitudeDegrees>41.74138736911118030548095703125</LatitudeDegrees>
              <LongitudeDegrees>1.77481695078313350677490234375</LongitudeDegrees>
            </Position>
            <AltitudeMeters>466.20001220703125</AltitudeMeters>
            <DistanceMeters>2460.1095840335</DistanceMeters>
          </Trackpoint>
          <Trackpoint>
            <Time>2018-06-21T07:52:34.000Z</Time>
            <Position>
              <LatitudeDegrees>41.741481162607669830322265625</LatitudeDegrees>
              <LongitudeDegrees>1.77479884587228298187255859375</LongitudeDegrees>
            </Position>
            <AltitudeMeters>469.79998779296875</AltitudeMeters>
            <DistanceMeters>2470.6571212717</DistanceMeters>
          </Trackpoint>
          <Trackpoint>
            <Time>2018-06-21T07:52:40.000Z</Time>
            <Position>
              <LatitudeDegrees>41.7415527440607547760009765625</LatitudeDegrees>
              <LongitudeDegrees>1.7747427709400653839111328125</LongitudeDegrees>
            </Position>
            <AltitudeMeters>470.399993896484375</AltitudeMeters>
            <DistanceMeters>2479.8859717428</DistanceMeters>
          </Trackpoint>
          <Trackpoint>
            <Time>2018-06-21T07:52:48.000Z</Time>
            <Position>
              <LatitudeDegrees>41.74165508709847927093505859375</LatitudeDegrees>
              <LongitudeDegrees>1.7746431939303874969482421875</LongitudeDegrees>
            </Position>
            <AltitudeMeters>468.600006103515625</AltitudeMeters>
            <DistanceMeters>2493.9621195587</DistanceMeters>
          </Trackpoint>
          <Trackpoint>
            <Time>2018-06-21T07:52:54.000Z</Time>
            <Position>
              <LatitudeDegrees>41.74171627499163150787353515625</LatitudeDegrees>
              <LongitudeDegrees>1.774535737931728363037109375</LongitudeDegrees>
            </Position>
            <AltitudeMeters>465.79998779296875</AltitudeMeters>
            <DistanceMeters>2505.1877472371</DistanceMeters>
          </Trackpoint>
          <Trackpoint>
            <Time>2018-06-21T07:52:59.000Z</Time>
            <Position>
              <LatitudeDegrees>41.74176983535289764404296875</LatitudeDegrees>
              <LongitudeDegrees>1.7744775675237178802490234375</LongitudeDegrees>
            </Position>
            <AltitudeMeters>464.600006103515625</AltitudeMeters>
            <DistanceMeters>2512.86082344</DistanceMeters>
          </Trackpoint>
          <Trackpoint>
            <Time>2018-06-21T07:53:06.000Z</Time>
            <Position>
              <LatitudeDegrees>41.74184627830982208251953125</LatitudeDegrees>
              <LongitudeDegrees>1.7744247615337371826171875</LongitudeDegrees>
            </Position>
            <AltitudeMeters>464.20001220703125</AltitudeMeters>
            <DistanceMeters>2522.4330847024</DistanceMeters>
          </Trackpoint>
          <Trackpoint>
            <Time>2018-06-21T07:53:07.000Z</Time>
            <Position>
              <LatitudeDegrees>41.7418467812240123748779296875</LatitudeDegrees>
              <LongitudeDegrees>1.77441277541220188140869140625</LongitudeDegrees>
            </Position>
            <AltitudeMeters>463.79998779296875</AltitudeMeters>
            <DistanceMeters>2523.4297332909</DistanceMeters>
          </Trackpoint>
          <Trackpoint>
            <Time>2018-06-21T07:53:10.000Z</Time>
            <Position>
              <LatitudeDegrees>41.74186346121132373809814453125</LatitudeDegrees>
              <LongitudeDegrees>1.7743662558495998382568359375</LongitudeDegrees>
            </Position>
            <AltitudeMeters>462.399993896484375</AltitudeMeters>
            <DistanceMeters>2527.7164809582</DistanceMeters>
          </Trackpoint>
          <Trackpoint>
            <Time>2018-06-21T07:53:14.000Z</Time>
            <Position>
              <LatitudeDegrees>41.7419037781655788421630859375</LatitudeDegrees>
              <LongitudeDegrees>1.7743201553821563720703125</LongitudeDegrees>
            </Position>
            <AltitudeMeters>464.600006103515625</AltitudeMeters>
            <DistanceMeters>2533.6150303171</DistanceMeters>
          </Trackpoint>
          <Trackpoint>
            <Time>2018-06-21T07:53:20.000Z</Time>
            <Position>
              <LatitudeDegrees>41.74189229495823383331298828125</LatitudeDegrees>
              <LongitudeDegrees>1.7742155492305755615234375</LongitudeDegrees>
            </Position>
            <AltitudeMeters>463.79998779296875</AltitudeMeters>
            <DistanceMeters>2542.3961363268</DistanceMeters>
          </Trackpoint>
          <Trackpoint>
            <Time>2018-06-21T07:53:26.000Z</Time>
            <Position>
              <LatitudeDegrees>41.7418702505528926849365234375</LatitudeDegrees>
              <LongitudeDegrees>1.774123348295688629150390625</LongitudeDegrees>
            </Position>
            <AltitudeMeters>462.600006103515625</AltitudeMeters>
            <DistanceMeters>2550.4369912154</DistanceMeters>
          </Trackpoint>
          <Trackpoint>
            <Time>2018-06-21T07:53:30.000Z</Time>
            <Position>
              <LatitudeDegrees>41.7418799735605716705322265625</LatitudeDegrees>
              <LongitudeDegrees>1.7740527726709842681884765625</LongitudeDegrees>
            </Position>
            <AltitudeMeters>463</AltitudeMeters>
            <DistanceMeters>2556.3972194602</DistanceMeters>
          </Trackpoint>
          <Trackpoint>
            <Time>2018-06-21T07:53:36.000Z</Time>
            <Position>
              <LatitudeDegrees>41.74190805293619632720947265625</LatitudeDegrees>
              <LongitudeDegrees>1.77396434359252452850341796875</LongitudeDegrees>
            </Position>
            <AltitudeMeters>462.399993896484375</AltitudeMeters>
            <DistanceMeters>2564.378897812</DistanceMeters>
          </Trackpoint>
          <Trackpoint>
            <Time>2018-06-21T07:53:42.000Z</Time>
            <Position>
              <LatitudeDegrees>41.74190738238394260406494140625</LatitudeDegrees>
              <LongitudeDegrees>1.77386325784027576446533203125</LongitudeDegrees>
            </Position>
            <AltitudeMeters>459.79998779296875</AltitudeMeters>
            <DistanceMeters>2572.7735816398</DistanceMeters>
          </Trackpoint>
          <Trackpoint>
            <Time>2018-06-21T07:53:43.000Z</Time>
            <Position>
              <LatitudeDegrees>41.741907633841037750244140625</LatitudeDegrees>
              <LongitudeDegrees>1.7738445661962032318115234375</LongitudeDegrees>
            </Position>
            <AltitudeMeters>459.399993896484375</AltitudeMeters>
            <DistanceMeters>2574.3263309469</DistanceMeters>
          </Trackpoint>
          <Trackpoint>
            <Time>2018-06-21T07:53:45.000Z</Time>
            <Position>
              <LatitudeDegrees>41.74190805293619632720947265625</LatitudeDegrees>
              <LongitudeDegrees>1.7738123796880245208740234375</LongitudeDegrees>
            </Position>
            <AltitudeMeters>458.600006103515625</AltitudeMeters>
            <DistanceMeters>2577.000619739</DistanceMeters>
          </Trackpoint>
          <Trackpoint>
            <Time>2018-06-21T07:53:54.000Z</Time>
            <Position>
              <LatitudeDegrees>41.741928756237030029296875</LatitudeDegrees>
              <LongitudeDegrees>1.77370115183293819427490234375</LongitudeDegrees>
            </Position>
            <AltitudeMeters>456.79998779296875</AltitudeMeters>
            <DistanceMeters>2586.5213291319</DistanceMeters>
          </Trackpoint>
          <Trackpoint>
            <Time>2018-06-21T07:53:59.000Z</Time>
            <Position>
              <LatitudeDegrees>41.7419359646737575531005859375</LatitudeDegrees>
              <LongitudeDegrees>1.77364566363394260406494140625</LongitudeDegrees>
            </Position>
            <AltitudeMeters>455.79998779296875</AltitudeMeters>
            <DistanceMeters>2591.1998871683</DistanceMeters>
          </Trackpoint>
          <Trackpoint>
            <Time>2018-06-21T07:54:04.000Z</Time>
            <Position>
              <LatitudeDegrees>41.741914339363574981689453125</LatitudeDegrees>
              <LongitudeDegrees>1.77357056178152561187744140625</LongitudeDegrees>
            </Position>
            <AltitudeMeters>453</AltitudeMeters>
            <DistanceMeters>2597.8856091486</DistanceMeters>
          </Trackpoint>
          <Trackpoint>
            <Time>2018-06-21T07:54:10.000Z</Time>
            <Position>
              <LatitudeDegrees>41.74188726581633090972900390625</LatitudeDegrees>
              <LongitudeDegrees>1.77349579520523548126220703125</LongitudeDegrees>
            </Position>
            <AltitudeMeters>450</AltitudeMeters>
            <DistanceMeters>2604.7879770987</DistanceMeters>
          </Trackpoint>
          <Trackpoint>
            <Time>2018-06-21T07:54:15.000Z</Time>
            <Position>
              <LatitudeDegrees>41.7418737709522247314453125</LatitudeDegrees>
              <LongitudeDegrees>1.77341264672577381134033203125</LongitudeDegrees>
            </Position>
            <AltitudeMeters>448</AltitudeMeters>
            <DistanceMeters>2611.8551797144</DistanceMeters>
          </Trackpoint>
          <Trackpoint>
            <Time>2018-06-21T07:54:19.000Z</Time>
            <Position>
              <LatitudeDegrees>41.7418551631271839141845703125</LatitudeDegrees>
              <LongitudeDegrees>1.77334106527268886566162109375</LongitudeDegrees>
            </Position>
            <AltitudeMeters>445.600006103515625</AltitudeMeters>
            <DistanceMeters>2618.1499374886</DistanceMeters>
          </Trackpoint>
          <Trackpoint>
            <Time>2018-06-21T07:54:23.000Z</Time>
            <Position>
              <LatitudeDegrees>41.741861365735530853271484375</LatitudeDegrees>
              <LongitudeDegrees>1.77327149547636508941650390625</LongitudeDegrees>
            </Position>
            <AltitudeMeters>445</AltitudeMeters>
            <DistanceMeters>2623.9691115421</DistanceMeters>
          </Trackpoint>
          <Trackpoint>
            <Time>2018-06-21T07:54:30.000Z</Time>
            <Position>
              <LatitudeDegrees>41.74184015952050685882568359375</LatitudeDegrees>
              <LongitudeDegrees>1.77314828149974346160888671875</LongitudeDegrees>
            </Position>
            <AltitudeMeters>441.600006103515625</AltitudeMeters>
            <DistanceMeters>2634.470315927</DistanceMeters>
          </Trackpoint>
          <Trackpoint>
            <Time>2018-06-21T07:54:33.000Z</Time>
            <Position>
              <LatitudeDegrees>41.74183915369212627410888671875</LatitudeDegrees>
              <LongitudeDegrees>1.77309514023363590240478515625</LongitudeDegrees>
            </Position>
            <AltitudeMeters>440.600006103515625</AltitudeMeters>
            <DistanceMeters>2638.8847133906</DistanceMeters>
          </Trackpoint>
          <Trackpoint>
            <Time>2018-06-21T07:54:40.000Z</Time>
            <Position>
              <LatitudeDegrees>41.74184284172952175140380859375</LatitudeDegrees>
              <LongitudeDegrees>1.77298047579824924468994140625</LongitudeDegrees>
            </Position>
            <AltitudeMeters>439</AltitudeMeters>
            <DistanceMeters>2648.4158502077</DistanceMeters>
          </Trackpoint>
          <Trackpoint>
            <Time>2018-06-21T07:54:44.000Z</Time>
            <Position>
              <LatitudeDegrees>41.74181065522134304046630859375</LatitudeDegrees>
              <LongitudeDegrees>1.77294326014816761016845703125</LongitudeDegrees>
            </Position>
            <AltitudeMeters>436.399993896484375</AltitudeMeters>
            <DistanceMeters>2653.1471882324</DistanceMeters>
          </Trackpoint>
          <Trackpoint>
            <Time>2018-06-21T07:54:50.000Z</Time>
            <Position>
              <LatitudeDegrees>41.741764135658740997314453125</LatitudeDegrees>
              <LongitudeDegrees>1.77291828207671642303466796875</LongitudeDegrees>
            </Position>
            <AltitudeMeters>433</AltitudeMeters>
            <DistanceMeters>2658.7255072826</DistanceMeters>
          </Trackpoint>
          <Trackpoint>
            <Time>2018-06-21T07:54:54.000Z</Time>
            <Position>
              <LatitudeDegrees>41.74173119477927684783935546875</LatitudeDegrees>
              <LongitudeDegrees>1.7729121632874011993408203125</LongitudeDegrees>
            </Position>
            <AltitudeMeters>430.79998779296875</AltitudeMeters>
            <DistanceMeters>2662.4254526726</DistanceMeters>
          </Trackpoint>
          <Trackpoint>
            <Time>2018-06-21T07:54:57.000Z</Time>
            <Position>
              <LatitudeDegrees>41.74172197468578815460205078125</LatitudeDegrees>
              <LongitudeDegrees>1.7729510553181171417236328125</LongitudeDegrees>
            </Position>
            <AltitudeMeters>431</AltitudeMeters>
            <DistanceMeters>2665.8145907986</DistanceMeters>
          </Trackpoint>
          <Trackpoint>
            <Time>2018-06-21T07:55:00.000Z</Time>
            <Position>
              <LatitudeDegrees>41.741681657731533050537109375</LatitudeDegrees>
              <LongitudeDegrees>1.7729463614523410797119140625</LongitudeDegrees>
            </Position>
            <AltitudeMeters>428.399993896484375</AltitudeMeters>
            <DistanceMeters>2670.3180951777</DistanceMeters>
          </Trackpoint>
          <Trackpoint>
            <Time>2018-06-21T07:55:06.000Z</Time>
            <Position>
              <LatitudeDegrees>41.7416221462190151214599609375</LatitudeDegrees>
              <LongitudeDegrees>1.77290906198322772979736328125</LongitudeDegrees>
            </Position>
            <AltitudeMeters>424</AltitudeMeters>
            <DistanceMeters>2677.6308315124</DistanceMeters>
          </Trackpoint>
          <Trackpoint>
            <Time>2018-06-21T07:55:10.000Z</Time>
            <Position>
              <LatitudeDegrees>41.74159708432853221893310546875</LatitudeDegrees>
              <LongitudeDegrees>1.77289514802396297454833984375</LongitudeDegrees>
            </Position>
            <AltitudeMeters>422.20001220703125</AltitudeMeters>
            <DistanceMeters>2680.6493323211</DistanceMeters>
          </Trackpoint>
          <Trackpoint>
            <Time>2018-06-21T07:55:14.000Z</Time>
            <Position>
              <LatitudeDegrees>41.74157495610415935516357421875</LatitudeDegrees>
              <LongitudeDegrees>1.7728843353688716888427734375</LongitudeDegrees>
            </Position>
            <AltitudeMeters>420.600006103515625</AltitudeMeters>
            <DistanceMeters>2683.2690380484</DistanceMeters>
          </Trackpoint>
          <Trackpoint>
            <Time>2018-06-21T07:55:18.000Z</Time>
            <Position>
              <LatitudeDegrees>41.74154779873788356781005859375</LatitudeDegrees>
              <LongitudeDegrees>1.77287318743765354156494140625</LongitudeDegrees>
            </Position>
            <AltitudeMeters>418.79998779296875</AltitudeMeters>
            <DistanceMeters>2686.4293014151</DistanceMeters>
          </Trackpoint>
          <Trackpoint>
            <Time>2018-06-21T07:55:23.000Z</Time>
            <Position>
              <LatitudeDegrees>41.7415158636868000030517578125</LatitudeDegrees>
              <LongitudeDegrees>1.77283488214015960693359375</LongitudeDegrees>
            </Position>
            <AltitudeMeters>416.600006103515625</AltitudeMeters>
            <DistanceMeters>2691.1996046171</DistanceMeters>
          </Trackpoint>
          <Trackpoint>
            <Time>2018-06-21T07:55:28.000Z</Time>
            <Position>
              <LatitudeDegrees>41.741503290832042694091796875</LatitudeDegrees>
              <LongitudeDegrees>1.772813089191913604736328125</LongitudeDegrees>
            </Position>
            <AltitudeMeters>415.600006103515625</AltitudeMeters>
            <DistanceMeters>2693.4901229894</DistanceMeters>
          </Trackpoint>
          <Trackpoint>
            <Time>2018-06-21T07:55:33.000Z</Time>
            <Position>
              <LatitudeDegrees>41.7414719425141811370849609375</LatitudeDegrees>
              <LongitudeDegrees>1.77277964539825916290283203125</LongitudeDegrees>
            </Position>
            <AltitudeMeters>413.600006103515625</AltitudeMeters>
            <DistanceMeters>2697.9492964924</DistanceMeters>
          </Trackpoint>
          <Trackpoint>
            <Time>2018-06-21T07:55:38.000Z</Time>
            <Position>
              <LatitudeDegrees>41.7414568550884723663330078125</LatitudeDegrees>
              <LongitudeDegrees>1.77273136563599109649658203125</LongitudeDegrees>
            </Position>
            <AltitudeMeters>412</AltitudeMeters>
            <DistanceMeters>2702.2956650824</DistanceMeters>
          </Trackpoint>
          <Trackpoint>
            <Time>2018-06-21T07:55:41.000Z</Time>
            <Position>
              <LatitudeDegrees>41.741432882845401763916015625</LatitudeDegrees>
              <LongitudeDegrees>1.772692389786243438720703125</LongitudeDegrees>
            </Position>
            <AltitudeMeters>410.20001220703125</AltitudeMeters>
            <DistanceMeters>2706.4897786852</DistanceMeters>
          </Trackpoint>
          <Trackpoint>
            <Time>2018-06-21T07:55:46.000Z</Time>
            <Position>
              <LatitudeDegrees>41.741479150950908660888671875</LatitudeDegrees>
              <LongitudeDegrees>1.77263497374951839447021484375</LongitudeDegrees>
            </Position>
            <AltitudeMeters>411.399993896484375</AltitudeMeters>
            <DistanceMeters>2713.5082590764</DistanceMeters>
          </Trackpoint>
          <Trackpoint>
            <Time>2018-06-21T07:55:50.000Z</Time>
            <Position>
              <LatitudeDegrees>41.74152634106576442718505859375</LatitudeDegrees>
              <LongitudeDegrees>1.772594153881072998046875</LongitudeDegrees>
            </Position>
            <AltitudeMeters>413</AltitudeMeters>
            <DistanceMeters>2719.7598325463</DistanceMeters>
          </Trackpoint>
          <Trackpoint>
            <Time>2018-06-21T07:55:56.000Z</Time>
            <Position>
              <LatitudeDegrees>41.7416087351739406585693359375</LatitudeDegrees>
              <LongitudeDegrees>1.7725443653762340545654296875</LongitudeDegrees>
            </Position>
            <AltitudeMeters>417</AltitudeMeters>
            <DistanceMeters>2729.819208105</DistanceMeters>
          </Trackpoint>
          <Trackpoint>
            <Time>2018-06-21T07:56:03.000Z</Time>
            <Position>
              <LatitudeDegrees>41.7417101562023162841796875</LatitudeDegrees>
              <LongitudeDegrees>1.7724739573895931243896484375</LongitudeDegrees>
            </Position>
            <AltitudeMeters>421</AltitudeMeters>
            <DistanceMeters>2742.5322057135</DistanceMeters>
          </Trackpoint>
          <Trackpoint>
            <Time>2018-06-21T07:56:05.000Z</Time>
            <Position>
              <LatitudeDegrees>41.7417267523705959320068359375</LatitudeDegrees>
              <LongitudeDegrees>1.7724452912807464599609375</LongitudeDegrees>
            </Position>
            <AltitudeMeters>420.79998779296875</AltitudeMeters>
            <DistanceMeters>2745.5432182923</DistanceMeters>
          </Trackpoint>
          <Trackpoint>
            <Time>2018-06-21T07:56:10.000Z</Time>
            <Position>
              <LatitudeDegrees>41.7417904548346996307373046875</LatitudeDegrees>
              <LongitudeDegrees>1.7723594605922698974609375</LongitudeDegrees>
            </Position>
            <AltitudeMeters>421.20001220703125</AltitudeMeters>
            <DistanceMeters>2755.5963081437</DistanceMeters>
          </Trackpoint>
          <Trackpoint>
            <Time>2018-06-21T07:56:14.000Z</Time>
            <Position>
              <LatitudeDegrees>41.7418199591338634490966796875</LatitudeDegrees>
              <LongitudeDegrees>1.7723123542964458465576171875</LongitudeDegrees>
            </Position>
            <AltitudeMeters>421</AltitudeMeters>
            <DistanceMeters>2760.7039387927</DistanceMeters>
          </Trackpoint>
          <Trackpoint>
            <Time>2018-06-21T07:56:17.000Z</Time>
            <Position>
              <LatitudeDegrees>41.7418504692614078521728515625</LatitudeDegrees>
              <LongitudeDegrees>1.77228695712983608245849609375</LongitudeDegrees>
            </Position>
            <AltitudeMeters>421.79998779296875</AltitudeMeters>
            <DistanceMeters>2764.7018426567</DistanceMeters>
          </Trackpoint>
          <Trackpoint>
            <Time>2018-06-21T07:56:21.000Z</Time>
            <Position>
              <LatitudeDegrees>41.7418360523879528045654296875</LatitudeDegrees>
              <LongitudeDegrees>1.7722452990710735321044921875</LongitudeDegrees>
            </Position>
            <AltitudeMeters>419.79998779296875</AltitudeMeters>
            <DistanceMeters>2768.5159550241</DistanceMeters>
          </Trackpoint>
          <Trackpoint>
            <Time>2018-06-21T07:56:26.000Z</Time>
            <Position>
              <LatitudeDegrees>41.74178056418895721435546875</LatitudeDegrees>
              <LongitudeDegrees>1.77226893603801727294921875</LongitudeDegrees>
            </Position>
            <AltitudeMeters>418</AltitudeMeters>
            <DistanceMeters>2774.9959130074</DistanceMeters>
          </Trackpoint>
          <Trackpoint>
            <Time>2018-06-21T07:56:32.000Z</Time>
            <Position>
              <LatitudeDegrees>41.7417049594223499298095703125</LatitudeDegrees>
              <LongitudeDegrees>1.77232366986572742462158203125</LongitudeDegrees>
            </Position>
            <AltitudeMeters>416</AltitudeMeters>
            <DistanceMeters>2784.5601523591</DistanceMeters>
          </Trackpoint>
          <Trackpoint>
            <Time>2018-06-21T07:56:33.000Z</Time>
            <Position>
              <LatitudeDegrees>41.741687692701816558837890625</LatitudeDegrees>
              <LongitudeDegrees>1.7723304592072963714599609375</LongitudeDegrees>
            </Position>
            <AltitudeMeters>415.399993896484375</AltitudeMeters>
            <DistanceMeters>2786.5624894788</DistanceMeters>
          </Trackpoint>
          <Trackpoint>
            <Time>2018-06-21T07:56:39.000Z</Time>
            <Position>
              <LatitudeDegrees>41.74162357114255428314208984375</LatitudeDegrees>
              <LongitudeDegrees>1.77238158881664276123046875</LongitudeDegrees>
            </Position>
            <AltitudeMeters>414</AltitudeMeters>
            <DistanceMeters>2794.8663237574</DistanceMeters>
          </Trackpoint>
          <Trackpoint>
            <Time>2018-06-21T07:56:46.000Z</Time>
            <Position>
              <LatitudeDegrees>41.741531454026699066162109375</LatitudeDegrees>
              <LongitudeDegrees>1.77239843644201755523681640625</LongitudeDegrees>
            </Position>
            <AltitudeMeters>410</AltitudeMeters>
            <DistanceMeters>2805.2142050126</DistanceMeters>
          </Trackpoint>
          <Trackpoint>
            <Time>2018-06-21T07:56:50.000Z</Time>
            <Position>
              <LatitudeDegrees>41.7414806596934795379638671875</LatitudeDegrees>
              <LongitudeDegrees>1.77241436205804347991943359375</LongitudeDegrees>
            </Position>
            <AltitudeMeters>407.79998779296875</AltitudeMeters>
            <DistanceMeters>2811.020951558</DistanceMeters>
          </Trackpoint>
          <Trackpoint>
            <Time>2018-06-21T07:56:55.000Z</Time>
            <Position>
              <LatitudeDegrees>41.74141469411551952362060546875</LatitudeDegrees>
              <LongitudeDegrees>1.77243263460695743560791015625</LongitudeDegrees>
            </Position>
            <AltitudeMeters>405</AltitudeMeters>
            <DistanceMeters>2818.5190350424</DistanceMeters>
          </Trackpoint>
          <Trackpoint>
            <Time>2018-06-21T07:56:57.000Z</Time>
            <Position>
              <LatitudeDegrees>41.741399355232715606689453125</LatitudeDegrees>
              <LongitudeDegrees>1.77243649028241634368896484375</LongitudeDegrees>
            </Position>
            <AltitudeMeters>404.399993896484375</AltitudeMeters>
            <DistanceMeters>2820.2557116192</DistanceMeters>
          </Trackpoint>
          <Trackpoint>
            <Time>2018-06-21T07:57:02.000Z</Time>
            <Position>
              <LatitudeDegrees>41.74130757339298725128173828125</LatitudeDegrees>
              <LongitudeDegrees>1.772419475018978118896484375</LongitudeDegrees>
            </Position>
            <AltitudeMeters>399.79998779296875</AltitudeMeters>
            <DistanceMeters>2830.5686278099</DistanceMeters>
          </Trackpoint>
          <Trackpoint>
            <Time>2018-06-21T07:57:04.000Z</Time>
            <Position>
              <LatitudeDegrees>41.7412808351218700408935546875</LatitudeDegrees>
              <LongitudeDegrees>1.7724152840673923492431640625</LongitudeDegrees>
            </Position>
            <AltitudeMeters>398.399993896484375</AltitudeMeters>
            <DistanceMeters>2833.5646077807</DistanceMeters>
          </Trackpoint>
          <Trackpoint>
            <Time>2018-06-21T07:57:10.000Z</Time>
            <Position>
              <LatitudeDegrees>41.74128125421702861785888671875</LatitudeDegrees>
              <LongitudeDegrees>1.772320568561553955078125</LongitudeDegrees>
            </Position>
            <AltitudeMeters>397</AltitudeMeters>
            <DistanceMeters>2841.4306159039</DistanceMeters>
          </Trackpoint>
          <Trackpoint>
            <Time>2018-06-21T07:57:11.000Z</Time>
            <Position>
              <LatitudeDegrees>41.74127706326544284820556640625</LatitudeDegrees>
              <LongitudeDegrees>1.77231193520128726959228515625</LongitudeDegrees>
            </Position>
            <AltitudeMeters>396.79998779296875</AltitudeMeters>
            <DistanceMeters>2842.2858563332</DistanceMeters>
          </Trackpoint>
          <Trackpoint>
            <Time>2018-06-21T07:57:14.000Z</Time>
            <Position>
              <LatitudeDegrees>41.741262562572956085205078125</LatitudeDegrees>
              <LongitudeDegrees>1.7723019607365131378173828125</LongitudeDegrees>
            </Position>
            <AltitudeMeters>395.79998779296875</AltitudeMeters>
            <DistanceMeters>2844.1038244238</DistanceMeters>
          </Trackpoint>
          <Trackpoint>
            <Time>2018-06-21T07:57:17.000Z</Time>
            <Position>
              <LatitudeDegrees>41.74123096279799938201904296875</LatitudeDegrees>
              <LongitudeDegrees>1.77229735068976879119873046875</LongitudeDegrees>
            </Position>
            <AltitudeMeters>394.399993896484375</AltitudeMeters>
            <DistanceMeters>2847.6415759628</DistanceMeters>
          </Trackpoint>
          <Trackpoint>
            <Time>2018-06-21T07:57:23.000Z</Time>
            <Position>
              <LatitudeDegrees>41.74115334637463092803955078125</LatitudeDegrees>
              <LongitudeDegrees>1.77232014946639537811279296875</LongitudeDegrees>
            </Position>
            <AltitudeMeters>391</AltitudeMeters>
            <DistanceMeters>2856.4856995574</DistanceMeters>
          </Trackpoint>
          <Trackpoint>
            <Time>2018-06-21T07:57:26.000Z</Time>
            <Position>
              <LatitudeDegrees>41.74108855426311492919921875</LatitudeDegrees>
              <LongitudeDegrees>1.77234395407140254974365234375</LongitudeDegrees>
            </Position>
            <AltitudeMeters>388.399993896484375</AltitudeMeters>
            <DistanceMeters>2863.9632816092</DistanceMeters>
          </Trackpoint>
          <Trackpoint>
            <Time>2018-06-21T07:57:30.000Z</Time>
            <Position>
              <LatitudeDegrees>41.74106667749583721160888671875</LatitudeDegrees>
              <LongitudeDegrees>1.7723817564547061920166015625</LongitudeDegrees>
            </Position>
            <AltitudeMeters>387.79998779296875</AltitudeMeters>
            <DistanceMeters>2867.9351254565</DistanceMeters>
          </Trackpoint>
          <Trackpoint>
            <Time>2018-06-21T07:57:38.000Z</Time>
            <Position>
              <LatitudeDegrees>41.74105008132755756378173828125</LatitudeDegrees>
              <LongitudeDegrees>1.772513352334499359130859375</LongitudeDegrees>
            </Position>
            <AltitudeMeters>389.399993896484375</AltitudeMeters>
            <DistanceMeters>2879.0190863921</DistanceMeters>
          </Trackpoint>
          <Trackpoint>
            <Time>2018-06-21T07:57:45.000Z</Time>
            <Position>
              <LatitudeDegrees>41.74106047488749027252197265625</LatitudeDegrees>
              <LongitudeDegrees>1.772645451128482818603515625</LongitudeDegrees>
            </Position>
            <AltitudeMeters>392</AltitudeMeters>
            <DistanceMeters>2890.0503741754</DistanceMeters>
          </Trackpoint>
          <Trackpoint>
            <Time>2018-06-21T07:57:48.000Z</Time>
            <Position>
              <LatitudeDegrees>41.74106684513390064239501953125</LatitudeDegrees>
              <LongitudeDegrees>1.77269834093749523162841796875</LongitudeDegrees>
            </Position>
            <AltitudeMeters>393.20001220703125</AltitudeMeters>
            <DistanceMeters>2894.4994108762</DistanceMeters>
          </Trackpoint>
          <Trackpoint>
            <Time>2018-06-21T07:57:54.000Z</Time>
            <Position>
              <LatitudeDegrees>41.7410538531839847564697265625</LatitudeDegrees>
              <LongitudeDegrees>1.77279657684266567230224609375</LongitudeDegrees>
            </Position>
            <AltitudeMeters>394.399993896484375</AltitudeMeters>
            <DistanceMeters>2902.7847377332</DistanceMeters>
          </Trackpoint>
          <Trackpoint>
            <Time>2018-06-21T07:58:02.000Z</Time>
            <Position>
              <LatitudeDegrees>41.741036586463451385498046875</LatitudeDegrees>
              <LongitudeDegrees>1.77293546497821807861328125</LongitudeDegrees>
            </Position>
            <AltitudeMeters>396.399993896484375</AltitudeMeters>
            <DistanceMeters>2914.4780442593</DistanceMeters>
          </Trackpoint>
          <Trackpoint>
            <Time>2018-06-21T07:58:07.000Z</Time>
            <Position>
              <LatitudeDegrees>41.7410082556307315826416015625</LatitudeDegrees>
              <LongitudeDegrees>1.7730331979691982269287109375</LongitudeDegrees>
            </Position>
            <AltitudeMeters>397</AltitudeMeters>
            <DistanceMeters>2923.1858311136</DistanceMeters>
          </Trackpoint>
          <Trackpoint>
            <Time>2018-06-21T07:58:14.000Z</Time>
            <Position>
              <LatitudeDegrees>41.7409834451973438262939453125</LatitudeDegrees>
              <LongitudeDegrees>1.77314559929072856903076171875</LongitudeDegrees>
            </Position>
            <AltitudeMeters>398</AltitudeMeters>
            <DistanceMeters>2932.9203892547</DistanceMeters>
          </Trackpoint>
          <Trackpoint>
            <Time>2018-06-21T07:58:20.000Z</Time>
            <Position>
              <LatitudeDegrees>41.740932650864124298095703125</LatitudeDegrees>
              <LongitudeDegrees>1.77321634255349636077880859375</LongitudeDegrees>
            </Position>
            <AltitudeMeters>397.20001220703125</AltitudeMeters>
            <DistanceMeters>2941.073880702</DistanceMeters>
          </Trackpoint>
          <Trackpoint>
            <Time>2018-06-21T07:58:25.000Z</Time>
            <Position>
              <LatitudeDegrees>41.74089116044342517852783203125</LatitudeDegrees>
              <LongitudeDegrees>1.77328926511108875274658203125</LongitudeDegrees>
            </Position>
            <AltitudeMeters>397.20001220703125</AltitudeMeters>
            <DistanceMeters>2948.6902585206</DistanceMeters>
          </Trackpoint>
          <Trackpoint>
            <Time>2018-06-21T07:58:31.000Z</Time>
            <Position>
              <LatitudeDegrees>41.74080985598266124725341796875</LatitudeDegrees>
              <LongitudeDegrees>1.77335145883262157440185546875</LongitudeDegrees>
            </Position>
            <AltitudeMeters>395.20001220703125</AltitudeMeters>
            <DistanceMeters>2959.1094513401</DistanceMeters>
          </Trackpoint>
          <Trackpoint>
            <Time>2018-06-21T07:58:36.000Z</Time>
            <Position>
              <LatitudeDegrees>41.74074397422373294830322265625</LatitudeDegrees>
              <LongitudeDegrees>1.77340158261358737945556640625</LongitudeDegrees>
            </Position>
            <AltitudeMeters>394.399993896484375</AltitudeMeters>
            <DistanceMeters>2967.5411647984</DistanceMeters>
          </Trackpoint>
          <Trackpoint>
            <Time>2018-06-21T07:58:42.000Z</Time>
            <Position>
              <LatitudeDegrees>41.74067683517932891845703125</LatitudeDegrees>
              <LongitudeDegrees>1.77343544550240039825439453125</LongitudeDegrees>
            </Position>
            <AltitudeMeters>393.20001220703125</AltitudeMeters>
            <DistanceMeters>2975.5256710257</DistanceMeters>
          </Trackpoint>
          <Trackpoint>
            <Time>2018-06-21T07:58:45.000Z</Time>
            <Position>
              <LatitudeDegrees>41.74064925871789455413818359375</LatitudeDegrees>
              <LongitudeDegrees>1.77344265393912792205810546875</LongitudeDegrees>
            </Position>
            <AltitudeMeters>392.79998779296875</AltitudeMeters>
            <DistanceMeters>2978.6543453241</DistanceMeters>
          </Trackpoint>
          <Trackpoint>
            <Time>2018-06-21T07:58:49.000Z</Time>
            <Position>
              <LatitudeDegrees>41.7405713908374309539794921875</LatitudeDegrees>
              <LongitudeDegrees>1.7734566517174243927001953125</LongitudeDegrees>
            </Position>
            <AltitudeMeters>391.20001220703125</AltitudeMeters>
            <DistanceMeters>2987.3993849126</DistanceMeters>
          </Trackpoint>
          <Trackpoint>
            <Time>2018-06-21T07:58:56.000Z</Time>
            <Position>
              <LatitudeDegrees>41.74050173722207546234130859375</LatitudeDegrees>
              <LongitudeDegrees>1.77345447242259979248046875</LongitudeDegrees>
            </Position>
            <AltitudeMeters>389.399993896484375</AltitudeMeters>
            <DistanceMeters>2995.1544032308</DistanceMeters>
          </Trackpoint>
          <Trackpoint>
            <Time>2018-06-21T07:59:00.000Z</Time>
            <Position>
              <LatitudeDegrees>41.7404426448047161102294921875</LatitudeDegrees>
              <LongitudeDegrees>1.77344349212944507598876953125</LongitudeDegrees>
            </Position>
            <AltitudeMeters>387.600006103515625</AltitudeMeters>
            <DistanceMeters>3001.7940442753</DistanceMeters>
          </Trackpoint>
          <Trackpoint>
            <Time>2018-06-21T07:59:06.000Z</Time>
            <Position>
              <LatitudeDegrees>41.740383468568325042724609375</LatitudeDegrees>
              <LongitudeDegrees>1.77346075884997844696044921875</LongitudeDegrees>
            </Position>
            <AltitudeMeters>386.600006103515625</AltitudeMeters>
            <DistanceMeters>3008.534915485</DistanceMeters>
          </Trackpoint>
          <Trackpoint>
            <Time>2018-06-21T07:59:10.000Z</Time>
            <Position>
              <LatitudeDegrees>41.7403400503098964691162109375</LatitudeDegrees>
              <LongitudeDegrees>1.773488335311412811279296875</LongitudeDegrees>
            </Position>
            <AltitudeMeters>386.399993896484375</AltitudeMeters>
            <DistanceMeters>3013.8834930693</DistanceMeters>
          </Trackpoint>
          <Trackpoint>
            <Time>2018-06-21T07:59:15.000Z</Time>
            <Position>
              <LatitudeDegrees>41.74028523266315460205078125</LatitudeDegrees>
              <LongitudeDegrees>1.77350945770740509033203125</LongitudeDegrees>
            </Position>
            <AltitudeMeters>385.600006103515625</AltitudeMeters>
            <DistanceMeters>3020.2325293147</DistanceMeters>
          </Trackpoint>
          <Trackpoint>
            <Time>2018-06-21T07:59:20.000Z</Time>
            <Position>
              <LatitudeDegrees>41.74021993763744831085205078125</LatitudeDegrees>
              <LongitudeDegrees>1.7734938673675060272216796875</LongitudeDegrees>
            </Position>
            <AltitudeMeters>383.600006103515625</AltitudeMeters>
            <DistanceMeters>3027.6140929202</DistanceMeters>
          </Trackpoint>
          <Trackpoint>
            <Time>2018-06-21T07:59:21.000Z</Time>
            <Position>
              <LatitudeDegrees>41.74021147191524505615234375</LatitudeDegrees>
              <LongitudeDegrees>1.77349193952977657318115234375</LongitudeDegrees>
            </Position>
            <AltitudeMeters>383.20001220703125</AltitudeMeters>
            <DistanceMeters>3028.5643600639</DistanceMeters>
          </Trackpoint>
          <Trackpoint>
            <Time>2018-06-21T07:59:23.000Z</Time>
            <Position>
              <LatitudeDegrees>41.7401921935379505157470703125</LatitudeDegrees>
              <LongitudeDegrees>1.7734794504940509796142578125</LongitudeDegrees>
            </Position>
            <AltitudeMeters>382.399993896484375</AltitudeMeters>
            <DistanceMeters>3030.9476179357</DistanceMeters>
          </Trackpoint>
          <Trackpoint>
            <Time>2018-06-21T07:59:28.000Z</Time>
            <Position>
              <LatitudeDegrees>41.74012639559805393218994140625</LatitudeDegrees>
              <LongitudeDegrees>1.7734650336205959320068359375</LongitudeDegrees>
            </Position>
            <AltitudeMeters>380.20001220703125</AltitudeMeters>
            <DistanceMeters>3038.3682247946</DistanceMeters>
          </Trackpoint>
          <Trackpoint>
            <Time>2018-06-21T07:59:34.000Z</Time>
            <Position>
              <LatitudeDegrees>41.74006386660039424896240234375</LatitudeDegrees>
              <LongitudeDegrees>1.77345455624163150787353515625</LongitudeDegrees>
            </Position>
            <AltitudeMeters>377.79998779296875</AltitudeMeters>
            <DistanceMeters>3045.3822005906</DistanceMeters>
          </Trackpoint>
          <Trackpoint>
            <Time>2018-06-21T07:59:39.000Z</Time>
            <Position>
              <LatitudeDegrees>41.74002229236066341400146484375</LatitudeDegrees>
              <LongitudeDegrees>1.77347936667501926422119140625</LongitudeDegrees>
            </Position>
            <AltitudeMeters>376.600006103515625</AltitudeMeters>
            <DistanceMeters>3050.4472225232</DistanceMeters>
          </Trackpoint>
          <Trackpoint>
            <Time>2018-06-21T07:59:43.000Z</Time>
            <Position>
              <LatitudeDegrees>41.7399816401302814483642578125</LatitudeDegrees>
              <LongitudeDegrees>1.7734940350055694580078125</LongitudeDegrees>
            </Position>
            <AltitudeMeters>375.399993896484375</AltitudeMeters>
            <DistanceMeters>3055.1334945929</DistanceMeters>
          </Trackpoint>
          <Trackpoint>
            <Time>2018-06-21T07:59:46.000Z</Time>
            <Position>
              <LatitudeDegrees>41.73992908559739589691162109375</LatitudeDegrees>
              <LongitudeDegrees>1.7734851501882076263427734375</LongitudeDegrees>
            </Position>
            <AltitudeMeters>373.399993896484375</AltitudeMeters>
            <DistanceMeters>3061.0297471578</DistanceMeters>
          </Trackpoint>
          <Trackpoint>
            <Time>2018-06-21T07:59:52.000Z</Time>
            <Position>
              <LatitudeDegrees>41.73984124325215816497802734375</LatitudeDegrees>
              <LongitudeDegrees>1.77348858676850795745849609375</LongitudeDegrees>
            </Position>
            <AltitudeMeters>370.399993896484375</AltitudeMeters>
            <DistanceMeters>3070.8105768694</DistanceMeters>
          </Trackpoint>
          <Trackpoint>
            <Time>2018-06-21T07:59:57.000Z</Time>
            <Position>
              <LatitudeDegrees>41.739794053137302398681640625</LatitudeDegrees>
              <LongitudeDegrees>1.773469559848308563232421875</LongitudeDegrees>
            </Position>
            <AltitudeMeters>368.600006103515625</AltitudeMeters>
            <DistanceMeters>3076.2958493979</DistanceMeters>
          </Trackpoint>
          <Trackpoint>
            <Time>2018-06-21T08:00:02.000Z</Time>
            <Position>
              <LatitudeDegrees>41.739727668464183807373046875</LatitudeDegrees>
              <LongitudeDegrees>1.77345715463161468505859375</LongitudeDegrees>
            </Position>
            <AltitudeMeters>366.399993896484375</AltitudeMeters>
            <DistanceMeters>3083.755295158</DistanceMeters>
          </Trackpoint>
          <Trackpoint>
            <Time>2018-06-21T08:00:07.000Z</Time>
            <Position>
              <LatitudeDegrees>41.7396728508174419403076171875</LatitudeDegrees>
              <LongitudeDegrees>1.7734405584633350372314453125</LongitudeDegrees>
            </Position>
            <AltitudeMeters>364.399993896484375</AltitudeMeters>
            <DistanceMeters>3090.010478707</DistanceMeters>
          </Trackpoint>
          <Trackpoint>
            <Time>2018-06-21T08:00:13.000Z</Time>
            <Position>
              <LatitudeDegrees>41.739600263535976409912109375</LatitudeDegrees>
              <LongitudeDegrees>1.77344248630106449127197265625</LongitudeDegrees>
            </Position>
            <AltitudeMeters>362.20001220703125</AltitudeMeters>
            <DistanceMeters>3098.0916613458</DistanceMeters>
          </Trackpoint>
          <Trackpoint>
            <Time>2018-06-21T08:00:18.000Z</Time>
            <Position>
              <LatitudeDegrees>41.73952507786452770233154296875</LatitudeDegrees>
              <LongitudeDegrees>1.7734187655150890350341796875</LongitudeDegrees>
            </Position>
            <AltitudeMeters>359.600006103515625</AltitudeMeters>
            <DistanceMeters>3106.6893474165</DistanceMeters>
          </Trackpoint>
          <Trackpoint>
            <Time>2018-06-21T08:00:26.000Z</Time>
            <Position>
              <LatitudeDegrees>41.7394007742404937744140625</LatitudeDegrees>
              <LongitudeDegrees>1.77344315685331821441650390625</LongitudeDegrees>
            </Position>
            <AltitudeMeters>356.20001220703125</AltitudeMeters>
            <DistanceMeters>3120.6718430839</DistanceMeters>
          </Trackpoint>
          <Trackpoint>
            <Time>2018-06-21T08:00:27.000Z</Time>
            <Position>
              <LatitudeDegrees>41.73938744701445102691650390625</LatitudeDegrees>
              <LongitudeDegrees>1.7734499461948871612548828125</LongitudeDegrees>
            </Position>
            <AltitudeMeters>356</AltitudeMeters>
            <DistanceMeters>3122.2619441512</DistanceMeters>
          </Trackpoint>
          <Trackpoint>
            <Time>2018-06-21T08:00:35.000Z</Time>
            <Position>
              <LatitudeDegrees>41.73931586556136608123779296875</LatitudeDegrees>
              <LongitudeDegrees>1.77357676438987255096435546875</LongitudeDegrees>
            </Position>
            <AltitudeMeters>355.600006103515625</AltitudeMeters>
            <DistanceMeters>3135.4682644729</DistanceMeters>
          </Trackpoint>
          <Trackpoint>
            <Time>2018-06-21T08:00:39.000Z</Time>
            <Position>
              <LatitudeDegrees>41.73928267322480678558349609375</LatitudeDegrees>
              <LongitudeDegrees>1.77362135611474514007568359375</LongitudeDegrees>
            </Position>
            <AltitudeMeters>354.79998779296875</AltitudeMeters>
            <DistanceMeters>3140.6999144709</DistanceMeters>
          </Trackpoint>
          <Trackpoint>
            <Time>2018-06-21T08:00:46.000Z</Time>
            <Position>
              <LatitudeDegrees>41.73923254944384098052978515625</LatitudeDegrees>
              <LongitudeDegrees>1.7737201787531375885009765625</LongitudeDegrees>
            </Position>
            <AltitudeMeters>353.79998779296875</AltitudeMeters>
            <DistanceMeters>3150.6241798731</DistanceMeters>
          </Trackpoint>
          <Trackpoint>
            <Time>2018-06-21T08:00:51.000Z</Time>
            <Position>
              <LatitudeDegrees>41.739194579422473907470703125</LatitudeDegrees>
              <LongitudeDegrees>1.77379167638719081878662109375</LongitudeDegrees>
            </Position>
            <AltitudeMeters>353.20001220703125</AltitudeMeters>
            <DistanceMeters>3157.9127970067</DistanceMeters>
          </Trackpoint>
          <Trackpoint>
            <Time>2018-06-21T08:00:52.000Z</Time>
            <Position>
              <LatitudeDegrees>41.7391799949109554290771484375</LatitudeDegrees>
              <LongitudeDegrees>1.773801483213901519775390625</LongitudeDegrees>
            </Position>
            <AltitudeMeters>352.79998779296875</AltitudeMeters>
            <DistanceMeters>3159.7307650973</DistanceMeters>
          </Trackpoint>
          <Trackpoint>
            <Time>2018-06-21T08:00:57.000Z</Time>
            <Position>
              <LatitudeDegrees>41.739174462854862213134765625</LatitudeDegrees>
              <LongitudeDegrees>1.773893348872661590576171875</LongitudeDegrees>
            </Position>
            <AltitudeMeters>353.600006103515625</AltitudeMeters>
            <DistanceMeters>3167.3861681645</DistanceMeters>
          </Trackpoint>
          <Trackpoint>
            <Time>2018-06-21T08:01:00.000Z</Time>
            <Position>
              <LatitudeDegrees>41.73916465602815151214599609375</LatitudeDegrees>
              <LongitudeDegrees>1.77393265999853610992431640625</LongitudeDegrees>
            </Position>
            <AltitudeMeters>353.600006103515625</AltitudeMeters>
            <DistanceMeters>3170.8294936459</DistanceMeters>
          </Trackpoint>
          <Trackpoint>
            <Time>2018-06-21T08:01:06.000Z</Time>
            <Position>
              <LatitudeDegrees>41.73915845341980457305908203125</LatitudeDegrees>
              <LongitudeDegrees>1.77403776906430721282958984375</LongitudeDegrees>
            </Position>
            <AltitudeMeters>354.399993896484375</AltitudeMeters>
            <DistanceMeters>3179.5864000153</DistanceMeters>
          </Trackpoint>
          <Trackpoint>
            <Time>2018-06-21T08:01:12.000Z</Time>
            <Position>
              <LatitudeDegrees>41.73912576399743556976318359375</LatitudeDegrees>
              <LongitudeDegrees>1.77416886202991008758544921875</LongitudeDegrees>
            </Position>
            <AltitudeMeters>353.399993896484375</AltitudeMeters>
            <DistanceMeters>3191.0653753821</DistanceMeters>
          </Trackpoint>
          <Trackpoint>
            <Time>2018-06-21T08:01:16.000Z</Time>
            <Position>
              <LatitudeDegrees>41.73908066935837268829345703125</LatitudeDegrees>
              <LongitudeDegrees>1.77421194501221179962158203125</LongitudeDegrees>
            </Position>
            <AltitudeMeters>351.20001220703125</AltitudeMeters>
            <DistanceMeters>3197.2296727205</DistanceMeters>
          </Trackpoint>
          <Trackpoint>
            <Time>2018-06-21T08:01:23.000Z</Time>
            <Position>
              <LatitudeDegrees>41.73898645676672458648681640625</LatitudeDegrees>
              <LongitudeDegrees>1.774199791252613067626953125</LongitudeDegrees>
            </Position>
            <AltitudeMeters>347.79998779296875</AltitudeMeters>
            <DistanceMeters>3207.7643601622</DistanceMeters>
          </Trackpoint>
          <Trackpoint>
            <Time>2018-06-21T08:01:26.000Z</Time>
            <Position>
              <LatitudeDegrees>41.73894815146923065185546875</LatitudeDegrees>
              <LongitudeDegrees>1.77420289255678653717041015625</LongitudeDegrees>
            </Position>
            <AltitudeMeters>346.399993896484375</AltitudeMeters>
            <DistanceMeters>3212.0352797842</DistanceMeters>
          </Trackpoint>
          <Trackpoint>
            <Time>2018-06-21T08:01:32.000Z</Time>
            <Position>
              <LatitudeDegrees>41.738910935819149017333984375</LatitudeDegrees>
              <LongitudeDegrees>1.77428117953240871429443359375</LongitudeDegrees>
            </Position>
            <AltitudeMeters>345</AltitudeMeters>
            <DistanceMeters>3219.7447520848</DistanceMeters>
          </Trackpoint>
          <Trackpoint>
            <Time>2018-06-21T08:01:33.000Z</Time>
            <Position>
              <LatitudeDegrees>41.73891856335103511810302734375</LatitudeDegrees>
              <LongitudeDegrees>1.77429358474910259246826171875</LongitudeDegrees>
            </Position>
            <AltitudeMeters>345.20001220703125</AltitudeMeters>
            <DistanceMeters>3221.075126086</DistanceMeters>
          </Trackpoint>
          <Trackpoint>
            <Time>2018-06-21T08:01:37.000Z</Time>
            <Position>
              <LatitudeDegrees>41.73895209096372127532958984375</LatitudeDegrees>
              <LongitudeDegrees>1.7743253521621227264404296875</LongitudeDegrees>
            </Position>
            <AltitudeMeters>346.20001220703125</AltitudeMeters>
            <DistanceMeters>3225.6453084472</DistanceMeters>
          </Trackpoint>
          <Trackpoint>
            <Time>2018-06-21T08:01:42.000Z</Time>
            <Position>
              <LatitudeDegrees>41.73899517394602298736572265625</LatitudeDegrees>
              <LongitudeDegrees>1.77436097525060176849365234375</LongitudeDegrees>
            </Position>
            <AltitudeMeters>347.399993896484375</AltitudeMeters>
            <DistanceMeters>3231.2799999895</DistanceMeters>
          </Trackpoint>
          <Trackpoint>
            <Time>2018-06-21T08:01:43.000Z</Time>
            <Position>
              <LatitudeDegrees>41.73900305293500423431396484375</LatitudeDegrees>
              <LongitudeDegrees>1.77437245845794677734375</LongitudeDegrees>
            </Position>
            <AltitudeMeters>347.600006103515625</AltitudeMeters>
            <DistanceMeters>3232.5794707645</DistanceMeters>
          </Trackpoint>
          <Trackpoint>
            <Time>2018-06-21T08:01:49.000Z</Time>
            <Position>
              <LatitudeDegrees>41.73903926275670528411865234375</LatitudeDegrees>
              <LongitudeDegrees>1.77440305240452289581298828125</LongitudeDegrees>
            </Position>
            <AltitudeMeters>348.600006103515625</AltitudeMeters>
            <DistanceMeters>3237.3440916497</DistanceMeters>
          </Trackpoint>
          <Trackpoint>
            <Time>2018-06-21T08:01:53.000Z</Time>
            <Position>
              <LatitudeDegrees>41.73907966352999210357666015625</LatitudeDegrees>
              <LongitudeDegrees>1.77444546483457088470458984375</LongitudeDegrees>
            </Position>
            <AltitudeMeters>350.399993896484375</AltitudeMeters>
            <DistanceMeters>3243.0559797957</DistanceMeters>
          </Trackpoint>
          <Trackpoint>
            <Time>2018-06-21T08:01:58.000Z</Time>
            <Position>
              <LatitudeDegrees>41.73909835517406463623046875</LatitudeDegrees>
              <LongitudeDegrees>1.77450816147029399871826171875</LongitudeDegrees>
            </Position>
            <AltitudeMeters>351</AltitudeMeters>
            <DistanceMeters>3248.6633611968</DistanceMeters>
          </Trackpoint>
          <Trackpoint>
            <Time>2018-06-21T08:02:02.000Z</Time>
            <Position>
              <LatitudeDegrees>41.73909424804151058197021484375</LatitudeDegrees>
              <LongitudeDegrees>1.7745667509734630584716796875</LongitudeDegrees>
            </Position>
            <AltitudeMeters>350.600006103515625</AltitudeMeters>
            <DistanceMeters>3253.550543636</DistanceMeters>
          </Trackpoint>
          <Trackpoint>
            <Time>2018-06-21T08:02:07.000Z</Time>
            <Position>
              <LatitudeDegrees>41.7391263507306575775146484375</LatitudeDegrees>
              <LongitudeDegrees>1.77464344538748264312744140625</LongitudeDegrees>
            </Position>
            <AltitudeMeters>351.79998779296875</AltitudeMeters>
            <DistanceMeters>3260.8546309596</DistanceMeters>
          </Trackpoint>
          <Trackpoint>
            <Time>2018-06-21T08:02:09.000Z</Time>
            <Position>
              <LatitudeDegrees>41.7391172982752323150634765625</LatitudeDegrees>
              <LongitudeDegrees>1.7746800743043422698974609375</LongitudeDegrees>
            </Position>
            <AltitudeMeters>351.20001220703125</AltitudeMeters>
            <DistanceMeters>3264.0602864298</DistanceMeters>
          </Trackpoint>
          <Trackpoint>
            <Time>2018-06-21T08:02:15.000Z</Time>
            <Position>
              <LatitudeDegrees>41.73910816200077533721923828125</LatitudeDegrees>
              <LongitudeDegrees>1.77479146979749202728271484375</LongitudeDegrees>
            </Position>
            <AltitudeMeters>350.399993896484375</AltitudeMeters>
            <DistanceMeters>3273.3670846574</DistanceMeters>
          </Trackpoint>
          <Trackpoint>
            <Time>2018-06-21T08:02:20.000Z</Time>
            <Position>
              <LatitudeDegrees>41.73907295800745487213134765625</LatitudeDegrees>
              <LongitudeDegrees>1.77489406429231166839599609375</LongitudeDegrees>
            </Position>
            <AltitudeMeters>348.600006103515625</AltitudeMeters>
            <DistanceMeters>3282.7454077786</DistanceMeters>
          </Trackpoint>
          <Trackpoint>
            <Time>2018-06-21T08:02:27.000Z</Time>
            <Position>
              <LatitudeDegrees>41.73903389833867549896240234375</LatitudeDegrees>
              <LongitudeDegrees>1.77500168792903423309326171875</LongitudeDegrees>
            </Position>
            <AltitudeMeters>347.600006103515625</AltitudeMeters>
            <DistanceMeters>3292.6846751709</DistanceMeters>
          </Trackpoint>
          <Trackpoint>
            <Time>2018-06-21T08:02:33.000Z</Time>
            <Position>
              <LatitudeDegrees>41.7390207387506961822509765625</LatitudeDegrees>
              <LongitudeDegrees>1.77510126493871212005615234375</LongitudeDegrees>
            </Position>
            <AltitudeMeters>347.79998779296875</AltitudeMeters>
            <DistanceMeters>3301.0836606561</DistanceMeters>
          </Trackpoint>
          <Trackpoint>
            <Time>2018-06-21T08:02:34.000Z</Time>
            <Position>
              <LatitudeDegrees>41.7390197329223155975341796875</LatitudeDegrees>
              <LongitudeDegrees>1.7751152627170085906982421875</LongitudeDegrees>
            </Position>
            <AltitudeMeters>347.79998779296875</AltitudeMeters>
            <DistanceMeters>3302.2590761979</DistanceMeters>
          </Trackpoint>
          <Trackpoint>
            <Time>2018-06-21T08:02:39.000Z</Time>
            <Position>
              <LatitudeDegrees>41.73901445232331752777099609375</LatitudeDegrees>
              <LongitudeDegrees>1.775206960737705230712890625</LongitudeDegrees>
            </Position>
            <AltitudeMeters>348.20001220703125</AltitudeMeters>
            <DistanceMeters>3309.8979474484</DistanceMeters>
          </Trackpoint>
          <Trackpoint>
            <Time>2018-06-21T08:02:47.000Z</Time>
            <Position>
              <LatitudeDegrees>41.73901897855103015899658203125</LatitudeDegrees>
              <LongitudeDegrees>1.77534836344420909881591796875</LongitudeDegrees>
            </Position>
            <AltitudeMeters>349.20001220703125</AltitudeMeters>
            <DistanceMeters>3321.6521028664</DistanceMeters>
          </Trackpoint>
          <Trackpoint>
            <Time>2018-06-21T08:02:53.000Z</Time>
            <Position>
              <LatitudeDegrees>41.73901386559009552001953125</LatitudeDegrees>
              <LongitudeDegrees>1.77543788217008113861083984375</LongitudeDegrees>
            </Position>
            <AltitudeMeters>349.600006103515625</AltitudeMeters>
            <DistanceMeters>3329.1079160742</DistanceMeters>
          </Trackpoint>
          <Trackpoint>
            <Time>2018-06-21T08:02:56.000Z</Time>
            <Position>
              <LatitudeDegrees>41.73901696689426898956298828125</LatitudeDegrees>
              <LongitudeDegrees>1.7755048535764217376708984375</LongitudeDegrees>
            </Position>
            <AltitudeMeters>350</AltitudeMeters>
            <DistanceMeters>3334.680566511</DistanceMeters>
          </Trackpoint>
          <Trackpoint>
            <Time>2018-06-21T08:02:56.000Z</Time>
            <Position>
              <LatitudeDegrees>41.73901696689426898956298828125</LatitudeDegrees>
              <LongitudeDegrees>1.7755048535764217376708984375</LongitudeDegrees>
            </Position>
            <AltitudeMeters>350</AltitudeMeters>
            <DistanceMeters>3334.680566511</DistanceMeters>
          </Trackpoint>
          <Trackpoint>
            <Time>2018-06-21T08:03:03.000Z</Time>
            <Position>
              <LatitudeDegrees>41.73896365799009799957275390625</LatitudeDegrees>
              <LongitudeDegrees>1.7755963839590549468994140625</LongitudeDegrees>
            </Position>
            <AltitudeMeters>349.20001220703125</AltitudeMeters>
            <DistanceMeters>3344.3237883388</DistanceMeters>
          </Trackpoint>
          <Trackpoint>
            <Time>2018-06-21T08:03:07.000Z</Time>
            <Position>
              <LatitudeDegrees>41.73892476595938205718994140625</LatitudeDegrees>
              <LongitudeDegrees>1.77566285245120525360107421875</LongitudeDegrees>
            </Position>
            <AltitudeMeters>348.20001220703125</AltitudeMeters>
            <DistanceMeters>3351.3390514571</DistanceMeters>
          </Trackpoint>
          <Trackpoint>
            <Time>2018-06-21T08:03:14.000Z</Time>
            <Position>
              <LatitudeDegrees>41.7388681881129741668701171875</LatitudeDegrees>
              <LongitudeDegrees>1.77581238560378551483154296875</LongitudeDegrees>
            </Position>
            <AltitudeMeters>347.79998779296875</AltitudeMeters>
            <DistanceMeters>3365.263626905</DistanceMeters>
          </Trackpoint>
          <Trackpoint>
            <Time>2018-06-21T08:03:17.000Z</Time>
            <Position>
              <LatitudeDegrees>41.7388616502285003662109375</LatitudeDegrees>
              <LongitudeDegrees>1.77586049772799015045166015625</LongitudeDegrees>
            </Position>
            <AltitudeMeters>348.399993896484375</AltitudeMeters>
            <DistanceMeters>3369.3253937205</DistanceMeters>
          </Trackpoint>
          <Trackpoint>
            <Time>2018-06-21T08:03:22.000Z</Time>
            <Position>
              <LatitudeDegrees>41.7388993687927722930908203125</LatitudeDegrees>
              <LongitudeDegrees>1.77594398148357868194580078125</LongitudeDegrees>
            </Position>
            <AltitudeMeters>350.79998779296875</AltitudeMeters>
            <DistanceMeters>3377.4311223248</DistanceMeters>
          </Trackpoint>
          <Trackpoint>
            <Time>2018-06-21T08:03:23.000Z</Time>
            <Position>
              <LatitudeDegrees>41.7389047332108020782470703125</LatitudeDegrees>
              <LongitudeDegrees>1.77596175111830234527587890625</LongitudeDegrees>
            </Position>
            <AltitudeMeters>351.20001220703125</AltitudeMeters>
            <DistanceMeters>3379.0212233921</DistanceMeters>
          </Trackpoint>
          <Trackpoint>
            <Time>2018-06-21T08:03:29.000Z</Time>
            <Position>
              <LatitudeDegrees>41.7389422841370105743408203125</LatitudeDegrees>
              <LongitudeDegrees>1.7760369367897510528564453125</LongitudeDegrees>
            </Position>
            <AltitudeMeters>353.600006103515625</AltitudeMeters>
            <DistanceMeters>3386.5349466987</DistanceMeters>
          </Trackpoint>
          <Trackpoint>
            <Time>2018-06-21T08:03:37.000Z</Time>
            <Position>
              <LatitudeDegrees>41.739037334918975830078125</LatitudeDegrees>
              <LongitudeDegrees>1.77615554071962833404541015625</LongitudeDegrees>
            </Position>
            <AltitudeMeters>358.20001220703125</AltitudeMeters>
            <DistanceMeters>3400.9899437183</DistanceMeters>
          </Trackpoint>
          <Trackpoint>
            <Time>2018-06-21T08:03:41.000Z</Time>
            <Position>
              <LatitudeDegrees>41.7390569485723972320556640625</LatitudeDegrees>
              <LongitudeDegrees>1.7762293852865695953369140625</LongitudeDegrees>
            </Position>
            <AltitudeMeters>360.20001220703125</AltitudeMeters>
            <DistanceMeters>3407.4991002439</DistanceMeters>
          </Trackpoint>
          <Trackpoint>
            <Time>2018-06-21T08:03:47.000Z</Time>
            <Position>
              <LatitudeDegrees>41.73899198882281780242919921875</LatitudeDegrees>
              <LongitudeDegrees>1.77633977495133876800537109375</LongitudeDegrees>
            </Position>
            <AltitudeMeters>359.399993896484375</AltitudeMeters>
            <DistanceMeters>3419.1746316664</DistanceMeters>
          </Trackpoint>
          <Trackpoint>
            <Time>2018-06-21T08:03:49.000Z</Time>
            <Position>
              <LatitudeDegrees>41.7389741353690624237060546875</LatitudeDegrees>
              <LongitudeDegrees>1.776356957852840423583984375</LongitudeDegrees>
            </Position>
            <AltitudeMeters>359.20001220703125</AltitudeMeters>
            <DistanceMeters>3421.6232988056</DistanceMeters>
          </Trackpoint>
          <Trackpoint>
            <Time>2018-06-21T08:03:56.000Z</Time>
            <Position>
              <LatitudeDegrees>41.73888335935771465301513671875</LatitudeDegrees>
              <LongitudeDegrees>1.77641118876636028289794921875</LongitudeDegrees>
            </Position>
            <AltitudeMeters>357</AltitudeMeters>
            <DistanceMeters>3432.6856491874</DistanceMeters>
          </Trackpoint>
          <Trackpoint>
            <Time>2018-06-21T08:03:57.000Z</Time>
            <Position>
              <LatitudeDegrees>41.7388678528368473052978515625</LatitudeDegrees>
              <LongitudeDegrees>1.7764171399176120758056640625</LongitudeDegrees>
            </Position>
            <AltitudeMeters>356.399993896484375</AltitudeMeters>
            <DistanceMeters>3434.4836390002</DistanceMeters>
          </Trackpoint>
          <Trackpoint>
            <Time>2018-06-21T08:04:03.000Z</Time>
            <Position>
              <LatitudeDegrees>41.73882183618843555450439453125</LatitudeDegrees>
              <LongitudeDegrees>1.7765019647777080535888671875</LongitudeDegrees>
            </Position>
            <AltitudeMeters>355.79998779296875</AltitudeMeters>
            <DistanceMeters>3443.1940179978</DistanceMeters>
          </Trackpoint>
          <Trackpoint>
            <Time>2018-06-21T08:04:04.000Z</Time>
            <Position>
              <LatitudeDegrees>41.7388024739921092987060546875</LatitudeDegrees>
              <LongitudeDegrees>1.776506491005420684814453125</LongitudeDegrees>
            </Position>
            <AltitudeMeters>355.20001220703125</AltitudeMeters>
            <DistanceMeters>3445.3837601268</DistanceMeters>
          </Trackpoint>
          <Trackpoint>
            <Time>2018-06-21T08:04:11.000Z</Time>
            <Position>
              <LatitudeDegrees>41.73871287144720554351806640625</LatitudeDegrees>
              <LongitudeDegrees>1.77656583487987518310546875</LongitudeDegrees>
            </Position>
            <AltitudeMeters>353</AltitudeMeters>
            <DistanceMeters>3456.5079754964</DistanceMeters>
          </Trackpoint>
          <Trackpoint>
            <Time>2018-06-21T08:04:14.000Z</Time>
            <Position>
              <LatitudeDegrees>41.738661490380764007568359375</LatitudeDegrees>
              <LongitudeDegrees>1.77658033557236194610595703125</LongitudeDegrees>
            </Position>
            <AltitudeMeters>351.600006103515625</AltitudeMeters>
            <DistanceMeters>3462.3519252832</DistanceMeters>
          </Trackpoint>
          <Trackpoint>
            <Time>2018-06-21T08:04:20.000Z</Time>
            <Position>
              <LatitudeDegrees>41.73856149427592754364013671875</LatitudeDegrees>
              <LongitudeDegrees>1.7766129411756992340087890625</LongitudeDegrees>
            </Position>
            <AltitudeMeters>348.79998779296875</AltitudeMeters>
            <DistanceMeters>3473.8064881614</DistanceMeters>
          </Trackpoint>
          <Trackpoint>
            <Time>2018-06-21T08:04:25.000Z</Time>
            <Position>
              <LatitudeDegrees>41.7384983785450458526611328125</LatitudeDegrees>
              <LongitudeDegrees>1.77667086012661457061767578125</LongitudeDegrees>
            </Position>
            <AltitudeMeters>348</AltitudeMeters>
            <DistanceMeters>3482.3202666185</DistanceMeters>
          </Trackpoint>
          <Trackpoint>
            <Time>2018-06-21T08:04:26.000Z</Time>
            <Position>
              <LatitudeDegrees>41.73849326558411121368408203125</LatitudeDegrees>
              <LongitudeDegrees>1.776689551770687103271484375</LongitudeDegrees>
            </Position>
            <AltitudeMeters>348.20001220703125</AltitudeMeters>
            <DistanceMeters>3483.9743866753</DistanceMeters>
          </Trackpoint>
          <Trackpoint>
            <Time>2018-06-21T08:04:29.000Z</Time>
            <Position>
              <LatitudeDegrees>41.73845135606825351715087890625</LatitudeDegrees>
              <LongitudeDegrees>1.77673908881843090057373046875</LongitudeDegrees>
            </Position>
            <AltitudeMeters>348</AltitudeMeters>
            <DistanceMeters>3490.1941010969</DistanceMeters>
          </Trackpoint>
          <Trackpoint>
            <Time>2018-06-21T08:04:33.000Z</Time>
            <Position>
              <LatitudeDegrees>41.73843274824321269989013671875</LatitudeDegrees>
              <LongitudeDegrees>1.77680178545415401458740234375</LongitudeDegrees>
            </Position>
            <AltitudeMeters>348.399993896484375</AltitudeMeters>
            <DistanceMeters>3495.7982607906</DistanceMeters>
          </Trackpoint>
          <Trackpoint>
            <Time>2018-06-21T08:04:40.000Z</Time>
            <Position>
              <LatitudeDegrees>41.73841548152267932891845703125</LatitudeDegrees>
              <LongitudeDegrees>1.77694796584546566009521484375</LongitudeDegrees>
            </Position>
            <AltitudeMeters>349.79998779296875</AltitudeMeters>
            <DistanceMeters>3508.0901784221</DistanceMeters>
          </Trackpoint>
          <Trackpoint>
            <Time>2018-06-21T08:04:46.000Z</Time>
            <Position>
              <LatitudeDegrees>41.738414056599140167236328125</LatitudeDegrees>
              <LongitudeDegrees>1.77705558948218822479248046875</LongitudeDegrees>
            </Position>
            <AltitudeMeters>351.20001220703125</AltitudeMeters>
            <DistanceMeters>3517.0302682765</DistanceMeters>
          </Trackpoint>
          <Trackpoint>
            <Time>2018-06-21T08:04:47.000Z</Time>
            <Position>
              <LatitudeDegrees>41.7384098656475543975830078125</LatitudeDegrees>
              <LongitudeDegrees>1.77707285620272159576416015625</LongitudeDegrees>
            </Position>
            <AltitudeMeters>351.399993896484375</AltitudeMeters>
            <DistanceMeters>3518.5387706013</DistanceMeters>
          </Trackpoint>
          <Trackpoint>
            <Time>2018-06-21T08:04:52.000Z</Time>
            <Position>
              <LatitudeDegrees>41.73841095529496669769287109375</LatitudeDegrees>
              <LongitudeDegrees>1.77716354839503765106201171875</LongitudeDegrees>
            </Position>
            <AltitudeMeters>352.79998779296875</AltitudeMeters>
            <DistanceMeters>3526.0728969957</DistanceMeters>
          </Trackpoint>
          <Trackpoint>
            <Time>2018-06-21T08:04:58.000Z</Time>
            <Position>
              <LatitudeDegrees>41.73838815651834011077880859375</LatitudeDegrees>
              <LongitudeDegrees>1.77727955393493175506591796875</LongitudeDegrees>
            </Position>
            <AltitudeMeters>353.399993896484375</AltitudeMeters>
            <DistanceMeters>3536.0366643768</DistanceMeters>
          </Trackpoint>
          <Trackpoint>
            <Time>2018-06-21T08:05:05.000Z</Time>
            <Position>
              <LatitudeDegrees>41.73834457062184810638427734375</LatitudeDegrees>
              <LongitudeDegrees>1.77740746177732944488525390625</LongitudeDegrees>
            </Position>
            <AltitudeMeters>353.399993896484375</AltitudeMeters>
            <DistanceMeters>3547.7152890651</DistanceMeters>
          </Trackpoint>
          <Trackpoint>
            <Time>2018-06-21T08:05:11.000Z</Time>
            <Position>
              <LatitudeDegrees>41.73834909684956073760986328125</LatitudeDegrees>
              <LongitudeDegrees>1.77751156501471996307373046875</LongitudeDegrees>
            </Position>
            <AltitudeMeters>355.399993896484375</AltitudeMeters>
            <DistanceMeters>3556.3762846788</DistanceMeters>
          </Trackpoint>
          <Trackpoint>
            <Time>2018-06-21T08:05:16.000Z</Time>
            <Position>
              <LatitudeDegrees>41.7383850552141666412353515625</LatitudeDegrees>
              <LongitudeDegrees>1.7775778658688068389892578125</LongitudeDegrees>
            </Position>
            <AltitudeMeters>358</AltitudeMeters>
            <DistanceMeters>3563.1838064239</DistanceMeters>
          </Trackpoint>
          <Trackpoint>
            <Time>2018-06-21T08:05:22.000Z</Time>
            <Position>
              <LatitudeDegrees>41.73840978182852268218994140625</LatitudeDegrees>
              <LongitudeDegrees>1.77768305875360965728759765625</LongitudeDegrees>
            </Position>
            <AltitudeMeters>360.79998779296875</AltitudeMeters>
            <DistanceMeters>3572.3439085149</DistanceMeters>
          </Trackpoint>
          <Trackpoint>
            <Time>2018-06-21T08:05:26.000Z</Time>
            <Position>
              <LatitudeDegrees>41.7384316585958003997802734375</LatitudeDegrees>
              <LongitudeDegrees>1.7777528800070285797119140625</LongitudeDegrees>
            </Position>
            <AltitudeMeters>362.79998779296875</AltitudeMeters>
            <DistanceMeters>3578.6329255147</DistanceMeters>
          </Trackpoint>
          <Trackpoint>
            <Time>2018-06-21T08:05:31.000Z</Time>
            <Position>
              <LatitudeDegrees>41.73839955590665340423583984375</LatitudeDegrees>
              <LongitudeDegrees>1.7778472602367401123046875</LongitudeDegrees>
            </Position>
            <AltitudeMeters>362.79998779296875</AltitudeMeters>
            <DistanceMeters>3587.2473998583</DistanceMeters>
          </Trackpoint>
          <Trackpoint>
            <Time>2018-06-21T08:05:33.000Z</Time>
            <Position>
              <LatitudeDegrees>41.738392598927021026611328125</LatitudeDegrees>
              <LongitudeDegrees>1.777881793677806854248046875</LongitudeDegrees>
            </Position>
            <AltitudeMeters>363</AltitudeMeters>
            <DistanceMeters>3590.2176497949</DistanceMeters>
          </Trackpoint>
          <Trackpoint>
            <Time>2018-06-21T08:05:38.000Z</Time>
            <Position>
              <LatitudeDegrees>41.73835345543920993804931640625</LatitudeDegrees>
              <LongitudeDegrees>1.77796837873756885528564453125</LongitudeDegrees>
            </Position>
            <AltitudeMeters>362.79998779296875</AltitudeMeters>
            <DistanceMeters>3598.6257689948</DistanceMeters>
          </Trackpoint>
          <Trackpoint>
            <Time>2018-06-21T08:05:42.000Z</Time>
            <Position>
              <LatitudeDegrees>41.7383169941604137420654296875</LatitudeDegrees>
              <LongitudeDegrees>1.7780569754540920257568359375</LongitudeDegrees>
            </Position>
            <AltitudeMeters>362.399993896484375</AltitudeMeters>
            <DistanceMeters>3607.0290539353</DistanceMeters>
          </Trackpoint>
          <Trackpoint>
            <Time>2018-06-21T08:05:45.000Z</Time>
            <Position>
              <LatitudeDegrees>41.7383109591901302337646484375</LatitudeDegrees>
              <LongitudeDegrees>1.77810399793088436126708984375</LongitudeDegrees>
            </Position>
            <AltitudeMeters>363</AltitudeMeters>
            <DistanceMeters>3610.9929324668</DistanceMeters>
          </Trackpoint>
          <Trackpoint>
            <Time>2018-06-21T08:05:49.000Z</Time>
            <Position>
              <LatitudeDegrees>41.73827986232936382293701171875</LatitudeDegrees>
              <LongitudeDegrees>1.77815328352153301239013671875</LongitudeDegrees>
            </Position>
            <AltitudeMeters>362.399993896484375</AltitudeMeters>
            <DistanceMeters>3616.3533152185</DistanceMeters>
          </Trackpoint>
          <Trackpoint>
            <Time>2018-06-21T08:05:53.000Z</Time>
            <Position>
              <LatitudeDegrees>41.7382214404642581939697265625</LatitudeDegrees>
              <LongitudeDegrees>1.77820726297795772552490234375</LongitudeDegrees>
            </Position>
            <AltitudeMeters>360.600006103515625</AltitudeMeters>
            <DistanceMeters>3624.2514015738</DistanceMeters>
          </Trackpoint>
          <Trackpoint>
            <Time>2018-06-21T08:05:59.000Z</Time>
            <Position>
              <LatitudeDegrees>41.7381372861564159393310546875</LatitudeDegrees>
              <LongitudeDegrees>1.7782410420477390289306640625</LongitudeDegrees>
            </Position>
            <AltitudeMeters>358.600006103515625</AltitudeMeters>
            <DistanceMeters>3634.0285376184</DistanceMeters>
          </Trackpoint>
          <Trackpoint>
            <Time>2018-06-21T08:06:05.000Z</Time>
            <Position>
              <LatitudeDegrees>41.738061346113681793212890625</LatitudeDegrees>
              <LongitudeDegrees>1.77828135900199413299560546875</LongitudeDegrees>
            </Position>
            <AltitudeMeters>357</AltitudeMeters>
            <DistanceMeters>3643.1198680871</DistanceMeters>
          </Trackpoint>
          <Trackpoint>
            <Time>2018-06-21T08:06:09.000Z</Time>
            <Position>
              <LatitudeDegrees>41.7380182631313800811767578125</LatitudeDegrees>
              <LongitudeDegrees>1.77829544059932231903076171875</LongitudeDegrees>
            </Position>
            <AltitudeMeters>356</AltitudeMeters>
            <DistanceMeters>3648.0557718793</DistanceMeters>
          </Trackpoint>
          <Trackpoint>
            <Time>2018-06-21T08:06:14.000Z</Time>
            <Position>
              <LatitudeDegrees>41.737967468798160552978515625</LatitudeDegrees>
              <LongitudeDegrees>1.7782638408243656158447265625</LongitudeDegrees>
            </Position>
            <AltitudeMeters>354</AltitudeMeters>
            <DistanceMeters>3654.2885392312</DistanceMeters>
          </Trackpoint>
          <Trackpoint>
            <Time>2018-06-21T08:06:21.000Z</Time>
            <Position>
              <LatitudeDegrees>41.73787795007228851318359375</LatitudeDegrees>
              <LongitudeDegrees>1.77828756161034107208251953125</LongitudeDegrees>
            </Position>
            <AltitudeMeters>351.79998779296875</AltitudeMeters>
            <DistanceMeters>3664.4452903503</DistanceMeters>
          </Trackpoint>
          <Trackpoint>
            <Time>2018-06-21T08:06:22.000Z</Time>
            <Position>
              <LatitudeDegrees>41.737871579825878143310546875</LatitudeDegrees>
              <LongitudeDegrees>1.7782956920564174652099609375</LongitudeDegrees>
            </Position>
            <AltitudeMeters>351.79998779296875</AltitudeMeters>
            <DistanceMeters>3665.428254327</DistanceMeters>
          </Trackpoint>
          <Trackpoint>
            <Time>2018-06-21T08:06:27.000Z</Time>
            <Position>
              <LatitudeDegrees>41.73788599669933319091796875</LatitudeDegrees>
              <LongitudeDegrees>1.77835755050182342529296875</LongitudeDegrees>
            </Position>
            <AltitudeMeters>353.399993896484375</AltitudeMeters>
            <DistanceMeters>3670.810492266</DistanceMeters>
          </Trackpoint>
          <Trackpoint>
            <Time>2018-06-21T08:06:31.000Z</Time>
            <Position>
              <LatitudeDegrees>41.73791206441819667816162109375</LatitudeDegrees>
              <LongitudeDegrees>1.7784274555742740631103515625</LongitudeDegrees>
            </Position>
            <AltitudeMeters>355.399993896484375</AltitudeMeters>
            <DistanceMeters>3677.3008933793</DistanceMeters>
          </Trackpoint>
          <Trackpoint>
            <Time>2018-06-21T08:06:32.000Z</Time>
            <Position>
              <LatitudeDegrees>41.73791206441819667816162109375</LatitudeDegrees>
              <LongitudeDegrees>1.778444387018680572509765625</LongitudeDegrees>
            </Position>
            <AltitudeMeters>355.600006103515625</AltitudeMeters>
            <DistanceMeters>3678.7071603316</DistanceMeters>
          </Trackpoint>
          <Trackpoint>
            <Time>2018-06-21T08:06:40.000Z</Time>
            <Position>
              <LatitudeDegrees>41.73793653957545757293701171875</LatitudeDegrees>
              <LongitudeDegrees>1.77858444862067699432373046875</LongitudeDegrees>
            </Position>
            <AltitudeMeters>359</AltitudeMeters>
            <DistanceMeters>3690.6544787901</DistanceMeters>
          </Trackpoint>
          <Trackpoint>
            <Time>2018-06-21T08:06:41.000Z</Time>
            <Position>
              <LatitudeDegrees>41.73793519847095012664794921875</LatitudeDegrees>
              <LongitudeDegrees>1.77860389463603496551513671875</LongitudeDegrees>
            </Position>
            <AltitudeMeters>359.20001220703125</AltitudeMeters>
            <DistanceMeters>3692.2755131035</DistanceMeters>
          </Trackpoint>
          <Trackpoint>
            <Time>2018-06-21T08:06:45.000Z</Time>
            <Position>
              <LatitudeDegrees>41.737933270633220672607421875</LatitudeDegrees>
              <LongitudeDegrees>1.77867296151816844940185546875</LongitudeDegrees>
            </Position>
            <AltitudeMeters>360.399993896484375</AltitudeMeters>
            <DistanceMeters>3698.0157873952</DistanceMeters>
          </Trackpoint>
          <Trackpoint>
            <Time>2018-06-21T08:06:54.000Z</Time>
            <Position>
              <LatitudeDegrees>41.73785389401018619537353515625</LatitudeDegrees>
              <LongitudeDegrees>1.7788302898406982421875</LongitudeDegrees>
            </Position>
            <AltitudeMeters>359.20001220703125</AltitudeMeters>
            <DistanceMeters>3713.7890770389</DistanceMeters>
          </Trackpoint>
          <Trackpoint>
            <Time>2018-06-21T08:07:01.000Z</Time>
            <Position>
              <LatitudeDegrees>41.737776696681976318359375</LatitudeDegrees>
              <LongitudeDegrees>1.77893933840095996856689453125</LongitudeDegrees>
            </Position>
            <AltitudeMeters>356.399993896484375</AltitudeMeters>
            <DistanceMeters>3726.2730703642</DistanceMeters>
          </Trackpoint>
          <Trackpoint>
            <Time>2018-06-21T08:07:07.000Z</Time>
            <Position>
              <LatitudeDegrees>41.73773445188999176025390625</LatitudeDegrees>
              <LongitudeDegrees>1.7790691740810871124267578125</LongitudeDegrees>
            </Position>
            <AltitudeMeters>355</AltitudeMeters>
            <DistanceMeters>3738.0368249308</DistanceMeters>
          </Trackpoint>
          <Trackpoint>
            <Time>2018-06-21T08:07:14.000Z</Time>
            <Position>
              <LatitudeDegrees>41.73772229813039302825927734375</LatitudeDegrees>
              <LongitudeDegrees>1.7791881971061229705810546875</LongitudeDegrees>
            </Position>
            <AltitudeMeters>353.600006103515625</AltitudeMeters>
            <DistanceMeters>3748.0146299397</DistanceMeters>
          </Trackpoint>
          <Trackpoint>
            <Time>2018-06-21T08:07:22.000Z</Time>
            <Position>
              <LatitudeDegrees>41.73772246576845645904541015625</LatitudeDegrees>
              <LongitudeDegrees>1.779325492680072784423828125</LongitudeDegrees>
            </Position>
            <AltitudeMeters>352.600006103515625</AltitudeMeters>
            <DistanceMeters>3759.4170437473</DistanceMeters>
          </Trackpoint>
          <Trackpoint>
            <Time>2018-06-21T08:07:27.000Z</Time>
            <Position>
              <LatitudeDegrees>41.73773336224257946014404296875</LatitudeDegrees>
              <LongitudeDegrees>1.7794131673872470855712890625</LongitudeDegrees>
            </Position>
            <AltitudeMeters>352.600006103515625</AltitudeMeters>
            <DistanceMeters>3766.7986073529</DistanceMeters>
          </Trackpoint>
          <Trackpoint>
            <Time>2018-06-21T08:07:33.000Z</Time>
            <Position>
              <LatitudeDegrees>41.7377463541924953460693359375</LatitudeDegrees>
              <LongitudeDegrees>1.7795184440910816192626953125</LongitudeDegrees>
            </Position>
            <AltitudeMeters>353.20001220703125</AltitudeMeters>
            <DistanceMeters>3775.661090352</DistanceMeters>
          </Trackpoint>
          <Trackpoint>
            <Time>2018-06-21T08:07:40.000Z</Time>
            <Position>
              <LatitudeDegrees>41.737737469375133514404296875</LatitudeDegrees>
              <LongitudeDegrees>1.77965096198022365570068359375</LongitudeDegrees>
            </Position>
            <AltitudeMeters>353.20001220703125</AltitudeMeters>
            <DistanceMeters>3786.7115982024</DistanceMeters>
          </Trackpoint>
          <Trackpoint>
            <Time>2018-06-21T08:07:42.000Z</Time>
            <Position>
              <LatitudeDegrees>41.73773889429867267608642578125</LatitudeDegrees>
              <LongitudeDegrees>1.77970678545534610748291015625</LongitudeDegrees>
            </Position>
            <AltitudeMeters>353.399993896484375</AltitudeMeters>
            <DistanceMeters>3791.3504204846</DistanceMeters>
          </Trackpoint>
          <Trackpoint>
            <Time>2018-06-21T08:07:46.000Z</Time>
            <Position>
              <LatitudeDegrees>41.737723052501678466796875</LatitudeDegrees>
              <LongitudeDegrees>1.77979144267737865447998046875</LongitudeDegrees>
            </Position>
            <AltitudeMeters>353.20001220703125</AltitudeMeters>
            <DistanceMeters>3798.5999063218</DistanceMeters>
          </Trackpoint>
          <Trackpoint>
            <Time>2018-06-21T08:07:51.000Z</Time>
            <Position>
              <LatitudeDegrees>41.73770218156278133392333984375</LatitudeDegrees>
              <LongitudeDegrees>1.77989889867603778839111328125</LongitudeDegrees>
            </Position>
            <AltitudeMeters>352.600006103515625</AltitudeMeters>
            <DistanceMeters>3807.8219050178</DistanceMeters>
          </Trackpoint>
          <Trackpoint>
            <Time>2018-06-21T08:07:58.000Z</Time>
            <Position>
              <LatitudeDegrees>41.7377077974379062652587890625</LatitudeDegrees>
              <LongitudeDegrees>1.78003535605967044830322265625</LongitudeDegrees>
            </Position>
            <AltitudeMeters>352.600006103515625</AltitudeMeters>
            <DistanceMeters>3819.172327945</DistanceMeters>
          </Trackpoint>
          <Trackpoint>
            <Time>2018-06-21T08:08:04.000Z</Time>
            <Position>
              <LatitudeDegrees>41.737760938704013824462890625</LatitudeDegrees>
              <LongitudeDegrees>1.78012537769973278045654296875</LongitudeDegrees>
            </Position>
            <AltitudeMeters>354.20001220703125</AltitudeMeters>
            <DistanceMeters>3828.7058330406</DistanceMeters>
          </Trackpoint>
          <Trackpoint>
            <Time>2018-06-21T08:08:08.000Z</Time>
            <Position>
              <LatitudeDegrees>41.7378100566565990447998046875</LatitudeDegrees>
              <LongitudeDegrees>1.780159659683704376220703125</LongitudeDegrees>
            </Position>
            <AltitudeMeters>355.79998779296875</AltitudeMeters>
            <DistanceMeters>3834.870130379</DistanceMeters>
          </Trackpoint>
          <Trackpoint>
            <Time>2018-06-21T08:08:12.000Z</Time>
            <Position>
              <LatitudeDegrees>41.7378090508282184600830078125</LatitudeDegrees>
              <LongitudeDegrees>1.780242137610912322998046875</LongitudeDegrees>
            </Position>
            <AltitudeMeters>355.600006103515625</AltitudeMeters>
            <DistanceMeters>3841.7212862928</DistanceMeters>
          </Trackpoint>
          <Trackpoint>
            <Time>2018-06-21T08:08:19.000Z</Time>
            <Position>
              <LatitudeDegrees>41.7378100566565990447998046875</LatitudeDegrees>
              <LongitudeDegrees>1.7803710512816905975341796875</LongitudeDegrees>
            </Position>
            <AltitudeMeters>355.600006103515625</AltitudeMeters>
            <DistanceMeters>3852.4294098766</DistanceMeters>
          </Trackpoint>
          <Trackpoint>
            <Time>2018-06-21T08:08:21.000Z</Time>
            <Position>
              <LatitudeDegrees>41.73781198449432849884033203125</LatitudeDegrees>
              <LongitudeDegrees>1.78040935657918453216552734375</LongitudeDegrees>
            </Position>
            <AltitudeMeters>355.600006103515625</AltitudeMeters>
            <DistanceMeters>3855.6181190317</DistanceMeters>
          </Trackpoint>
          <Trackpoint>
            <Time>2018-06-21T08:08:26.000Z</Time>
            <Position>
              <LatitudeDegrees>41.7377946339547634124755859375</LatitudeDegrees>
              <LongitudeDegrees>1.78049066103994846343994140625</LongitudeDegrees>
            </Position>
            <AltitudeMeters>355</AltitudeMeters>
            <DistanceMeters>3862.6411011289</DistanceMeters>
          </Trackpoint>
          <Trackpoint>
            <Time>2018-06-21T08:08:28.000Z</Time>
            <Position>
              <LatitudeDegrees>41.737799160182476043701171875</LatitudeDegrees>
              <LongitudeDegrees>1.780534498393535614013671875</LongitudeDegrees>
            </Position>
            <AltitudeMeters>355</AltitudeMeters>
            <DistanceMeters>3866.3165595166</DistanceMeters>
          </Trackpoint>
          <Trackpoint>
            <Time>2018-06-21T08:08:34.000Z</Time>
            <Position>
              <LatitudeDegrees>41.73784048296511173248291015625</LatitudeDegrees>
              <LongitudeDegrees>1.7806362546980381011962890625</LongitudeDegrees>
            </Position>
            <AltitudeMeters>356.20001220703125</AltitudeMeters>
            <DistanceMeters>3875.938219649</DistanceMeters>
          </Trackpoint>
          <Trackpoint>
            <Time>2018-06-21T08:08:40.000Z</Time>
            <Position>
              <LatitudeDegrees>41.7378425784409046173095703125</LatitudeDegrees>
              <LongitudeDegrees>1.78077765740454196929931640625</LongitudeDegrees>
            </Position>
            <AltitudeMeters>356.20001220703125</AltitudeMeters>
            <DistanceMeters>3887.6839213271</DistanceMeters>
          </Trackpoint>
          <Trackpoint>
            <Time>2018-06-21T08:08:45.000Z</Time>
            <Position>
              <LatitudeDegrees>41.73780444078147411346435546875</LatitudeDegrees>
              <LongitudeDegrees>1.78085929714143276214599609375</LongitudeDegrees>
            </Position>
            <AltitudeMeters>355.20001220703125</AltitudeMeters>
            <DistanceMeters>3895.6831163918</DistanceMeters>
          </Trackpoint>
          <Trackpoint>
            <Time>2018-06-21T08:08:47.000Z</Time>
            <Position>
              <LatitudeDegrees>41.73779287375509738922119140625</LatitudeDegrees>
              <LongitudeDegrees>1.78089567460119724273681640625</LongitudeDegrees>
            </Position>
            <AltitudeMeters>354.79998779296875</AltitudeMeters>
            <DistanceMeters>3898.9666984714</DistanceMeters>
          </Trackpoint>
          <Trackpoint>
            <Time>2018-06-21T08:08:53.000Z</Time>
            <Position>
              <LatitudeDegrees>41.73771793954074382781982421875</LatitudeDegrees>
              <LongitudeDegrees>1.78097345866262912750244140625</LongitudeDegrees>
            </Position>
            <AltitudeMeters>352.399993896484375</AltitudeMeters>
            <DistanceMeters>3909.5163758206</DistanceMeters>
          </Trackpoint>
          <Trackpoint>
            <Time>2018-06-21T08:08:58.000Z</Time>
            <Position>
              <LatitudeDegrees>41.73766848631203174591064453125</LatitudeDegrees>
              <LongitudeDegrees>1.7810365743935108184814453125</LongitudeDegrees>
            </Position>
            <AltitudeMeters>351</AltitudeMeters>
            <DistanceMeters>3917.1173250435</DistanceMeters>
          </Trackpoint>
          <Trackpoint>
            <Time>2018-06-21T08:09:02.000Z</Time>
            <Position>
              <LatitudeDegrees>41.73762607388198375701904296875</LatitudeDegrees>
              <LongitudeDegrees>1.78110086359083652496337890625</LongitudeDegrees>
            </Position>
            <AltitudeMeters>349.399993896484375</AltitudeMeters>
            <DistanceMeters>3924.2443286212</DistanceMeters>
          </Trackpoint>
          <Trackpoint>
            <Time>2018-06-21T08:09:04.000Z</Time>
            <Position>
              <LatitudeDegrees>41.73761299811303615570068359375</LatitudeDegrees>
              <LongitudeDegrees>1.78113925270736217498779296875</LongitudeDegrees>
            </Position>
            <AltitudeMeters>349</AltitudeMeters>
            <DistanceMeters>3927.7487406923</DistanceMeters>
          </Trackpoint>
          <Trackpoint>
            <Time>2018-06-21T08:09:09.000Z</Time>
            <Position>
              <LatitudeDegrees>41.7376276664435863494873046875</LatitudeDegrees>
              <LongitudeDegrees>1.78121636621654033660888671875</LongitudeDegrees>
            </Position>
            <AltitudeMeters>349.600006103515625</AltitudeMeters>
            <DistanceMeters>3934.3583934695</DistanceMeters>
          </Trackpoint>
          <Trackpoint>
            <Time>2018-06-21T08:09:14.000Z</Time>
            <Position>
              <LatitudeDegrees>41.73768206499516963958740234375</LatitudeDegrees>
              <LongitudeDegrees>1.78127403371036052703857421875</LongitudeDegrees>
            </Position>
            <AltitudeMeters>351.399993896484375</AltitudeMeters>
            <DistanceMeters>3942.0784002396</DistanceMeters>
          </Trackpoint>
          <Trackpoint>
            <Time>2018-06-21T08:09:20.000Z</Time>
            <Position>
              <LatitudeDegrees>41.73772816546261310577392578125</LatitudeDegrees>
              <LongitudeDegrees>1.781341172754764556884765625</LongitudeDegrees>
            </Position>
            <AltitudeMeters>353</AltitudeMeters>
            <DistanceMeters>3949.6555518173</DistanceMeters>
          </Trackpoint>
          <Trackpoint>
            <Time>2018-06-21T08:09:25.000Z</Time>
            <Position>
              <LatitudeDegrees>41.737769655883312225341796875</LatitudeDegrees>
              <LongitudeDegrees>1.7814157716929912567138671875</LongitudeDegrees>
            </Position>
            <AltitudeMeters>354.399993896484375</AltitudeMeters>
            <DistanceMeters>3957.3831578841</DistanceMeters>
          </Trackpoint>
          <Trackpoint>
            <Time>2018-06-21T08:09:27.000Z</Time>
            <Position>
              <LatitudeDegrees>41.73777024261653423309326171875</LatitudeDegrees>
              <LongitudeDegrees>1.781452484428882598876953125</LongitudeDegrees>
            </Position>
            <AltitudeMeters>354.399993896484375</AltitudeMeters>
            <DistanceMeters>3960.4329084866</DistanceMeters>
          </Trackpoint>
          <Trackpoint>
            <Time>2018-06-21T08:09:31.000Z</Time>
            <Position>
              <LatitudeDegrees>41.73779555596411228179931640625</LatitudeDegrees>
              <LongitudeDegrees>1.78151174448430538177490234375</LongitudeDegrees>
            </Position>
            <AltitudeMeters>355.20001220703125</AltitudeMeters>
            <DistanceMeters>3966.1043397251</DistanceMeters>
          </Trackpoint>
          <Trackpoint>
            <Time>2018-06-21T08:09:35.000Z</Time>
            <Position>
              <LatitudeDegrees>41.73780846409499645233154296875</LatitudeDegrees>
              <LongitudeDegrees>1.78159556351602077484130859375</LongitudeDegrees>
            </Position>
            <AltitudeMeters>354.79998779296875</AltitudeMeters>
            <DistanceMeters>3973.2123125517</DistanceMeters>
          </Trackpoint>
          <Trackpoint>
            <Time>2018-06-21T08:09:39.000Z</Time>
            <Position>
              <LatitudeDegrees>41.737833358347415924072265625</LatitudeDegrees>
              <LongitudeDegrees>1.78167938254773616790771484375</LongitudeDegrees>
            </Position>
            <AltitudeMeters>354.399993896484375</AltitudeMeters>
            <DistanceMeters>3980.7049746455</DistanceMeters>
          </Trackpoint>
          <Trackpoint>
            <Time>2018-06-21T08:09:46.000Z</Time>
            <Position>
              <LatitudeDegrees>41.7378680594265460968017578125</LatitudeDegrees>
              <LongitudeDegrees>1.78181315772235393524169921875</LongitudeDegrees>
            </Position>
            <AltitudeMeters>353.399993896484375</AltitudeMeters>
            <DistanceMeters>3992.4675777279</DistanceMeters>
          </Trackpoint>
          <Trackpoint>
            <Time>2018-06-21T08:09:52.000Z</Time>
            <Position>
              <LatitudeDegrees>41.73790217377245426177978515625</LatitudeDegrees>
              <LongitudeDegrees>1.7819206975400447845458984375</LongitudeDegrees>
            </Position>
            <AltitudeMeters>353</AltitudeMeters>
            <DistanceMeters>4002.1724062844</DistanceMeters>
          </Trackpoint>
          <Trackpoint>
            <Time>2018-06-21T08:09:59.000Z</Time>
            <Position>
              <LatitudeDegrees>41.73795363865792751312255859375</LatitudeDegrees>
              <LongitudeDegrees>1.78203695453703403472900390625</LongitudeDegrees>
            </Position>
            <AltitudeMeters>352.79998779296875</AltitudeMeters>
            <DistanceMeters>4013.3992405223</DistanceMeters>
          </Trackpoint>
          <Trackpoint>
            <Time>2018-06-21T08:10:05.000Z</Time>
            <Position>
              <LatitudeDegrees>41.73801817931234836578369140625</LatitudeDegrees>
              <LongitudeDegrees>1.78211088292300701141357421875</LongitudeDegrees>
            </Position>
            <AltitudeMeters>353.79998779296875</AltitudeMeters>
            <DistanceMeters>4022.8495027425</DistanceMeters>
          </Trackpoint>
          <Trackpoint>
            <Time>2018-06-21T08:10:11.000Z</Time>
            <Position>
              <LatitudeDegrees>41.73810635693371295928955078125</LatitudeDegrees>
              <LongitudeDegrees>1.78214608691632747650146484375</LongitudeDegrees>
            </Position>
            <AltitudeMeters>356.20001220703125</AltitudeMeters>
            <DistanceMeters>4033.0903673456</DistanceMeters>
          </Trackpoint>
          <Trackpoint>
            <Time>2018-06-21T08:10:17.000Z</Time>
            <Position>
              <LatitudeDegrees>41.73819369636476039886474609375</LatitudeDegrees>
              <LongitudeDegrees>1.78217005915939807891845703125</LongitudeDegrees>
            </Position>
            <AltitudeMeters>358.79998779296875</AltitudeMeters>
            <DistanceMeters>4043.0132678059</DistanceMeters>
          </Trackpoint>
          <Trackpoint>
            <Time>2018-06-21T08:10:18.000Z</Time>
            <Position>
              <LatitudeDegrees>41.73820509575307369232177734375</LatitudeDegrees>
              <LongitudeDegrees>1.78217525593936443328857421875</LongitudeDegrees>
            </Position>
            <AltitudeMeters>359.20001220703125</AltitudeMeters>
            <DistanceMeters>4044.3537845766</DistanceMeters>
          </Trackpoint>
          <Trackpoint>
            <Time>2018-06-21T08:10:24.000Z</Time>
            <Position>
              <LatitudeDegrees>41.73827399499714374542236328125</LatitudeDegrees>
              <LongitudeDegrees>1.782227642834186553955078125</LongitudeDegrees>
            </Position>
            <AltitudeMeters>361.20001220703125</AltitudeMeters>
            <DistanceMeters>4053.1702973809</DistanceMeters>
          </Trackpoint>
          <Trackpoint>
            <Time>2018-06-21T08:10:30.000Z</Time>
            <Position>
              <LatitudeDegrees>41.73832185566425323486328125</LatitudeDegrees>
              <LongitudeDegrees>1.7823146469891071319580078125</LongitudeDegrees>
            </Position>
            <AltitudeMeters>362</AltitudeMeters>
            <DistanceMeters>4062.1471789211</DistanceMeters>
          </Trackpoint>
          <Trackpoint>
            <Time>2018-06-21T08:10:33.000Z</Time>
            <Position>
              <LatitudeDegrees>41.73836636357009410858154296875</LatitudeDegrees>
              <LongitudeDegrees>1.78234658204019069671630859375</LongitudeDegrees>
            </Position>
            <AltitudeMeters>363.399993896484375</AltitudeMeters>
            <DistanceMeters>4067.7658217508</DistanceMeters>
          </Trackpoint>
          <Trackpoint>
            <Time>2018-06-21T08:10:41.000Z</Time>
            <Position>
              <LatitudeDegrees>41.73848069272935390472412109375</LatitudeDegrees>
              <LongitudeDegrees>1.782392598688602447509765625</LongitudeDegrees>
            </Position>
            <AltitudeMeters>367.600006103515625</AltitudeMeters>
            <DistanceMeters>4081.0525818705</DistanceMeters>
          </Trackpoint>
          <Trackpoint>
            <Time>2018-06-21T08:10:47.000Z</Time>
            <Position>
              <LatitudeDegrees>41.73853576183319091796875</LatitudeDegrees>
              <LongitudeDegrees>1.782411038875579833984375</LongitudeDegrees>
            </Position>
            <AltitudeMeters>369.600006103515625</AltitudeMeters>
            <DistanceMeters>4087.369535868</DistanceMeters>
          </Trackpoint>
          <Trackpoint>
            <Time>2018-06-21T08:10:51.000Z</Time>
            <Position>
              <LatitudeDegrees>41.73857876099646091461181640625</LatitudeDegrees>
              <LongitudeDegrees>1.78248144686222076416015625</LongitudeDegrees>
            </Position>
            <AltitudeMeters>370.20001220703125</AltitudeMeters>
            <DistanceMeters>4094.9252054795</DistanceMeters>
          </Trackpoint>
          <Trackpoint>
            <Time>2018-06-21T08:10:54.000Z</Time>
            <Position>
              <LatitudeDegrees>41.7386160604655742645263671875</LatitudeDegrees>
              <LongitudeDegrees>1.7825399525463581085205078125</LongitudeDegrees>
            </Position>
            <AltitudeMeters>370.600006103515625</AltitudeMeters>
            <DistanceMeters>4101.3167675603</DistanceMeters>
          </Trackpoint>
          <Trackpoint>
            <Time>2018-06-21T08:10:59.000Z</Time>
            <Position>
              <LatitudeDegrees>41.73869744874536991119384765625</LatitudeDegrees>
              <LongitudeDegrees>1.7826153896749019622802734375</LongitudeDegrees>
            </Position>
            <AltitudeMeters>372.600006103515625</AltitudeMeters>
            <DistanceMeters>4112.330851587</DistanceMeters>
          </Trackpoint>
          <Trackpoint>
            <Time>2018-06-21T08:11:02.000Z</Time>
            <Position>
              <LatitudeDegrees>41.7387327365577220916748046875</LatitudeDegrees>
              <LongitudeDegrees>1.78264816291630268096923828125</LongitudeDegrees>
            </Position>
            <AltitudeMeters>373.600006103515625</AltitudeMeters>
            <DistanceMeters>4117.1106103051</DistanceMeters>
          </Trackpoint>
          <Trackpoint>
            <Time>2018-06-21T08:11:08.000Z</Time>
            <Position>
              <LatitudeDegrees>41.7387516796588897705078125</LatitudeDegrees>
              <LongitudeDegrees>1.78276299498975276947021484375</LongitudeDegrees>
            </Position>
            <AltitudeMeters>372.20001220703125</AltitudeMeters>
            <DistanceMeters>4126.8775815631</DistanceMeters>
          </Trackpoint>
          <Trackpoint>
            <Time>2018-06-21T08:11:12.000Z</Time>
            <Position>
              <LatitudeDegrees>41.73874589614570140838623046875</LatitudeDegrees>
              <LongitudeDegrees>1.78283826448023319244384765625</LongitudeDegrees>
            </Position>
            <AltitudeMeters>370.600006103515625</AltitudeMeters>
            <DistanceMeters>4133.1608525435</DistanceMeters>
          </Trackpoint>
          <Trackpoint>
            <Time>2018-06-21T08:11:19.000Z</Time>
            <Position>
              <LatitudeDegrees>41.73871236853301525115966796875</LatitudeDegrees>
              <LongitudeDegrees>1.7829771526157855987548828125</LongitudeDegrees>
            </Position>
            <AltitudeMeters>367.20001220703125</AltitudeMeters>
            <DistanceMeters>4145.2844887257</DistanceMeters>
          </Trackpoint>
          <Trackpoint>
            <Time>2018-06-21T08:11:24.000Z</Time>
            <Position>
              <LatitudeDegrees>41.73871614038944244384765625</LatitudeDegrees>
              <LongitudeDegrees>1.78308737464249134063720703125</LongitudeDegrees>
            </Position>
            <AltitudeMeters>366</AltitudeMeters>
            <DistanceMeters>4154.4485331892</DistanceMeters>
          </Trackpoint>
          <Trackpoint>
            <Time>2018-06-21T08:11:29.000Z</Time>
            <Position>
              <LatitudeDegrees>41.73869795165956020355224609375</LatitudeDegrees>
              <LongitudeDegrees>1.783179156482219696044921875</LongitudeDegrees>
            </Position>
            <AltitudeMeters>364.399993896484375</AltitudeMeters>
            <DistanceMeters>4162.335178011</DistanceMeters>
          </Trackpoint>
          <Trackpoint>
            <Time>2018-06-21T08:11:33.000Z</Time>
            <Position>
              <LatitudeDegrees>41.7386857978999614715576171875</LatitudeDegrees>
              <LongitudeDegrees>1.78327529691159725189208984375</LongitudeDegrees>
            </Position>
            <AltitudeMeters>362.399993896484375</AltitudeMeters>
            <DistanceMeters>4170.4331046059</DistanceMeters>
          </Trackpoint>
          <Trackpoint>
            <Time>2018-06-21T08:11:37.000Z</Time>
            <Position>
              <LatitudeDegrees>41.7386978678405284881591796875</LatitudeDegrees>
              <LongitudeDegrees>1.78334805183112621307373046875</LongitudeDegrees>
            </Position>
            <AltitudeMeters>361.399993896484375</AltitudeMeters>
            <DistanceMeters>4176.6222551353</DistanceMeters>
          </Trackpoint>
          <Trackpoint>
            <Time>2018-06-21T08:11:44.000Z</Time>
            <Position>
              <LatitudeDegrees>41.73870943486690521240234375</LatitudeDegrees>
              <LongitudeDegrees>1.783475540578365325927734375</LongitudeDegrees>
            </Position>
            <AltitudeMeters>359.20001220703125</AltitudeMeters>
            <DistanceMeters>4187.2885540771</DistanceMeters>
          </Trackpoint>
          <Trackpoint>
            <Time>2018-06-21T08:11:46.000Z</Time>
            <Position>
              <LatitudeDegrees>41.738715469837188720703125</LatitudeDegrees>
              <LongitudeDegrees>1.78351049311459064483642578125</LongitudeDegrees>
            </Position>
            <AltitudeMeters>358.600006103515625</AltitudeMeters>
            <DistanceMeters>4190.269425631</DistanceMeters>
          </Trackpoint>
          <Trackpoint>
            <Time>2018-06-21T08:11:49.000Z</Time>
            <Position>
              <LatitudeDegrees>41.7387256957590579986572265625</LatitudeDegrees>
              <LongitudeDegrees>1.783547960221767425537109375</LongitudeDegrees>
            </Position>
            <AltitudeMeters>358.20001220703125</AltitudeMeters>
            <DistanceMeters>4193.5831203901</DistanceMeters>
          </Trackpoint>
          <Trackpoint>
            <Time>2018-06-21T08:11:53.000Z</Time>
            <Position>
              <LatitudeDegrees>41.73877556808292865753173828125</LatitudeDegrees>
              <LongitudeDegrees>1.78354628384113311767578125</LongitudeDegrees>
            </Position>
            <AltitudeMeters>360</AltitudeMeters>
            <DistanceMeters>4199.1354785359</DistanceMeters>
          </Trackpoint>
          <Trackpoint>
            <Time>2018-06-21T08:11:59.000Z</Time>
            <Position>
              <LatitudeDegrees>41.73884765245020389556884765625</LatitudeDegrees>
              <LongitudeDegrees>1.7835702560842037200927734375</LongitudeDegrees>
            </Position>
            <AltitudeMeters>362</AltitudeMeters>
            <DistanceMeters>4207.4011641321</DistanceMeters>
          </Trackpoint>
          <Trackpoint>
            <Time>2018-06-21T08:12:05.000Z</Time>
            <Position>
              <LatitudeDegrees>41.73891236074268817901611328125</LatitudeDegrees>
              <LongitudeDegrees>1.78359129466116428375244140625</LongitudeDegrees>
            </Position>
            <AltitudeMeters>363.79998779296875</AltitudeMeters>
            <DistanceMeters>4214.8120294616</DistanceMeters>
          </Trackpoint>
          <Trackpoint>
            <Time>2018-06-21T08:12:13.000Z</Time>
            <Position>
              <LatitudeDegrees>41.73897103406488895416259765625</LatitudeDegrees>
              <LongitudeDegrees>1.78370813839137554168701171875</LongitudeDegrees>
            </Position>
            <AltitudeMeters>363.600006103515625</AltitudeMeters>
            <DistanceMeters>4226.5088105659</DistanceMeters>
          </Trackpoint>
          <Trackpoint>
            <Time>2018-06-21T08:12:19.000Z</Time>
            <Position>
              <LatitudeDegrees>41.7390145361423492431640625</LatitudeDegrees>
              <LongitudeDegrees>1.78377318195998668670654296875</LongitudeDegrees>
            </Position>
            <AltitudeMeters>363.79998779296875</AltitudeMeters>
            <DistanceMeters>4233.7632771566</DistanceMeters>
          </Trackpoint>
          <Trackpoint>
            <Time>2018-06-21T08:12:24.000Z</Time>
            <Position>
              <LatitudeDegrees>41.73908133991062641143798828125</LatitudeDegrees>
              <LongitudeDegrees>1.7837749421596527099609375</LongitudeDegrees>
            </Position>
            <AltitudeMeters>365.399993896484375</AltitudeMeters>
            <DistanceMeters>4241.1996867837</DistanceMeters>
          </Trackpoint>
          <Trackpoint>
            <Time>2018-06-21T08:12:28.000Z</Time>
            <Position>
              <LatitudeDegrees>41.73911805264651775360107421875</LatitudeDegrees>
              <LongitudeDegrees>1.78377703763544559478759765625</LongitudeDegrees>
            </Position>
            <AltitudeMeters>366</AltitudeMeters>
            <DistanceMeters>4245.2891490435</DistanceMeters>
          </Trackpoint>
          <Trackpoint>
            <Time>2018-06-21T08:12:30.000Z</Time>
            <Position>
              <LatitudeDegrees>41.73914286307990550994873046875</LatitudeDegrees>
              <LongitudeDegrees>1.783802099525928497314453125</LongitudeDegrees>
            </Position>
            <AltitudeMeters>366</AltitudeMeters>
            <DistanceMeters>4248.7481736587</DistanceMeters>
          </Trackpoint>
          <Trackpoint>
            <Time>2018-06-21T08:12:36.000Z</Time>
            <Position>
              <LatitudeDegrees>41.73918955028057098388671875</LatitudeDegrees>
              <LongitudeDegrees>1.78382297046482563018798828125</LongitudeDegrees>
            </Position>
            <AltitudeMeters>366.399993896484375</AltitudeMeters>
            <DistanceMeters>4254.2268572688</DistanceMeters>
          </Trackpoint>
          <Trackpoint>
            <Time>2018-06-21T08:12:44.000Z</Time>
            <Position>
              <LatitudeDegrees>41.73925258219242095947265625</LatitudeDegrees>
              <LongitudeDegrees>1.783853061497211456298828125</LongitudeDegrees>
            </Position>
            <AltitudeMeters>367</AltitudeMeters>
            <DistanceMeters>4261.6747938686</DistanceMeters>
          </Trackpoint>
          <Trackpoint>
            <Time>2018-06-21T08:12:47.000Z</Time>
            <Position>
              <LatitudeDegrees>41.73925937153398990631103515625</LatitudeDegrees>
              <LongitudeDegrees>1.78389907814562320709228515625</LongitudeDegrees>
            </Position>
            <AltitudeMeters>366.20001220703125</AltitudeMeters>
            <DistanceMeters>4265.5708891578</DistanceMeters>
          </Trackpoint>
          <Trackpoint>
            <Time>2018-06-21T08:12:53.000Z</Time>
            <Position>
              <LatitudeDegrees>41.73927227966487407684326171875</LatitudeDegrees>
              <LongitudeDegrees>1.78398616611957550048828125</LongitudeDegrees>
            </Position>
            <AltitudeMeters>364.79998779296875</AltitudeMeters>
            <DistanceMeters>4272.94510914</DistanceMeters>
          </Trackpoint>
          <Trackpoint>
            <Time>2018-06-21T08:12:59.000Z</Time>
            <Position>
              <LatitudeDegrees>41.73933564685285091400146484375</LatitudeDegrees>
              <LongitudeDegrees>1.78400368429720401763916015625</LongitudeDegrees>
            </Position>
            <AltitudeMeters>365.600006103515625</AltitudeMeters>
            <DistanceMeters>4280.1464790803</DistanceMeters>
          </Trackpoint>
          <Trackpoint>
            <Time>2018-06-21T08:13:03.000Z</Time>
            <Position>
              <LatitudeDegrees>41.7393982596695423126220703125</LatitudeDegrees>
              <LongitudeDegrees>1.78398004733026027679443359375</LongitudeDegrees>
            </Position>
            <AltitudeMeters>367.20001220703125</AltitudeMeters>
            <DistanceMeters>4287.3859931304</DistanceMeters>
          </Trackpoint>
          <Trackpoint>
            <Time>2018-06-21T08:13:10.000Z</Time>
            <Position>
              <LatitudeDegrees>41.73942558467388153076171875</LatitudeDegrees>
              <LongitudeDegrees>1.78387929685413837432861328125</LongitudeDegrees>
            </Position>
            <AltitudeMeters>369.79998779296875</AltitudeMeters>
            <DistanceMeters>4296.2886321182</DistanceMeters>
          </Trackpoint>
          <Trackpoint>
            <Time>2018-06-21T08:13:12.000Z</Time>
            <Position>
              <LatitudeDegrees>41.7394270934164524078369140625</LatitudeDegrees>
              <LongitudeDegrees>1.78384996019303798675537109375</LongitudeDegrees>
            </Position>
            <AltitudeMeters>370.399993896484375</AltitudeMeters>
            <DistanceMeters>4298.7336087246</DistanceMeters>
          </Trackpoint>
          <Trackpoint>
            <Time>2018-06-21T08:13:20.000Z</Time>
            <Position>
              <LatitudeDegrees>41.7394597828388214111328125</LatitudeDegrees>
              <LongitudeDegrees>1.78373445756733417510986328125</LongitudeDegrees>
            </Position>
            <AltitudeMeters>373.399993896484375</AltitudeMeters>
            <DistanceMeters>4308.993413845</DistanceMeters>
          </Trackpoint>
          <Trackpoint>
            <Time>2018-06-21T08:13:26.000Z</Time>
            <Position>
              <LatitudeDegrees>41.73950579948723316192626953125</LatitudeDegrees>
              <LongitudeDegrees>1.783659271895885467529296875</LongitudeDegrees>
            </Position>
            <AltitudeMeters>376.20001220703125</AltitudeMeters>
            <DistanceMeters>4317.0695665277</DistanceMeters>
          </Trackpoint>
          <Trackpoint>
            <Time>2018-06-21T08:13:29.000Z</Time>
            <Position>
              <LatitudeDegrees>41.73951686359941959381103515625</LatitudeDegrees>
              <LongitudeDegrees>1.78362297825515270233154296875</LongitudeDegrees>
            </Position>
            <AltitudeMeters>378</AltitudeMeters>
            <DistanceMeters>4320.3241447905</DistanceMeters>
          </Trackpoint>
          <Trackpoint>
            <Time>2018-06-21T08:13:37.000Z</Time>
            <Position>
              <LatitudeDegrees>41.73954469151794910430908203125</LatitudeDegrees>
              <LongitudeDegrees>1.7835273407399654388427734375</LongitudeDegrees>
            </Position>
            <AltitudeMeters>382.600006103515625</AltitudeMeters>
            <DistanceMeters>4328.850111913</DistanceMeters>
          </Trackpoint>
          <Trackpoint>
            <Time>2018-06-21T08:13:43.000Z</Time>
            <Position>
              <LatitudeDegrees>41.73958475701510906219482421875</LatitudeDegrees>
              <LongitudeDegrees>1.78349205292761325836181640625</LongitudeDegrees>
            </Position>
            <AltitudeMeters>385.20001220703125</AltitudeMeters>
            <DistanceMeters>4334.1860121208</DistanceMeters>
          </Trackpoint>
          <Trackpoint>
            <Time>2018-06-21T08:13:49.000Z</Time>
            <Position>
              <LatitudeDegrees>41.739570088684558868408203125</LatitudeDegrees>
              <LongitudeDegrees>1.78351568989455699920654296875</LongitudeDegrees>
            </Position>
            <AltitudeMeters>383.79998779296875</AltitudeMeters>
            <DistanceMeters>4336.7376165408</DistanceMeters>
          </Trackpoint>
          <Trackpoint>
            <Time>2018-06-21T08:13:53.000Z</Time>
            <Position>
              <LatitudeDegrees>41.73960906453430652618408203125</LatitudeDegrees>
              <LongitudeDegrees>1.78352507762610912322998046875</LongitudeDegrees>
            </Position>
            <AltitudeMeters>385</AltitudeMeters>
            <DistanceMeters>4341.1448486008</DistanceMeters>
          </Trackpoint>
          <Trackpoint>
            <Time>2018-06-21T08:13:57.000Z</Time>
            <Position>
              <LatitudeDegrees>41.739641167223453521728515625</LatitudeDegrees>
              <LongitudeDegrees>1.7835125885903835296630859375</LongitudeDegrees>
            </Position>
            <AltitudeMeters>386.600006103515625</AltitudeMeters>
            <DistanceMeters>4344.8654812337</DistanceMeters>
          </Trackpoint>
          <Trackpoint>
            <Time>2018-06-21T08:14:04.000Z</Time>
            <Position>
              <LatitudeDegrees>41.73968198709189891815185546875</LatitudeDegrees>
              <LongitudeDegrees>1.78345316089689731597900390625</LongitudeDegrees>
            </Position>
            <AltitudeMeters>390.20001220703125</AltitudeMeters>
            <DistanceMeters>4351.5741249861</DistanceMeters>
          </Trackpoint>
          <Trackpoint>
            <Time>2018-06-21T08:14:09.000Z</Time>
            <Position>
              <LatitudeDegrees>41.7396929673850536346435546875</LatitudeDegrees>
              <LongitudeDegrees>1.7834113352000713348388671875</LongitudeDegrees>
            </Position>
            <AltitudeMeters>392.20001220703125</AltitudeMeters>
            <DistanceMeters>4355.25694657</DistanceMeters>
          </Trackpoint>
          <Trackpoint>
            <Time>2018-06-21T08:14:14.000Z</Time>
            <Position>
              <LatitudeDegrees>41.73971987329423427581787109375</LatitudeDegrees>
              <LongitudeDegrees>1.78336095996201038360595703125</LongitudeDegrees>
            </Position>
            <AltitudeMeters>395</AltitudeMeters>
            <DistanceMeters>4360.4006926738</DistanceMeters>
          </Trackpoint>
          <Trackpoint>
            <Time>2018-06-21T08:14:18.000Z</Time>
            <Position>
              <LatitudeDegrees>41.7397502996027469635009765625</LatitudeDegrees>
              <LongitudeDegrees>1.78337906487286090850830078125</LongitudeDegrees>
            </Position>
            <AltitudeMeters>395.399993896484375</AltitudeMeters>
            <DistanceMeters>4364.1055160427</DistanceMeters>
          </Trackpoint>
          <Trackpoint>
            <Time>2018-06-21T08:14:24.000Z</Time>
            <Position>
              <LatitudeDegrees>41.73978759907186031341552734375</LatitudeDegrees>
              <LongitudeDegrees>1.78335609845817089080810546875</LongitudeDegrees>
            </Position>
            <AltitudeMeters>397.600006103515625</AltitudeMeters>
            <DistanceMeters>4368.6747103632</DistanceMeters>
          </Trackpoint>
          <Trackpoint>
            <Time>2018-06-21T08:14:32.000Z</Time>
            <Position>
              <LatitudeDegrees>41.73984275199472904205322265625</LatitudeDegrees>
              <LongitudeDegrees>1.7833476327359676361083984375</LongitudeDegrees>
            </Position>
            <AltitudeMeters>400</AltitudeMeters>
            <DistanceMeters>4374.8536393323</DistanceMeters>
          </Trackpoint>
          <Trackpoint>
            <Time>2018-06-21T08:14:39.000Z</Time>
            <Position>
              <LatitudeDegrees>41.73990393988788127899169921875</LatitudeDegrees>
              <LongitudeDegrees>1.7833231575787067413330078125</LongitudeDegrees>
            </Position>
            <AltitudeMeters>402.399993896484375</AltitudeMeters>
            <DistanceMeters>4381.9616121589</DistanceMeters>
          </Trackpoint>
          <Trackpoint>
            <Time>2018-06-21T08:14:42.000Z</Time>
            <Position>
              <LatitudeDegrees>41.73991969786584377288818359375</LatitudeDegrees>
              <LongitudeDegrees>1.783321984112262725830078125</LongitudeDegrees>
            </Position>
            <AltitudeMeters>402.79998779296875</AltitudeMeters>
            <DistanceMeters>4383.7163930761</DistanceMeters>
          </Trackpoint>
          <Trackpoint>
            <Time>2018-06-21T08:14:51.000Z</Time>
            <Position>
              <LatitudeDegrees>41.73998356796801090240478515625</LatitudeDegrees>
              <LongitudeDegrees>1.78328208625316619873046875</LongitudeDegrees>
            </Position>
            <AltitudeMeters>405.399993896484375</AltitudeMeters>
            <DistanceMeters>4391.5594078496</DistanceMeters>
          </Trackpoint>
          <Trackpoint>
            <Time>2018-06-21T08:14:58.000Z</Time>
            <Position>
              <LatitudeDegrees>41.74002799205482006072998046875</LatitudeDegrees>
              <LongitudeDegrees>1.7832483910024166107177734375</LongitudeDegrees>
            </Position>
            <AltitudeMeters>407.399993896484375</AltitudeMeters>
            <DistanceMeters>4397.2403842807</DistanceMeters>
          </Trackpoint>
          <Trackpoint>
            <Time>2018-06-21T08:15:06.000Z</Time>
            <Position>
              <LatitudeDegrees>41.74009588547050952911376953125</LatitudeDegrees>
              <LongitudeDegrees>1.78323246538639068603515625</LongitudeDegrees>
            </Position>
            <AltitudeMeters>409.20001220703125</AltitudeMeters>
            <DistanceMeters>4404.9122835411</DistanceMeters>
          </Trackpoint>
          <Trackpoint>
            <Time>2018-06-21T08:15:12.000Z</Time>
            <Position>
              <LatitudeDegrees>41.740134693682193756103515625</LatitudeDegrees>
              <LongitudeDegrees>1.783206649124622344970703125</LongitudeDegrees>
            </Position>
            <AltitudeMeters>411</AltitudeMeters>
            <DistanceMeters>4409.7343626407</DistanceMeters>
          </Trackpoint>
          <Trackpoint>
            <Time>2018-06-21T08:15:18.000Z</Time>
            <Position>
              <LatitudeDegrees>41.74016847275197505950927734375</LatitudeDegrees>
              <LongitudeDegrees>1.783183850347995758056640625</LongitudeDegrees>
            </Position>
            <AltitudeMeters>412.399993896484375</AltitudeMeters>
            <DistanceMeters>4413.9435205117</DistanceMeters>
          </Trackpoint>
          <Trackpoint>
            <Time>2018-06-21T08:15:24.000Z</Time>
            <Position>
              <LatitudeDegrees>41.7402220331132411956787109375</LatitudeDegrees>
              <LongitudeDegrees>1.78317706100642681121826171875</LongitudeDegrees>
            </Position>
            <AltitudeMeters>413.79998779296875</AltitudeMeters>
            <DistanceMeters>4419.9309576498</DistanceMeters>
          </Trackpoint>
          <Trackpoint>
            <Time>2018-06-21T08:15:29.000Z</Time>
            <Position>
              <LatitudeDegrees>41.74027509056031703948974609375</LatitudeDegrees>
              <LongitudeDegrees>1.7832017876207828521728515625</LongitudeDegrees>
            </Position>
            <AltitudeMeters>413.79998779296875</AltitudeMeters>
            <DistanceMeters>4426.1839754014</DistanceMeters>
          </Trackpoint>
          <Trackpoint>
            <Time>2018-06-21T08:15:32.000Z</Time>
            <Position>
              <LatitudeDegrees>41.7403081990778446197509765625</LatitudeDegrees>
              <LongitudeDegrees>1.7832094989717006683349609375</LongitudeDegrees>
            </Position>
            <AltitudeMeters>414</AltitudeMeters>
            <DistanceMeters>4429.9251808874</DistanceMeters>
          </Trackpoint>
          <Trackpoint>
            <Time>2018-06-21T08:15:36.000Z</Time>
            <Position>
              <LatitudeDegrees>41.7403457500040531158447265625</LatitudeDegrees>
              <LongitudeDegrees>1.783224754035472869873046875</LongitudeDegrees>
            </Position>
            <AltitudeMeters>414</AltitudeMeters>
            <DistanceMeters>4434.2922761977</DistanceMeters>
          </Trackpoint>
          <Trackpoint>
            <Time>2018-06-21T08:15:41.000Z</Time>
            <Position>
              <LatitudeDegrees>41.7403936944901943206787109375</LatitudeDegrees>
              <LongitudeDegrees>1.78324445150792598724365234375</LongitudeDegrees>
            </Position>
            <AltitudeMeters>414.20001220703125</AltitudeMeters>
            <DistanceMeters>4439.8738318708</DistanceMeters>
          </Trackpoint>
          <Trackpoint>
            <Time>2018-06-21T08:15:49.000Z</Time>
            <Position>
              <LatitudeDegrees>41.74047575332224369049072265625</LatitudeDegrees>
              <LongitudeDegrees>1.78324596025049686431884765625</LongitudeDegrees>
            </Position>
            <AltitudeMeters>415.600006103515625</AltitudeMeters>
            <DistanceMeters>4449.0082670664</DistanceMeters>
          </Trackpoint>
          <Trackpoint>
            <Time>2018-06-21T08:15:58.000Z</Time>
            <Position>
              <LatitudeDegrees>41.74055705778300762176513671875</LatitudeDegrees>
              <LongitudeDegrees>1.78322886116802692413330078125</LongitudeDegrees>
            </Position>
            <AltitudeMeters>417.79998779296875</AltitudeMeters>
            <DistanceMeters>4458.1688620467</DistanceMeters>
          </Trackpoint>
          <Trackpoint>
            <Time>2018-06-21T08:16:03.000Z</Time>
            <Position>
              <LatitudeDegrees>41.7406166531145572662353515625</LatitudeDegrees>
              <LongitudeDegrees>1.7832413502037525177001953125</LongitudeDegrees>
            </Position>
            <AltitudeMeters>418.399993896484375</AltitudeMeters>
            <DistanceMeters>4464.8828877845</DistanceMeters>
          </Trackpoint>
          <Trackpoint>
            <Time>2018-06-21T08:16:11.000Z</Time>
            <Position>
              <LatitudeDegrees>41.740670464932918548583984375</LatitudeDegrees>
              <LongitudeDegrees>1.783220060169696807861328125</LongitudeDegrees>
            </Position>
            <AltitudeMeters>420.20001220703125</AltitudeMeters>
            <DistanceMeters>4471.1272348349</DistanceMeters>
          </Trackpoint>
          <Trackpoint>
            <Time>2018-06-21T08:16:15.000Z</Time>
            <Position>
              <LatitudeDegrees>41.74068295396864414215087890625</LatitudeDegrees>
              <LongitudeDegrees>1.78321913816034793853759765625</LongitudeDegrees>
            </Position>
            <AltitudeMeters>420.399993896484375</AltitudeMeters>
            <DistanceMeters>4472.5238366077</DistanceMeters>
          </Trackpoint>
          <Trackpoint>
            <Time>2018-06-21T08:16:19.000Z</Time>
            <Position>
              <LatitudeDegrees>41.74073106609284877777099609375</LatitudeDegrees>
              <LongitudeDegrees>1.78322567604482173919677734375</LongitudeDegrees>
            </Position>
            <AltitudeMeters>420.399993896484375</AltitudeMeters>
            <DistanceMeters>4477.9060745467</DistanceMeters>
          </Trackpoint>
          <Trackpoint>
            <Time>2018-06-21T08:16:25.000Z</Time>
            <Position>
              <LatitudeDegrees>41.74081924371421337127685546875</LatitudeDegrees>
              <LongitudeDegrees>1.783253252506256103515625</LongitudeDegrees>
            </Position>
            <AltitudeMeters>419.20001220703125</AltitudeMeters>
            <DistanceMeters>4487.9842837052</DistanceMeters>
          </Trackpoint>
          <Trackpoint>
            <Time>2018-06-21T08:16:29.000Z</Time>
            <Position>
              <LatitudeDegrees>41.74085545353591442108154296875</LatitudeDegrees>
              <LongitudeDegrees>1.78321997635066509246826171875</LongitudeDegrees>
            </Position>
            <AltitudeMeters>420.399993896484375</AltitudeMeters>
            <DistanceMeters>4492.8705422041</DistanceMeters>
          </Trackpoint>
          <Trackpoint>
            <Time>2018-06-21T08:16:37.000Z</Time>
            <Position>
              <LatitudeDegrees>41.74089166335761547088623046875</LatitudeDegrees>
              <LongitudeDegrees>1.783133558928966522216796875</LongitudeDegrees>
            </Position>
            <AltitudeMeters>424.79998779296875</AltitudeMeters>
            <DistanceMeters>4501.1017428187</DistanceMeters>
          </Trackpoint>
          <Trackpoint>
            <Time>2018-06-21T08:16:43.000Z</Time>
            <Position>
              <LatitudeDegrees>41.74089803360402584075927734375</LatitudeDegrees>
              <LongitudeDegrees>1.78309408016502857208251953125</LongitudeDegrees>
            </Position>
            <AltitudeMeters>427</AltitudeMeters>
            <DistanceMeters>4504.4560646949</DistanceMeters>
          </Trackpoint>
          <Trackpoint>
            <Time>2018-06-21T08:16:49.000Z</Time>
            <Position>
              <LatitudeDegrees>41.74092116765677928924560546875</LatitudeDegrees>
              <LongitudeDegrees>1.783063150942325592041015625</LongitudeDegrees>
            </Position>
            <AltitudeMeters>428.600006103515625</AltitudeMeters>
            <DistanceMeters>4508.0920008762</DistanceMeters>
          </Trackpoint>
          <Trackpoint>
            <Time>2018-06-21T08:16:54.000Z</Time>
            <Position>
              <LatitudeDegrees>41.74095838330686092376708984375</LatitudeDegrees>
              <LongitudeDegrees>1.7830475606024265289306640625</LongitudeDegrees>
            </Position>
            <AltitudeMeters>429.399993896484375</AltitudeMeters>
            <DistanceMeters>4512.4300510498</DistanceMeters>
          </Trackpoint>
          <Trackpoint>
            <Time>2018-06-21T08:16:59.000Z</Time>
            <Position>
              <LatitudeDegrees>41.7409928329288959503173828125</LatitudeDegrees>
              <LongitudeDegrees>1.7829999513924121856689453125</LongitudeDegrees>
            </Position>
            <AltitudeMeters>431.79998779296875</AltitudeMeters>
            <DistanceMeters>4517.9383227254</DistanceMeters>
          </Trackpoint>
          <Trackpoint>
            <Time>2018-06-21T08:17:07.000Z</Time>
            <Position>
              <LatitudeDegrees>41.74100465141236782073974609375</LatitudeDegrees>
              <LongitudeDegrees>1.78292225115001201629638671875</LongitudeDegrees>
            </Position>
            <AltitudeMeters>436</AltitudeMeters>
            <DistanceMeters>4524.5233380696</DistanceMeters>
          </Trackpoint>
          <Trackpoint>
            <Time>2018-06-21T08:17:13.000Z</Time>
            <Position>
              <LatitudeDegrees>41.74102175049483776092529296875</LatitudeDegrees>
              <LongitudeDegrees>1.78285687230527400970458984375</LongitudeDegrees>
            </Position>
            <AltitudeMeters>439.600006103515625</AltitudeMeters>
            <DistanceMeters>4530.2769682492</DistanceMeters>
          </Trackpoint>
          <Trackpoint>
            <Time>2018-06-21T08:17:19.000Z</Time>
            <Position>
              <LatitudeDegrees>41.74104505218565464019775390625</LatitudeDegrees>
              <LongitudeDegrees>1.7827900685369968414306640625</LongitudeDegrees>
            </Position>
            <AltitudeMeters>443</AltitudeMeters>
            <DistanceMeters>4536.4001110203</DistanceMeters>
          </Trackpoint>
          <Trackpoint>
            <Time>2018-06-21T08:17:24.000Z</Time>
            <Position>
              <LatitudeDegrees>41.7410387657582759857177734375</LatitudeDegrees>
              <LongitudeDegrees>1.782743297517299652099609375</LongitudeDegrees>
            </Position>
            <AltitudeMeters>445.600006103515625</AltitudeMeters>
            <DistanceMeters>4540.3480107078</DistanceMeters>
          </Trackpoint>
          <Trackpoint>
            <Time>2018-06-21T08:17:29.000Z</Time>
            <Position>
              <LatitudeDegrees>41.74103197641670703887939453125</LatitudeDegrees>
              <LongitudeDegrees>1.78269627504050731658935546875</LongitudeDegrees>
            </Position>
            <AltitudeMeters>448</AltitudeMeters>
            <DistanceMeters>4544.3255343004</DistanceMeters>
          </Trackpoint>
          <Trackpoint>
            <Time>2018-06-21T08:17:34.000Z</Time>
            <Position>
              <LatitudeDegrees>41.74103633500635623931884765625</LatitudeDegrees>
              <LongitudeDegrees>1.7826519347727298736572265625</LongitudeDegrees>
            </Position>
            <AltitudeMeters>450</AltitudeMeters>
            <DistanceMeters>4548.0388787134</DistanceMeters>
          </Trackpoint>
          <Trackpoint>
            <Time>2018-06-21T08:17:38.000Z</Time>
            <Position>
              <LatitudeDegrees>41.74105946905910968780517578125</LatitudeDegrees>
              <LongitudeDegrees>1.78260088898241519927978515625</LongitudeDegrees>
            </Position>
            <AltitudeMeters>452.20001220703125</AltitudeMeters>
            <DistanceMeters>4552.9985085619</DistanceMeters>
          </Trackpoint>
          <Trackpoint>
            <Time>2018-06-21T08:17:40.000Z</Time>
            <Position>
              <LatitudeDegrees>41.741077490150928497314453125</LatitudeDegrees>
              <LongitudeDegrees>1.7825798504054546356201171875</LongitudeDegrees>
            </Position>
            <AltitudeMeters>453</AltitudeMeters>
            <DistanceMeters>4555.6592565642</DistanceMeters>
          </Trackpoint>
          <Trackpoint>
            <Time>2018-06-21T08:17:48.000Z</Time>
            <Position>
              <LatitudeDegrees>41.74113574437797069549560546875</LatitudeDegrees>
              <LongitudeDegrees>1.78250986151397228240966796875</LongitudeDegrees>
            </Position>
            <AltitudeMeters>455.399993896484375</AltitudeMeters>
            <DistanceMeters>4564.3665248973</DistanceMeters>
          </Trackpoint>
          <Trackpoint>
            <Time>2018-06-21T08:17:54.000Z</Time>
            <Position>
              <LatitudeDegrees>41.74116675741970539093017578125</LatitudeDegrees>
              <LongitudeDegrees>1.78248655982315540313720703125</LongitudeDegrees>
            </Position>
            <AltitudeMeters>456.20001220703125</AltitudeMeters>
            <DistanceMeters>4568.3235632536</DistanceMeters>
          </Trackpoint>
          <Trackpoint>
            <Time>2018-06-21T08:18:01.000Z</Time>
            <Position>
              <LatitudeDegrees>41.7412171326577663421630859375</LatitudeDegrees>
              <LongitudeDegrees>1.78245755843818187713623046875</LongitudeDegrees>
            </Position>
            <AltitudeMeters>457</AltitudeMeters>
            <DistanceMeters>4574.4252847467</DistanceMeters>
          </Trackpoint>
          <Trackpoint>
            <Time>2018-06-21T08:18:07.000Z</Time>
            <Position>
              <LatitudeDegrees>41.74125619232654571533203125</LatitudeDegrees>
              <LongitudeDegrees>1.78239955566823482513427734375</LongitudeDegrees>
            </Position>
            <AltitudeMeters>459.20001220703125</AltitudeMeters>
            <DistanceMeters>4580.9135985786</DistanceMeters>
          </Trackpoint>
          <Trackpoint>
            <Time>2018-06-21T08:18:13.000Z</Time>
            <Position>
              <LatitudeDegrees>41.74126558005809783935546875</LatitudeDegrees>
              <LongitudeDegrees>1.78235764615237712860107421875</LongitudeDegrees>
            </Position>
            <AltitudeMeters>461</AltitudeMeters>
            <DistanceMeters>4584.5482927662</DistanceMeters>
          </Trackpoint>
          <Trackpoint>
            <Time>2018-06-21T08:18:21.000Z</Time>
            <Position>
              <LatitudeDegrees>41.74129449762403964996337890625</LatitudeDegrees>
              <LongitudeDegrees>1.78230936639010906219482421875</LongitudeDegrees>
            </Position>
            <AltitudeMeters>462.600006103515625</AltitudeMeters>
            <DistanceMeters>4589.6902830256</DistanceMeters>
          </Trackpoint>
          <Trackpoint>
            <Time>2018-06-21T08:18:25.000Z</Time>
            <Position>
              <LatitudeDegrees>41.74130715429782867431640625</LatitudeDegrees>
              <LongitudeDegrees>1.7822804488241672515869140625</LongitudeDegrees>
            </Position>
            <AltitudeMeters>463.79998779296875</AltitudeMeters>
            <DistanceMeters>4592.4753926582</DistanceMeters>
          </Trackpoint>
          <Trackpoint>
            <Time>2018-06-21T08:18:33.000Z</Time>
            <Position>
              <LatitudeDegrees>41.741330958902835845947265625</LatitudeDegrees>
              <LongitudeDegrees>1.78223996423184871673583984375</LongitudeDegrees>
            </Position>
            <AltitudeMeters>465.20001220703125</AltitudeMeters>
            <DistanceMeters>4596.7547611897</DistanceMeters>
          </Trackpoint>
          <Trackpoint>
            <Time>2018-06-21T08:18:43.000Z</Time>
            <Position>
              <LatitudeDegrees>41.74131075851619243621826171875</LatitudeDegrees>
              <LongitudeDegrees>1.78221917711198329925537109375</LongitudeDegrees>
            </Position>
            <AltitudeMeters>466.20001220703125</AltitudeMeters>
            <DistanceMeters>4599.5880874961</DistanceMeters>
          </Trackpoint>
          <Trackpoint>
            <Time>2018-06-21T08:18:50.000Z</Time>
            <Position>
              <LatitudeDegrees>41.74129776656627655029296875</LatitudeDegrees>
              <LongitudeDegrees>1.78217575885355472564697265625</LongitudeDegrees>
            </Position>
            <AltitudeMeters>468.20001220703125</AltitudeMeters>
            <DistanceMeters>4603.4737390263</DistanceMeters>
          </Trackpoint>
          <Trackpoint>
            <Time>2018-06-21T08:18:56.000Z</Time>
            <Position>
              <LatitudeDegrees>41.74126264639198780059814453125</LatitudeDegrees>
              <LongitudeDegrees>1.78217559121549129486083984375</LongitudeDegrees>
            </Position>
            <AltitudeMeters>468.600006103515625</AltitudeMeters>
            <DistanceMeters>4607.3825610155</DistanceMeters>
          </Trackpoint>
          <Trackpoint>
            <Time>2018-06-21T08:19:01.000Z</Time>
            <Position>
              <LatitudeDegrees>41.74120967276394367218017578125</LatitudeDegrees>
              <LongitudeDegrees>1.78217575885355472564697265625</LongitudeDegrees>
            </Position>
            <AltitudeMeters>469.20001220703125</AltitudeMeters>
            <DistanceMeters>4613.2788135804</DistanceMeters>
          </Trackpoint>
          <Trackpoint>
            <Time>2018-06-21T08:19:03.000Z</Time>
            <Position>
              <LatitudeDegrees>41.74118737690150737762451171875</LatitudeDegrees>
              <LongitudeDegrees>1.7821736633777618408203125</LongitudeDegrees>
            </Position>
            <AltitudeMeters>469.399993896484375</AltitudeMeters>
            <DistanceMeters>4615.7640846497</DistanceMeters>
          </Trackpoint>
          <Trackpoint>
            <Time>2018-06-21T08:19:09.000Z</Time>
            <Position>
              <LatitudeDegrees>41.7411108501255512237548828125</LatitudeDegrees>
              <LongitudeDegrees>1.7821714840829372406005859375</LongitudeDegrees>
            </Position>
            <AltitudeMeters>470.399993896484375</AltitudeMeters>
            <DistanceMeters>4624.2836946441</DistanceMeters>
          </Trackpoint>
          <Trackpoint>
            <Time>2018-06-21T08:19:16.000Z</Time>
            <Position>
              <LatitudeDegrees>41.74104706384241580963134765625</LatitudeDegrees>
              <LongitudeDegrees>1.78212664090096950531005859375</LongitudeDegrees>
            </Position>
            <AltitudeMeters>473</AltitudeMeters>
            <DistanceMeters>4632.3009313331</DistanceMeters>
          </Trackpoint>
          <Trackpoint>
            <Time>2018-06-21T08:19:17.000Z</Time>
            <Position>
              <LatitudeDegrees>41.7410404421389102935791015625</LatitudeDegrees>
              <LongitudeDegrees>1.7821171693503856658935546875</LongitudeDegrees>
            </Position>
            <AltitudeMeters>473.399993896484375</AltitudeMeters>
            <DistanceMeters>4633.3760358791</DistanceMeters>
          </Trackpoint>
          <Trackpoint>
            <Time>2018-06-21T08:19:24.000Z</Time>
            <Position>
              <LatitudeDegrees>41.74102409742772579193115234375</LatitudeDegrees>
              <LongitudeDegrees>1.78205288015305995941162109375</LongitudeDegrees>
            </Position>
            <AltitudeMeters>476.399993896484375</AltitudeMeters>
            <DistanceMeters>4639.0171341222</DistanceMeters>
          </Trackpoint>
          <Trackpoint>
            <Time>2018-06-21T08:19:30.000Z</Time>
            <Position>
              <LatitudeDegrees>41.74101068638265132904052734375</LatitudeDegrees>
              <LongitudeDegrees>1.7820088751614093780517578125</LongitudeDegrees>
            </Position>
            <AltitudeMeters>478.399993896484375</AltitudeMeters>
            <DistanceMeters>4642.9650338097</DistanceMeters>
          </Trackpoint>
          <Trackpoint>
            <Time>2018-06-21T08:19:35.000Z</Time>
            <Position>
              <LatitudeDegrees>41.74097045324742794036865234375</LatitudeDegrees>
              <LongitudeDegrees>1.78199085406959056854248046875</LongitudeDegrees>
            </Position>
            <AltitudeMeters>479.600006103515625</AltitudeMeters>
            <DistanceMeters>4647.6858630444</DistanceMeters>
          </Trackpoint>
          <Trackpoint>
            <Time>2018-06-21T08:19:39.000Z</Time>
            <Position>
              <LatitudeDegrees>41.7409331537783145904541015625</LatitudeDegrees>
              <LongitudeDegrees>1.78198314271867275238037109375</LongitudeDegrees>
            </Position>
            <AltitudeMeters>480.20001220703125</AltitudeMeters>
            <DistanceMeters>4651.8875055147</DistanceMeters>
          </Trackpoint>
          <Trackpoint>
            <Time>2018-06-21T08:19:45.000Z</Time>
            <Position>
              <LatitudeDegrees>41.740889064967632293701171875</LatitudeDegrees>
              <LongitudeDegrees>1.781971156597137451171875</LongitudeDegrees>
            </Position>
            <AltitudeMeters>481.20001220703125</AltitudeMeters>
            <DistanceMeters>4656.8960534441</DistanceMeters>
          </Trackpoint>
          <Trackpoint>
            <Time>2018-06-21T08:19:51.000Z</Time>
            <Position>
              <LatitudeDegrees>41.74087774939835071563720703125</LatitudeDegrees>
              <LongitudeDegrees>1.78191776387393474578857421875</LongitudeDegrees>
            </Position>
            <AltitudeMeters>483.600006103515625</AltitudeMeters>
            <DistanceMeters>4661.5046041703</DistanceMeters>
          </Trackpoint>
          <Trackpoint>
            <Time>2018-06-21T08:19:55.000Z</Time>
            <Position>
              <LatitudeDegrees>41.74083097837865352630615234375</LatitudeDegrees>
              <LongitudeDegrees>1.7819069512188434600830078125</LongitudeDegrees>
            </Position>
            <AltitudeMeters>484.600006103515625</AltitudeMeters>
            <DistanceMeters>4666.7869271642</DistanceMeters>
          </Trackpoint>
          <Trackpoint>
            <Time>2018-06-21T08:20:00.000Z</Time>
            <Position>
              <LatitudeDegrees>41.74081924371421337127685546875</LatitudeDegrees>
              <LongitudeDegrees>1.781882978975772857666015625</LongitudeDegrees>
            </Position>
            <AltitudeMeters>485.600006103515625</AltitudeMeters>
            <DistanceMeters>4669.1682898008</DistanceMeters>
          </Trackpoint>
          <Trackpoint>
            <Time>2018-06-21T08:20:09.000Z</Time>
            <Position>
              <LatitudeDegrees>41.74084656871855258941650390625</LatitudeDegrees>
              <LongitudeDegrees>1.78180309943854808807373046875</LongitudeDegrees>
            </Position>
            <AltitudeMeters>488.79998779296875</AltitudeMeters>
            <DistanceMeters>4676.4661929837</DistanceMeters>
          </Trackpoint>
          <Trackpoint>
            <Time>2018-06-21T08:20:17.000Z</Time>
            <Position>
              <LatitudeDegrees>41.74087976105511188507080078125</LatitudeDegrees>
              <LongitudeDegrees>1.781737469136714935302734375</LongitudeDegrees>
            </Position>
            <AltitudeMeters>491.20001220703125</AltitudeMeters>
            <DistanceMeters>4683.0505226388</DistanceMeters>
          </Trackpoint>
          <Trackpoint>
            <Time>2018-06-21T08:20:26.000Z</Time>
            <Position>
              <LatitudeDegrees>41.7409103550016880035400390625</LatitudeDegrees>
              <LongitudeDegrees>1.7816846631467342376708984375</LongitudeDegrees>
            </Position>
            <AltitudeMeters>493.79998779296875</AltitudeMeters>
            <DistanceMeters>4688.6020675502</DistanceMeters>
          </Trackpoint>
          <Trackpoint>
            <Time>2018-06-21T08:20:33.000Z</Time>
            <Position>
              <LatitudeDegrees>41.74093575216829776763916015625</LatitudeDegrees>
              <LongitudeDegrees>1.78163386881351470947265625</LongitudeDegrees>
            </Position>
            <AltitudeMeters>496.399993896484375</AltitudeMeters>
            <DistanceMeters>4693.6804431097</DistanceMeters>
          </Trackpoint>
          <Trackpoint>
            <Time>2018-06-21T08:20:39.000Z</Time>
            <Position>
              <LatitudeDegrees>41.7409599758684635162353515625</LatitudeDegrees>
              <LongitudeDegrees>1.78161165677011013031005859375</LongitudeDegrees>
            </Position>
            <AltitudeMeters>497.600006103515625</AltitudeMeters>
            <DistanceMeters>4696.947483109</DistanceMeters>
          </Trackpoint>
          <Trackpoint>
            <Time>2018-06-21T08:20:47.000Z</Time>
            <Position>
              <LatitudeDegrees>41.7409961856901645660400390625</LatitudeDegrees>
              <LongitudeDegrees>1.781552396714687347412109375</LongitudeDegrees>
            </Position>
            <AltitudeMeters>500.79998779296875</AltitudeMeters>
            <DistanceMeters>4703.3085972052</DistanceMeters>
          </Trackpoint>
          <Trackpoint>
            <Time>2018-06-21T08:20:54.000Z</Time>
            <Position>
              <LatitudeDegrees>41.74103465862572193145751953125</LatitudeDegrees>
              <LongitudeDegrees>1.7815111577510833740234375</LongitudeDegrees>
            </Position>
            <AltitudeMeters>501.79998779296875</AltitudeMeters>
            <DistanceMeters>4708.7922232463</DistanceMeters>
          </Trackpoint>
          <Trackpoint>
            <Time>2018-06-21T08:21:00.000Z</Time>
            <Position>
              <LatitudeDegrees>41.74101856537163257598876953125</LatitudeDegrees>
              <LongitudeDegrees>1.7815230600535869598388671875</LongitudeDegrees>
            </Position>
            <AltitudeMeters>501.600006103515625</AltitudeMeters>
            <DistanceMeters>4710.8347450496</DistanceMeters>
          </Trackpoint>
          <Trackpoint>
            <Time>2018-06-21T08:21:05.000Z</Time>
            <Position>
              <LatitudeDegrees>41.74101387150585651397705078125</LatitudeDegrees>
              <LongitudeDegrees>1.7815245687961578369140625</LongitudeDegrees>
            </Position>
            <AltitudeMeters>501.600006103515625</AltitudeMeters>
            <DistanceMeters>4711.3638314034</DistanceMeters>
          </Trackpoint>
          <Trackpoint>
            <Time>2018-06-21T08:21:06.000Z</Time>
            <Position>
              <LatitudeDegrees>41.7410236783325672149658203125</LatitudeDegrees>
              <LongitudeDegrees>1.78151526488363742828369140625</LongitudeDegrees>
            </Position>
            <AltitudeMeters>501.79998779296875</AltitudeMeters>
            <DistanceMeters>4712.697594898</DistanceMeters>
          </Trackpoint>
          <Trackpoint>
            <Time>2018-06-21T08:21:13.000Z</Time>
            <Position>
              <LatitudeDegrees>41.74108444713056087493896484375</LatitudeDegrees>
              <LongitudeDegrees>1.78145416080951690673828125</LongitudeDegrees>
            </Position>
            <AltitudeMeters>503.20001220703125</AltitudeMeters>
            <DistanceMeters>4721.1533707514</DistanceMeters>
          </Trackpoint>
          <Trackpoint>
            <Time>2018-06-21T08:21:20.000Z</Time>
            <Position>
              <LatitudeDegrees>41.74112744629383087158203125</LatitudeDegrees>
              <LongitudeDegrees>1.78141736425459384918212890625</LongitudeDegrees>
            </Position>
            <AltitudeMeters>504</AltitudeMeters>
            <DistanceMeters>4726.8311672346</DistanceMeters>
          </Trackpoint>
          <Trackpoint>
            <Time>2018-06-21T08:21:25.000Z</Time>
            <Position>
              <LatitudeDegrees>41.74115016125142574310302734375</LatitudeDegrees>
              <LongitudeDegrees>1.78138769231736660003662109375</LongitudeDegrees>
            </Position>
            <AltitudeMeters>504.600006103515625</AltitudeMeters>
            <DistanceMeters>4730.3612529974</DistanceMeters>
          </Trackpoint>
          <Trackpoint>
            <Time>2018-06-21T08:21:31.000Z</Time>
            <Position>
              <LatitudeDegrees>41.7411735467612743377685546875</LatitudeDegrees>
              <LongitudeDegrees>1.7813448607921600341796875</LongitudeDegrees>
            </Position>
            <AltitudeMeters>505.600006103515625</AltitudeMeters>
            <DistanceMeters>4734.7684850575</DistanceMeters>
          </Trackpoint>
          <Trackpoint>
            <Time>2018-06-21T08:21:36.000Z</Time>
            <Position>
              <LatitudeDegrees>41.74121654592454433441162109375</LatitudeDegrees>
              <LongitudeDegrees>1.7813101597130298614501953125</LongitudeDegrees>
            </Position>
            <AltitudeMeters>506.399993896484375</AltitudeMeters>
            <DistanceMeters>4740.3548921488</DistanceMeters>
          </Trackpoint>
          <Trackpoint>
            <Time>2018-06-21T08:21:41.000Z</Time>
            <Position>
              <LatitudeDegrees>41.7412479780614376068115234375</LatitudeDegrees>
              <LongitudeDegrees>1.7812732793390750885009765625</LongitudeDegrees>
            </Position>
            <AltitudeMeters>507.20001220703125</AltitudeMeters>
            <DistanceMeters>4745.004408576</DistanceMeters>
          </Trackpoint>
          <Trackpoint>
            <Time>2018-06-21T08:21:48.000Z</Time>
            <Position>
              <LatitudeDegrees>41.741247139871120452880859375</LatitudeDegrees>
              <LongitudeDegrees>1.781230866909027099609375</LongitudeDegrees>
            </Position>
            <AltitudeMeters>508.600006103515625</AltitudeMeters>
            <DistanceMeters>4748.5268118797</DistanceMeters>
          </Trackpoint>
          <Trackpoint>
            <Time>2018-06-21T08:21:53.000Z</Time>
            <Position>
              <LatitudeDegrees>41.7412407696247100830078125</LatitudeDegrees>
              <LongitudeDegrees>1.78121284581720829010009765625</LongitudeDegrees>
            </Position>
            <AltitudeMeters>509</AltitudeMeters>
            <DistanceMeters>4750.1836592592</DistanceMeters>
          </Trackpoint>
          <Trackpoint>
            <Time>2018-06-21T08:21:59.000Z</Time>
            <Position>
              <LatitudeDegrees>41.7412246763706207275390625</LatitudeDegrees>
              <LongitudeDegrees>1.78117898292839527130126953125</LongitudeDegrees>
            </Position>
            <AltitudeMeters>510</AltitudeMeters>
            <DistanceMeters>4753.519083397</DistanceMeters>
          </Trackpoint>
          <Trackpoint>
            <Time>2018-06-21T08:22:06.000Z</Time>
            <Position>
              <LatitudeDegrees>41.741210259497165679931640625</LatitudeDegrees>
              <LongitudeDegrees>1.78113858215510845184326171875</LongitudeDegrees>
            </Position>
            <AltitudeMeters>511.399993896484375</AltitudeMeters>
            <DistanceMeters>4757.2385023183</DistanceMeters>
          </Trackpoint>
          <Trackpoint>
            <Time>2018-06-21T08:22:13.000Z</Time>
            <Position>
              <LatitudeDegrees>41.741214282810688018798828125</LatitudeDegrees>
              <LongitudeDegrees>1.78110119886696338653564453125</LongitudeDegrees>
            </Position>
            <AltitudeMeters>512.79998779296875</AltitudeMeters>
            <DistanceMeters>4760.3758233609</DistanceMeters>
          </Trackpoint>
          <Trackpoint>
            <Time>2018-06-21T08:22:19.000Z</Time>
            <Position>
              <LatitudeDegrees>41.7412030510604381561279296875</LatitudeDegrees>
              <LongitudeDegrees>1.781079657375812530517578125</LongitudeDegrees>
            </Position>
            <AltitudeMeters>513.4000244140625</AltitudeMeters>
            <DistanceMeters>4762.559371016</DistanceMeters>
          </Trackpoint>
          <Trackpoint>
            <Time>2018-06-21T08:22:24.000Z</Time>
            <Position>
              <LatitudeDegrees>41.74118637107312679290771484375</LatitudeDegrees>
              <LongitudeDegrees>1.7810444533824920654296875</LongitudeDegrees>
            </Position>
            <AltitudeMeters>514.4000244140625</AltitudeMeters>
            <DistanceMeters>4766.0223092941</DistanceMeters>
          </Trackpoint>
          <Trackpoint>
            <Time>2018-06-21T08:22:29.000Z</Time>
            <Position>
              <LatitudeDegrees>41.74114085733890533447265625</LatitudeDegrees>
              <LongitudeDegrees>1.78104646503925323486328125</LongitudeDegrees>
            </Position>
            <AltitudeMeters>513.79998779296875</AltitudeMeters>
            <DistanceMeters>4771.0908956338</DistanceMeters>
          </Trackpoint>
          <Trackpoint>
            <Time>2018-06-21T08:22:34.000Z</Time>
            <Position>
              <LatitudeDegrees>41.741105653345584869384765625</LatitudeDegrees>
              <LongitudeDegrees>1.78105576895177364349365234375</LongitudeDegrees>
            </Position>
            <AltitudeMeters>513</AltitudeMeters>
            <DistanceMeters>4775.0842795372</DistanceMeters>
          </Trackpoint>
          <Trackpoint>
            <Time>2018-06-21T08:22:40.000Z</Time>
            <Position>
              <LatitudeDegrees>41.741060055792331695556640625</LatitudeDegrees>
              <LongitudeDegrees>1.78107186220586299896240234375</LongitudeDegrees>
            </Position>
            <AltitudeMeters>511.79998779296875</AltitudeMeters>
            <DistanceMeters>4780.3331616306</DistanceMeters>
          </Trackpoint>
          <Trackpoint>
            <Time>2018-06-21T08:22:46.000Z</Time>
            <Position>
              <LatitudeDegrees>41.74106986261904239654541015625</LatitudeDegrees>
              <LongitudeDegrees>1.78102475591003894805908203125</LongitudeDegrees>
            </Position>
            <AltitudeMeters>513.5999755859375</AltitudeMeters>
            <DistanceMeters>4784.3960398886</DistanceMeters>
          </Trackpoint>
          <Trackpoint>
            <Time>2018-06-21T08:22:51.000Z</Time>
            <Position>
              <LatitudeDegrees>41.7410880513489246368408203125</LatitudeDegrees>
              <LongitudeDegrees>1.78098469041287899017333984375</LongitudeDegrees>
            </Position>
            <AltitudeMeters>515.20001220703125</AltitudeMeters>
            <DistanceMeters>4788.290976143</DistanceMeters>
          </Trackpoint>
          <Trackpoint>
            <Time>2018-06-21T08:22:56.000Z</Time>
            <Position>
              <LatitudeDegrees>41.74110137857496738433837890625</LatitudeDegrees>
              <LongitudeDegrees>1.78092434071004390716552734375</LongitudeDegrees>
            </Position>
            <AltitudeMeters>517.5999755859375</AltitudeMeters>
            <DistanceMeters>4793.5183092412</DistanceMeters>
          </Trackpoint>
          <Trackpoint>
            <Time>2018-06-21T08:23:03.000Z</Time>
            <Position>
              <LatitudeDegrees>41.74111965112388134002685546875</LatitudeDegrees>
              <LongitudeDegrees>1.78087756969034671783447265625</LongitudeDegrees>
            </Position>
            <AltitudeMeters>519.5999755859375</AltitudeMeters>
            <DistanceMeters>4797.9029452294</DistanceMeters>
          </Trackpoint>
          <Trackpoint>
            <Time>2018-06-21T08:23:07.000Z</Time>
            <Position>
              <LatitudeDegrees>41.74115016125142574310302734375</LatitudeDegrees>
              <LongitudeDegrees>1.78087958134710788726806640625</LongitudeDegrees>
            </Position>
            <AltitudeMeters>519.79998779296875</AltitudeMeters>
            <DistanceMeters>4801.3027243176</DistanceMeters>
          </Trackpoint>
          <Trackpoint>
            <Time>2018-06-21T08:23:13.000Z</Time>
            <Position>
              <LatitudeDegrees>41.74121327698230743408203125</LatitudeDegrees>
              <LongitudeDegrees>1.780876480042934417724609375</LongitudeDegrees>
            </Position>
            <AltitudeMeters>520.79998779296875</AltitudeMeters>
            <DistanceMeters>4808.3321324222</DistanceMeters>
          </Trackpoint>
          <Trackpoint>
            <Time>2018-06-21T08:23:17.000Z</Time>
            <Position>
              <LatitudeDegrees>41.74125895835459232330322265625</LatitudeDegrees>
              <LongitudeDegrees>1.78088276647031307220458984375</LongitudeDegrees>
            </Position>
            <AltitudeMeters>521.20001220703125</AltitudeMeters>
            <DistanceMeters>4813.4424143201</DistanceMeters>
          </Trackpoint>
          <Trackpoint>
            <Time>2018-06-21T08:23:23.000Z</Time>
            <Position>
              <LatitudeDegrees>41.74125074408948421478271484375</LatitudeDegrees>
              <LongitudeDegrees>1.78089198656380176544189453125</LongitudeDegrees>
            </Position>
            <AltitudeMeters>520.79998779296875</AltitudeMeters>
            <DistanceMeters>4814.6368815981</DistanceMeters>
          </Trackpoint>
          <Trackpoint>
            <Time>2018-06-21T08:23:30.000Z</Time>
            <Position>
              <LatitudeDegrees>41.74118687398731708526611328125</LatitudeDegrees>
              <LongitudeDegrees>1.7808880470693111419677734375</LongitudeDegrees>
            </Position>
            <AltitudeMeters>520</AltitudeMeters>
            <DistanceMeters>4821.7531073321</DistanceMeters>
          </Trackpoint>
          <Trackpoint>
            <Time>2018-06-21T08:23:35.000Z</Time>
            <Position>
              <LatitudeDegrees>41.7411584593355655670166015625</LatitudeDegrees>
              <LongitudeDegrees>1.780858375132083892822265625</LongitudeDegrees>
            </Position>
            <AltitudeMeters>520.79998779296875</AltitudeMeters>
            <DistanceMeters>4825.7622888035</DistanceMeters>
          </Trackpoint>
          <Trackpoint>
            <Time>2018-06-21T08:23:42.000Z</Time>
            <Position>
              <LatitudeDegrees>41.74113356508314609527587890625</LatitudeDegrees>
              <LongitudeDegrees>1.78085175342857837677001953125</LongitudeDegrees>
            </Position>
            <AltitudeMeters>520.5999755859375</AltitudeMeters>
            <DistanceMeters>4828.5876361408</DistanceMeters>
          </Trackpoint>
          <Trackpoint>
            <Time>2018-06-21T08:23:47.000Z</Time>
            <Position>
              <LatitudeDegrees>41.74111805856227874755859375</LatitudeDegrees>
              <LongitudeDegrees>1.78085527382791042327880859375</LongitudeDegrees>
            </Position>
            <AltitudeMeters>520.4000244140625</AltitudeMeters>
            <DistanceMeters>4830.334681028</DistanceMeters>
          </Trackpoint>
          <Trackpoint>
            <Time>2018-06-21T08:23:52.000Z</Time>
            <Position>
              <LatitudeDegrees>41.74105779267847537994384765625</LatitudeDegrees>
              <LongitudeDegrees>1.780872456729412078857421875</LongitudeDegrees>
            </Position>
            <AltitudeMeters>519</AltitudeMeters>
            <DistanceMeters>4837.1924239599</DistanceMeters>
          </Trackpoint>
          <Trackpoint>
            <Time>2018-06-21T08:23:57.000Z</Time>
            <Position>
              <LatitudeDegrees>41.74099006690084934234619140625</LatitudeDegrees>
              <LongitudeDegrees>1.78089316003024578094482421875</LongitudeDegrees>
            </Position>
            <AltitudeMeters>517.20001220703125</AltitudeMeters>
            <DistanceMeters>4844.924118862</DistanceMeters>
          </Trackpoint>
          <Trackpoint>
            <Time>2018-06-21T08:24:05.000Z</Time>
            <Position>
              <LatitudeDegrees>41.74089853651821613311767578125</LatitudeDegrees>
              <LongitudeDegrees>1.78093674592673778533935546875</LongitudeDegrees>
            </Position>
            <AltitudeMeters>515</AltitudeMeters>
            <DistanceMeters>4855.73588743</DistanceMeters>
          </Trackpoint>
          <Trackpoint>
            <Time>2018-06-21T08:24:07.000Z</Time>
            <Position>
              <LatitudeDegrees>41.740881688892841339111328125</LatitudeDegrees>
              <LongitudeDegrees>1.78096423856914043426513671875</LongitudeDegrees>
            </Position>
            <AltitudeMeters>514.20001220703125</AltitudeMeters>
            <DistanceMeters>4858.6893690779</DistanceMeters>
          </Trackpoint>
          <Trackpoint>
            <Time>2018-06-21T08:24:12.000Z</Time>
            <Position>
              <LatitudeDegrees>41.74086199142038822174072265625</LatitudeDegrees>
              <LongitudeDegrees>1.7809926532208919525146484375</LongitudeDegrees>
            </Position>
            <AltitudeMeters>513.5999755859375</AltitudeMeters>
            <DistanceMeters>4861.9118817483</DistanceMeters>
          </Trackpoint>
          <Trackpoint>
            <Time>2018-06-21T08:24:19.000Z</Time>
            <Position>
              <LatitudeDegrees>41.7408593930304050445556640625</LatitudeDegrees>
              <LongitudeDegrees>1.78099156357347965240478515625</LongitudeDegrees>
            </Position>
            <AltitudeMeters>513.5999755859375</AltitudeMeters>
            <DistanceMeters>4862.2123826043</DistanceMeters>
          </Trackpoint>
          <Trackpoint>
            <Time>2018-06-21T08:24:24.000Z</Time>
            <Position>
              <LatitudeDegrees>41.74087397754192352294921875</LatitudeDegrees>
              <LongitudeDegrees>1.78100078366696834564208984375</LongitudeDegrees>
            </Position>
            <AltitudeMeters>513.4000244140625</AltitudeMeters>
            <DistanceMeters>4864.007859502</DistanceMeters>
          </Trackpoint>
          <Trackpoint>
            <Time>2018-06-21T08:24:30.000Z</Time>
            <Position>
              <LatitudeDegrees>41.74087003804743289947509765625</LatitudeDegrees>
              <LongitudeDegrees>1.78101084195077419281005859375</LongitudeDegrees>
            </Position>
            <AltitudeMeters>513.20001220703125</AltitudeMeters>
            <DistanceMeters>4864.9485759798</DistanceMeters>
          </Trackpoint>
          <Trackpoint>
            <Time>2018-06-21T08:24:37.000Z</Time>
            <Position>
              <LatitudeDegrees>41.7408751510083675384521484375</LatitudeDegrees>
              <LongitudeDegrees>1.7810214869678020477294921875</LongitudeDegrees>
            </Position>
            <AltitudeMeters>513</AltitudeMeters>
            <DistanceMeters>4865.9981803463</DistanceMeters>
          </Trackpoint>
          <Trackpoint>
            <Time>2018-06-21T08:24:43.000Z</Time>
            <Position>
              <LatitudeDegrees>41.74086995422840118408203125</LatitudeDegrees>
              <LongitudeDegrees>1.781001873314380645751953125</LongitudeDegrees>
            </Position>
            <AltitudeMeters>513.4000244140625</AltitudeMeters>
            <DistanceMeters>4867.7296494853</DistanceMeters>
          </Trackpoint>
          <Trackpoint>
            <Time>2018-06-21T08:24:51.000Z</Time>
            <Position>
              <LatitudeDegrees>41.74086467362940311431884765625</LatitudeDegrees>
              <LongitudeDegrees>1.7809973470866680145263671875</LongitudeDegrees>
            </Position>
            <AltitudeMeters>513.5999755859375</AltitudeMeters>
            <DistanceMeters>4868.4279503717</DistanceMeters>
          </Trackpoint>
          <Trackpoint>
            <Time>2018-06-21T08:24:59.000Z</Time>
            <Position>
              <LatitudeDegrees>41.74086324870586395263671875</LatitudeDegrees>
              <LongitudeDegrees>1.781001873314380645751953125</LongitudeDegrees>
            </Position>
            <AltitudeMeters>513.4000244140625</AltitudeMeters>
            <DistanceMeters>4868.8311145765</DistanceMeters>
          </Trackpoint>
          <Trackpoint>
            <Time>2018-06-21T08:25:07.000Z</Time>
            <Position>
              <LatitudeDegrees>41.74086316488683223724365234375</LatitudeDegrees>
              <LongitudeDegrees>1.78099407814443111419677734375</LongitudeDegrees>
            </Position>
            <AltitudeMeters>513.5999755859375</AltitudeMeters>
            <DistanceMeters>4869.4756171106</DistanceMeters>
          </Trackpoint>
          <Trackpoint>
            <Time>2018-06-21T08:25:13.000Z</Time>
            <Position>
              <LatitudeDegrees>41.7408865503966808319091796875</LatitudeDegrees>
              <LongitudeDegrees>1.7809490673243999481201171875</LongitudeDegrees>
            </Position>
            <AltitudeMeters>514.5999755859375</AltitudeMeters>
            <DistanceMeters>4874.030956359</DistanceMeters>
          </Trackpoint>
          <Trackpoint>
            <Time>2018-06-21T08:25:14.000Z</Time>
            <Position>
              <LatitudeDegrees>41.74089535139501094818115234375</LatitudeDegrees>
              <LongitudeDegrees>1.7809371650218963623046875</LongitudeDegrees>
            </Position>
            <AltitudeMeters>515</AltitudeMeters>
            <DistanceMeters>4875.4210773462</DistanceMeters>
          </Trackpoint>
          <Trackpoint>
            <Time>2018-06-21T08:25:23.000Z</Time>
            <Position>
              <LatitudeDegrees>41.74099266529083251953125</LatitudeDegrees>
              <LongitudeDegrees>1.780903637409210205078125</LongitudeDegrees>
            </Position>
            <AltitudeMeters>517</AltitudeMeters>
            <DistanceMeters>4886.6043934353</DistanceMeters>
          </Trackpoint>
          <Trackpoint>
            <Time>2018-06-21T08:25:29.000Z</Time>
            <Position>
              <LatitudeDegrees>41.74105796031653881072998046875</LatitudeDegrees>
              <LongitudeDegrees>1.78090506233274936676025390625</LongitudeDegrees>
            </Position>
            <AltitudeMeters>517.79998779296875</AltitudeMeters>
            <DistanceMeters>4893.8731606811</DistanceMeters>
          </Trackpoint>
          <Trackpoint>
            <Time>2018-06-21T08:25:34.000Z</Time>
            <Position>
              <LatitudeDegrees>41.74104454927146434783935546875</LatitudeDegrees>
              <LongitudeDegrees>1.7809121869504451751708984375</LongitudeDegrees>
            </Position>
            <AltitudeMeters>517.4000244140625</AltitudeMeters>
            <DistanceMeters>4895.4802082419</DistanceMeters>
          </Trackpoint>
          <Trackpoint>
            <Time>2018-06-21T08:25:38.000Z</Time>
            <Position>
              <LatitudeDegrees>41.74104035831987857818603515625</LatitudeDegrees>
              <LongitudeDegrees>1.78088746033608913421630859375</LongitudeDegrees>
            </Position>
            <AltitudeMeters>518.20001220703125</AltitudeMeters>
            <DistanceMeters>4897.5858595744</DistanceMeters>
          </Trackpoint>
          <Trackpoint>
            <Time>2018-06-21T08:25:43.000Z</Time>
            <Position>
              <LatitudeDegrees>41.74105896614491939544677734375</LatitudeDegrees>
              <LongitudeDegrees>1.78090254776179790496826171875</LongitudeDegrees>
            </Position>
            <AltitudeMeters>517.79998779296875</AltitudeMeters>
            <DistanceMeters>4900.0048448029</DistanceMeters>
          </Trackpoint>
          <Trackpoint>
            <Time>2018-06-21T08:25:53.000Z</Time>
            <Position>
              <LatitudeDegrees>41.74106298945844173431396484375</LatitudeDegrees>
              <LongitudeDegrees>1.7809004522860050201416015625</LongitudeDegrees>
            </Position>
            <AltitudeMeters>518</AltitudeMeters>
            <DistanceMeters>4900.4799783748</DistanceMeters>
          </Trackpoint>
          <Trackpoint>
            <Time>2018-06-21T08:26:12.000Z</Time>
            <Position>
              <LatitudeDegrees>41.74105745740234851837158203125</LatitudeDegrees>
              <LongitudeDegrees>1.78091763518750667572021484375</LongitudeDegrees>
            </Position>
            <AltitudeMeters>517.20001220703125</AltitudeMeters>
            <DistanceMeters>4902.0327276818</DistanceMeters>
          </Trackpoint>
          <Trackpoint>
            <Time>2018-06-21T08:26:17.000Z</Time>
            <Position>
              <LatitudeDegrees>41.74108059145510196685791015625</LatitudeDegrees>
              <LongitudeDegrees>1.78091545589268207550048828125</LongitudeDegrees>
            </Position>
            <AltitudeMeters>517.5999755859375</AltitudeMeters>
            <DistanceMeters>4904.6142381729</DistanceMeters>
          </Trackpoint>
          <Trackpoint>
            <Time>2018-06-21T08:26:21.000Z</Time>
            <Position>
              <LatitudeDegrees>41.7410578764975070953369140625</LatitudeDegrees>
              <LongitudeDegrees>1.78093515336513519287109375</LongitudeDegrees>
            </Position>
            <AltitudeMeters>516.5999755859375</AltitudeMeters>
            <DistanceMeters>4907.6252507517</DistanceMeters>
          </Trackpoint>
          <Trackpoint>
            <Time>2018-06-21T08:26:28.000Z</Time>
            <Position>
              <LatitudeDegrees>41.7410595528781414031982421875</LatitudeDegrees>
              <LongitudeDegrees>1.7809264361858367919921875</LongitudeDegrees>
            </Position>
            <AltitudeMeters>517</AltitudeMeters>
            <DistanceMeters>4908.3734918489</DistanceMeters>
          </Trackpoint>
          <Trackpoint>
            <Time>2018-06-21T08:26:35.000Z</Time>
            <Position>
              <LatitudeDegrees>41.74106215126812458038330078125</LatitudeDegrees>
              <LongitudeDegrees>1.7809279449284076690673828125</LongitudeDegrees>
            </Position>
            <AltitudeMeters>517</AltitudeMeters>
            <DistanceMeters>4908.7026740436</DistanceMeters>
          </Trackpoint>
          <Trackpoint>
            <Time>2018-06-21T08:26:50.000Z</Time>
            <Position>
              <LatitudeDegrees>41.74106215126812458038330078125</LatitudeDegrees>
              <LongitudeDegrees>1.7809205688536167144775390625</LongitudeDegrees>
            </Position>
            <AltitudeMeters>517.20001220703125</AltitudeMeters>
            <DistanceMeters>4909.3185175389</DistanceMeters>
          </Trackpoint>
          <Trackpoint>
            <Time>2018-06-21T08:27:17.000Z</Time>
            <Position>
              <LatitudeDegrees>41.74103734083473682403564453125</LatitudeDegrees>
              <LongitudeDegrees>1.78092165850102901458740234375</LongitudeDegrees>
            </Position>
            <AltitudeMeters>516.79998779296875</AltitudeMeters>
            <DistanceMeters>4912.0824720739</DistanceMeters>
          </Trackpoint>
          <Trackpoint>
            <Time>2018-06-21T08:27:23.000Z</Time>
            <Position>
              <LatitudeDegrees>41.74088898114860057830810546875</LatitudeDegrees>
              <LongitudeDegrees>1.780932135879993438720703125</LongitudeDegrees>
            </Position>
            <AltitudeMeters>515</AltitudeMeters>
            <DistanceMeters>4928.6182125993</DistanceMeters>
          </Trackpoint>
          <Trackpoint>
            <Time>2018-06-21T08:27:26.000Z</Time>
            <Position>
              <LatitudeDegrees>41.74085997976362705230712890625</LatitudeDegrees>
              <LongitudeDegrees>1.78098267875611782073974609375</LongitudeDegrees>
            </Position>
            <AltitudeMeters>513.79998779296875</AltitudeMeters>
            <DistanceMeters>4933.9141938526</DistanceMeters>
          </Trackpoint>
          <Trackpoint>
            <Time>2018-06-21T08:27:30.000Z</Time>
            <Position>
              <LatitudeDegrees>41.7409103550016880035400390625</LatitudeDegrees>
              <LongitudeDegrees>1.780938841402530670166015625</LongitudeDegrees>
            </Position>
            <AltitudeMeters>514.79998779296875</AltitudeMeters>
            <DistanceMeters>4940.5999158328</DistanceMeters>
          </Trackpoint>
          <Trackpoint>
            <Time>2018-06-21T08:27:34.000Z</Time>
            <Position>
              <LatitudeDegrees>41.74101747572422027587890625</LatitudeDegrees>
              <LongitudeDegrees>1.78093783557415008544921875</LongitudeDegrees>
            </Position>
            <AltitudeMeters>516</AltitudeMeters>
            <DistanceMeters>4952.5230233748</DistanceMeters>
          </Trackpoint>
          <Trackpoint>
            <Time>2018-06-21T08:27:39.000Z</Time>
            <Position>
              <LatitudeDegrees>41.74105259589850902557373046875</LatitudeDegrees>
              <LongitudeDegrees>1.780928783118724822998046875</LongitudeDegrees>
            </Position>
            <AltitudeMeters>516.79998779296875</AltitudeMeters>
            <DistanceMeters>4956.5028165959</DistanceMeters>
          </Trackpoint>
          <Trackpoint>
            <Time>2018-06-21T08:28:00.000Z</Time>
            <Position>
              <LatitudeDegrees>41.74106064252555370330810546875</LatitudeDegrees>
              <LongitudeDegrees>1.78093356080353260040283203125</LongitudeDegrees>
            </Position>
            <AltitudeMeters>516.79998779296875</AltitudeMeters>
            <DistanceMeters>4957.4811765006</DistanceMeters>
          </Trackpoint>
          <Trackpoint>
            <Time>2018-06-21T08:28:09.000Z</Time>
            <Position>
              <LatitudeDegrees>41.7410578764975070953369140625</LatitudeDegrees>
              <LongitudeDegrees>1.7809245921671390533447265625</LongitudeDegrees>
            </Position>
            <AltitudeMeters>517</AltitudeMeters>
            <DistanceMeters>4958.2818858283</DistanceMeters>
          </Trackpoint>
          <Trackpoint>
            <Time>2018-06-21T08:28:25.000Z</Time>
            <Position>
              <LatitudeDegrees>41.7410464771091938018798828125</LatitudeDegrees>
              <LongitudeDegrees>1.7809175513684749603271484375</LongitudeDegrees>
            </Position>
            <AltitudeMeters>517.20001220703125</AltitudeMeters>
            <DistanceMeters>4959.6784876011</DistanceMeters>
          </Trackpoint>
          <Trackpoint>
            <Time>2018-06-21T08:28:30.000Z</Time>
            <Position>
              <LatitudeDegrees>41.74090708605945110321044921875</LatitudeDegrees>
              <LongitudeDegrees>1.780907995998859405517578125</LongitudeDegrees>
            </Position>
            <AltitudeMeters>515.5999755859375</AltitudeMeters>
            <DistanceMeters>4975.2132483964</DistanceMeters>
          </Trackpoint>
          <Trackpoint>
            <Time>2018-06-21T08:28:32.000Z</Time>
            <Position>
              <LatitudeDegrees>41.7408791743218898773193359375</LatitudeDegrees>
              <LongitudeDegrees>1.7809252627193927764892578125</LongitudeDegrees>
            </Position>
            <AltitudeMeters>515.20001220703125</AltitudeMeters>
            <DistanceMeters>4978.6355296747</DistanceMeters>
          </Trackpoint>
          <Trackpoint>
            <Time>2018-06-21T08:28:35.000Z</Time>
            <Position>
              <LatitudeDegrees>41.74086618237197399139404296875</LatitudeDegrees>
              <LongitudeDegrees>1.78095317445695400238037109375</LongitudeDegrees>
            </Position>
            <AltitudeMeters>514.5999755859375</AltitudeMeters>
            <DistanceMeters>4981.3682706465</DistanceMeters>
          </Trackpoint>
          <Trackpoint>
            <Time>2018-06-21T08:28:39.000Z</Time>
            <Position>
              <LatitudeDegrees>41.740922592580318450927734375</LatitudeDegrees>
              <LongitudeDegrees>1.7808853648602962493896484375</LongitudeDegrees>
            </Position>
            <AltitudeMeters>516.5999755859375</AltitudeMeters>
            <DistanceMeters>4989.8026610943</DistanceMeters>
          </Trackpoint>
          <Trackpoint>
            <Time>2018-06-21T08:28:45.000Z</Time>
            <Position>
              <LatitudeDegrees>41.74104304052889347076416015625</LatitudeDegrees>
              <LongitudeDegrees>1.78088427521288394927978515625</LongitudeDegrees>
            </Position>
            <AltitudeMeters>518.20001220703125</AltitudeMeters>
            <DistanceMeters>5003.2091759859</DistanceMeters>
          </Trackpoint>
          <Trackpoint>
            <Time>2018-06-21T08:29:05.000Z</Time>
            <Position>
              <LatitudeDegrees>41.74104086123406887054443359375</LatitudeDegrees>
              <LongitudeDegrees>1.78090003319084644317626953125</LongitudeDegrees>
            </Position>
            <AltitudeMeters>517.5999755859375</AltitudeMeters>
            <DistanceMeters>5004.5395499871</DistanceMeters>
          </Trackpoint>
          <Trackpoint>
            <Time>2018-06-21T08:29:09.000Z</Time>
            <Position>
              <LatitudeDegrees>41.7410476505756378173828125</LatitudeDegrees>
              <LongitudeDegrees>1.78089248947799205780029296875</LongitudeDegrees>
            </Position>
            <AltitudeMeters>518</AltitudeMeters>
            <DistanceMeters>5005.5179098918</DistanceMeters>
          </Trackpoint>
          <Trackpoint>
            <Time>2018-06-21T08:29:13.000Z</Time>
            <Position>
              <LatitudeDegrees>41.74103063531219959259033203125</LatitudeDegrees>
              <LongitudeDegrees>1.7808967642486095428466796875</LongitudeDegrees>
            </Position>
            <AltitudeMeters>517.5999755859375</AltitudeMeters>
            <DistanceMeters>5007.4467415316</DistanceMeters>
          </Trackpoint>
          <Trackpoint>
            <Time>2018-06-21T08:29:17.000Z</Time>
            <Position>
              <LatitudeDegrees>41.74097766168415546417236328125</LatitudeDegrees>
              <LongitudeDegrees>1.7808947525918483734130859375</LongitudeDegrees>
            </Position>
            <AltitudeMeters>517</AltitudeMeters>
            <DistanceMeters>5013.3452908905</DistanceMeters>
          </Trackpoint>
          <Trackpoint>
            <Time>2018-06-21T08:29:24.000Z</Time>
            <Position>
              <LatitudeDegrees>41.740897782146930694580078125</LatitudeDegrees>
              <LongitudeDegrees>1.78092886693775653839111328125</LongitudeDegrees>
            </Position>
            <AltitudeMeters>515</AltitudeMeters>
            <DistanceMeters>5022.6767981186</DistanceMeters>
          </Trackpoint>
          <Trackpoint>
            <Time>2018-06-21T08:29:26.000Z</Time>
            <Position>
              <LatitudeDegrees>41.7408813536167144775390625</LatitudeDegrees>
              <LongitudeDegrees>1.78095065988600254058837890625</LongitudeDegrees>
            </Position>
            <AltitudeMeters>514.5999755859375</AltitudeMeters>
            <DistanceMeters>5025.2495487932</DistanceMeters>
          </Trackpoint>
          <Trackpoint>
            <Time>2018-06-21T08:29:30.000Z</Time>
            <Position>
              <LatitudeDegrees>41.74088336527347564697265625</LatitudeDegrees>
              <LongitudeDegrees>1.78094445727765560150146484375</LongitudeDegrees>
            </Position>
            <AltitudeMeters>514.79998779296875</AltitudeMeters>
            <DistanceMeters>5025.8117344169</DistanceMeters>
          </Trackpoint>
          <Trackpoint>
            <Time>2018-06-21T08:29:35.000Z</Time>
            <Position>
              <LatitudeDegrees>41.740935333073139190673828125</LatitudeDegrees>
              <LongitudeDegrees>1.78089559078216552734375</LongitudeDegrees>
            </Position>
            <AltitudeMeters>516.4000244140625</AltitudeMeters>
            <DistanceMeters>5032.8782981317</DistanceMeters>
          </Trackpoint>
          <Trackpoint>
            <Time>2018-06-21T08:29:37.000Z</Time>
            <Position>
              <LatitudeDegrees>41.74094765447080135345458984375</LatitudeDegrees>
              <LongitudeDegrees>1.78087078034877777099609375</LongitudeDegrees>
            </Position>
            <AltitudeMeters>517.5999755859375</AltitudeMeters>
            <DistanceMeters>5035.3562916712</DistanceMeters>
          </Trackpoint>
          <Trackpoint>
            <Time>2018-06-21T08:29:46.000Z</Time>
            <Position>
              <LatitudeDegrees>41.7409398593008518218994140625</LatitudeDegrees>
              <LongitudeDegrees>1.7807180620729923248291015625</LongitudeDegrees>
            </Position>
            <AltitudeMeters>523</AltitudeMeters>
            <DistanceMeters>5048.0692892797</DistanceMeters>
          </Trackpoint>
          <Trackpoint>
            <Time>2018-06-21T08:29:56.000Z</Time>
            <Position>
              <LatitudeDegrees>41.74094698391854763031005859375</LatitudeDegrees>
              <LongitudeDegrees>1.78054179064929485321044921875</LongitudeDegrees>
            </Position>
            <AltitudeMeters>523.4000244140625</AltitudeMeters>
            <DistanceMeters>5062.7299127153</DistanceMeters>
          </Trackpoint>
          <Trackpoint>
            <Time>2018-06-21T08:30:04.000Z</Time>
            <Position>
              <LatitudeDegrees>41.7409532703459262847900390625</LatitudeDegrees>
              <LongitudeDegrees>1.78040675818920135498046875</LongitudeDegrees>
            </Position>
            <AltitudeMeters>523.5999755859375</AltitudeMeters>
            <DistanceMeters>5073.9663947644</DistanceMeters>
          </Trackpoint>
          <Trackpoint>
            <Time>2018-06-21T08:30:06.000Z</Time>
            <Position>
              <LatitudeDegrees>41.74094866029918193817138671875</LatitudeDegrees>
              <LongitudeDegrees>1.7803730629384517669677734375</LongitudeDegrees>
            </Position>
            <AltitudeMeters>523.5999755859375</AltitudeMeters>
            <DistanceMeters>5076.8108540265</DistanceMeters>
          </Trackpoint>
          <Trackpoint>
            <Time>2018-06-21T08:30:12.000Z</Time>
            <Position>
              <LatitudeDegrees>41.740952767431735992431640625</LatitudeDegrees>
              <LongitudeDegrees>1.78028605878353118896484375</LongitudeDegrees>
            </Position>
            <AltitudeMeters>523.79998779296875</AltitudeMeters>
            <DistanceMeters>5084.0509917156</DistanceMeters>
          </Trackpoint>
          <Trackpoint>
            <Time>2018-06-21T08:30:19.000Z</Time>
            <Position>
              <LatitudeDegrees>41.74099945463240146636962890625</LatitudeDegrees>
              <LongitudeDegrees>1.78019595332443714141845703125</LongitudeDegrees>
            </Position>
            <AltitudeMeters>524.4000244140625</AltitudeMeters>
            <DistanceMeters>5093.1616702124</DistanceMeters>
          </Trackpoint>
          <Trackpoint>
            <Time>2018-06-21T08:30:25.000Z</Time>
            <Position>
              <LatitudeDegrees>41.74099945463240146636962890625</LatitudeDegrees>
              <LongitudeDegrees>1.7800922691822052001953125</LongitudeDegrees>
            </Position>
            <AltitudeMeters>525.20001220703125</AltitudeMeters>
            <DistanceMeters>5101.7729992479</DistanceMeters>
          </Trackpoint>
          <Trackpoint>
            <Time>2018-06-21T08:30:31.000Z</Time>
            <Position>
              <LatitudeDegrees>41.74101286567747592926025390625</LatitudeDegrees>
              <LongitudeDegrees>1.77997886203229427337646484375</LongitudeDegrees>
            </Position>
            <AltitudeMeters>526.5999755859375</AltitudeMeters>
            <DistanceMeters>5111.3088720339</DistanceMeters>
          </Trackpoint>
          <Trackpoint>
            <Time>2018-06-21T08:30:37.000Z</Time>
            <Position>
              <LatitudeDegrees>41.741031892597675323486328125</LatitudeDegrees>
              <LongitudeDegrees>1.779862940311431884765625</LongitudeDegrees>
            </Position>
            <AltitudeMeters>527.79998779296875</AltitudeMeters>
            <DistanceMeters>5121.1660330114</DistanceMeters>
          </Trackpoint>
          <Trackpoint>
            <Time>2018-06-21T08:30:42.000Z</Time>
            <Position>
              <LatitudeDegrees>41.741041950881481170654296875</LatitudeDegrees>
              <LongitudeDegrees>1.7797631956636905670166015625</LongitudeDegrees>
            </Position>
            <AltitudeMeters>526.20001220703125</AltitudeMeters>
            <DistanceMeters>5129.5251437012</DistanceMeters>
          </Trackpoint>
          <Trackpoint>
            <Time>2018-06-21T08:30:49.000Z</Time>
            <Position>
              <LatitudeDegrees>41.741100959479808807373046875</LatitudeDegrees>
              <LongitudeDegrees>1.77964727394282817840576171875</LongitudeDegrees>
            </Position>
            <AltitudeMeters>525.5999755859375</AltitudeMeters>
            <DistanceMeters>5141.1797741059</DistanceMeters>
          </Trackpoint>
          <Trackpoint>
            <Time>2018-06-21T08:30:50.000Z</Time>
            <Position>
              <LatitudeDegrees>41.74111135303974151611328125</LatitudeDegrees>
              <LongitudeDegrees>1.7796367965638637542724609375</LongitudeDegrees>
            </Position>
            <AltitudeMeters>525.5999755859375</AltitudeMeters>
            <DistanceMeters>5142.6271778972</DistanceMeters>
          </Trackpoint>
          <Trackpoint>
            <Time>2018-06-21T08:30:54.000Z</Time>
            <Position>
              <LatitudeDegrees>41.7411574535071849822998046875</LatitudeDegrees>
              <LongitudeDegrees>1.77963268943130970001220703125</LongitudeDegrees>
            </Position>
            <AltitudeMeters>526.5999755859375</AltitudeMeters>
            <DistanceMeters>5147.7700461537</DistanceMeters>
          </Trackpoint>
          <Trackpoint>
            <Time>2018-06-21T08:31:03.000Z</Time>
            <Position>
              <LatitudeDegrees>41.741255186498165130615234375</LatitudeDegrees>
              <LongitudeDegrees>1.77966118790209293365478515625</LongitudeDegrees>
            </Position>
            <AltitudeMeters>529.20001220703125</AltitudeMeters>
            <DistanceMeters>5158.9023760589</DistanceMeters>
          </Trackpoint>
          <Trackpoint>
            <Time>2018-06-21T08:31:06.000Z</Time>
            <Position>
              <LatitudeDegrees>41.74129508435726165771484375</LatitudeDegrees>
              <LongitudeDegrees>1.77967828698456287384033203125</LongitudeDegrees>
            </Position>
            <AltitudeMeters>530.4000244140625</AltitudeMeters>
            <DistanceMeters>5163.5635308433</DistanceMeters>
          </Trackpoint>
          <Trackpoint>
            <Time>2018-06-21T08:31:14.000Z</Time>
            <Position>
              <LatitudeDegrees>41.741415448486804962158203125</LatitudeDegrees>
              <LongitudeDegrees>1.77966387011110782623291015625</LongitudeDegrees>
            </Position>
            <AltitudeMeters>532.5999755859375</AltitudeMeters>
            <DistanceMeters>5177.0137558034</DistanceMeters>
          </Trackpoint>
          <Trackpoint>
            <Time>2018-06-21T08:31:20.000Z</Time>
            <Position>
              <LatitudeDegrees>41.74147806130349636077880859375</LatitudeDegrees>
              <LongitudeDegrees>1.7796052806079387664794921875</LongitudeDegrees>
            </Position>
            <AltitudeMeters>532.79998779296875</AltitudeMeters>
            <DistanceMeters>5185.5132035238</DistanceMeters>
          </Trackpoint>
          <Trackpoint>
            <Time>2018-06-21T08:31:22.000Z</Time>
            <Position>
              <LatitudeDegrees>41.74149163998663425445556640625</LatitudeDegrees>
              <LongitudeDegrees>1.7795767821371555328369140625</LongitudeDegrees>
            </Position>
            <AltitudeMeters>532.5999755859375</AltitudeMeters>
            <DistanceMeters>5188.3193087711</DistanceMeters>
          </Trackpoint>
          <Trackpoint>
            <Time>2018-06-21T08:31:26.000Z</Time>
            <Position>
              <LatitudeDegrees>41.7415121756494045257568359375</LatitudeDegrees>
              <LongitudeDegrees>1.77951157093048095703125</LongitudeDegrees>
            </Position>
            <AltitudeMeters>531.79998779296875</AltitudeMeters>
            <DistanceMeters>5194.1971546754</DistanceMeters>
          </Trackpoint>
          <Trackpoint>
            <Time>2018-06-21T08:31:33.000Z</Time>
            <Position>
              <LatitudeDegrees>41.741578392684459686279296875</LatitudeDegrees>
              <LongitudeDegrees>1.77941006608307361602783203125</LongitudeDegrees>
            </Position>
            <AltitudeMeters>529.79998779296875</AltitudeMeters>
            <DistanceMeters>5205.3945923923</DistanceMeters>
          </Trackpoint>
          <Trackpoint>
            <Time>2018-06-21T08:31:35.000Z</Time>
            <Position>
              <LatitudeDegrees>41.7415738664567470550537109375</LatitudeDegrees>
              <LongitudeDegrees>1.77938139997422695159912109375</LongitudeDegrees>
            </Position>
            <AltitudeMeters>529.4000244140625</AltitudeMeters>
            <DistanceMeters>5207.8247508222</DistanceMeters>
          </Trackpoint>
          <Trackpoint>
            <Time>2018-06-21T08:31:42.000Z</Time>
            <Position>
              <LatitudeDegrees>41.74154595471918582916259765625</LatitudeDegrees>
              <LongitudeDegrees>1.77932423539459705352783203125</LongitudeDegrees>
            </Position>
            <AltitudeMeters>528.79998779296875</AltitudeMeters>
            <DistanceMeters>5213.4977740415</DistanceMeters>
          </Trackpoint>
          <Trackpoint>
            <Time>2018-06-21T08:31:45.000Z</Time>
            <Position>
              <LatitudeDegrees>41.741531789302825927734375</LatitudeDegrees>
              <LongitudeDegrees>1.7793095670640468597412109375</LongitudeDegrees>
            </Position>
            <AltitudeMeters>528.5999755859375</AltitudeMeters>
            <DistanceMeters>5215.4888048195</DistanceMeters>
          </Trackpoint>
          <Trackpoint>
            <Time>2018-06-21T08:31:51.000Z</Time>
            <Position>
              <LatitudeDegrees>41.7415319569408893585205078125</LatitudeDegrees>
              <LongitudeDegrees>1.77925449796020984649658203125</LongitudeDegrees>
            </Position>
            <AltitudeMeters>527.5999755859375</AltitudeMeters>
            <DistanceMeters>5220.0619500221</DistanceMeters>
          </Trackpoint>
          <Trackpoint>
            <Time>2018-06-21T08:31:55.000Z</Time>
            <Position>
              <LatitudeDegrees>41.74151745624840259552001953125</LatitudeDegrees>
              <LongitudeDegrees>1.77921795286238193511962890625</LongitudeDegrees>
            </Position>
            <AltitudeMeters>526.5999755859375</AltitudeMeters>
            <DistanceMeters>5223.4987130323</DistanceMeters>
          </Trackpoint>
          <Trackpoint>
            <Time>2018-06-21T08:32:00.000Z</Time>
            <Position>
              <LatitudeDegrees>41.7415178753435611724853515625</LatitudeDegrees>
              <LongitudeDegrees>1.7791754566133022308349609375</LongitudeDegrees>
            </Position>
            <AltitudeMeters>525.79998779296875</AltitudeMeters>
            <DistanceMeters>5227.0275195468</DistanceMeters>
          </Trackpoint>
          <Trackpoint>
            <Time>2018-06-21T08:32:05.000Z</Time>
            <Position>
              <LatitudeDegrees>41.7415344715118408203125</LatitudeDegrees>
              <LongitudeDegrees>1.779130361974239349365234375</LongitudeDegrees>
            </Position>
            <AltitudeMeters>525.4000244140625</AltitudeMeters>
            <DistanceMeters>5231.2032922433</DistanceMeters>
          </Trackpoint>
          <Trackpoint>
            <Time>2018-06-21T08:32:12.000Z</Time>
            <Position>
              <LatitudeDegrees>41.741560958325862884521484375</LatitudeDegrees>
              <LongitudeDegrees>1.77905014716088771820068359375</LongitudeDegrees>
            </Position>
            <AltitudeMeters>524</AltitudeMeters>
            <DistanceMeters>5238.4888113969</DistanceMeters>
          </Trackpoint>
          <Trackpoint>
            <Time>2018-06-21T08:32:17.000Z</Time>
            <Position>
              <LatitudeDegrees>41.74156774766743183135986328125</LatitudeDegrees>
              <LongitudeDegrees>1.7789910547435283660888671875</LongitudeDegrees>
            </Position>
            <AltitudeMeters>522.5999755859375</AltitudeMeters>
            <DistanceMeters>5243.4539003883</DistanceMeters>
          </Trackpoint>
          <Trackpoint>
            <Time>2018-06-21T08:32:21.000Z</Time>
            <Position>
              <LatitudeDegrees>41.74155936576426029205322265625</LatitudeDegrees>
              <LongitudeDegrees>1.7789350636303424835205078125</LongitudeDegrees>
            </Position>
            <AltitudeMeters>521.20001220703125</AltitudeMeters>
            <DistanceMeters>5248.1976278782</DistanceMeters>
          </Trackpoint>
          <Trackpoint>
            <Time>2018-06-21T08:32:22.000Z</Time>
            <Position>
              <LatitudeDegrees>41.74155115149915218353271484375</LatitudeDegrees>
              <LongitudeDegrees>1.7789216525852680206298828125</LongitudeDegrees>
            </Position>
            <AltitudeMeters>520.79998779296875</AltitudeMeters>
            <DistanceMeters>5249.638779356</DistanceMeters>
          </Trackpoint>
          <Trackpoint>
            <Time>2018-06-21T08:32:24.000Z</Time>
            <Position>
              <LatitudeDegrees>41.74154318869113922119140625</LatitudeDegrees>
              <LongitudeDegrees>1.77889726124703884124755859375</LongitudeDegrees>
            </Position>
            <AltitudeMeters>520.20001220703125</AltitudeMeters>
            <DistanceMeters>5251.8490443528</DistanceMeters>
          </Trackpoint>
          <Trackpoint>
            <Time>2018-06-21T08:32:31.000Z</Time>
            <Position>
              <LatitudeDegrees>41.7415034584701061248779296875</LatitudeDegrees>
              <LongitudeDegrees>1.77884663455188274383544921875</LongitudeDegrees>
            </Position>
            <AltitudeMeters>518.4000244140625</AltitudeMeters>
            <DistanceMeters>5257.9515057624</DistanceMeters>
          </Trackpoint>
          <Trackpoint>
            <Time>2018-06-21T08:32:36.000Z</Time>
            <Position>
              <LatitudeDegrees>41.7414588667452335357666015625</LatitudeDegrees>
              <LongitudeDegrees>1.77883707918226718902587890625</LongitudeDegrees>
            </Position>
            <AltitudeMeters>517.4000244140625</AltitudeMeters>
            <DistanceMeters>5262.9780506881</DistanceMeters>
          </Trackpoint>
          <Trackpoint>
            <Time>2018-06-21T08:32:40.000Z</Time>
            <Position>
              <LatitudeDegrees>41.74141285009682178497314453125</LatitudeDegrees>
              <LongitudeDegrees>1.778811849653720855712890625</LongitudeDegrees>
            </Position>
            <AltitudeMeters>516</AltitudeMeters>
            <DistanceMeters>5268.5108582164</DistanceMeters>
          </Trackpoint>
          <Trackpoint>
            <Time>2018-06-21T08:32:46.000Z</Time>
            <Position>
              <LatitudeDegrees>41.7413455434143543243408203125</LatitudeDegrees>
              <LongitudeDegrees>1.77879475057125091552734375</LongitudeDegrees>
            </Position>
            <AltitudeMeters>514.4000244140625</AltitudeMeters>
            <DistanceMeters>5276.1355308091</DistanceMeters>
          </Trackpoint>
          <Trackpoint>
            <Time>2018-06-21T08:32:54.000Z</Time>
            <Position>
              <LatitudeDegrees>41.7412744648754596710205078125</LatitudeDegrees>
              <LongitudeDegrees>1.7787650786340236663818359375</LongitudeDegrees>
            </Position>
            <AltitudeMeters>512.4000244140625</AltitudeMeters>
            <DistanceMeters>5284.4219474822</DistanceMeters>
          </Trackpoint>
          <Trackpoint>
            <Time>2018-06-21T08:32:55.000Z</Time>
            <Position>
              <LatitudeDegrees>41.741263568401336669921875</LatitudeDegrees>
              <LongitudeDegrees>1.7787563614547252655029296875</LongitudeDegrees>
            </Position>
            <AltitudeMeters>512</AltitudeMeters>
            <DistanceMeters>5285.8314214328</DistanceMeters>
          </Trackpoint>
          <Trackpoint>
            <Time>2018-06-21T08:33:00.000Z</Time>
            <Position>
              <LatitudeDegrees>41.74120179377496242523193359375</LatitudeDegrees>
              <LongitudeDegrees>1.77873666398227214813232421875</LongitudeDegrees>
            </Position>
            <AltitudeMeters>510.399993896484375</AltitudeMeters>
            <DistanceMeters>5292.8979851476</DistanceMeters>
          </Trackpoint>
          <Trackpoint>
            <Time>2018-06-21T08:33:02.000Z</Time>
            <Position>
              <LatitudeDegrees>41.741178743541240692138671875</LatitudeDegrees>
              <LongitudeDegrees>1.77872258238494396209716796875</LongitudeDegrees>
            </Position>
            <AltitudeMeters>509.600006103515625</AltitudeMeters>
            <DistanceMeters>5295.716933049</DistanceMeters>
          </Trackpoint>
          <Trackpoint>
            <Time>2018-06-21T08:33:04.000Z</Time>
            <Position>
              <LatitudeDegrees>41.74115334637463092803955078125</LatitudeDegrees>
              <LongitudeDegrees>1.7787164635956287384033203125</LongitudeDegrees>
            </Position>
            <AltitudeMeters>509</AltitudeMeters>
            <DistanceMeters>5298.5882497841</DistanceMeters>
          </Trackpoint>
          <Trackpoint>
            <Time>2018-06-21T08:33:10.000Z</Time>
            <Position>
              <LatitudeDegrees>41.74113607965409755706787109375</LatitudeDegrees>
              <LongitudeDegrees>1.7786309681832790374755859375</LongitudeDegrees>
            </Position>
            <AltitudeMeters>506.79998779296875</AltitudeMeters>
            <DistanceMeters>5305.9440786329</DistanceMeters>
          </Trackpoint>
          <Trackpoint>
            <Time>2018-06-21T08:33:15.000Z</Time>
            <Position>
              <LatitudeDegrees>41.74113255925476551055908203125</LatitudeDegrees>
              <LongitudeDegrees>1.77854639478027820587158203125</LongitudeDegrees>
            </Position>
            <AltitudeMeters>504.600006103515625</AltitudeMeters>
            <DistanceMeters>5312.978623317</DistanceMeters>
          </Trackpoint>
          <Trackpoint>
            <Time>2018-06-21T08:33:16.000Z</Time>
            <Position>
              <LatitudeDegrees>41.74112954176962375640869140625</LatitudeDegrees>
              <LongitudeDegrees>1.77853583358228206634521484375</LongitudeDegrees>
            </Position>
            <AltitudeMeters>504.20001220703125</AltitudeMeters>
            <DistanceMeters>5313.9096911655</DistanceMeters>
          </Trackpoint>
          <Trackpoint>
            <Time>2018-06-21T08:33:22.000Z</Time>
            <Position>
              <LatitudeDegrees>41.741107665002346038818359375</LatitudeDegrees>
              <LongitudeDegrees>1.77843424491584300994873046875</LongitudeDegrees>
            </Position>
            <AltitudeMeters>501.399993896484375</AltitudeMeters>
            <DistanceMeters>5322.6907971753</DistanceMeters>
          </Trackpoint>
          <Trackpoint>
            <Time>2018-06-21T08:33:26.000Z</Time>
            <Position>
              <LatitudeDegrees>41.74108855426311492919921875</LatitudeDegrees>
              <LongitudeDegrees>1.77837406285107135772705078125</LongitudeDegrees>
            </Position>
            <AltitudeMeters>499.399993896484375</AltitudeMeters>
            <DistanceMeters>5328.1231345929</DistanceMeters>
          </Trackpoint>
          <Trackpoint>
            <Time>2018-06-21T08:33:33.000Z</Time>
            <Position>
              <LatitudeDegrees>41.7410652525722980499267578125</LatitudeDegrees>
              <LongitudeDegrees>1.77824565209448337554931640625</LongitudeDegrees>
            </Position>
            <AltitudeMeters>495.79998779296875</AltitudeMeters>
            <DistanceMeters>5339.0982058768</DistanceMeters>
          </Trackpoint>
          <Trackpoint>
            <Time>2018-06-21T08:33:38.000Z</Time>
            <Position>
              <LatitudeDegrees>41.74104857258498668670654296875</LatitudeDegrees>
              <LongitudeDegrees>1.778184883296489715576171875</LongitudeDegrees>
            </Position>
            <AltitudeMeters>494.20001220703125</AltitudeMeters>
            <DistanceMeters>5344.4754081953</DistanceMeters>
          </Trackpoint>
          <Trackpoint>
            <Time>2018-06-21T08:33:39.000Z</Time>
            <Position>
              <LatitudeDegrees>41.74105209298431873321533203125</LatitudeDegrees>
              <LongitudeDegrees>1.77816845476627349853515625</LongitudeDegrees>
            </Position>
            <AltitudeMeters>494</AltitudeMeters>
            <DistanceMeters>5345.8976378263</DistanceMeters>
          </Trackpoint>
          <Trackpoint>
            <Time>2018-06-21T08:33:46.000Z</Time>
            <Position>
              <LatitudeDegrees>41.741066761314868927001953125</LatitudeDegrees>
              <LongitudeDegrees>1.77805035375058650970458984375</LongitudeDegrees>
            </Position>
            <AltitudeMeters>492</AltitudeMeters>
            <DistanceMeters>5355.8414468078</DistanceMeters>
          </Trackpoint>
          <Trackpoint>
            <Time>2018-06-21T08:33:52.000Z</Time>
            <Position>
              <LatitudeDegrees>41.7410833574831485748291015625</LatitudeDegrees>
              <LongitudeDegrees>1.77793619222939014434814453125</LongitudeDegrees>
            </Position>
            <AltitudeMeters>490</AltitudeMeters>
            <DistanceMeters>5365.5005746059</DistanceMeters>
          </Trackpoint>
          <Trackpoint>
            <Time>2018-06-21T08:33:59.000Z</Time>
            <Position>
              <LatitudeDegrees>41.74111663363873958587646484375</LatitudeDegrees>
              <LongitudeDegrees>1.7778004892170429229736328125</LongitudeDegrees>
            </Position>
            <AltitudeMeters>488</AltitudeMeters>
            <DistanceMeters>5377.3633192842</DistanceMeters>
          </Trackpoint>
          <Trackpoint>
            <Time>2018-06-21T08:34:05.000Z</Time>
            <Position>
              <LatitudeDegrees>41.74114965833723545074462890625</LatitudeDegrees>
              <LongitudeDegrees>1.77770719863474369049072265625</LongitudeDegrees>
            </Position>
            <AltitudeMeters>487</AltitudeMeters>
            <DistanceMeters>5385.9389208701</DistanceMeters>
          </Trackpoint>
          <Trackpoint>
            <Time>2018-06-21T08:34:11.000Z</Time>
            <Position>
              <LatitudeDegrees>41.74114395864307880401611328125</LatitudeDegrees>
              <LongitudeDegrees>1.77761214785277843475341796875</LongitudeDegrees>
            </Position>
            <AltitudeMeters>485.20001220703125</AltitudeMeters>
            <DistanceMeters>5393.8575603256</DistanceMeters>
          </Trackpoint>
          <Trackpoint>
            <Time>2018-06-21T08:34:18.000Z</Time>
            <Position>
              <LatitudeDegrees>41.74117815680801868438720703125</LatitudeDegrees>
              <LongitudeDegrees>1.77751525305211544036865234375</LongitudeDegrees>
            </Position>
            <AltitudeMeters>484.399993896484375</AltitudeMeters>
            <DistanceMeters>5402.7596921418</DistanceMeters>
          </Trackpoint>
          <Trackpoint>
            <Time>2018-06-21T08:34:23.000Z</Time>
            <Position>
              <LatitudeDegrees>41.74117765389382839202880859375</LatitudeDegrees>
              <LongitudeDegrees>1.77745054475963115692138671875</LongitudeDegrees>
            </Position>
            <AltitudeMeters>483.20001220703125</AltitudeMeters>
            <DistanceMeters>5408.1343748807</DistanceMeters>
          </Trackpoint>
          <Trackpoint>
            <Time>2018-06-21T08:34:30.000Z</Time>
            <Position>
              <LatitudeDegrees>41.74118787981569766998291015625</LatitudeDegrees>
              <LongitudeDegrees>1.7773629538714885711669921875</LongitudeDegrees>
            </Position>
            <AltitudeMeters>482</AltitudeMeters>
            <DistanceMeters>5415.4975656951</DistanceMeters>
          </Trackpoint>
          <Trackpoint>
            <Time>2018-06-21T08:34:35.000Z</Time>
            <Position>
              <LatitudeDegrees>41.7411899752914905548095703125</LatitudeDegrees>
              <LongitudeDegrees>1.7772920429706573486328125</LongitudeDegrees>
            </Position>
            <AltitudeMeters>481</AltitudeMeters>
            <DistanceMeters>5421.3907544757</DistanceMeters>
          </Trackpoint>
          <Trackpoint>
            <Time>2018-06-21T08:34:37.000Z</Time>
            <Position>
              <LatitudeDegrees>41.741194836795330047607421875</LatitudeDegrees>
              <LongitudeDegrees>1.7772598564624786376953125</LongitudeDegrees>
            </Position>
            <AltitudeMeters>480.399993896484375</AltitudeMeters>
            <DistanceMeters>5424.1168786316</DistanceMeters>
          </Trackpoint>
          <Trackpoint>
            <Time>2018-06-21T08:34:44.000Z</Time>
            <Position>
              <LatitudeDegrees>41.7411936633288860321044921875</LatitudeDegrees>
              <LongitudeDegrees>1.777167655527591705322265625</LongitudeDegrees>
            </Position>
            <AltitudeMeters>479</AltitudeMeters>
            <DistanceMeters>5431.7752300536</DistanceMeters>
          </Trackpoint>
          <Trackpoint>
            <Time>2018-06-21T08:34:49.000Z</Time>
            <Position>
              <LatitudeDegrees>41.74117597751319408416748046875</LatitudeDegrees>
              <LongitudeDegrees>1.77711174823343753814697265625</LongitudeDegrees>
            </Position>
            <AltitudeMeters>477.79998779296875</AltitudeMeters>
            <DistanceMeters>5436.8179173596</DistanceMeters>
          </Trackpoint>
          <Trackpoint>
            <Time>2018-06-21T08:34:50.000Z</Time>
            <Position>
              <LatitudeDegrees>41.7411790788173675537109375</LatitudeDegrees>
              <LongitudeDegrees>1.777096576988697052001953125</LongitudeDegrees>
            </Position>
            <AltitudeMeters>477.600006103515625</AltitudeMeters>
            <DistanceMeters>5438.1243186946</DistanceMeters>
          </Trackpoint>
          <Trackpoint>
            <Time>2018-06-21T08:34:54.000Z</Time>
            <Position>
              <LatitudeDegrees>41.74115703441202640533447265625</LatitudeDegrees>
              <LongitudeDegrees>1.77703446708619594573974609375</LongitudeDegrees>
            </Position>
            <AltitudeMeters>476.20001220703125</AltitudeMeters>
            <DistanceMeters>5443.8369972492</DistanceMeters>
          </Trackpoint>
          <Trackpoint>
            <Time>2018-06-21T08:35:02.000Z</Time>
            <Position>
              <LatitudeDegrees>41.7410994507372379302978515625</LatitudeDegrees>
              <LongitudeDegrees>1.77695115096867084503173828125</LongitudeDegrees>
            </Position>
            <AltitudeMeters>473.79998779296875</AltitudeMeters>
            <DistanceMeters>5453.2690867911</DistanceMeters>
          </Trackpoint>
          <Trackpoint>
            <Time>2018-06-21T08:35:09.000Z</Time>
            <Position>
              <LatitudeDegrees>41.741066090762615203857421875</LatitudeDegrees>
              <LongitudeDegrees>1.77688409574329853057861328125</LongitudeDegrees>
            </Position>
            <AltitudeMeters>472.399993896484375</AltitudeMeters>
            <DistanceMeters>5459.9629077712</DistanceMeters>
          </Trackpoint>
          <Trackpoint>
            <Time>2018-06-21T08:35:12.000Z</Time>
            <Position>
              <LatitudeDegrees>41.7410342395305633544921875</LatitudeDegrees>
              <LongitudeDegrees>1.77686565555632114410400390625</LongitudeDegrees>
            </Position>
            <AltitudeMeters>471.399993896484375</AltitudeMeters>
            <DistanceMeters>5463.8252498438</DistanceMeters>
          </Trackpoint>
          <Trackpoint>
            <Time>2018-06-21T08:35:16.000Z</Time>
            <Position>
              <LatitudeDegrees>41.7410310544073581695556640625</LatitudeDegrees>
              <LongitudeDegrees>1.7768090777099132537841796875</LongitudeDegrees>
            </Position>
            <AltitudeMeters>471.20001220703125</AltitudeMeters>
            <DistanceMeters>5468.5384216052</DistanceMeters>
          </Trackpoint>
          <Trackpoint>
            <Time>2018-06-21T08:35:18.000Z</Time>
            <Position>
              <LatitudeDegrees>41.74103717319667339324951171875</LatitudeDegrees>
              <LongitudeDegrees>1.776792146265506744384765625</LongitudeDegrees>
            </Position>
            <AltitudeMeters>471.20001220703125</AltitudeMeters>
            <DistanceMeters>5470.1027587544</DistanceMeters>
          </Trackpoint>
          <Trackpoint>
            <Time>2018-06-21T08:35:26.000Z</Time>
            <Position>
              <LatitudeDegrees>41.74100465141236782073974609375</LatitudeDegrees>
              <LongitudeDegrees>1.7766831815242767333984375</LongitudeDegrees>
            </Position>
            <AltitudeMeters>470</AltitudeMeters>
            <DistanceMeters>5479.8493686363</DistanceMeters>
          </Trackpoint>
          <Trackpoint>
            <Time>2018-06-21T08:35:27.000Z</Time>
            <Position>
              <LatitudeDegrees>41.74099333584308624267578125</LatitudeDegrees>
              <LongitudeDegrees>1.776660047471523284912109375</LongitudeDegrees>
            </Position>
            <AltitudeMeters>469.600006103515625</AltitudeMeters>
            <DistanceMeters>5482.1477582289</DistanceMeters>
          </Trackpoint>
          <Trackpoint>
            <Time>2018-06-21T08:35:29.000Z</Time>
            <Position>
              <LatitudeDegrees>41.7409884743392467498779296875</LatitudeDegrees>
              <LongitudeDegrees>1.77660766057670116424560546875</LongitudeDegrees>
            </Position>
            <AltitudeMeters>469.20001220703125</AltitudeMeters>
            <DistanceMeters>5486.5323942172</DistanceMeters>
          </Trackpoint>
          <Trackpoint>
            <Time>2018-06-21T08:35:33.000Z</Time>
            <Position>
              <LatitudeDegrees>41.74100565724074840545654296875</LatitudeDegrees>
              <LongitudeDegrees>1.7765378393232822418212890625</LongitudeDegrees>
            </Position>
            <AltitudeMeters>469.600006103515625</AltitudeMeters>
            <DistanceMeters>5492.6392932431</DistanceMeters>
          </Trackpoint>
          <Trackpoint>
            <Time>2018-06-21T08:35:37.000Z</Time>
            <Position>
              <LatitudeDegrees>41.74102979712188243865966796875</LatitudeDegrees>
              <LongitudeDegrees>1.77647036500275135040283203125</LongitudeDegrees>
            </Position>
            <AltitudeMeters>469.600006103515625</AltitudeMeters>
            <DistanceMeters>5498.8546505963</DistanceMeters>
          </Trackpoint>
          <Trackpoint>
            <Time>2018-06-21T08:35:43.000Z</Time>
            <Position>
              <LatitudeDegrees>41.74100666306912899017333984375</LatitudeDegrees>
              <LongitudeDegrees>1.77637003362178802490234375</LongitudeDegrees>
            </Position>
            <AltitudeMeters>467.600006103515625</AltitudeMeters>
            <DistanceMeters>5507.5764258722</DistanceMeters>
          </Trackpoint>
          <Trackpoint>
            <Time>2018-06-21T08:35:51.000Z</Time>
            <Position>
              <LatitudeDegrees>41.7410072498023509979248046875</LatitudeDegrees>
              <LongitudeDegrees>1.77621706388890743255615234375</LongitudeDegrees>
            </Position>
            <AltitudeMeters>465.79998779296875</AltitudeMeters>
            <DistanceMeters>5520.2808969891</DistanceMeters>
          </Trackpoint>
          <Trackpoint>
            <Time>2018-06-21T08:35:58.000Z</Time>
            <Position>
              <LatitudeDegrees>41.7410196550190448760986328125</LatitudeDegrees>
              <LongitudeDegrees>1.77612368948757648468017578125</LongitudeDegrees>
            </Position>
            <AltitudeMeters>465</AltitudeMeters>
            <DistanceMeters>5528.1572302204</DistanceMeters>
          </Trackpoint>
          <Trackpoint>
            <Time>2018-06-21T08:35:59.000Z</Time>
            <Position>
              <LatitudeDegrees>41.741021834313869476318359375</LatitudeDegrees>
              <LongitudeDegrees>1.77610206417739391326904296875</LongitudeDegrees>
            </Position>
            <AltitudeMeters>464.79998779296875</AltitudeMeters>
            <DistanceMeters>5529.9677322914</DistanceMeters>
          </Trackpoint>
          <Trackpoint>
            <Time>2018-06-21T08:36:03.000Z</Time>
            <Position>
              <LatitudeDegrees>41.74103314988315105438232421875</LatitudeDegrees>
              <LongitudeDegrees>1.7760037444531917572021484375</LongitudeDegrees>
            </Position>
            <AltitudeMeters>464.600006103515625</AltitudeMeters>
            <DistanceMeters>5538.2301398047</DistanceMeters>
          </Trackpoint>
          <Trackpoint>
            <Time>2018-06-21T08:36:08.000Z</Time>
            <Position>
              <LatitudeDegrees>41.74105728976428508758544921875</LatitudeDegrees>
              <LongitudeDegrees>1.77590668201446533203125</LongitudeDegrees>
            </Position>
            <AltitudeMeters>466.20001220703125</AltitudeMeters>
            <DistanceMeters>5546.7269310325</DistanceMeters>
          </Trackpoint>
          <Trackpoint>
            <Time>2018-06-21T08:36:14.000Z</Time>
            <Position>
              <LatitudeDegrees>41.74108176492154598236083984375</LatitudeDegrees>
              <LongitudeDegrees>1.77581079304218292236328125</LongitudeDegrees>
            </Position>
            <AltitudeMeters>468</AltitudeMeters>
            <DistanceMeters>5555.1431011607</DistanceMeters>
          </Trackpoint>
          <Trackpoint>
            <Time>2018-06-21T08:36:19.000Z</Time>
            <Position>
              <LatitudeDegrees>41.7410932481288909912109375</LatitudeDegrees>
              <LongitudeDegrees>1.77573326043784618377685546875</LongitudeDegrees>
            </Position>
            <AltitudeMeters>469</AltitudeMeters>
            <DistanceMeters>5561.7082024445</DistanceMeters>
          </Trackpoint>
          <Trackpoint>
            <Time>2018-06-21T08:36:24.000Z</Time>
            <Position>
              <LatitudeDegrees>41.74110959284007549285888671875</LatitudeDegrees>
              <LongitudeDegrees>1.7756392993032932281494140625</LongitudeDegrees>
            </Position>
            <AltitudeMeters>468.600006103515625</AltitudeMeters>
            <DistanceMeters>5569.7209325359</DistanceMeters>
          </Trackpoint>
          <Trackpoint>
            <Time>2018-06-21T08:36:34.000Z</Time>
            <Position>
              <LatitudeDegrees>41.74112518317997455596923828125</LatitudeDegrees>
              <LongitudeDegrees>1.77544006146490573883056640625</LongitudeDegrees>
            </Position>
            <AltitudeMeters>466.399993896484375</AltitudeMeters>
            <DistanceMeters>5586.3584793296</DistanceMeters>
          </Trackpoint>
          <Trackpoint>
            <Time>2018-06-21T08:36:41.000Z</Time>
            <Position>
              <LatitudeDegrees>41.74115133471786975860595703125</LatitudeDegrees>
              <LongitudeDegrees>1.7753100581467151641845703125</LongitudeDegrees>
            </Position>
            <AltitudeMeters>465.600006103515625</AltitudeMeters>
            <DistanceMeters>5597.5405841636</DistanceMeters>
          </Trackpoint>
          <Trackpoint>
            <Time>2018-06-21T08:36:42.000Z</Time>
            <Position>
              <LatitudeDegrees>41.74115435220301151275634765625</LatitudeDegrees>
              <LongitudeDegrees>1.7752919532358646392822265625</LongitudeDegrees>
            </Position>
            <AltitudeMeters>465.399993896484375</AltitudeMeters>
            <DistanceMeters>5599.0816584982</DistanceMeters>
          </Trackpoint>
          <Trackpoint>
            <Time>2018-06-21T08:36:49.000Z</Time>
            <Position>
              <LatitudeDegrees>41.7411443777382373809814453125</LatitudeDegrees>
              <LongitudeDegrees>1.77516035735607147216796875</LongitudeDegrees>
            </Position>
            <AltitudeMeters>462.399993896484375</AltitudeMeters>
            <DistanceMeters>5610.067009726</DistanceMeters>
          </Trackpoint>
          <Trackpoint>
            <Time>2018-06-21T08:36:53.000Z</Time>
            <Position>
              <LatitudeDegrees>41.74115049652755260467529296875</LatitudeDegrees>
              <LongitudeDegrees>1.77508517168462276458740234375</LongitudeDegrees>
            </Position>
            <AltitudeMeters>461.20001220703125</AltitudeMeters>
            <DistanceMeters>5616.3481245939</DistanceMeters>
          </Trackpoint>
          <Trackpoint>
            <Time>2018-06-21T08:37:01.000Z</Time>
            <Position>
              <LatitudeDegrees>41.74120045267045497894287109375</LatitudeDegrees>
              <LongitudeDegrees>1.77495206706225872039794921875</LongitudeDegrees>
            </Position>
            <AltitudeMeters>460.79998779296875</AltitudeMeters>
            <DistanceMeters>5628.7220478272</DistanceMeters>
          </Trackpoint>
          <Trackpoint>
            <Time>2018-06-21T08:37:09.000Z</Time>
            <Position>
              <LatitudeDegrees>41.74127924256026744842529296875</LatitudeDegrees>
              <LongitudeDegrees>1.7748708464205265045166015625</LongitudeDegrees>
            </Position>
            <AltitudeMeters>462.79998779296875</AltitudeMeters>
            <DistanceMeters>5639.7860306668</DistanceMeters>
          </Trackpoint>
          <Trackpoint>
            <Time>2018-06-21T08:37:13.000Z</Time>
            <Position>
              <LatitudeDegrees>41.74131696112453937530517578125</LatitudeDegrees>
              <LongitudeDegrees>1.77482717670500278472900390625</LongitudeDegrees>
            </Position>
            <AltitudeMeters>463.399993896484375</AltitudeMeters>
            <DistanceMeters>5645.3335076177</DistanceMeters>
          </Trackpoint>
          <Trackpoint>
            <Time>2018-06-21T08:37:21.000Z</Time>
            <Position>
              <LatitudeDegrees>41.74143254756927490234375</LatitudeDegrees>
              <LongitudeDegrees>1.77478208206593990325927734375</LongitudeDegrees>
            </Position>
            <AltitudeMeters>467.20001220703125</AltitudeMeters>
            <DistanceMeters>5658.7326113138</DistanceMeters>
          </Trackpoint>
          <Trackpoint>
            <Time>2018-06-21T08:37:23.000Z</Time>
            <Position>
              <LatitudeDegrees>41.74146138131618499755859375</LatitudeDegrees>
              <LongitudeDegrees>1.774777472019195556640625</LongitudeDegrees>
            </Position>
            <AltitudeMeters>468.399993896484375</AltitudeMeters>
            <DistanceMeters>5661.9649167519</DistanceMeters>
          </Trackpoint>
          <Trackpoint>
            <Time>2018-06-21T08:37:29.000Z</Time>
            <Position>
              <LatitudeDegrees>41.74152365885674953460693359375</LatitudeDegrees>
              <LongitudeDegrees>1.77469608373939990997314453125</LongitudeDegrees>
            </Position>
            <AltitudeMeters>467.79998779296875</AltitudeMeters>
            <DistanceMeters>5671.6464555495</DistanceMeters>
          </Trackpoint>
          <Trackpoint>
            <Time>2018-06-21T08:37:31.000Z</Time>
            <Position>
              <LatitudeDegrees>41.74155014567077159881591796875</LatitudeDegrees>
              <LongitudeDegrees>1.77466808818280696868896484375</LongitudeDegrees>
            </Position>
            <AltitudeMeters>467.600006103515625</AltitudeMeters>
            <DistanceMeters>5675.4009128111</DistanceMeters>
          </Trackpoint>
          <Trackpoint>
            <Time>2018-06-21T08:37:39.000Z</Time>
            <Position>
              <LatitudeDegrees>41.74164645373821258544921875</LatitudeDegrees>
              <LongitudeDegrees>1.77456784062087535858154296875</LongitudeDegrees>
            </Position>
            <AltitudeMeters>465.79998779296875</AltitudeMeters>
            <DistanceMeters>5688.9734424005</DistanceMeters>
          </Trackpoint>
          <Trackpoint>
            <Time>2018-06-21T08:37:47.000Z</Time>
            <Position>
              <LatitudeDegrees>41.74172515980899333953857421875</LatitudeDegrees>
              <LongitudeDegrees>1.7744517512619495391845703125</LongitudeDegrees>
            </Position>
            <AltitudeMeters>463</AltitudeMeters>
            <DistanceMeters>5701.9997299169</DistanceMeters>
          </Trackpoint>
          <Trackpoint>
            <Time>2018-06-21T08:37:54.000Z</Time>
            <Position>
              <LatitudeDegrees>41.7418055422604084014892578125</LatitudeDegrees>
              <LongitudeDegrees>1.77440129220485687255859375</LongitudeDegrees>
            </Position>
            <AltitudeMeters>462.600006103515625</AltitudeMeters>
            <DistanceMeters>5711.8793096793</DistanceMeters>
          </Trackpoint>
          <Trackpoint>
            <Time>2018-06-21T08:38:01.000Z</Time>
            <Position>
              <LatitudeDegrees>41.741839237511157989501953125</LatitudeDegrees>
              <LongitudeDegrees>1.77431839518249034881591796875</LongitudeDegrees>
            </Position>
            <AltitudeMeters>461.20001220703125</AltitudeMeters>
            <DistanceMeters>5719.7188696336</DistanceMeters>
          </Trackpoint>
          <Trackpoint>
            <Time>2018-06-21T08:38:08.000Z</Time>
            <Position>
              <LatitudeDegrees>41.74185977317392826080322265625</LatitudeDegrees>
              <LongitudeDegrees>1.7742240987718105316162109375</LongitudeDegrees>
            </Position>
            <AltitudeMeters>462</AltitudeMeters>
            <DistanceMeters>5727.8767899196</DistanceMeters>
          </Trackpoint>
          <Trackpoint>
            <Time>2018-06-21T08:38:14.000Z</Time>
            <Position>
              <LatitudeDegrees>41.74184116534888744354248046875</LatitudeDegrees>
              <LongitudeDegrees>1.7741399444639682769775390625</LongitudeDegrees>
            </Position>
            <AltitudeMeters>461</AltitudeMeters>
            <DistanceMeters>5735.1660264912</DistanceMeters>
          </Trackpoint>
          <Trackpoint>
            <Time>2018-06-21T08:38:15.000Z</Time>
            <Position>
              <LatitudeDegrees>41.7418360523879528045654296875</LatitudeDegrees>
              <LongitudeDegrees>1.77412359975278377532958984375</LongitudeDegrees>
            </Position>
            <AltitudeMeters>460.600006103515625</AltitudeMeters>
            <DistanceMeters>5736.63817402</DistanceMeters>
          </Trackpoint>
          <Trackpoint>
            <Time>2018-06-21T08:38:17.000Z</Time>
            <Position>
              <LatitudeDegrees>41.74183077178895473480224609375</LatitudeDegrees>
              <LongitudeDegrees>1.7740953527390956878662109375</LongitudeDegrees>
            </Position>
            <AltitudeMeters>460.399993896484375</AltitudeMeters>
            <DistanceMeters>5739.0571592485</DistanceMeters>
          </Trackpoint>
          <Trackpoint>
            <Time>2018-06-21T08:38:24.000Z</Time>
            <Position>
              <LatitudeDegrees>41.74186446703970432281494140625</LatitudeDegrees>
              <LongitudeDegrees>1.77400206215679645538330078125</LongitudeDegrees>
            </Position>
            <AltitudeMeters>461</AltitudeMeters>
            <DistanceMeters>5747.6642927519</DistanceMeters>
          </Trackpoint>
          <Trackpoint>
            <Time>2018-06-21T08:38:25.000Z</Time>
            <Position>
              <LatitudeDegrees>41.7418712563812732696533203125</LatitudeDegrees>
              <LongitudeDegrees>1.77398814819753170013427734375</LongitudeDegrees>
            </Position>
            <AltitudeMeters>461</AltitudeMeters>
            <DistanceMeters>5749.047902598</DistanceMeters>
          </Trackpoint>
          <Trackpoint>
            <Time>2018-06-21T08:38:27.000Z</Time>
            <Position>
              <LatitudeDegrees>41.74187846481800079345703125</LatitudeDegrees>
              <LongitudeDegrees>1.7739553749561309814453125</LongitudeDegrees>
            </Position>
            <AltitudeMeters>460.600006103515625</AltitudeMeters>
            <DistanceMeters>5751.8860055186</DistanceMeters>
          </Trackpoint>
          <Trackpoint>
            <Time>2018-06-21T08:38:32.000Z</Time>
            <Position>
              <LatitudeDegrees>41.74187335185706615447998046875</LatitudeDegrees>
              <LongitudeDegrees>1.77389024756848812103271484375</LongitudeDegrees>
            </Position>
            <AltitudeMeters>458.600006103515625</AltitudeMeters>
            <DistanceMeters>5757.3249879997</DistanceMeters>
          </Trackpoint>
          <Trackpoint>
            <Time>2018-06-21T08:38:34.000Z</Time>
            <Position>
              <LatitudeDegrees>41.74188273958861827850341796875</LatitudeDegrees>
              <LongitudeDegrees>1.773865185678005218505859375</LongitudeDegrees>
            </Position>
            <AltitudeMeters>458.600006103515625</AltitudeMeters>
            <DistanceMeters>5759.6526576211</DistanceMeters>
          </Trackpoint>
          <Trackpoint>
            <Time>2018-06-21T08:38:38.000Z</Time>
            <Position>
              <LatitudeDegrees>41.74187988974153995513916015625</LatitudeDegrees>
              <LongitudeDegrees>1.77379938773810863494873046875</LongitudeDegrees>
            </Position>
            <AltitudeMeters>456.79998779296875</AltitudeMeters>
            <DistanceMeters>5765.1255694206</DistanceMeters>
          </Trackpoint>
          <Trackpoint>
            <Time>2018-06-21T08:38:46.000Z</Time>
            <Position>
              <LatitudeDegrees>41.74191073514521121978759765625</LatitudeDegrees>
              <LongitudeDegrees>1.77370199002325534820556640625</LongitudeDegrees>
            </Position>
            <AltitudeMeters>455.79998779296875</AltitudeMeters>
            <DistanceMeters>5773.912843382</DistanceMeters>
          </Trackpoint>
          <Trackpoint>
            <Time>2018-06-21T08:38:52.000Z</Time>
            <Position>
              <LatitudeDegrees>41.741917692124843597412109375</LatitudeDegrees>
              <LongitudeDegrees>1.77362906746566295623779296875</LongitudeDegrees>
            </Position>
            <AltitudeMeters>454.399993896484375</AltitudeMeters>
            <DistanceMeters>5780.0182635609</DistanceMeters>
          </Trackpoint>
          <Trackpoint>
            <Time>2018-06-21T08:38:58.000Z</Time>
            <Position>
              <LatitudeDegrees>41.741899587213993072509765625</LatitudeDegrees>
              <LongitudeDegrees>1.773578859865665435791015625</LongitudeDegrees>
            </Position>
            <AltitudeMeters>452.20001220703125</AltitudeMeters>
            <DistanceMeters>5784.649292772</DistanceMeters>
          </Trackpoint>
          <Trackpoint>
            <Time>2018-06-21T08:39:05.000Z</Time>
            <Position>
              <LatitudeDegrees>41.74188743345439434051513671875</LatitudeDegrees>
              <LongitudeDegrees>1.7734948731958866119384765625</LongitudeDegrees>
            </Position>
            <AltitudeMeters>450</AltitudeMeters>
            <DistanceMeters>5791.7540888508</DistanceMeters>
          </Trackpoint>
          <Trackpoint>
            <Time>2018-06-21T08:39:10.000Z</Time>
            <Position>
              <LatitudeDegrees>41.74185834825038909912109375</LatitudeDegrees>
              <LongitudeDegrees>1.77345187403261661529541015625</LongitudeDegrees>
            </Position>
            <AltitudeMeters>447.600006103515625</AltitudeMeters>
            <DistanceMeters>5796.5733581537</DistanceMeters>
          </Trackpoint>
          <Trackpoint>
            <Time>2018-06-21T08:39:17.000Z</Time>
            <Position>
              <LatitudeDegrees>41.74185189418494701385498046875</LatitudeDegrees>
              <LongitudeDegrees>1.77339303307235240936279296875</LongitudeDegrees>
            </Position>
            <AltitudeMeters>446.20001220703125</AltitudeMeters>
            <DistanceMeters>5801.5129195261</DistanceMeters>
          </Trackpoint>
          <Trackpoint>
            <Time>2018-06-21T08:39:22.000Z</Time>
            <Position>
              <LatitudeDegrees>41.741842590272426605224609375</LatitudeDegrees>
              <LongitudeDegrees>1.7733349464833736419677734375</LongitudeDegrees>
            </Position>
            <AltitudeMeters>444.79998779296875</AltitudeMeters>
            <DistanceMeters>5806.4469935114</DistanceMeters>
          </Trackpoint>
          <Trackpoint>
            <Time>2018-06-21T08:39:28.000Z</Time>
            <Position>
              <LatitudeDegrees>41.74185105599462985992431640625</LatitudeDegrees>
              <LongitudeDegrees>1.77327266894280910491943359375</LongitudeDegrees>
            </Position>
            <AltitudeMeters>444.399993896484375</AltitudeMeters>
            <DistanceMeters>5811.703611618</DistanceMeters>
          </Trackpoint>
          <Trackpoint>
            <Time>2018-06-21T08:39:35.000Z</Time>
            <Position>
              <LatitudeDegrees>41.741839237511157989501953125</LatitudeDegrees>
              <LongitudeDegrees>1.7731887660920619964599609375</LongitudeDegrees>
            </Position>
            <AltitudeMeters>442.20001220703125</AltitudeMeters>
            <DistanceMeters>5818.7950498161</DistanceMeters>
          </Trackpoint>
          <Trackpoint>
            <Time>2018-06-21T08:39:42.000Z</Time>
            <Position>
              <LatitudeDegrees>41.74184015952050685882568359375</LatitudeDegrees>
              <LongitudeDegrees>1.77311508916318416595458984375</LongitudeDegrees>
            </Position>
            <AltitudeMeters>441</AltitudeMeters>
            <DistanceMeters>5824.9145046131</DistanceMeters>
          </Trackpoint>
          <Trackpoint>
            <Time>2018-06-21T08:39:48.000Z</Time>
            <Position>
              <LatitudeDegrees>41.74182356335222721099853515625</LatitudeDegrees>
              <LongitudeDegrees>1.7730224691331386566162109375</LongitudeDegrees>
            </Position>
            <AltitudeMeters>438.399993896484375</AltitudeMeters>
            <DistanceMeters>5832.8251575417</DistanceMeters>
          </Trackpoint>
          <Trackpoint>
            <Time>2018-06-21T08:39:51.000Z</Time>
            <Position>
              <LatitudeDegrees>41.741833873093128204345703125</LatitudeDegrees>
              <LongitudeDegrees>1.77297477610409259796142578125</LongitudeDegrees>
            </Position>
            <AltitudeMeters>438.399993896484375</AltitudeMeters>
            <DistanceMeters>5836.9487038242</DistanceMeters>
          </Trackpoint>
          <Trackpoint>
            <Time>2018-06-21T08:39:57.000Z</Time>
            <Position>
              <LatitudeDegrees>41.7417944781482219696044921875</LatitudeDegrees>
              <LongitudeDegrees>1.7729282565414905548095703125</LongitudeDegrees>
            </Position>
            <AltitudeMeters>435</AltitudeMeters>
            <DistanceMeters>5842.792653611</DistanceMeters>
          </Trackpoint>
          <Trackpoint>
            <Time>2018-06-21T08:39:58.000Z</Time>
            <Position>
              <LatitudeDegrees>41.74178383313119411468505859375</LatitudeDegrees>
              <LongitudeDegrees>1.77293169312179088592529296875</LongitudeDegrees>
            </Position>
            <AltitudeMeters>434.399993896484375</AltitudeMeters>
            <DistanceMeters>5844.009589327</DistanceMeters>
          </Trackpoint>
          <Trackpoint>
            <Time>2018-06-21T08:40:05.000Z</Time>
            <Position>
              <LatitudeDegrees>41.7417337931692600250244140625</LatitudeDegrees>
              <LongitudeDegrees>1.7729198746383190155029296875</LongitudeDegrees>
            </Position>
            <AltitudeMeters>431.20001220703125</AltitudeMeters>
            <DistanceMeters>5849.665076111</DistanceMeters>
          </Trackpoint>
          <Trackpoint>
            <Time>2018-06-21T08:40:09.000Z</Time>
            <Position>
              <LatitudeDegrees>41.74169096164405345916748046875</LatitudeDegrees>
              <LongitudeDegrees>1.772941164672374725341796875</LongitudeDegrees>
            </Position>
            <AltitudeMeters>428.79998779296875</AltitudeMeters>
            <DistanceMeters>5854.7496713613</DistanceMeters>
          </Trackpoint>
          <Trackpoint>
            <Time>2018-06-21T08:40:14.000Z</Time>
            <Position>
              <LatitudeDegrees>41.74162474460899829864501953125</LatitudeDegrees>
              <LongitudeDegrees>1.77292817272245883941650390625</LongitudeDegrees>
            </Position>
            <AltitudeMeters>424.399993896484375</AltitudeMeters>
            <DistanceMeters>5862.1982141498</DistanceMeters>
          </Trackpoint>
          <Trackpoint>
            <Time>2018-06-21T08:40:18.000Z</Time>
            <Position>
              <LatitudeDegrees>41.74159909598529338836669921875</LatitudeDegrees>
              <LongitudeDegrees>1.77288324572145938873291015625</LongitudeDegrees>
            </Position>
            <AltitudeMeters>422.20001220703125</AltitudeMeters>
            <DistanceMeters>5866.8979553109</DistanceMeters>
          </Trackpoint>
          <Trackpoint>
            <Time>2018-06-21T08:40:23.000Z</Time>
            <Position>
              <LatitudeDegrees>41.74157193861901760101318359375</LatitudeDegrees>
              <LongitudeDegrees>1.77288106642663478851318359375</LongitudeDegrees>
            </Position>
            <AltitudeMeters>420.399993896484375</AltitudeMeters>
            <DistanceMeters>5869.9269085405</DistanceMeters>
          </Trackpoint>
          <Trackpoint>
            <Time>2018-06-21T08:40:26.000Z</Time>
            <Position>
              <LatitudeDegrees>41.74155366607010364532470703125</LatitudeDegrees>
              <LongitudeDegrees>1.7728658951818943023681640625</LongitudeDegrees>
            </Position>
            <AltitudeMeters>419</AltitudeMeters>
            <DistanceMeters>5872.3196200705</DistanceMeters>
          </Trackpoint>
          <Trackpoint>
            <Time>2018-06-21T08:40:30.000Z</Time>
            <Position>
              <LatitudeDegrees>41.74152215011417865753173828125</LatitudeDegrees>
              <LongitudeDegrees>1.7728246562182903289794921875</LongitudeDegrees>
            </Position>
            <AltitudeMeters>416.600006103515625</AltitudeMeters>
            <DistanceMeters>5877.222482856</DistanceMeters>
          </Trackpoint>
          <Trackpoint>
            <Time>2018-06-21T08:40:35.000Z</Time>
            <Position>
              <LatitudeDegrees>41.741495244204998016357421875</LatitudeDegrees>
              <LongitudeDegrees>1.77278886549174785614013671875</LongitudeDegrees>
            </Position>
            <AltitudeMeters>414.79998779296875</AltitudeMeters>
            <DistanceMeters>5881.4423537957</DistanceMeters>
          </Trackpoint>
          <Trackpoint>
            <Time>2018-06-21T08:40:38.000Z</Time>
            <Position>
              <LatitudeDegrees>41.7414687573909759521484375</LatitudeDegrees>
              <LongitudeDegrees>1.772776879370212554931640625</LongitudeDegrees>
            </Position>
            <AltitudeMeters>413.399993896484375</AltitudeMeters>
            <DistanceMeters>5884.5536625152</DistanceMeters>
          </Trackpoint>
          <Trackpoint>
            <Time>2018-06-21T08:40:44.000Z</Time>
            <Position>
              <LatitudeDegrees>41.74142919480800628662109375</LatitudeDegrees>
              <LongitudeDegrees>1.77270454354584217071533203125</LongitudeDegrees>
            </Position>
            <AltitudeMeters>410.20001220703125</AltitudeMeters>
            <DistanceMeters>5892.0022053036</DistanceMeters>
          </Trackpoint>
          <Trackpoint>
            <Time>2018-06-21T08:40:45.000Z</Time>
            <Position>
              <LatitudeDegrees>41.741422154009342193603515625</LatitudeDegrees>
              <LongitudeDegrees>1.77268736064434051513671875</LongitudeDegrees>
            </Position>
            <AltitudeMeters>409.600006103515625</AltitudeMeters>
            <DistanceMeters>5893.6260225106</DistanceMeters>
          </Trackpoint>
          <Trackpoint>
            <Time>2018-06-21T08:40:49.000Z</Time>
            <Position>
              <LatitudeDegrees>41.74145844765007495880126953125</LatitudeDegrees>
              <LongitudeDegrees>1.77263547666370868682861328125</LongitudeDegrees>
            </Position>
            <AltitudeMeters>410.399993896484375</AltitudeMeters>
            <DistanceMeters>5899.5314568914</DistanceMeters>
          </Trackpoint>
          <Trackpoint>
            <Time>2018-06-21T08:40:57.000Z</Time>
            <Position>
              <LatitudeDegrees>41.74155064858496189117431640625</LatitudeDegrees>
              <LongitudeDegrees>1.77252785302698612213134765625</LongitudeDegrees>
            </Position>
            <AltitudeMeters>413.20001220703125</AltitudeMeters>
            <DistanceMeters>5913.1401981187</DistanceMeters>
          </Trackpoint>
          <Trackpoint>
            <Time>2018-06-21T08:41:04.000Z</Time>
            <Position>
              <LatitudeDegrees>41.74162038601934909820556640625</LatitudeDegrees>
              <LongitudeDegrees>1.77245107479393482208251953125</LongitudeDegrees>
            </Position>
            <AltitudeMeters>416</AltitudeMeters>
            <DistanceMeters>5923.1852005669</DistanceMeters>
          </Trackpoint>
          <Trackpoint>
            <Time>2018-06-21T08:41:10.000Z</Time>
            <Position>
              <LatitudeDegrees>41.741680987179279327392578125</LatitudeDegrees>
              <LongitudeDegrees>1.77238955162465572357177734375</LongitudeDegrees>
            </Position>
            <AltitudeMeters>417</AltitudeMeters>
            <DistanceMeters>5931.6468479316</DistanceMeters>
          </Trackpoint>
          <Trackpoint>
            <Time>2018-06-21T08:41:16.000Z</Time>
            <Position>
              <LatitudeDegrees>41.741722561419010162353515625</LatitudeDegrees>
              <LongitudeDegrees>1.77230187691748142242431640625</LongitudeDegrees>
            </Position>
            <AltitudeMeters>416.20001220703125</AltitudeMeters>
            <DistanceMeters>5940.2738920401</DistanceMeters>
          </Trackpoint>
          <Trackpoint>
            <Time>2018-06-21T08:41:22.000Z</Time>
            <Position>
              <LatitudeDegrees>41.74179053865373134613037109375</LatitudeDegrees>
              <LongitudeDegrees>1.772233061492443084716796875</LongitudeDegrees>
            </Position>
            <AltitudeMeters>417.399993896484375</AltitudeMeters>
            <DistanceMeters>5949.7556345528</DistanceMeters>
          </Trackpoint>
          <Trackpoint>
            <Time>2018-06-21T08:41:26.000Z</Time>
            <Position>
              <LatitudeDegrees>41.74183244816958904266357421875</LatitudeDegrees>
              <LongitudeDegrees>1.772208251059055328369140625</LongitudeDegrees>
            </Position>
            <AltitudeMeters>418.600006103515625</AltitudeMeters>
            <DistanceMeters>5954.855303185</DistanceMeters>
          </Trackpoint>
          <Trackpoint>
            <Time>2018-06-21T08:41:35.000Z</Time>
            <Position>
              <LatitudeDegrees>41.7419220507144927978515625</LatitudeDegrees>
              <LongitudeDegrees>1.77213625051081180572509765625</LongitudeDegrees>
            </Position>
            <AltitudeMeters>420.600006103515625</AltitudeMeters>
            <DistanceMeters>5966.483560349</DistanceMeters>
          </Trackpoint>
          <Trackpoint>
            <Time>2018-06-21T08:41:36.000Z</Time>
            <Position>
              <LatitudeDegrees>41.74192783422768115997314453125</LatitudeDegrees>
              <LongitudeDegrees>1.7721292935311794281005859375</LongitudeDegrees>
            </Position>
            <AltitudeMeters>420.600006103515625</AltitudeMeters>
            <DistanceMeters>5967.344063846</DistanceMeters>
          </Trackpoint>
          <Trackpoint>
            <Time>2018-06-21T08:41:38.000Z</Time>
            <Position>
              <LatitudeDegrees>41.7419389821588993072509765625</LatitudeDegrees>
              <LongitudeDegrees>1.7721024714410305023193359375</LongitudeDegrees>
            </Position>
            <AltitudeMeters>420.399993896484375</AltitudeMeters>
            <DistanceMeters>5969.8938981621</DistanceMeters>
          </Trackpoint>
          <Trackpoint>
            <Time>2018-06-21T08:41:46.000Z</Time>
            <Position>
              <LatitudeDegrees>41.742020957171916961669921875</LatitudeDegrees>
              <LongitudeDegrees>1.7719559557735919952392578125</LongitudeDegrees>
            </Position>
            <AltitudeMeters>420</AltitudeMeters>
            <DistanceMeters>5985.1029230549</DistanceMeters>
          </Trackpoint>
          <Trackpoint>
            <Time>2018-06-21T08:41:47.000Z</Time>
            <Position>
              <LatitudeDegrees>41.742036044597625732421875</LatitudeDegrees>
              <LongitudeDegrees>1.771945059299468994140625</LongitudeDegrees>
            </Position>
            <AltitudeMeters>420.600006103515625</AltitudeMeters>
            <DistanceMeters>5987.0129363751</DistanceMeters>
          </Trackpoint>
          <Trackpoint>
            <Time>2018-06-21T08:41:54.000Z</Time>
            <Position>
              <LatitudeDegrees>41.74208826385438442230224609375</LatitudeDegrees>
              <LongitudeDegrees>1.7718372680246829986572265625</LongitudeDegrees>
            </Position>
            <AltitudeMeters>420.399993896484375</AltitudeMeters>
            <DistanceMeters>5997.6864289814</DistanceMeters>
          </Trackpoint>
          <Trackpoint>
            <Time>2018-06-21T08:41:57.000Z</Time>
            <Position>
              <LatitudeDegrees>41.74211894161999225616455078125</LatitudeDegrees>
              <LongitudeDegrees>1.77178823389112949371337890625</LongitudeDegrees>
            </Position>
            <AltitudeMeters>420.600006103515625</AltitudeMeters>
            <DistanceMeters>6002.9994336834</DistanceMeters>
          </Trackpoint>
          <Trackpoint>
            <Time>2018-06-21T08:42:04.000Z</Time>
            <Position>
              <LatitudeDegrees>41.74217216670513153076171875</LatitudeDegrees>
              <LongitudeDegrees>1.77167306654155254364013671875</LongitudeDegrees>
            </Position>
            <AltitudeMeters>420.20001220703125</AltitudeMeters>
            <DistanceMeters>6014.2495693021</DistanceMeters>
          </Trackpoint>
          <Trackpoint>
            <Time>2018-06-21T08:42:11.000Z</Time>
            <Position>
              <LatitudeDegrees>41.742191277444362640380859375</LatitudeDegrees>
              <LongitudeDegrees>1.771542392671108245849609375</LongitudeDegrees>
            </Position>
            <AltitudeMeters>417.79998779296875</AltitudeMeters>
            <DistanceMeters>6025.3082457727</DistanceMeters>
          </Trackpoint>
          <Trackpoint>
            <Time>2018-06-21T08:42:16.000Z</Time>
            <Position>
              <LatitudeDegrees>41.742232851684093475341796875</LatitudeDegrees>
              <LongitudeDegrees>1.77146083675324916839599609375</LongitudeDegrees>
            </Position>
            <AltitudeMeters>418</AltitudeMeters>
            <DistanceMeters>6033.5103229186</DistanceMeters>
          </Trackpoint>
          <Trackpoint>
            <Time>2018-06-21T08:42:17.000Z</Time>
            <Position>
              <LatitudeDegrees>41.74224148504436016082763671875</LatitudeDegrees>
              <LongitudeDegrees>1.77144373767077922821044921875</LongitudeDegrees>
            </Position>
            <AltitudeMeters>418</AltitudeMeters>
            <DistanceMeters>6035.2260749172</DistanceMeters>
          </Trackpoint>
          <Trackpoint>
            <Time>2018-06-21T08:42:20.000Z</Time>
            <Position>
              <LatitudeDegrees>41.74226579256355762481689453125</LatitudeDegrees>
              <LongitudeDegrees>1.7714020796120166778564453125</LongitudeDegrees>
            </Position>
            <AltitudeMeters>418.20001220703125</AltitudeMeters>
            <DistanceMeters>6039.6189411069</DistanceMeters>
          </Trackpoint>
          <Trackpoint>
            <Time>2018-06-21T08:42:23.000Z</Time>
            <Position>
              <LatitudeDegrees>41.74229747615754604339599609375</LatitudeDegrees>
              <LongitudeDegrees>1.77137634716928005218505859375</LongitudeDegrees>
            </Position>
            <AltitudeMeters>419</AltitudeMeters>
            <DistanceMeters>6043.7435821847</DistanceMeters>
          </Trackpoint>
          <Trackpoint>
            <Time>2018-06-21T08:42:28.000Z</Time>
            <Position>
              <LatitudeDegrees>41.7423486895859241485595703125</LatitudeDegrees>
              <LongitudeDegrees>1.7713175900280475616455078125</LongitudeDegrees>
            </Position>
            <AltitudeMeters>419.79998779296875</AltitudeMeters>
            <DistanceMeters>6051.2476848428</DistanceMeters>
          </Trackpoint>
          <Trackpoint>
            <Time>2018-06-21T08:42:36.000Z</Time>
            <Position>
              <LatitudeDegrees>41.74243929795920848846435546875</LatitudeDegrees>
              <LongitudeDegrees>1.771201752126216888427734375</LongitudeDegrees>
            </Position>
            <AltitudeMeters>421.399993896484375</AltitudeMeters>
            <DistanceMeters>6065.1849002888</DistanceMeters>
          </Trackpoint>
          <Trackpoint>
            <Time>2018-06-21T08:42:42.000Z</Time>
            <Position>
              <LatitudeDegrees>41.742486990988254547119140625</LatitudeDegrees>
              <LongitudeDegrees>1.77109186537563800811767578125</LongitudeDegrees>
            </Position>
            <AltitudeMeters>421.20001220703125</AltitudeMeters>
            <DistanceMeters>6075.7427061036</DistanceMeters>
          </Trackpoint>
          <Trackpoint>
            <Time>2018-06-21T08:42:48.000Z</Time>
            <Position>
              <LatitudeDegrees>41.742501743137836456298828125</LatitudeDegrees>
              <LongitudeDegrees>1.77096898667514324188232421875</LongitudeDegrees>
            </Position>
            <AltitudeMeters>418.600006103515625</AltitudeMeters>
            <DistanceMeters>6086.0787998729</DistanceMeters>
          </Trackpoint>
          <Trackpoint>
            <Time>2018-06-21T08:42:57.000Z</Time>
            <Position>
              <LatitudeDegrees>41.74253233708441257476806640625</LatitudeDegrees>
              <LongitudeDegrees>1.77080738358199596405029296875</LongitudeDegrees>
            </Position>
            <AltitudeMeters>416.20001220703125</AltitudeMeters>
            <DistanceMeters>6099.924684565</DistanceMeters>
          </Trackpoint>
          <Trackpoint>
            <Time>2018-06-21T08:43:04.000Z</Time>
            <Position>
              <LatitudeDegrees>41.7425900883972644805908203125</LatitudeDegrees>
              <LongitudeDegrees>1.77071585319936275482177734375</LongitudeDegrees>
            </Position>
            <AltitudeMeters>417.20001220703125</AltitudeMeters>
            <DistanceMeters>6109.8793849068</DistanceMeters>
          </Trackpoint>
          <Trackpoint>
            <Time>2018-06-21T08:43:05.000Z</Time>
            <Position>
              <LatitudeDegrees>41.74260006286203861236572265625</LatitudeDegrees>
              <LongitudeDegrees>1.77070646546781063079833984375</LongitudeDegrees>
            </Position>
            <AltitudeMeters>417.600006103515625</AltitudeMeters>
            <DistanceMeters>6111.2366378658</DistanceMeters>
          </Trackpoint>
          <Trackpoint>
            <Time>2018-06-21T08:43:12.000Z</Time>
            <Position>
              <LatitudeDegrees>41.74265705980360507965087890625</LatitudeDegrees>
              <LongitudeDegrees>1.77064544521272182464599609375</LongitudeDegrees>
            </Position>
            <AltitudeMeters>419.79998779296875</AltitudeMeters>
            <DistanceMeters>6119.3557239006</DistanceMeters>
          </Trackpoint>
          <Trackpoint>
            <Time>2018-06-21T08:43:15.000Z</Time>
            <Position>
              <LatitudeDegrees>41.74267834983766078948974609375</LatitudeDegrees>
              <LongitudeDegrees>1.77062415517866611480712890625</LongitudeDegrees>
            </Position>
            <AltitudeMeters>420.600006103515625</AltitudeMeters>
            <DistanceMeters>6122.3122614021</DistanceMeters>
          </Trackpoint>
          <Trackpoint>
            <Time>2018-06-21T08:43:22.000Z</Time>
            <Position>
              <LatitudeDegrees>41.7427347600460052490234375</LatitudeDegrees>
              <LongitudeDegrees>1.77052675746381282806396484375</LongitudeDegrees>
            </Position>
            <AltitudeMeters>422.20001220703125</AltitudeMeters>
            <DistanceMeters>6132.5518032664</DistanceMeters>
          </Trackpoint>
          <Trackpoint>
            <Time>2018-06-21T08:43:31.000Z</Time>
            <Position>
              <LatitudeDegrees>41.7428053356707096099853515625</LatitudeDegrees>
              <LongitudeDegrees>1.77039675414562225341796875</LongitudeDegrees>
            </Position>
            <AltitudeMeters>424</AltitudeMeters>
            <DistanceMeters>6145.9029720918</DistanceMeters>
          </Trackpoint>
          <Trackpoint>
            <Time>2018-06-21T08:43:32.000Z</Time>
            <Position>
              <LatitudeDegrees>41.74281363375484943389892578125</LatitudeDegrees>
              <LongitudeDegrees>1.77038778550922870635986328125</LongitudeDegrees>
            </Position>
            <AltitudeMeters>424.399993896484375</AltitudeMeters>
            <DistanceMeters>6147.0898553738</DistanceMeters>
          </Trackpoint>
          <Trackpoint>
            <Time>2018-06-21T08:43:36.000Z</Time>
            <Position>
              <LatitudeDegrees>41.7428448982536792755126953125</LatitudeDegrees>
              <LongitudeDegrees>1.77033045329153537750244140625</LongitudeDegrees>
            </Position>
            <AltitudeMeters>425</AltitudeMeters>
            <DistanceMeters>6152.9876392341</DistanceMeters>
          </Trackpoint>
          <Trackpoint>
            <Time>2018-06-21T08:43:40.000Z</Time>
            <Position>
              <LatitudeDegrees>41.7428861372172832489013671875</LatitudeDegrees>
              <LongitudeDegrees>1.77028435282409191131591796875</LongitudeDegrees>
            </Position>
            <AltitudeMeters>426.399993896484375</AltitudeMeters>
            <DistanceMeters>6158.9652652251</DistanceMeters>
          </Trackpoint>
          <Trackpoint>
            <Time>2018-06-21T08:43:48.000Z</Time>
            <Position>
              <LatitudeDegrees>41.742977164685726165771484375</LatitudeDegrees>
              <LongitudeDegrees>1.77025325596332550048828125</LongitudeDegrees>
            </Position>
            <AltitudeMeters>430.399993896484375</AltitudeMeters>
            <DistanceMeters>6169.4207951223</DistanceMeters>
          </Trackpoint>
          <Trackpoint>
            <Time>2018-06-21T08:43:51.000Z</Time>
            <Position>
              <LatitudeDegrees>41.74300373531877994537353515625</LatitudeDegrees>
              <LongitudeDegrees>1.77022936753928661346435546875</LongitudeDegrees>
            </Position>
            <AltitudeMeters>431.399993896484375</AltitudeMeters>
            <DistanceMeters>6172.9814449685</DistanceMeters>
          </Trackpoint>
          <Trackpoint>
            <Time>2018-06-21T08:43:53.000Z</Time>
            <Position>
              <LatitudeDegrees>41.743020750582218170166015625</LatitudeDegrees>
              <LongitudeDegrees>1.7702128551900386810302734375</LongitudeDegrees>
            </Position>
            <AltitudeMeters>432</AltitudeMeters>
            <DistanceMeters>6175.3207239867</DistanceMeters>
          </Trackpoint>
          <Trackpoint>
            <Time>2018-06-21T08:44:00.000Z</Time>
            <Position>
              <LatitudeDegrees>41.74309543333947658538818359375</LatitudeDegrees>
              <LongitudeDegrees>1.77012895233929157257080078125</LongitudeDegrees>
            </Position>
            <AltitudeMeters>434.20001220703125</AltitudeMeters>
            <DistanceMeters>6186.1675145714</DistanceMeters>
          </Trackpoint>
          <Trackpoint>
            <Time>2018-06-21T08:44:02.000Z</Time>
            <Position>
              <LatitudeDegrees>41.743106581270694732666015625</LatitudeDegrees>
              <LongitudeDegrees>1.77009366452693939208984375</LongitudeDegrees>
            </Position>
            <AltitudeMeters>434</AltitudeMeters>
            <DistanceMeters>6189.3505549058</DistanceMeters>
          </Trackpoint>
          <Trackpoint>
            <Time>2018-06-21T08:44:06.000Z</Time>
            <Position>
              <LatitudeDegrees>41.74313348717987537384033203125</LatitudeDegrees>
              <LongitudeDegrees>1.7700294591486454010009765625</LongitudeDegrees>
            </Position>
            <AltitudeMeters>434.20001220703125</AltitudeMeters>
            <DistanceMeters>6195.4663195048</DistanceMeters>
          </Trackpoint>
          <Trackpoint>
            <Time>2018-06-21T08:44:15.000Z</Time>
            <Position>
              <LatitudeDegrees>41.74316198565065860748291015625</LatitudeDegrees>
              <LongitudeDegrees>1.76987397484481334686279296875</LongitudeDegrees>
            </Position>
            <AltitudeMeters>432.600006103515625</AltitudeMeters>
            <DistanceMeters>6208.762930603</DistanceMeters>
          </Trackpoint>
          <Trackpoint>
            <Time>2018-06-21T08:44:22.000Z</Time>
            <Position>
              <LatitudeDegrees>41.7431878857314586639404296875</LatitudeDegrees>
              <LongitudeDegrees>1.7697454802691936492919921875</LongitudeDegrees>
            </Position>
            <AltitudeMeters>434.20001220703125</AltitudeMeters>
            <DistanceMeters>6219.8162981571</DistanceMeters>
          </Trackpoint>
          <Trackpoint>
            <Time>2018-06-21T08:44:28.000Z</Time>
            <Position>
              <LatitudeDegrees>41.7432143725454807281494140625</LatitudeDegrees>
              <LongitudeDegrees>1.76963995210826396942138671875</LongitudeDegrees>
            </Position>
            <AltitudeMeters>435.20001220703125</AltitudeMeters>
            <DistanceMeters>6229.0627441647</DistanceMeters>
          </Trackpoint>
          <Trackpoint>
            <Time>2018-06-21T08:44:36.000Z</Time>
            <Position>
              <LatitudeDegrees>41.74325318075716495513916015625</LatitudeDegrees>
              <LongitudeDegrees>1.76949997432529926300048828125</LongitudeDegrees>
            </Position>
            <AltitudeMeters>435.20001220703125</AltitudeMeters>
            <DistanceMeters>6241.4640034523</DistanceMeters>
          </Trackpoint>
          <Trackpoint>
            <Time>2018-06-21T08:44:44.000Z</Time>
            <Position>
              <LatitudeDegrees>41.74328737892210483551025390625</LatitudeDegrees>
              <LongitudeDegrees>1.76936167292296886444091796875</LongitudeDegrees>
            </Position>
            <AltitudeMeters>435.399993896484375</AltitudeMeters>
            <DistanceMeters>6253.563781524</DistanceMeters>
          </Trackpoint>
          <Trackpoint>
            <Time>2018-06-21T08:44:46.000Z</Time>
            <Position>
              <LatitudeDegrees>41.74329064786434173583984375</LatitudeDegrees>
              <LongitudeDegrees>1.769330240786075592041015625</LongitudeDegrees>
            </Position>
            <AltitudeMeters>435.399993896484375</AltitudeMeters>
            <DistanceMeters>6256.1972390819</DistanceMeters>
          </Trackpoint>
          <Trackpoint>
            <Time>2018-06-21T08:44:53.000Z</Time>
            <Position>
              <LatitudeDegrees>41.743242032825946807861328125</LatitudeDegrees>
              <LongitudeDegrees>1.76919755525887012481689453125</LongitudeDegrees>
            </Position>
            <AltitudeMeters>435.600006103515625</AltitudeMeters>
            <DistanceMeters>6268.4729840978</DistanceMeters>
          </Trackpoint>
          <Trackpoint>
            <Time>2018-06-21T08:45:00.000Z</Time>
            <Position>
              <LatitudeDegrees>41.7431875504553318023681640625</LatitudeDegrees>
              <LongitudeDegrees>1.76910636015236377716064453125</LongitudeDegrees>
            </Position>
            <AltitudeMeters>435</AltitudeMeters>
            <DistanceMeters>6278.1750208351</DistanceMeters>
          </Trackpoint>
          <Trackpoint>
            <Time>2018-06-21T08:45:03.000Z</Time>
            <Position>
              <LatitudeDegrees>41.74316517077386379241943359375</LatitudeDegrees>
              <LongitudeDegrees>1.769060678780078887939453125</LongitudeDegrees>
            </Position>
            <AltitudeMeters>433.79998779296875</AltitudeMeters>
            <DistanceMeters>6282.7144739349</DistanceMeters>
          </Trackpoint>
          <Trackpoint>
            <Time>2018-06-21T08:45:07.000Z</Time>
            <Position>
              <LatitudeDegrees>41.7431788332760334014892578125</LatitudeDegrees>
              <LongitudeDegrees>1.76902555860579013824462890625</LongitudeDegrees>
            </Position>
            <AltitudeMeters>434.79998779296875</AltitudeMeters>
            <DistanceMeters>6286.0035515533</DistanceMeters>
          </Trackpoint>
          <Trackpoint>
            <Time>2018-06-21T08:45:13.000Z</Time>
            <Position>
              <LatitudeDegrees>41.7432569526135921478271484375</LatitudeDegrees>
              <LongitudeDegrees>1.76907685585319995880126953125</LongitudeDegrees>
            </Position>
            <AltitudeMeters>435.600006103515625</AltitudeMeters>
            <DistanceMeters>6295.6860230168</DistanceMeters>
          </Trackpoint>
          <Trackpoint>
            <Time>2018-06-21T08:45:20.000Z</Time>
            <Position>
              <LatitudeDegrees>41.74332124181091785430908203125</LatitudeDegrees>
              <LongitudeDegrees>1.76915648393332958221435546875</LongitudeDegrees>
            </Position>
            <AltitudeMeters>435.399993896484375</AltitudeMeters>
            <DistanceMeters>6305.4293896657</DistanceMeters>
          </Trackpoint>
          <Trackpoint>
            <Time>2018-06-21T08:45:25.000Z</Time>
            <Position>
              <LatitudeDegrees>41.74336885102093219757080078125</LatitudeDegrees>
              <LongitudeDegrees>1.76921364851295948028564453125</LongitudeDegrees>
            </Position>
            <AltitudeMeters>435.20001220703125</AltitudeMeters>
            <DistanceMeters>6312.5443463447</DistanceMeters>
          </Trackpoint>
          <Trackpoint>
            <Time>2018-06-21T08:45:30.000Z</Time>
            <Position>
              <LatitudeDegrees>41.74340304918587207794189453125</LatitudeDegrees>
              <LongitudeDegrees>1.76925555802881717681884765625</LongitudeDegrees>
            </Position>
            <AltitudeMeters>435</AltitudeMeters>
            <DistanceMeters>6317.7021176855</DistanceMeters>
          </Trackpoint>
          <Trackpoint>
            <Time>2018-06-21T08:45:37.000Z</Time>
            <Position>
              <LatitudeDegrees>41.74346826039254665374755859375</LatitudeDegrees>
              <LongitudeDegrees>1.7692975513637065887451171875</LongitudeDegrees>
            </Position>
            <AltitudeMeters>434.600006103515625</AltitudeMeters>
            <DistanceMeters>6325.7553163681</DistanceMeters>
          </Trackpoint>
          <Trackpoint>
            <Time>2018-06-21T08:45:43.000Z</Time>
            <Position>
              <LatitudeDegrees>41.74353196285665035247802734375</LatitudeDegrees>
              <LongitudeDegrees>1.76931875757873058319091796875</LongitudeDegrees>
            </Position>
            <AltitudeMeters>433.79998779296875</AltitudeMeters>
            <DistanceMeters>6333.0606398916</DistanceMeters>
          </Trackpoint>
          <Trackpoint>
            <Time>2018-06-21T08:45:51.000Z</Time>
            <Position>
              <LatitudeDegrees>41.74356465227901935577392578125</LatitudeDegrees>
              <LongitudeDegrees>1.76937089301645755767822265625</LongitudeDegrees>
            </Position>
            <AltitudeMeters>434</AltitudeMeters>
            <DistanceMeters>6338.7161266757</DistanceMeters>
          </Trackpoint>
          <Trackpoint>
            <Time>2018-06-21T08:45:58.000Z</Time>
            <Position>
              <LatitudeDegrees>41.74356498755514621734619140625</LatitudeDegrees>
              <LongitudeDegrees>1.76945219747722148895263671875</LongitudeDegrees>
            </Position>
            <AltitudeMeters>434.20001220703125</AltitudeMeters>
            <DistanceMeters>6345.46904353</DistanceMeters>
          </Trackpoint>
          <Trackpoint>
            <Time>2018-06-21T08:46:04.000Z</Time>
            <Position>
              <LatitudeDegrees>41.7435878701508045196533203125</LatitudeDegrees>
              <LongitudeDegrees>1.76949955523014068603515625</LongitudeDegrees>
            </Position>
            <AltitudeMeters>434</AltitudeMeters>
            <DistanceMeters>6350.1553155998</DistanceMeters>
          </Trackpoint>
          <Trackpoint>
            <Time>2018-06-21T08:46:12.000Z</Time>
            <Position>
              <LatitudeDegrees>41.7435975931584835052490234375</LatitudeDegrees>
              <LongitudeDegrees>1.7695580609142780303955078125</LongitudeDegrees>
            </Position>
            <AltitudeMeters>434</AltitudeMeters>
            <DistanceMeters>6355.1331193085</DistanceMeters>
          </Trackpoint>
          <Trackpoint>
            <Time>2018-06-21T08:46:17.000Z</Time>
            <Position>
              <LatitudeDegrees>41.74361729063093662261962890625</LatitudeDegrees>
              <LongitudeDegrees>1.76960474811494350433349609375</LongitudeDegrees>
            </Position>
            <AltitudeMeters>433.79998779296875</AltitudeMeters>
            <DistanceMeters>6359.5862134991</DistanceMeters>
          </Trackpoint>
          <Trackpoint>
            <Time>2018-06-21T08:46:22.000Z</Time>
            <Position>
              <LatitudeDegrees>41.74361653625965118408203125</LatitudeDegrees>
              <LongitudeDegrees>1.76964045502245426177978515625</LongitudeDegrees>
            </Position>
            <AltitudeMeters>433.79998779296875</AltitudeMeters>
            <DistanceMeters>6362.5518996687</DistanceMeters>
          </Trackpoint>
          <Trackpoint>
            <Time>2018-06-21T08:46:27.000Z</Time>
            <Position>
              <LatitudeDegrees>41.74360438250005245208740234375</LatitudeDegrees>
              <LongitudeDegrees>1.76969409920275211334228515625</LongitudeDegrees>
            </Position>
            <AltitudeMeters>433.79998779296875</AltitudeMeters>
            <DistanceMeters>6367.2072389115</DistanceMeters>
          </Trackpoint>
          <Trackpoint>
            <Time>2018-06-21T08:46:32.000Z</Time>
            <Position>
              <LatitudeDegrees>41.7436317913234233856201171875</LatitudeDegrees>
              <LongitudeDegrees>1.76974656991660594940185546875</LongitudeDegrees>
            </Position>
            <AltitudeMeters>433.600006103515625</AltitudeMeters>
            <DistanceMeters>6372.52703774</DistanceMeters>
          </Trackpoint>
          <Trackpoint>
            <Time>2018-06-21T08:46:39.000Z</Time>
            <Position>
              <LatitudeDegrees>41.74362885765731334686279296875</LatitudeDegrees>
              <LongitudeDegrees>1.769815385341644287109375</LongitudeDegrees>
            </Position>
            <AltitudeMeters>433.600006103515625</AltitudeMeters>
            <DistanceMeters>6378.2507705551</DistanceMeters>
          </Trackpoint>
          <Trackpoint>
            <Time>2018-06-21T08:46:44.000Z</Time>
            <Position>
              <LatitudeDegrees>41.74363254569470882415771484375</LatitudeDegrees>
              <LongitudeDegrees>1.7698574624955654144287109375</LongitudeDegrees>
            </Position>
            <AltitudeMeters>433.399993896484375</AltitudeMeters>
            <DistanceMeters>6381.769326339</DistanceMeters>
          </Trackpoint>
          <Trackpoint>
            <Time>2018-06-21T08:46:49.000Z</Time>
            <Position>
              <LatitudeDegrees>41.7436173744499683380126953125</LatitudeDegrees>
              <LongitudeDegrees>1.76991529762744903564453125</LongitudeDegrees>
            </Position>
            <AltitudeMeters>434.79998779296875</AltitudeMeters>
            <DistanceMeters>6386.8610205041</DistanceMeters>
          </Trackpoint>
          <Trackpoint>
            <Time>2018-06-21T08:46:53.000Z</Time>
            <Position>
              <LatitudeDegrees>41.74361745826900005340576171875</LatitudeDegrees>
              <LongitudeDegrees>1.76998595707118511199951171875</LongitudeDegrees>
            </Position>
            <AltitudeMeters>437.20001220703125</AltitudeMeters>
            <DistanceMeters>6392.7296414287</DistanceMeters>
          </Trackpoint>
          <Trackpoint>
            <Time>2018-06-21T08:47:04.000Z</Time>
            <Position>
              <LatitudeDegrees>41.743614859879016876220703125</LatitudeDegrees>
              <LongitudeDegrees>1.7701595462858676910400390625</LongitudeDegrees>
            </Position>
            <AltitudeMeters>443</AltitudeMeters>
            <DistanceMeters>6407.148673298</DistanceMeters>
          </Trackpoint>
          <Trackpoint>
            <Time>2018-06-21T08:47:05.000Z</Time>
            <Position>
              <LatitudeDegrees>41.7436118423938751220703125</LatitudeDegrees>
              <LongitudeDegrees>1.77017119713127613067626953125</LongitudeDegrees>
            </Position>
            <AltitudeMeters>443.399993896484375</AltitudeMeters>
            <DistanceMeters>6408.1765443716</DistanceMeters>
          </Trackpoint>
          <Trackpoint>
            <Time>2018-06-21T08:47:10.000Z</Time>
            <Position>
              <LatitudeDegrees>41.74362466670572757720947265625</LatitudeDegrees>
              <LongitudeDegrees>1.7702356539666652679443359375</LongitudeDegrees>
            </Position>
            <AltitudeMeters>445.600006103515625</AltitudeMeters>
            <DistanceMeters>6413.7175063737</DistanceMeters>
          </Trackpoint>
          <Trackpoint>
            <Time>2018-06-21T08:47:15.000Z</Time>
            <Position>
              <LatitudeDegrees>41.743635646998882293701171875</LatitudeDegrees>
              <LongitudeDegrees>1.77031234838068485260009765625</LongitudeDegrees>
            </Position>
            <AltitudeMeters>448</AltitudeMeters>
            <DistanceMeters>6420.2030361189</DistanceMeters>
          </Trackpoint>
          <Trackpoint>
            <Time>2018-06-21T08:47:23.000Z</Time>
            <Position>
              <LatitudeDegrees>41.74363195896148681640625</LatitudeDegrees>
              <LongitudeDegrees>1.77040488459169864654541015625</LongitudeDegrees>
            </Position>
            <AltitudeMeters>449.79998779296875</AltitudeMeters>
            <DistanceMeters>6427.8984400277</DistanceMeters>
          </Trackpoint>
          <Trackpoint>
            <Time>2018-06-21T08:47:27.000Z</Time>
            <Position>
              <LatitudeDegrees>41.743620894849300384521484375</LatitudeDegrees>
              <LongitudeDegrees>1.77044075913727283477783203125</LongitudeDegrees>
            </Position>
            <AltitudeMeters>450.399993896484375</AltitudeMeters>
            <DistanceMeters>6431.1209526981</DistanceMeters>
          </Trackpoint>
          <Trackpoint>
            <Time>2018-06-21T08:47:32.000Z</Time>
            <Position>
              <LatitudeDegrees>41.7435928992927074432373046875</LatitudeDegrees>
              <LongitudeDegrees>1.77047747187316417694091796875</LongitudeDegrees>
            </Position>
            <AltitudeMeters>451</AltitudeMeters>
            <DistanceMeters>6435.4797691473</DistanceMeters>
          </Trackpoint>
          <Trackpoint>
            <Time>2018-06-21T08:47:38.000Z</Time>
            <Position>
              <LatitudeDegrees>41.743586696684360504150390625</LatitudeDegrees>
              <LongitudeDegrees>1.77054134197533130645751953125</LongitudeDegrees>
            </Position>
            <AltitudeMeters>452.20001220703125</AltitudeMeters>
            <DistanceMeters>6440.8283467315</DistanceMeters>
          </Trackpoint>
          <Trackpoint>
            <Time>2018-06-21T08:47:44.000Z</Time>
            <Position>
              <LatitudeDegrees>41.74360957928001880645751953125</LatitudeDegrees>
              <LongitudeDegrees>1.77060018293559551239013671875</LongitudeDegrees>
            </Position>
            <AltitudeMeters>453.600006103515625</AltitudeMeters>
            <DistanceMeters>6446.3382575298</DistanceMeters>
          </Trackpoint>
          <Trackpoint>
            <Time>2018-06-21T08:47:52.000Z</Time>
            <Position>
              <LatitudeDegrees>41.74364813603460788726806640625</LatitudeDegrees>
              <LongitudeDegrees>1.77066338248550891876220703125</LongitudeDegrees>
            </Position>
            <AltitudeMeters>455.20001220703125</AltitudeMeters>
            <DistanceMeters>6453.1178658591</DistanceMeters>
          </Trackpoint>
          <Trackpoint>
            <Time>2018-06-21T08:47:58.000Z</Time>
            <Position>
              <LatitudeDegrees>41.74366607330739498138427734375</LatitudeDegrees>
              <LongitudeDegrees>1.77072356455028057098388671875</LongitudeDegrees>
            </Position>
            <AltitudeMeters>456.79998779296875</AltitudeMeters>
            <DistanceMeters>6458.5001037982</DistanceMeters>
          </Trackpoint>
          <Trackpoint>
            <Time>2018-06-21T08:48:05.000Z</Time>
            <Position>
              <LatitudeDegrees>41.74363673664629459381103515625</LatitudeDegrees>
              <LongitudeDegrees>1.7707742750644683837890625</LongitudeDegrees>
            </Position>
            <AltitudeMeters>458.20001220703125</AltitudeMeters>
            <DistanceMeters>6463.828383102</DistanceMeters>
          </Trackpoint>
          <Trackpoint>
            <Time>2018-06-21T08:48:12.000Z</Time>
            <Position>
              <LatitudeDegrees>41.74358946271240711212158203125</LatitudeDegrees>
              <LongitudeDegrees>1.7708471976220607757568359375</LongitudeDegrees>
            </Position>
            <AltitudeMeters>460.399993896484375</AltitudeMeters>
            <DistanceMeters>6471.8506866874</DistanceMeters>
          </Trackpoint>
          <Trackpoint>
            <Time>2018-06-21T08:48:18.000Z</Time>
            <Position>
              <LatitudeDegrees>41.7435868643224239349365234375</LatitudeDegrees>
              <LongitudeDegrees>1.77091215737164020538330078125</LongitudeDegrees>
            </Position>
            <AltitudeMeters>462.600006103515625</AltitudeMeters>
            <DistanceMeters>6477.2538558633</DistanceMeters>
          </Trackpoint>
          <Trackpoint>
            <Time>2018-06-21T08:48:24.000Z</Time>
            <Position>
              <LatitudeDegrees>41.7436091601848602294921875</LatitudeDegrees>
              <LongitudeDegrees>1.77094534970819950103759765625</LongitudeDegrees>
            </Position>
            <AltitudeMeters>464</AltitudeMeters>
            <DistanceMeters>6480.9635507969</DistanceMeters>
          </Trackpoint>
          <Trackpoint>
            <Time>2018-06-21T08:48:28.000Z</Time>
            <Position>
              <LatitudeDegrees>41.7436133511364459991455078125</LatitudeDegrees>
              <LongitudeDegrees>1.77098507992923259735107421875</LongitudeDegrees>
            </Position>
            <AltitudeMeters>465.399993896484375</AltitudeMeters>
            <DistanceMeters>6484.2949114723</DistanceMeters>
          </Trackpoint>
          <Trackpoint>
            <Time>2018-06-21T08:48:32.000Z</Time>
            <Position>
              <LatitudeDegrees>41.74361645244061946868896484375</LatitudeDegrees>
              <LongitudeDegrees>1.77103377878665924072265625</LongitudeDegrees>
            </Position>
            <AltitudeMeters>467.20001220703125</AltitudeMeters>
            <DistanceMeters>6488.3533421338</DistanceMeters>
          </Trackpoint>
          <Trackpoint>
            <Time>2018-06-21T08:48:37.000Z</Time>
            <Position>
              <LatitudeDegrees>41.74362416379153728485107421875</LatitudeDegrees>
              <LongitudeDegrees>1.77109488286077976226806640625</LongitudeDegrees>
            </Position>
            <AltitudeMeters>469.399993896484375</AltitudeMeters>
            <DistanceMeters>6493.4988434829</DistanceMeters>
          </Trackpoint>
          <Trackpoint>
            <Time>2018-06-21T08:48:42.000Z</Time>
            <Position>
              <LatitudeDegrees>41.74362198449671268463134765625</LatitudeDegrees>
              <LongitudeDegrees>1.77116445265710353851318359375</LongitudeDegrees>
            </Position>
            <AltitudeMeters>471.399993896484375</AltitudeMeters>
            <DistanceMeters>6499.2822164735</DistanceMeters>
          </Trackpoint>
          <Trackpoint>
            <Time>2018-06-21T08:48:49.000Z</Time>
            <Position>
              <LatitudeDegrees>41.7436049692332744598388671875</LatitudeDegrees>
              <LongitudeDegrees>1.77123226225376129150390625</LongitudeDegrees>
            </Position>
            <AltitudeMeters>472.600006103515625</AltitudeMeters>
            <DistanceMeters>6505.2234763415</DistanceMeters>
          </Trackpoint>
          <Trackpoint>
            <Time>2018-06-21T08:48:54.000Z</Time>
            <Position>
              <LatitudeDegrees>41.74361075274646282196044921875</LatitudeDegrees>
              <LongitudeDegrees>1.771300993859767913818359375</LongitudeDegrees>
            </Position>
            <AltitudeMeters>474.399993896484375</AltitudeMeters>
            <DistanceMeters>6510.9676820591</DistanceMeters>
          </Trackpoint>
          <Trackpoint>
            <Time>2018-06-21T08:48:58.000Z</Time>
            <Position>
              <LatitudeDegrees>41.74363506026566028594970703125</LatitudeDegrees>
              <LongitudeDegrees>1.7713457532227039337158203125</LongitudeDegrees>
            </Position>
            <AltitudeMeters>476</AltitudeMeters>
            <DistanceMeters>6515.5664252604</DistanceMeters>
          </Trackpoint>
          <Trackpoint>
            <Time>2018-06-21T08:49:04.000Z</Time>
            <Position>
              <LatitudeDegrees>41.743706054985523223876953125</LatitudeDegrees>
              <LongitudeDegrees>1.77137819118797779083251953125</LongitudeDegrees>
            </Position>
            <AltitudeMeters>478.20001220703125</AltitudeMeters>
            <DistanceMeters>6523.9152671005</DistanceMeters>
          </Trackpoint>
          <Trackpoint>
            <Time>2018-06-21T08:49:08.000Z</Time>
            <Position>
              <LatitudeDegrees>41.74372977577149868011474609375</LatitudeDegrees>
              <LongitudeDegrees>1.7714084498584270477294921875</LongitudeDegrees>
            </Position>
            <AltitudeMeters>479.399993896484375</AltitudeMeters>
            <DistanceMeters>6527.5598853863</DistanceMeters>
          </Trackpoint>
          <Trackpoint>
            <Time>2018-06-21T08:49:13.000Z</Time>
            <Position>
              <LatitudeDegrees>41.74378224648535251617431640625</LatitudeDegrees>
              <LongitudeDegrees>1.77143166773021221160888671875</LongitudeDegrees>
            </Position>
            <AltitudeMeters>481</AltitudeMeters>
            <DistanceMeters>6533.7102504343</DistanceMeters>
          </Trackpoint>
          <Trackpoint>
            <Time>2018-06-21T08:49:21.000Z</Time>
            <Position>
              <LatitudeDegrees>41.74385265447199344635009765625</LatitudeDegrees>
              <LongitudeDegrees>1.77149738185107707977294921875</LongitudeDegrees>
            </Position>
            <AltitudeMeters>484</AltitudeMeters>
            <DistanceMeters>6543.2593714374</DistanceMeters>
          </Trackpoint>
          <Trackpoint>
            <Time>2018-06-21T08:49:28.000Z</Time>
            <Position>
              <LatitudeDegrees>41.74390026368200778961181640625</LatitudeDegrees>
              <LongitudeDegrees>1.7715405486524105072021484375</LongitudeDegrees>
            </Position>
            <AltitudeMeters>486</AltitudeMeters>
            <DistanceMeters>6549.6579936794</DistanceMeters>
          </Trackpoint>
          <Trackpoint>
            <Time>2018-06-21T08:49:33.000Z</Time>
            <Position>
              <LatitudeDegrees>41.7439083941280841827392578125</LatitudeDegrees>
              <LongitudeDegrees>1.7715797759592533111572265625</LongitudeDegrees>
            </Position>
            <AltitudeMeters>486.20001220703125</AltitudeMeters>
            <DistanceMeters>6553.0391291068</DistanceMeters>
          </Trackpoint>
          <Trackpoint>
            <Time>2018-06-21T08:49:39.000Z</Time>
            <Position>
              <LatitudeDegrees>41.74388417042791843414306640625</LatitudeDegrees>
              <LongitudeDegrees>1.7716513574123382568359375</LongitudeDegrees>
            </Position>
            <AltitudeMeters>485.79998779296875</AltitudeMeters>
            <DistanceMeters>6559.5669871582</DistanceMeters>
          </Trackpoint>
          <Trackpoint>
            <Time>2018-06-21T08:49:40.000Z</Time>
            <Position>
              <LatitudeDegrees>41.743876039981842041015625</LatitudeDegrees>
              <LongitudeDegrees>1.77166719920933246612548828125</LongitudeDegrees>
            </Position>
            <AltitudeMeters>485.600006103515625</AltitudeMeters>
            <DistanceMeters>6561.1684058136</DistanceMeters>
          </Trackpoint>
          <Trackpoint>
            <Time>2018-06-21T08:49:46.000Z</Time>
            <Position>
              <LatitudeDegrees>41.7438242398202419281005859375</LatitudeDegrees>
              <LongitudeDegrees>1.7717329971492290496826171875</LongitudeDegrees>
            </Position>
            <AltitudeMeters>484.600006103515625</AltitudeMeters>
            <DistanceMeters>6569.1115251073</DistanceMeters>
          </Trackpoint>
          <Trackpoint>
            <Time>2018-06-21T08:49:48.000Z</Time>
            <Position>
              <LatitudeDegrees>41.7438074760138988494873046875</LatitudeDegrees>
              <LongitudeDegrees>1.77174883894622325897216796875</LongitudeDegrees>
            </Position>
            <AltitudeMeters>484.20001220703125</AltitudeMeters>
            <DistanceMeters>6571.3961222676</DistanceMeters>
          </Trackpoint>
          <Trackpoint>
            <Time>2018-06-21T08:49:53.000Z</Time>
            <Position>
              <LatitudeDegrees>41.7437581904232501983642578125</LatitudeDegrees>
              <LongitudeDegrees>1.77178974263370037078857421875</LongitudeDegrees>
            </Position>
            <AltitudeMeters>483.20001220703125</AltitudeMeters>
            <DistanceMeters>6577.8481492674</DistanceMeters>
          </Trackpoint>
          <Trackpoint>
            <Time>2018-06-21T08:50:00.000Z</Time>
            <Position>
              <LatitudeDegrees>41.743706054985523223876953125</LatitudeDegrees>
              <LongitudeDegrees>1.77186258137226104736328125</LongitudeDegrees>
            </Position>
            <AltitudeMeters>482.20001220703125</AltitudeMeters>
            <DistanceMeters>6586.229914877</DistanceMeters>
          </Trackpoint>
          <Trackpoint>
            <Time>2018-06-21T08:50:01.000Z</Time>
            <Position>
              <LatitudeDegrees>41.7437008582055568695068359375</LatitudeDegrees>
              <LongitudeDegrees>1.77187255583703517913818359375</LongitudeDegrees>
            </Position>
            <AltitudeMeters>482</AltitudeMeters>
            <DistanceMeters>6587.2400627069</DistanceMeters>
          </Trackpoint>
          <Trackpoint>
            <Time>2018-06-21T08:50:09.000Z</Time>
            <Position>
              <LatitudeDegrees>41.74366506747901439666748046875</LatitudeDegrees>
              <LongitudeDegrees>1.771986298263072967529296875</LongitudeDegrees>
            </Position>
            <AltitudeMeters>481.399993896484375</AltitudeMeters>
            <DistanceMeters>6597.4919434968</DistanceMeters>
          </Trackpoint>
          <Trackpoint>
            <Time>2018-06-21T08:50:16.000Z</Time>
            <Position>
              <LatitudeDegrees>41.74362617544829845428466796875</LatitudeDegrees>
              <LongitudeDegrees>1.772091574966907501220703125</LongitudeDegrees>
            </Position>
            <AltitudeMeters>483.600006103515625</AltitudeMeters>
            <DistanceMeters>6607.2478138178</DistanceMeters>
          </Trackpoint>
          <Trackpoint>
            <Time>2018-06-21T08:50:19.000Z</Time>
            <Position>
              <LatitudeDegrees>41.74361024983227252960205078125</LatitudeDegrees>
              <LongitudeDegrees>1.7721359990537166595458984375</LongitudeDegrees>
            </Position>
            <AltitudeMeters>484.79998779296875</AltitudeMeters>
            <DistanceMeters>6611.3394836147</DistanceMeters>
          </Trackpoint>
          <Trackpoint>
            <Time>2018-06-21T08:50:23.000Z</Time>
            <Position>
              <LatitudeDegrees>41.74360538832843303680419921875</LatitudeDegrees>
              <LongitudeDegrees>1.77219785749912261962890625</LongitudeDegrees>
            </Position>
            <AltitudeMeters>486.20001220703125</AltitudeMeters>
            <DistanceMeters>6616.5042532916</DistanceMeters>
          </Trackpoint>
          <Trackpoint>
            <Time>2018-06-21T08:50:31.000Z</Time>
            <Position>
              <LatitudeDegrees>41.7435657419264316558837890625</LatitudeDegrees>
              <LongitudeDegrees>1.77232568152248859405517578125</LongitudeDegrees>
            </Position>
            <AltitudeMeters>489.399993896484375</AltitudeMeters>
            <DistanceMeters>6628.0005222008</DistanceMeters>
          </Trackpoint>
          <Trackpoint>
            <Time>2018-06-21T08:50:36.000Z</Time>
            <Position>
              <LatitudeDegrees>41.7435796558856964111328125</LatitudeDegrees>
              <LongitudeDegrees>1.77240916527807712554931640625</LongitudeDegrees>
            </Position>
            <AltitudeMeters>490</AltitudeMeters>
            <DistanceMeters>6635.1046827596</DistanceMeters>
          </Trackpoint>
          <Trackpoint>
            <Time>2018-06-21T08:50:41.000Z</Time>
            <Position>
              <LatitudeDegrees>41.74356314353644847869873046875</LatitudeDegrees>
              <LongitudeDegrees>1.7724984325468540191650390625</LongitudeDegrees>
            </Position>
            <AltitudeMeters>488.20001220703125</AltitudeMeters>
            <DistanceMeters>6642.7423717968</DistanceMeters>
          </Trackpoint>
          <Trackpoint>
            <Time>2018-06-21T08:50:48.000Z</Time>
            <Position>
              <LatitudeDegrees>41.74353263340890407562255859375</LatitudeDegrees>
              <LongitudeDegrees>1.77261049859225749969482421875</LongitudeDegrees>
            </Position>
            <AltitudeMeters>485.79998779296875</AltitudeMeters>
            <DistanceMeters>6652.6497897725</DistanceMeters>
          </Trackpoint>
          <Trackpoint>
            <Time>2018-06-21T08:50:50.000Z</Time>
            <Position>
              <LatitudeDegrees>41.74352475441992282867431640625</LatitudeDegrees>
              <LongitudeDegrees>1.7726422660052776336669921875</LongitudeDegrees>
            </Position>
            <AltitudeMeters>485.20001220703125</AltitudeMeters>
            <DistanceMeters>6655.4284072992</DistanceMeters>
          </Trackpoint>
          <Trackpoint>
            <Time>2018-06-21T08:50:58.000Z</Time>
            <Position>
              <LatitudeDegrees>41.74346365034580230712890625</LatitudeDegrees>
              <LongitudeDegrees>1.7727698385715484619140625</LongitudeDegrees>
            </Position>
            <AltitudeMeters>486.20001220703125</AltitudeMeters>
            <DistanceMeters>6668.0179228476</DistanceMeters>
          </Trackpoint>
          <Trackpoint>
            <Time>2018-06-21T08:51:05.000Z</Time>
            <Position>
              <LatitudeDegrees>41.74339885823428630828857421875</LatitudeDegrees>
              <LongitudeDegrees>1.77286296151578426361083984375</LongitudeDegrees>
            </Position>
            <AltitudeMeters>488.600006103515625</AltitudeMeters>
            <DistanceMeters>6678.5923938323</DistanceMeters>
          </Trackpoint>
          <Trackpoint>
            <Time>2018-06-21T08:51:13.000Z</Time>
            <Position>
              <LatitudeDegrees>41.74332543276250362396240234375</LatitudeDegrees>
              <LongitudeDegrees>1.77297309972345829010009765625</LongitudeDegrees>
            </Position>
            <AltitudeMeters>491.399993896484375</AltitudeMeters>
            <DistanceMeters>6690.857836081</DistanceMeters>
          </Trackpoint>
          <Trackpoint>
            <Time>2018-06-21T08:51:20.000Z</Time>
            <Position>
              <LatitudeDegrees>41.7432780750095844268798828125</LatitudeDegrees>
              <LongitudeDegrees>1.7730796337127685546875</LongitudeDegrees>
            </Position>
            <AltitudeMeters>493.20001220703125</AltitudeMeters>
            <DistanceMeters>6701.1558561702</DistanceMeters>
          </Trackpoint>
          <Trackpoint>
            <Time>2018-06-21T08:51:28.000Z</Time>
            <Position>
              <LatitudeDegrees>41.74322937615215778350830078125</LatitudeDegrees>
              <LongitudeDegrees>1.7732165940105915069580078125</LongitudeDegrees>
            </Position>
            <AltitudeMeters>495.20001220703125</AltitudeMeters>
            <DistanceMeters>6713.7561261688</DistanceMeters>
          </Trackpoint>
          <Trackpoint>
            <Time>2018-06-21T08:51:34.000Z</Time>
            <Position>
              <LatitudeDegrees>41.7431982792913913726806640625</LatitudeDegrees>
              <LongitudeDegrees>1.7733292467892169952392578125</LongitudeDegrees>
            </Position>
            <AltitudeMeters>494</AltitudeMeters>
            <DistanceMeters>6723.7316683803</DistanceMeters>
          </Trackpoint>
          <Trackpoint>
            <Time>2018-06-21T08:51:36.000Z</Time>
            <Position>
              <LatitudeDegrees>41.74319065175950527191162109375</LatitudeDegrees>
              <LongitudeDegrees>1.77336989901959896087646484375</LongitudeDegrees>
            </Position>
            <AltitudeMeters>493.20001220703125</AltitudeMeters>
            <DistanceMeters>6727.2128122422</DistanceMeters>
          </Trackpoint>
          <Trackpoint>
            <Time>2018-06-21T08:51:42.000Z</Time>
            <Position>
              <LatitudeDegrees>41.74313114024698734283447265625</LatitudeDegrees>
              <LongitudeDegrees>1.77347324788570404052734375</LongitudeDegrees>
            </Position>
            <AltitudeMeters>490</AltitudeMeters>
            <DistanceMeters>6738.0541901526</DistanceMeters>
          </Trackpoint>
          <Trackpoint>
            <Time>2018-06-21T08:51:45.000Z</Time>
            <Position>
              <LatitudeDegrees>41.743100546300411224365234375</LatitudeDegrees>
              <LongitudeDegrees>1.7735260538756847381591796875</LongitudeDegrees>
            </Position>
            <AltitudeMeters>488.600006103515625</AltitudeMeters>
            <DistanceMeters>6743.6065482984</DistanceMeters>
          </Trackpoint>
          <Trackpoint>
            <Time>2018-06-21T08:51:53.000Z</Time>
            <Position>
              <LatitudeDegrees>41.743018738925457000732421875</LatitudeDegrees>
              <LongitudeDegrees>1.7736524529755115509033203125</LongitudeDegrees>
            </Position>
            <AltitudeMeters>484.600006103515625</AltitudeMeters>
            <DistanceMeters>6757.5025604846</DistanceMeters>
          </Trackpoint>
          <Trackpoint>
            <Time>2018-06-21T08:51:59.000Z</Time>
            <Position>
              <LatitudeDegrees>41.7429746501147747039794921875</LatitudeDegrees>
              <LongitudeDegrees>1.7737461626529693603515625</LongitudeDegrees>
            </Position>
            <AltitudeMeters>482</AltitudeMeters>
            <DistanceMeters>6766.7029918106</DistanceMeters>
          </Trackpoint>
          <Trackpoint>
            <Time>2018-06-21T08:52:06.000Z</Time>
            <Position>
              <LatitudeDegrees>41.7429119534790515899658203125</LatitudeDegrees>
              <LongitudeDegrees>1.77385336719453334808349609375</LongitudeDegrees>
            </Position>
            <AltitudeMeters>482.20001220703125</AltitudeMeters>
            <DistanceMeters>6778.0147636971</DistanceMeters>
          </Trackpoint>
          <Trackpoint>
            <Time>2018-06-21T08:52:07.000Z</Time>
            <Position>
              <LatitudeDegrees>41.74289778806269168853759765625</LatitudeDegrees>
              <LongitudeDegrees>1.7738626711070537567138671875</LongitudeDegrees>
            </Position>
            <AltitudeMeters>482.399993896484375</AltitudeMeters>
            <DistanceMeters>6779.7695446143</DistanceMeters>
          </Trackpoint>
          <Trackpoint>
            <Time>2018-06-21T08:52:15.000Z</Time>
            <Position>
              <LatitudeDegrees>41.7428056709468364715576171875</LatitudeDegrees>
              <LongitudeDegrees>1.7739585600793361663818359375</LongitudeDegrees>
            </Position>
            <AltitudeMeters>484.600006103515625</AltitudeMeters>
            <DistanceMeters>6792.7517380634</DistanceMeters>
          </Trackpoint>
          <Trackpoint>
            <Time>2018-06-21T08:52:22.000Z</Time>
            <Position>
              <LatitudeDegrees>41.74273735843598842620849609375</LatitudeDegrees>
              <LongitudeDegrees>1.77406107075512409210205078125</LongitudeDegrees>
            </Position>
            <AltitudeMeters>486</AltitudeMeters>
            <DistanceMeters>6804.1660248538</DistanceMeters>
          </Trackpoint>
          <Trackpoint>
            <Time>2018-06-21T08:52:27.000Z</Time>
            <Position>
              <LatitudeDegrees>41.74270483665168285369873046875</LatitudeDegrees>
              <LongitudeDegrees>1.7741362564265727996826171875</LongitudeDegrees>
            </Position>
            <AltitudeMeters>484</AltitudeMeters>
            <DistanceMeters>6811.3830520069</DistanceMeters>
          </Trackpoint>
          <Trackpoint>
            <Time>2018-06-21T08:52:33.000Z</Time>
            <Position>
              <LatitudeDegrees>41.74267969094216823577880859375</LatitudeDegrees>
              <LongitudeDegrees>1.774236671626567840576171875</LongitudeDegrees>
            </Position>
            <AltitudeMeters>481.399993896484375</AltitudeMeters>
            <DistanceMeters>6820.1795697866</DistanceMeters>
          </Trackpoint>
          <Trackpoint>
            <Time>2018-06-21T08:52:34.000Z</Time>
            <Position>
              <LatitudeDegrees>41.74267834983766078948974609375</LatitudeDegrees>
              <LongitudeDegrees>1.77425519563257694244384765625</LongitudeDegrees>
            </Position>
            <AltitudeMeters>480.79998779296875</AltitudeMeters>
            <DistanceMeters>6821.7264926216</DistanceMeters>
          </Trackpoint>
          <Trackpoint>
            <Time>2018-06-21T08:52:38.000Z</Time>
            <Position>
              <LatitudeDegrees>41.7426544614136219024658203125</LatitudeDegrees>
              <LongitudeDegrees>1.774325855076313018798828125</LongitudeDegrees>
            </Position>
            <AltitudeMeters>479</AltitudeMeters>
            <DistanceMeters>6828.168715168</DistanceMeters>
          </Trackpoint>
          <Trackpoint>
            <Time>2018-06-21T08:52:42.000Z</Time>
            <Position>
              <LatitudeDegrees>41.7426383681595325469970703125</LatitudeDegrees>
              <LongitudeDegrees>1.77440154366195201873779296875</LongitudeDegrees>
            </Position>
            <AltitudeMeters>479.600006103515625</AltitudeMeters>
            <DistanceMeters>6834.704177017</DistanceMeters>
          </Trackpoint>
          <Trackpoint>
            <Time>2018-06-21T08:52:50.000Z</Time>
            <Position>
              <LatitudeDegrees>41.74256636761128902435302734375</LatitudeDegrees>
              <LongitudeDegrees>1.77453766576945781707763671875</LongitudeDegrees>
            </Position>
            <AltitudeMeters>482.399993896484375</AltitudeMeters>
            <DistanceMeters>6848.5608185808</DistanceMeters>
          </Trackpoint>
          <Trackpoint>
            <Time>2018-06-21T08:52:56.000Z</Time>
            <Position>
              <LatitudeDegrees>41.742526553571224212646484375</LatitudeDegrees>
              <LongitudeDegrees>1.77463925443589687347412109375</LongitudeDegrees>
            </Position>
            <AltitudeMeters>484</AltitudeMeters>
            <DistanceMeters>6858.0900603513</DistanceMeters>
          </Trackpoint>
          <Trackpoint>
            <Time>2018-06-21T08:53:01.000Z</Time>
            <Position>
              <LatitudeDegrees>41.7424945347011089324951171875</LatitudeDegrees>
              <LongitudeDegrees>1.77473229356110095977783203125</LongitudeDegrees>
            </Position>
            <AltitudeMeters>485.399993896484375</AltitudeMeters>
            <DistanceMeters>6866.5990645778</DistanceMeters>
          </Trackpoint>
          <Trackpoint>
            <Time>2018-06-21T08:53:08.000Z</Time>
            <Position>
              <LatitudeDegrees>41.74242588691413402557373046875</LatitudeDegrees>
              <LongitudeDegrees>1.7748319543898105621337890625</LongitudeDegrees>
            </Position>
            <AltitudeMeters>488</AltitudeMeters>
            <DistanceMeters>6877.8632380546</DistanceMeters>
          </Trackpoint>
          <Trackpoint>
            <Time>2018-06-21T08:53:15.000Z</Time>
            <Position>
              <LatitudeDegrees>41.742366962134838104248046875</LatitudeDegrees>
              <LongitudeDegrees>1.7749489657580852508544921875</LongitudeDegrees>
            </Position>
            <AltitudeMeters>489</AltitudeMeters>
            <DistanceMeters>6889.5870085041</DistanceMeters>
          </Trackpoint>
          <Trackpoint>
            <Time>2018-06-21T08:53:23.000Z</Time>
            <Position>
              <LatitudeDegrees>41.7422960512340068817138671875</LatitudeDegrees>
              <LongitudeDegrees>1.7750723473727703094482421875</LongitudeDegrees>
            </Position>
            <AltitudeMeters>486.20001220703125</AltitudeMeters>
            <DistanceMeters>6902.5211182996</DistanceMeters>
          </Trackpoint>
          <Trackpoint>
            <Time>2018-06-21T08:53:29.000Z</Time>
            <Position>
              <LatitudeDegrees>41.74223427660763263702392578125</LatitudeDegrees>
              <LongitudeDegrees>1.77515826188027858734130859375</LongitudeDegrees>
            </Position>
            <AltitudeMeters>484.20001220703125</AltitudeMeters>
            <DistanceMeters>6912.42990335</DistanceMeters>
          </Trackpoint>
          <Trackpoint>
            <Time>2018-06-21T08:53:35.000Z</Time>
            <Position>
              <LatitudeDegrees>41.7421669699251651763916015625</LatitudeDegrees>
              <LongitudeDegrees>1.77523906342685222625732421875</LongitudeDegrees>
            </Position>
            <AltitudeMeters>482</AltitudeMeters>
            <DistanceMeters>6922.4874833931</DistanceMeters>
          </Trackpoint>
          <Trackpoint>
            <Time>2018-06-21T08:53:42.000Z</Time>
            <Position>
              <LatitudeDegrees>41.7421059496700763702392578125</LatitudeDegrees>
              <LongitudeDegrees>1.77533495239913463592529296875</LongitudeDegrees>
            </Position>
            <AltitudeMeters>479.79998779296875</AltitudeMeters>
            <DistanceMeters>6932.9538035364</DistanceMeters>
          </Trackpoint>
          <Trackpoint>
            <Time>2018-06-21T08:53:50.000Z</Time>
            <Position>
              <LatitudeDegrees>41.7420157603919506072998046875</LatitudeDegrees>
              <LongitudeDegrees>1.77540888078510761260986328125</LongitudeDegrees>
            </Position>
            <AltitudeMeters>478.79998779296875</AltitudeMeters>
            <DistanceMeters>6944.7202444613</DistanceMeters>
          </Trackpoint>
          <Trackpoint>
            <Time>2018-06-21T08:53:58.000Z</Time>
            <Position>
              <LatitudeDegrees>41.74193856306374073028564453125</LatitudeDegrees>
              <LongitudeDegrees>1.77548825740814208984375</LongitudeDegrees>
            </Position>
            <AltitudeMeters>481.399993896484375</AltitudeMeters>
            <DistanceMeters>6955.5499551155</DistanceMeters>
          </Trackpoint>
          <Trackpoint>
            <Time>2018-06-21T08:54:04.000Z</Time>
            <Position>
              <LatitudeDegrees>41.7418742738664150238037109375</LatitudeDegrees>
              <LongitudeDegrees>1.77555195987224578857421875</LongitudeDegrees>
            </Position>
            <AltitudeMeters>483.600006103515625</AltitudeMeters>
            <DistanceMeters>6964.4485359202</DistanceMeters>
          </Trackpoint>
          <Trackpoint>
            <Time>2018-06-21T08:54:08.000Z</Time>
            <Position>
              <LatitudeDegrees>41.74182557500898838043212890625</LatitudeDegrees>
              <LongitudeDegrees>1.77558875642716884613037109375</LongitudeDegrees>
            </Position>
            <AltitudeMeters>484.79998779296875</AltitudeMeters>
            <DistanceMeters>6970.6711533591</DistanceMeters>
          </Trackpoint>
          <Trackpoint>
            <Time>2018-06-21T08:54:14.000Z</Time>
            <Position>
              <LatitudeDegrees>41.741802357137203216552734375</LatitudeDegrees>
              <LongitudeDegrees>1.77568883635103702545166015625</LongitudeDegrees>
            </Position>
            <AltitudeMeters>487</AltitudeMeters>
            <DistanceMeters>6979.3742724099</DistanceMeters>
          </Trackpoint>
          <Trackpoint>
            <Time>2018-06-21T08:54:16.000Z</Time>
            <Position>
              <LatitudeDegrees>41.74179355613887310028076171875</LatitudeDegrees>
              <LongitudeDegrees>1.77572873421013355255126953125</LongitudeDegrees>
            </Position>
            <AltitudeMeters>487.600006103515625</AltitudeMeters>
            <DistanceMeters>6982.8293789291</DistanceMeters>
          </Trackpoint>
          <Trackpoint>
            <Time>2018-06-21T08:54:21.000Z</Time>
            <Position>
              <LatitudeDegrees>41.74174427054822444915771484375</LatitudeDegrees>
              <LongitudeDegrees>1.7758025787770748138427734375</LongitudeDegrees>
            </Position>
            <AltitudeMeters>487.600006103515625</AltitudeMeters>
            <DistanceMeters>6991.0578364502</DistanceMeters>
          </Trackpoint>
          <Trackpoint>
            <Time>2018-06-21T08:54:24.000Z</Time>
            <Position>
              <LatitudeDegrees>41.7417096532881259918212890625</LatitudeDegrees>
              <LongitudeDegrees>1.77584775723516941070556640625</LongitudeDegrees>
            </Position>
            <AltitudeMeters>487.600006103515625</AltitudeMeters>
            <DistanceMeters>6996.4367178327</DistanceMeters>
          </Trackpoint>
          <Trackpoint>
            <Time>2018-06-21T08:54:32.000Z</Time>
            <Position>
              <LatitudeDegrees>41.741671599447727203369140625</LatitudeDegrees>
              <LongitudeDegrees>1.77595856599509716033935546875</LongitudeDegrees>
            </Position>
            <AltitudeMeters>487.600006103515625</AltitudeMeters>
            <DistanceMeters>7006.5672073956</DistanceMeters>
          </Trackpoint>
          <Trackpoint>
            <Time>2018-06-21T08:54:34.000Z</Time>
            <Position>
              <LatitudeDegrees>41.74166296608746051788330078125</LatitudeDegrees>
              <LongitudeDegrees>1.7759792692959308624267578125</LongitudeDegrees>
            </Position>
            <AltitudeMeters>487.600006103515625</AltitudeMeters>
            <DistanceMeters>7008.5354306539</DistanceMeters>
          </Trackpoint>
          <Trackpoint>
            <Time>2018-06-21T08:54:41.000Z</Time>
            <Position>
              <LatitudeDegrees>41.74160487949848175048828125</LatitudeDegrees>
              <LongitudeDegrees>1.77607473917305469512939453125</LongitudeDegrees>
            </Position>
            <AltitudeMeters>488.20001220703125</AltitudeMeters>
            <DistanceMeters>7018.7661498888</DistanceMeters>
          </Trackpoint>
          <Trackpoint>
            <Time>2018-06-21T08:54:47.000Z</Time>
            <Position>
              <LatitudeDegrees>41.74154947511851787567138671875</LatitudeDegrees>
              <LongitudeDegrees>1.77619175054132938385009765625</LongitudeDegrees>
            </Position>
            <AltitudeMeters>488.600006103515625</AltitudeMeters>
            <DistanceMeters>7030.2753719023</DistanceMeters>
          </Trackpoint>
          <Trackpoint>
            <Time>2018-06-21T08:54:52.000Z</Time>
            <Position>
              <LatitudeDegrees>41.74151678569614887237548828125</LatitudeDegrees>
              <LongitudeDegrees>1.7762823589146137237548828125</LongitudeDegrees>
            </Position>
            <AltitudeMeters>487</AltitudeMeters>
            <DistanceMeters>7038.6339424408</DistanceMeters>
          </Trackpoint>
          <Trackpoint>
            <Time>2018-06-21T08:54:58.000Z</Time>
            <Position>
              <LatitudeDegrees>41.741485185921192169189453125</LatitudeDegrees>
              <LongitudeDegrees>1.77638855762779712677001953125</LongitudeDegrees>
            </Position>
            <AltitudeMeters>485</AltitudeMeters>
            <DistanceMeters>7048.1290086973</DistanceMeters>
          </Trackpoint>
          <Trackpoint>
            <Time>2018-06-21T08:55:05.000Z</Time>
            <Position>
              <LatitudeDegrees>41.74144553951919078826904296875</LatitudeDegrees>
              <LongitudeDegrees>1.77651395089924335479736328125</LongitudeDegrees>
            </Position>
            <AltitudeMeters>483.600006103515625</AltitudeMeters>
            <DistanceMeters>7059.4391838907</DistanceMeters>
          </Trackpoint>
          <Trackpoint>
            <Time>2018-06-21T08:55:06.000Z</Time>
            <Position>
              <LatitudeDegrees>41.74143858253955841064453125</LatitudeDegrees>
              <LongitudeDegrees>1.77653364837169647216796875</LongitudeDegrees>
            </Position>
            <AltitudeMeters>483.600006103515625</AltitudeMeters>
            <DistanceMeters>7061.2471904374</DistanceMeters>
          </Trackpoint>
          <Trackpoint>
            <Time>2018-06-21T08:55:10.000Z</Time>
            <Position>
              <LatitudeDegrees>41.74144218675792217254638671875</LatitudeDegrees>
              <LongitudeDegrees>1.77660615183413028717041015625</LongitudeDegrees>
            </Position>
            <AltitudeMeters>484</AltitudeMeters>
            <DistanceMeters>7067.2811997365</DistanceMeters>
          </Trackpoint>
          <Trackpoint>
            <Time>2018-06-21T08:55:13.000Z</Time>
            <Position>
              <LatitudeDegrees>41.74143045209348201751708984375</LatitudeDegrees>
              <LongitudeDegrees>1.77665879018604755401611328125</LongitudeDegrees>
            </Position>
            <AltitudeMeters>483.79998779296875</AltitudeMeters>
            <DistanceMeters>7071.8434717805</DistanceMeters>
          </Trackpoint>
          <Trackpoint>
            <Time>2018-06-21T08:55:19.000Z</Time>
            <Position>
              <LatitudeDegrees>41.7413760535418987274169921875</LatitudeDegrees>
              <LongitudeDegrees>1.77674286067485809326171875</LongitudeDegrees>
            </Position>
            <AltitudeMeters>482.20001220703125</AltitudeMeters>
            <DistanceMeters>7081.0850334995</DistanceMeters>
          </Trackpoint>
          <Trackpoint>
            <Time>2018-06-21T08:55:25.000Z</Time>
            <Position>
              <LatitudeDegrees>41.7413163743913173675537109375</LatitudeDegrees>
              <LongitudeDegrees>1.77684755064547061920166015625</LongitudeDegrees>
            </Position>
            <AltitudeMeters>480.399993896484375</AltitudeMeters>
            <DistanceMeters>7092.0267314251</DistanceMeters>
          </Trackpoint>
          <Trackpoint>
            <Time>2018-06-21T08:55:31.000Z</Time>
            <Position>
              <LatitudeDegrees>41.74129667691886425018310546875</LatitudeDegrees>
              <LongitudeDegrees>1.7769790627062320709228515625</LongitudeDegrees>
            </Position>
            <AltitudeMeters>480.20001220703125</AltitudeMeters>
            <DistanceMeters>7103.1663593584</DistanceMeters>
          </Trackpoint>
          <Trackpoint>
            <Time>2018-06-21T08:55:35.000Z</Time>
            <Position>
              <LatitudeDegrees>41.74128779210150241851806640625</LatitudeDegrees>
              <LongitudeDegrees>1.7770581878721714019775390625</LongitudeDegrees>
            </Position>
            <AltitudeMeters>480</AltitudeMeters>
            <DistanceMeters>7109.8114382752</DistanceMeters>
          </Trackpoint>
          <Trackpoint>
            <Time>2018-06-21T08:55:42.000Z</Time>
            <Position>
              <LatitudeDegrees>41.74126155674457550048828125</LatitudeDegrees>
              <LongitudeDegrees>1.7772169411182403564453125</LongitudeDegrees>
            </Position>
            <AltitudeMeters>481.20001220703125</AltitudeMeters>
            <DistanceMeters>7123.3156003664</DistanceMeters>
          </Trackpoint>
          <Trackpoint>
            <Time>2018-06-21T08:55:50.000Z</Time>
            <Position>
              <LatitudeDegrees>41.74123314209282398223876953125</LatitudeDegrees>
              <LongitudeDegrees>1.7773897759616374969482421875</LongitudeDegrees>
            </Position>
            <AltitudeMeters>483.20001220703125</AltitudeMeters>
            <DistanceMeters>7138.0137481697</DistanceMeters>
          </Trackpoint>
          <Trackpoint>
            <Time>2018-06-21T08:55:53.000Z</Time>
            <Position>
              <LatitudeDegrees>41.74121906049549579620361328125</LatitudeDegrees>
              <LongitudeDegrees>1.77744853310286998748779296875</LongitudeDegrees>
            </Position>
            <AltitudeMeters>484</AltitudeMeters>
            <DistanceMeters>7143.1399087653</DistanceMeters>
          </Trackpoint>
          <Trackpoint>
            <Time>2018-06-21T08:56:00.000Z</Time>
            <Position>
              <LatitudeDegrees>41.74114278517663478851318359375</LatitudeDegrees>
              <LongitudeDegrees>1.77750385366380214691162109375</LongitudeDegrees>
            </Position>
            <AltitudeMeters>483.399993896484375</AltitudeMeters>
            <DistanceMeters>7152.7924902204</DistanceMeters>
          </Trackpoint>
          <Trackpoint>
            <Time>2018-06-21T08:56:07.000Z</Time>
            <Position>
              <LatitudeDegrees>41.741141863167285919189453125</LatitudeDegrees>
              <LongitudeDegrees>1.777616254985332489013671875</LongitudeDegrees>
            </Position>
            <AltitudeMeters>485.399993896484375</AltitudeMeters>
            <DistanceMeters>7162.1278674362</DistanceMeters>
          </Trackpoint>
          <Trackpoint>
            <Time>2018-06-21T08:56:09.000Z</Time>
            <Position>
              <LatitudeDegrees>41.7411361634731292724609375</LatitudeDegrees>
              <LongitudeDegrees>1.7776541411876678466796875</LongitudeDegrees>
            </Position>
            <AltitudeMeters>485.79998779296875</AltitudeMeters>
            <DistanceMeters>7165.3363385902</DistanceMeters>
          </Trackpoint>
          <Trackpoint>
            <Time>2018-06-21T08:56:18.000Z</Time>
            <Position>
              <LatitudeDegrees>41.74110607244074344635009765625</LatitudeDegrees>
              <LongitudeDegrees>1.777834184467792510986328125</LongitudeDegrees>
            </Position>
            <AltitudeMeters>488.399993896484375</AltitudeMeters>
            <DistanceMeters>7180.659525194</DistanceMeters>
          </Trackpoint>
          <Trackpoint>
            <Time>2018-06-21T08:56:24.000Z</Time>
            <Position>
              <LatitudeDegrees>41.74106064252555370330810546875</LatitudeDegrees>
              <LongitudeDegrees>1.777935437858104705810546875</LongitudeDegrees>
            </Position>
            <AltitudeMeters>489.600006103515625</AltitudeMeters>
            <DistanceMeters>7190.471694936</DistanceMeters>
          </Trackpoint>
          <Trackpoint>
            <Time>2018-06-21T08:56:28.000Z</Time>
            <Position>
              <LatitudeDegrees>41.7410481534898281097412109375</LatitudeDegrees>
              <LongitudeDegrees>1.77799603901803493499755859375</LongitudeDegrees>
            </Position>
            <AltitudeMeters>490.600006103515625</AltitudeMeters>
            <DistanceMeters>7195.6929783783</DistanceMeters>
          </Trackpoint>
          <Trackpoint>
            <Time>2018-06-21T08:56:34.000Z</Time>
            <Position>
              <LatitudeDegrees>41.7410501651465892791748046875</LatitudeDegrees>
              <LongitudeDegrees>1.7780725657939910888671875</LongitudeDegrees>
            </Position>
            <AltitudeMeters>492</AltitudeMeters>
            <DistanceMeters>7202.051962756</DistanceMeters>
          </Trackpoint>
          <Trackpoint>
            <Time>2018-06-21T08:56:40.000Z</Time>
            <Position>
              <LatitudeDegrees>41.74105259589850902557373046875</LatitudeDegrees>
              <LongitudeDegrees>1.7781404592096805572509765625</LongitudeDegrees>
            </Position>
            <AltitudeMeters>493.399993896484375</AltitudeMeters>
            <DistanceMeters>7207.6970614948</DistanceMeters>
          </Trackpoint>
          <Trackpoint>
            <Time>2018-06-21T08:56:41.000Z</Time>
            <Position>
              <LatitudeDegrees>41.7410476505756378173828125</LatitudeDegrees>
              <LongitudeDegrees>1.77815898321568965911865234375</LongitudeDegrees>
            </Position>
            <AltitudeMeters>493.600006103515625</AltitudeMeters>
            <DistanceMeters>7209.3291989127</DistanceMeters>
          </Trackpoint>
          <Trackpoint>
            <Time>2018-06-21T08:56:45.000Z</Time>
            <Position>
              <LatitudeDegrees>41.741048656404018402099609375</LatitudeDegrees>
              <LongitudeDegrees>1.77824095822870731353759765625</LongitudeDegrees>
            </Position>
            <AltitudeMeters>495.399993896484375</AltitudeMeters>
            <DistanceMeters>7216.1380470137</DistanceMeters>
          </Trackpoint>
          <Trackpoint>
            <Time>2018-06-21T08:56:51.000Z</Time>
            <Position>
              <LatitudeDegrees>41.7410712875425815582275390625</LatitudeDegrees>
              <LongitudeDegrees>1.77834816277027130126953125</LongitudeDegrees>
            </Position>
            <AltitudeMeters>498.600006103515625</AltitudeMeters>
            <DistanceMeters>7225.3903507641</DistanceMeters>
          </Trackpoint>
          <Trackpoint>
            <Time>2018-06-21T08:56:53.000Z</Time>
            <Position>
              <LatitudeDegrees>41.74107556231319904327392578125</LatitudeDegrees>
              <LongitudeDegrees>1.77837766706943511962890625</LongitudeDegrees>
            </Position>
            <AltitudeMeters>499.399993896484375</AltitudeMeters>
            <DistanceMeters>7227.8864983451</DistanceMeters>
          </Trackpoint>
          <Trackpoint>
            <Time>2018-06-21T08:56:57.000Z</Time>
            <Position>
              <LatitudeDegrees>41.74107086844742298126220703125</LatitudeDegrees>
              <LongitudeDegrees>1.77843407727777957916259765625</LongitudeDegrees>
            </Position>
            <AltitudeMeters>500.600006103515625</AltitudeMeters>
            <DistanceMeters>7232.5996701065</DistanceMeters>
          </Trackpoint>
          <Trackpoint>
            <Time>2018-06-21T08:57:02.000Z</Time>
            <Position>
              <LatitudeDegrees>41.74109785817563533782958984375</LatitudeDegrees>
              <LongitudeDegrees>1.77851655520498752593994140625</LongitudeDegrees>
            </Position>
            <AltitudeMeters>503.20001220703125</AltitudeMeters>
            <DistanceMeters>7240.0784596806</DistanceMeters>
          </Trackpoint>
          <Trackpoint>
            <Time>2018-06-21T08:57:08.000Z</Time>
            <Position>
              <LatitudeDegrees>41.74111193977296352386474609375</LatitudeDegrees>
              <LongitudeDegrees>1.77859987132251262664794921875</LongitudeDegrees>
            </Position>
            <AltitudeMeters>505.600006103515625</AltitudeMeters>
            <DistanceMeters>7247.1730806077</DistanceMeters>
          </Trackpoint>
          <Trackpoint>
            <Time>2018-06-21T08:57:13.000Z</Time>
            <Position>
              <LatitudeDegrees>41.7411222495138645172119140625</LatitudeDegrees>
              <LongitudeDegrees>1.7786802537739276885986328125</LongitudeDegrees>
            </Position>
            <AltitudeMeters>507.600006103515625</AltitudeMeters>
            <DistanceMeters>7253.9466925254</DistanceMeters>
          </Trackpoint>
          <Trackpoint>
            <Time>2018-06-21T08:57:15.000Z</Time>
            <Position>
              <LatitudeDegrees>41.7411433719098567962646484375</LatitudeDegrees>
              <LongitudeDegrees>1.77868905477225780487060546875</LongitudeDegrees>
            </Position>
            <AltitudeMeters>508.20001220703125</AltitudeMeters>
            <DistanceMeters>7256.4100665064</DistanceMeters>
          </Trackpoint>
          <Trackpoint>
            <Time>2018-06-21T08:57:23.000Z</Time>
            <Position>
              <LatitudeDegrees>41.74119559116661548614501953125</LatitudeDegrees>
              <LongitudeDegrees>1.77871805615723133087158203125</LongitudeDegrees>
            </Position>
            <AltitudeMeters>509.79998779296875</AltitudeMeters>
            <DistanceMeters>7262.7019545482</DistanceMeters>
          </Trackpoint>
          <Trackpoint>
            <Time>2018-06-21T08:57:28.000Z</Time>
            <Position>
              <LatitudeDegrees>41.74125426448881626129150390625</LatitudeDegrees>
              <LongitudeDegrees>1.778747476637363433837890625</LongitudeDegrees>
            </Position>
            <AltitudeMeters>511.600006103515625</AltitudeMeters>
            <DistanceMeters>7269.6746105396</DistanceMeters>
          </Trackpoint>
          <Trackpoint>
            <Time>2018-06-21T08:57:34.000Z</Time>
            <Position>
              <LatitudeDegrees>41.74133255146443843841552734375</LatitudeDegrees>
              <LongitudeDegrees>1.77875929512083530426025390625</LongitudeDegrees>
            </Position>
            <AltitudeMeters>513.20001220703125</AltitudeMeters>
            <DistanceMeters>7278.4428527148</DistanceMeters>
          </Trackpoint>
          <Trackpoint>
            <Time>2018-06-21T08:57:40.000Z</Time>
            <Position>
              <LatitudeDegrees>41.74140036106109619140625</LatitudeDegrees>
              <LongitudeDegrees>1.77879265509545803070068359375</LongitudeDegrees>
            </Position>
            <AltitudeMeters>515.20001220703125</AltitudeMeters>
            <DistanceMeters>7286.4825845005</DistanceMeters>
          </Trackpoint>
          <Trackpoint>
            <Time>2018-06-21T08:57:43.000Z</Time>
            <Position>
              <LatitudeDegrees>41.741428188979625701904296875</LatitudeDegrees>
              <LongitudeDegrees>1.7788076587021350860595703125</LongitudeDegrees>
            </Position>
            <AltitudeMeters>516</AltitudeMeters>
            <DistanceMeters>7289.8207148652</DistanceMeters>
          </Trackpoint>
          <Trackpoint>
            <Time>2018-06-21T08:57:51.000Z</Time>
            <Position>
              <LatitudeDegrees>41.74149348400533199310302734375</LatitudeDegrees>
              <LongitudeDegrees>1.77882668562233448028564453125</LongitudeDegrees>
            </Position>
            <AltitudeMeters>517.5999755859375</AltitudeMeters>
            <DistanceMeters>7297.2583386992</DistanceMeters>
          </Trackpoint>
          <Trackpoint>
            <Time>2018-06-21T08:57:58.000Z</Time>
            <Position>
              <LatitudeDegrees>41.74151225946843624114990234375</LatitudeDegrees>
              <LongitudeDegrees>1.77887798286974430084228515625</LongitudeDegrees>
            </Position>
            <AltitudeMeters>519.20001220703125</AltitudeMeters>
            <DistanceMeters>7302.0030178848</DistanceMeters>
          </Trackpoint>
          <Trackpoint>
            <Time>2018-06-21T08:58:03.000Z</Time>
            <Position>
              <LatitudeDegrees>41.74152835272252559661865234375</LatitudeDegrees>
              <LongitudeDegrees>1.7789330519735813140869140625</LongitudeDegrees>
            </Position>
            <AltitudeMeters>521</AltitudeMeters>
            <DistanceMeters>7306.9132423304</DistanceMeters>
          </Trackpoint>
          <Trackpoint>
            <Time>2018-06-21T08:58:08.000Z</Time>
            <Position>
              <LatitudeDegrees>41.74154545180499553680419921875</LatitudeDegrees>
              <LongitudeDegrees>1.7789823375642299652099609375</LongitudeDegrees>
            </Position>
            <AltitudeMeters>522.4000244140625</AltitudeMeters>
            <DistanceMeters>7311.4267611857</DistanceMeters>
          </Trackpoint>
          <Trackpoint>
            <Time>2018-06-21T08:58:15.000Z</Time>
            <Position>
              <LatitudeDegrees>41.7415312863886356353759765625</LatitudeDegrees>
              <LongitudeDegrees>1.77905215881764888763427734375</LongitudeDegrees>
            </Position>
            <AltitudeMeters>524</AltitudeMeters>
            <DistanceMeters>7317.436027006</DistanceMeters>
          </Trackpoint>
          <Trackpoint>
            <Time>2018-06-21T08:58:22.000Z</Time>
            <Position>
              <LatitudeDegrees>41.74151175655424594879150390625</LatitudeDegrees>
              <LongitudeDegrees>1.77912457846105098724365234375</LongitudeDegrees>
            </Position>
            <AltitudeMeters>524.79998779296875</AltitudeMeters>
            <DistanceMeters>7323.8304140868</DistanceMeters>
          </Trackpoint>
          <Trackpoint>
            <Time>2018-06-21T08:58:28.000Z</Time>
            <Position>
              <LatitudeDegrees>41.7415252514183521270751953125</LatitudeDegrees>
              <LongitudeDegrees>1.77917436696588993072509765625</LongitudeDegrees>
            </Position>
            <AltitudeMeters>526</AltitudeMeters>
            <DistanceMeters>7328.2294428227</DistanceMeters>
          </Trackpoint>
          <Trackpoint>
            <Time>2018-06-21T08:58:34.000Z</Time>
            <Position>
              <LatitudeDegrees>41.74154746346175670623779296875</LatitudeDegrees>
              <LongitudeDegrees>1.77923597395420074462890625</LongitudeDegrees>
            </Position>
            <AltitudeMeters>527.20001220703125</AltitudeMeters>
            <DistanceMeters>7333.9120085604</DistanceMeters>
          </Trackpoint>
          <Trackpoint>
            <Time>2018-06-21T08:58:39.000Z</Time>
            <Position>
              <LatitudeDegrees>41.741555593907833099365234375</LatitudeDegrees>
              <LongitudeDegrees>1.7792773805558681488037109375</LongitudeDegrees>
            </Position>
            <AltitudeMeters>527.79998779296875</AltitudeMeters>
            <DistanceMeters>7337.467582638</DistanceMeters>
          </Trackpoint>
          <Trackpoint>
            <Time>2018-06-21T08:58:43.000Z</Time>
            <Position>
              <LatitudeDegrees>41.74155349843204021453857421875</LatitudeDegrees>
              <LongitudeDegrees>1.7793152667582035064697265625</LongitudeDegrees>
            </Position>
            <AltitudeMeters>528.5999755859375</AltitudeMeters>
            <DistanceMeters>7340.6221260664</DistanceMeters>
          </Trackpoint>
          <Trackpoint>
            <Time>2018-06-21T08:58:49.000Z</Time>
            <Position>
              <LatitudeDegrees>41.74157395027577877044677734375</LatitudeDegrees>
              <LongitudeDegrees>1.779374778270721435546875</LongitudeDegrees>
            </Position>
            <AltitudeMeters>529.20001220703125</AltitudeMeters>
            <DistanceMeters>7346.0627685453</DistanceMeters>
          </Trackpoint>
          <Trackpoint>
            <Time>2018-06-21T08:58:53.000Z</Time>
            <Position>
              <LatitudeDegrees>41.74156305380165576934814453125</LatitudeDegrees>
              <LongitudeDegrees>1.7794352956116199493408203125</LongitudeDegrees>
            </Position>
            <AltitudeMeters>530.5999755859375</AltitudeMeters>
            <DistanceMeters>7351.2319073708</DistanceMeters>
          </Trackpoint>
          <Trackpoint>
            <Time>2018-06-21T08:59:00.000Z</Time>
            <Position>
              <LatitudeDegrees>41.7415128462016582489013671875</LatitudeDegrees>
              <LongitudeDegrees>1.7795271612703800201416015625</LongitudeDegrees>
            </Position>
            <AltitudeMeters>532</AltitudeMeters>
            <DistanceMeters>7360.6888559855</DistanceMeters>
          </Trackpoint>
          <Trackpoint>
            <Time>2018-06-21T08:59:05.000Z</Time>
            <Position>
              <LatitudeDegrees>41.74146448262035846710205078125</LatitudeDegrees>
              <LongitudeDegrees>1.77958776243031024932861328125</LongitudeDegrees>
            </Position>
            <AltitudeMeters>532.20001220703125</AltitudeMeters>
            <DistanceMeters>7368.0581761532</DistanceMeters>
          </Trackpoint>
          <Trackpoint>
            <Time>2018-06-21T08:59:09.000Z</Time>
            <Position>
              <LatitudeDegrees>41.74142785370349884033203125</LatitudeDegrees>
              <LongitudeDegrees>1.7796307615935802459716796875</LongitudeDegrees>
            </Position>
            <AltitudeMeters>532.20001220703125</AltitudeMeters>
            <DistanceMeters>7373.4780321173</DistanceMeters>
          </Trackpoint>
          <Trackpoint>
            <Time>2018-06-21T08:59:15.000Z</Time>
            <Position>
              <LatitudeDegrees>41.7413512431085109710693359375</LatitudeDegrees>
              <LongitudeDegrees>1.7796619422733783721923828125</LongitudeDegrees>
            </Position>
            <AltitudeMeters>531.20001220703125</AltitudeMeters>
            <DistanceMeters>7382.3897952608</DistanceMeters>
          </Trackpoint>
          <Trackpoint>
            <Time>2018-06-21T08:59:21.000Z</Time>
            <Position>
              <LatitudeDegrees>41.7412791587412357330322265625</LatitudeDegrees>
              <LongitudeDegrees>1.7796300910413265228271484375</LongitudeDegrees>
            </Position>
            <AltitudeMeters>529.20001220703125</AltitudeMeters>
            <DistanceMeters>7390.8380923799</DistanceMeters>
          </Trackpoint>
          <Trackpoint>
            <Time>2018-06-21T08:59:26.000Z</Time>
            <Position>
              <LatitudeDegrees>41.741226352751255035400390625</LatitudeDegrees>
              <LongitudeDegrees>1.7796230502426624298095703125</LongitudeDegrees>
            </Position>
            <AltitudeMeters>528</AltitudeMeters>
            <DistanceMeters>7396.7442912678</DistanceMeters>
          </Trackpoint>
          <Trackpoint>
            <Time>2018-06-21T08:59:33.000Z</Time>
            <Position>
              <LatitudeDegrees>41.74113624729216098785400390625</LatitudeDegrees>
              <LongitudeDegrees>1.77961408160626888275146484375</LongitudeDegrees>
            </Position>
            <AltitudeMeters>525.79998779296875</AltitudeMeters>
            <DistanceMeters>7406.800973433</DistanceMeters>
          </Trackpoint>
          <Trackpoint>
            <Time>2018-06-21T08:59:38.000Z</Time>
            <Position>
              <LatitudeDegrees>41.74109349958598613739013671875</LatitudeDegrees>
              <LongitudeDegrees>1.77967694588005542755126953125</LongitudeDegrees>
            </Position>
            <AltitudeMeters>526</AltitudeMeters>
            <DistanceMeters>7413.8649809662</DistanceMeters>
          </Trackpoint>
          <Trackpoint>
            <Time>2018-06-21T08:59:39.000Z</Time>
            <Position>
              <LatitudeDegrees>41.74108645878732204437255859375</LatitudeDegrees>
              <LongitudeDegrees>1.77968968637287616729736328125</LongitudeDegrees>
            </Position>
            <AltitudeMeters>526</AltitudeMeters>
            <DistanceMeters>7415.1817097451</DistanceMeters>
          </Trackpoint>
          <Trackpoint>
            <Time>2018-06-21T08:59:46.000Z</Time>
            <Position>
              <LatitudeDegrees>41.74104387871921062469482421875</LatitudeDegrees>
              <LongitudeDegrees>1.7798017524182796478271484375</LongitudeDegrees>
            </Position>
            <AltitudeMeters>527</AltitudeMeters>
            <DistanceMeters>7425.6260059609</DistanceMeters>
          </Trackpoint>
          <Trackpoint>
            <Time>2018-06-21T08:59:47.000Z</Time>
            <Position>
              <LatitudeDegrees>41.74103884957730770111083984375</LatitudeDegrees>
              <LongitudeDegrees>1.77981558255851268768310546875</LongitudeDegrees>
            </Position>
            <AltitudeMeters>527</AltitudeMeters>
            <DistanceMeters>7426.900923119</DistanceMeters>
          </Trackpoint>
          <Trackpoint>
            <Time>2018-06-21T08:59:53.000Z</Time>
            <Position>
              <LatitudeDegrees>41.7409993708133697509765625</LatitudeDegrees>
              <LongitudeDegrees>1.779909543693065643310546875</LongitudeDegrees>
            </Position>
            <AltitudeMeters>527</AltitudeMeters>
            <DistanceMeters>7435.8566553043</DistanceMeters>
          </Trackpoint>
          <Trackpoint>
            <Time>2018-06-21T08:59:55.000Z</Time>
            <Position>
              <LatitudeDegrees>41.74099308438599109649658203125</LatitudeDegrees>
              <LongitudeDegrees>1.77994583733379840850830078125</LongitudeDegrees>
            </Position>
            <AltitudeMeters>526.5999755859375</AltitudeMeters>
            <DistanceMeters>7438.9519599916</DistanceMeters>
          </Trackpoint>
          <Trackpoint>
            <Time>2018-06-21T09:00:02.000Z</Time>
            <Position>
              <LatitudeDegrees>41.7410149611532688140869140625</LatitudeDegrees>
              <LongitudeDegrees>1.7800897546112537384033203125</LongitudeDegrees>
            </Position>
            <AltitudeMeters>525.5999755859375</AltitudeMeters>
            <DistanceMeters>7451.1498520048</DistanceMeters>
          </Trackpoint>
          <Trackpoint>
            <Time>2018-06-21T09:00:07.000Z</Time>
            <Position>
              <LatitudeDegrees>41.7409703694283962249755859375</LatitudeDegrees>
              <LongitudeDegrees>1.78018103353679180145263671875</LongitudeDegrees>
            </Position>
            <AltitudeMeters>524.20001220703125</AltitudeMeters>
            <DistanceMeters>7460.2108373281</DistanceMeters>
          </Trackpoint>
          <Trackpoint>
            <Time>2018-06-21T09:00:14.000Z</Time>
            <Position>
              <LatitudeDegrees>41.7409475706517696380615234375</LatitudeDegrees>
              <LongitudeDegrees>1.7803026549518108367919921875</LongitudeDegrees>
            </Position>
            <AltitudeMeters>523.5999755859375</AltitudeMeters>
            <DistanceMeters>7470.6256958602</DistanceMeters>
          </Trackpoint>
          <Trackpoint>
            <Time>2018-06-21T09:00:19.000Z</Time>
            <Position>
              <LatitudeDegrees>41.740959472954273223876953125</LatitudeDegrees>
              <LongitudeDegrees>1.78040407598018646240234375</LongitudeDegrees>
            </Position>
            <AltitudeMeters>523.79998779296875</AltitudeMeters>
            <DistanceMeters>7479.1516629827</DistanceMeters>
          </Trackpoint>
          <Trackpoint>
            <Time>2018-06-21T09:00:26.000Z</Time>
            <Position>
              <LatitudeDegrees>41.74094715155661106109619140625</LatitudeDegrees>
              <LongitudeDegrees>1.78055319003760814666748046875</LongitudeDegrees>
            </Position>
            <AltitudeMeters>523.4000244140625</AltitudeMeters>
            <DistanceMeters>7491.611401111</DistanceMeters>
          </Trackpoint>
          <Trackpoint>
            <Time>2018-06-21T09:00:28.000Z</Time>
            <Position>
              <LatitudeDegrees>41.7409438826143741607666015625</LatitudeDegrees>
              <LongitudeDegrees>1.78059359081089496612548828125</LongitudeDegrees>
            </Position>
            <AltitudeMeters>523.20001220703125</AltitudeMeters>
            <DistanceMeters>7494.9871908663</DistanceMeters>
          </Trackpoint>
          <Trackpoint>
            <Time>2018-06-21T09:00:36.000Z</Time>
            <Position>
              <LatitudeDegrees>41.74092317931354045867919921875</LatitudeDegrees>
              <LongitudeDegrees>1.7807559482753276824951171875</LongitudeDegrees>
            </Position>
            <AltitudeMeters>521.4000244140625</AltitudeMeters>
            <DistanceMeters>7508.6667476628</DistanceMeters>
          </Trackpoint>
          <Trackpoint>
            <Time>2018-06-21T09:00:44.000Z</Time>
            <Position>
              <LatitudeDegrees>41.74088579602539539337158203125</LatitudeDegrees>
              <LongitudeDegrees>1.78089986555278301239013671875</LongitudeDegrees>
            </Position>
            <AltitudeMeters>515.79998779296875</AltitudeMeters>
            <DistanceMeters>7521.3227934893</DistanceMeters>
          </Trackpoint>
          <Trackpoint>
            <Time>2018-06-21T09:00:45.000Z</Time>
            <Position>
              <LatitudeDegrees>41.74088914878666400909423828125</LatitudeDegrees>
              <LongitudeDegrees>1.78092165850102901458740234375</LongitudeDegrees>
            </Position>
            <AltitudeMeters>515.20001220703125</AltitudeMeters>
            <DistanceMeters>7523.1703239751</DistanceMeters>
          </Trackpoint>
          <Trackpoint>
            <Time>2018-06-21T09:00:47.000Z</Time>
            <Position>
              <LatitudeDegrees>41.74088126979768276214599609375</LatitudeDegrees>
              <LongitudeDegrees>1.78096708841621875762939453125</LongitudeDegrees>
            </Position>
            <AltitudeMeters>514.20001220703125</AltitudeMeters>
            <DistanceMeters>7527.0431726648</DistanceMeters>
          </Trackpoint>
          <Trackpoint>
            <Time>2018-06-21T09:00:49.000Z</Time>
            <Position>
              <LatitudeDegrees>41.74087573774158954620361328125</LatitudeDegrees>
              <LongitudeDegrees>1.78099709562957286834716796875</LongitudeDegrees>
            </Position>
            <AltitudeMeters>513.5999755859375</AltitudeMeters>
            <DistanceMeters>7529.6106531037</DistanceMeters>
          </Trackpoint>
          <Trackpoint>
            <Time>2018-06-21T09:00:53.000Z</Time>
            <Position>
              <LatitudeDegrees>41.74087875522673130035400390625</LatitudeDegrees>
              <LongitudeDegrees>1.7809745483100414276123046875</LongitudeDegrees>
            </Position>
            <AltitudeMeters>514</AltitudeMeters>
            <DistanceMeters>7531.5111873911</DistanceMeters>
          </Trackpoint>
          <Trackpoint>
            <Time>2018-06-21T09:00:58.000Z</Time>
            <Position>
              <LatitudeDegrees>41.7409264482557773590087890625</LatitudeDegrees>
              <LongitudeDegrees>1.7809148691594600677490234375</LongitudeDegrees>
            </Position>
            <AltitudeMeters>515.5999755859375</AltitudeMeters>
            <DistanceMeters>7538.7731187067</DistanceMeters>
          </Trackpoint>
          <Trackpoint>
            <Time>2018-06-21T09:01:02.000Z</Time>
            <Position>
              <LatitudeDegrees>41.7409559525549411773681640625</LatitudeDegrees>
              <LongitudeDegrees>1.78085376508533954620361328125</LongitudeDegrees>
            </Position>
            <AltitudeMeters>518.20001220703125</AltitudeMeters>
            <DistanceMeters>7544.8175946387</DistanceMeters>
          </Trackpoint>
          <Trackpoint>
            <Time>2018-06-21T09:01:06.000Z</Time>
            <Position>
              <LatitudeDegrees>41.7409725487232208251953125</LatitudeDegrees>
              <LongitudeDegrees>1.7807767353951930999755859375</LongitudeDegrees>
            </Position>
            <AltitudeMeters>521.20001220703125</AltitudeMeters>
            <DistanceMeters>7551.4762488075</DistanceMeters>
          </Trackpoint>
          <Trackpoint>
            <Time>2018-06-21T09:01:13.000Z</Time>
            <Position>
              <LatitudeDegrees>41.741069443523883819580078125</LatitudeDegrees>
              <LongitudeDegrees>1.780704148113727569580078125</LongitudeDegrees>
            </Position>
            <AltitudeMeters>524.79998779296875</AltitudeMeters>
            <DistanceMeters>7563.8311835385</DistanceMeters>
          </Trackpoint>
          <Trackpoint>
            <Time>2018-06-21T09:01:17.000Z</Time>
            <Position>
              <LatitudeDegrees>41.74113155342638492584228515625</LatitudeDegrees>
              <LongitudeDegrees>1.78064807318150997161865234375</LongitudeDegrees>
            </Position>
            <AltitudeMeters>525.5999755859375</AltitudeMeters>
            <DistanceMeters>7572.1664944601</DistanceMeters>
          </Trackpoint>
          <Trackpoint>
            <Time>2018-06-21T09:01:23.000Z</Time>
            <Position>
              <LatitudeDegrees>41.74124286510050296783447265625</LatitudeDegrees>
              <LongitudeDegrees>1.78063399158418178558349609375</LongitudeDegrees>
            </Position>
            <AltitudeMeters>527.20001220703125</AltitudeMeters>
            <DistanceMeters>7584.6106409129</DistanceMeters>
          </Trackpoint>
          <Trackpoint>
            <Time>2018-06-21T09:01:26.000Z</Time>
            <Position>
              <LatitudeDegrees>41.74128376878798007965087890625</LatitudeDegrees>
              <LongitudeDegrees>1.7806288786232471466064453125</LongitudeDegrees>
            </Position>
            <AltitudeMeters>527.79998779296875</AltitudeMeters>
            <DistanceMeters>7589.1837861155</DistanceMeters>
          </Trackpoint>
          <Trackpoint>
            <Time>2018-06-21T09:01:30.000Z</Time>
            <Position>
              <LatitudeDegrees>41.7413371615111827850341796875</LatitudeDegrees>
              <LongitudeDegrees>1.7805933393537998199462890625</LongitudeDegrees>
            </Position>
            <AltitudeMeters>528.4000244140625</AltitudeMeters>
            <DistanceMeters>7595.8193458312</DistanceMeters>
          </Trackpoint>
          <Trackpoint>
            <Time>2018-06-21T09:01:35.000Z</Time>
            <Position>
              <LatitudeDegrees>41.74139843322336673736572265625</LatitudeDegrees>
              <LongitudeDegrees>1.78058688528835773468017578125</LongitudeDegrees>
            </Position>
            <AltitudeMeters>529.20001220703125</AltitudeMeters>
            <DistanceMeters>7602.6599493231</DistanceMeters>
          </Trackpoint>
          <Trackpoint>
            <Time>2018-06-21T09:01:42.000Z</Time>
            <Position>
              <LatitudeDegrees>41.7414923943579196929931640625</LatitudeDegrees>
              <LongitudeDegrees>1.7805410362780094146728515625</LongitudeDegrees>
            </Position>
            <AltitudeMeters>531.5999755859375</AltitudeMeters>
            <DistanceMeters>7613.7898454887</DistanceMeters>
          </Trackpoint>
          <Trackpoint>
            <Time>2018-06-21T09:01:47.000Z</Time>
            <Position>
              <LatitudeDegrees>41.74156665802001953125</LatitudeDegrees>
              <LongitudeDegrees>1.7805611528456211090087890625</LongitudeDegrees>
            </Position>
            <AltitudeMeters>531.79998779296875</AltitudeMeters>
            <DistanceMeters>7622.2226298448</DistanceMeters>
          </Trackpoint>
          <Trackpoint>
            <Time>2018-06-21T09:01:53.000Z</Time>
            <Position>
              <LatitudeDegrees>41.7416496388614177703857421875</LatitudeDegrees>
              <LongitudeDegrees>1.7805547825992107391357421875</LongitudeDegrees>
            </Position>
            <AltitudeMeters>530</AltitudeMeters>
            <DistanceMeters>7631.4739575622</DistanceMeters>
          </Trackpoint>
          <Trackpoint>
            <Time>2018-06-21T09:02:02.000Z</Time>
            <Position>
              <LatitudeDegrees>41.74177796579897403717041015625</LatitudeDegrees>
              <LongitudeDegrees>1.78053776733577251434326171875</LongitudeDegrees>
            </Position>
            <AltitudeMeters>527</AltitudeMeters>
            <DistanceMeters>7645.8264522527</DistanceMeters>
          </Trackpoint>
          <Trackpoint>
            <Time>2018-06-21T09:02:09.000Z</Time>
            <Position>
              <LatitudeDegrees>41.74187435768544673919677734375</LatitudeDegrees>
              <LongitudeDegrees>1.78055419586598873138427734375</LongitudeDegrees>
            </Position>
            <AltitudeMeters>524.5999755859375</AltitudeMeters>
            <DistanceMeters>7656.641561137</DistanceMeters>
          </Trackpoint>
          <Trackpoint>
            <Time>2018-06-21T09:02:15.000Z</Time>
            <Position>
              <LatitudeDegrees>41.74194007180631160736083984375</LatitudeDegrees>
              <LongitudeDegrees>1.78053776733577251434326171875</LongitudeDegrees>
            </Position>
            <AltitudeMeters>523</AltitudeMeters>
            <DistanceMeters>7664.0816127901</DistanceMeters>
          </Trackpoint>
          <Trackpoint>
            <Time>2018-06-21T09:02:18.000Z</Time>
            <Position>
              <LatitudeDegrees>41.74196706153452396392822265625</LatitudeDegrees>
              <LongitudeDegrees>1.78054698742926120758056640625</LongitudeDegrees>
            </Position>
            <AltitudeMeters>522.4000244140625</AltitudeMeters>
            <DistanceMeters>7667.1812904082</DistanceMeters>
          </Trackpoint>
          <Trackpoint>
            <Time>2018-06-21T09:02:25.000Z</Time>
            <Position>
              <LatitudeDegrees>41.74199455417692661285400390625</LatitudeDegrees>
              <LongitudeDegrees>1.7806275375187397003173828125</LongitudeDegrees>
            </Position>
            <AltitudeMeters>521</AltitudeMeters>
            <DistanceMeters>7674.537119257</DistanceMeters>
          </Trackpoint>
          <Trackpoint>
            <Time>2018-06-21T09:02:26.000Z</Time>
            <Position>
              <LatitudeDegrees>41.74200184643268585205078125</LatitudeDegrees>
              <LongitudeDegrees>1.780635751783847808837890625</LongitudeDegrees>
            </Position>
            <AltitudeMeters>520.5999755859375</AltitudeMeters>
            <DistanceMeters>7675.599550222</DistanceMeters>
          </Trackpoint>
          <Trackpoint>
            <Time>2018-06-21T09:02:31.000Z</Time>
            <Position>
              <LatitudeDegrees>41.74199958331882953643798828125</LatitudeDegrees>
              <LongitudeDegrees>1.7807341553270816802978515625</LongitudeDegrees>
            </Position>
            <AltitudeMeters>519.4000244140625</AltitudeMeters>
            <DistanceMeters>7683.7751618712</DistanceMeters>
          </Trackpoint>
          <Trackpoint>
            <Time>2018-06-21T09:02:33.000Z</Time>
            <Position>
              <LatitudeDegrees>41.74200025387108325958251953125</LatitudeDegrees>
              <LongitudeDegrees>1.78076483309268951416015625</LongitudeDegrees>
            </Position>
            <AltitudeMeters>518.5999755859375</AltitudeMeters>
            <DistanceMeters>7686.3249961873</DistanceMeters>
          </Trackpoint>
          <Trackpoint>
            <Time>2018-06-21T09:02:36.000Z</Time>
            <Position>
              <LatitudeDegrees>41.742024980485439300537109375</LatitudeDegrees>
              <LongitudeDegrees>1.78078536875545978546142578125</LongitudeDegrees>
            </Position>
            <AltitudeMeters>517.4000244140625</AltitudeMeters>
            <DistanceMeters>7689.5614894555</DistanceMeters>
          </Trackpoint>
          <Trackpoint>
            <Time>2018-06-21T09:02:40.000Z</Time>
            <Position>
              <LatitudeDegrees>41.74203026108443737030029296875</LatitudeDegrees>
              <LongitudeDegrees>1.780828870832920074462890625</LongitudeDegrees>
            </Position>
            <AltitudeMeters>516.20001220703125</AltitudeMeters>
            <DistanceMeters>7693.2209434266</DistanceMeters>
          </Trackpoint>
          <Trackpoint>
            <Time>2018-06-21T09:02:46.000Z</Time>
            <Position>
              <LatitudeDegrees>41.74207686446607112884521484375</LatitudeDegrees>
              <LongitudeDegrees>1.78086549974977970123291015625</LongitudeDegrees>
            </Position>
            <AltitudeMeters>514.20001220703125</AltitudeMeters>
            <DistanceMeters>7699.2339648037</DistanceMeters>
          </Trackpoint>
          <Trackpoint>
            <Time>2018-06-21T09:02:51.000Z</Time>
            <Position>
              <LatitudeDegrees>41.74212095327675342559814453125</LatitudeDegrees>
              <LongitudeDegrees>1.78090187720954418182373046875</LongitudeDegrees>
            </Position>
            <AltitudeMeters>512</AltitudeMeters>
            <DistanceMeters>7704.9954369253</DistanceMeters>
          </Trackpoint>
          <Trackpoint>
            <Time>2018-06-21T09:02:56.000Z</Time>
            <Position>
              <LatitudeDegrees>41.74216655083000659942626953125</LatitudeDegrees>
              <LongitudeDegrees>1.78090489469468593597412109375</LongitudeDegrees>
            </Position>
            <AltitudeMeters>511</AltitudeMeters>
            <DistanceMeters>7710.0773675259</DistanceMeters>
          </Trackpoint>
          <Trackpoint>
            <Time>2018-06-21T09:03:03.000Z</Time>
            <Position>
              <LatitudeDegrees>41.742232851684093475341796875</LatitudeDegrees>
              <LongitudeDegrees>1.7808367498219013214111328125</LongitudeDegrees>
            </Position>
            <AltitudeMeters>511.20001220703125</AltitudeMeters>
            <DistanceMeters>7719.3773714066</DistanceMeters>
          </Trackpoint>
          <Trackpoint>
            <Time>2018-06-21T09:03:08.000Z</Time>
            <Position>
              <LatitudeDegrees>41.74229647032916545867919921875</LatitudeDegrees>
              <LongitudeDegrees>1.7808149568736553192138671875</LongitudeDegrees>
            </Position>
            <AltitudeMeters>510.20001220703125</AltitudeMeters>
            <DistanceMeters>7726.6857845152</DistanceMeters>
          </Trackpoint>
          <Trackpoint>
            <Time>2018-06-21T09:03:12.000Z</Time>
            <Position>
              <LatitudeDegrees>41.74234843812882900238037109375</LatitudeDegrees>
              <LongitudeDegrees>1.780796684324741363525390625</LongitudeDegrees>
            </Position>
            <AltitudeMeters>509.399993896484375</AltitudeMeters>
            <DistanceMeters>7732.6649209613</DistanceMeters>
          </Trackpoint>
          <Trackpoint>
            <Time>2018-06-21T09:03:19.000Z</Time>
            <Position>
              <LatitudeDegrees>41.74242504872381687164306640625</LatitudeDegrees>
              <LongitudeDegrees>1.78073088638484477996826171875</LongitudeDegrees>
            </Position>
            <AltitudeMeters>509.399993896484375</AltitudeMeters>
            <DistanceMeters>7742.7922902274</DistanceMeters>
          </Trackpoint>
          <Trackpoint>
            <Time>2018-06-21T09:03:20.000Z</Time>
            <Position>
              <LatitudeDegrees>41.74243368208408355712890625</LatitudeDegrees>
              <LongitudeDegrees>1.7807217501103878021240234375</LongitudeDegrees>
            </Position>
            <AltitudeMeters>509.20001220703125</AltitudeMeters>
            <DistanceMeters>7744.016623797</DistanceMeters>
          </Trackpoint>
          <Trackpoint>
            <Time>2018-06-21T09:03:27.000Z</Time>
            <Position>
              <LatitudeDegrees>41.7425042577087879180908203125</LatitudeDegrees>
              <LongitudeDegrees>1.78064036183059215545654296875</LongitudeDegrees>
            </Position>
            <AltitudeMeters>508.399993896484375</AltitudeMeters>
            <DistanceMeters>7754.3797651715</DistanceMeters>
          </Trackpoint>
          <Trackpoint>
            <Time>2018-06-21T09:03:32.000Z</Time>
            <Position>
              <LatitudeDegrees>41.74255345948040485382080078125</LatitudeDegrees>
              <LongitudeDegrees>1.78065896965563297271728515625</LongitudeDegrees>
            </Position>
            <AltitudeMeters>506.79998779296875</AltitudeMeters>
            <DistanceMeters>7760.0694772953</DistanceMeters>
          </Trackpoint>
          <Trackpoint>
            <Time>2018-06-21T09:03:37.000Z</Time>
            <Position>
              <LatitudeDegrees>41.74259386025369167327880859375</LatitudeDegrees>
              <LongitudeDegrees>1.7807220853865146636962890625</LongitudeDegrees>
            </Position>
            <AltitudeMeters>504.79998779296875</AltitudeMeters>
            <DistanceMeters>7766.9764226298</DistanceMeters>
          </Trackpoint>
          <Trackpoint>
            <Time>2018-06-21T09:03:38.000Z</Time>
            <Position>
              <LatitudeDegrees>41.74259436316788196563720703125</LatitudeDegrees>
              <LongitudeDegrees>1.78073666989803314208984375</LongitudeDegrees>
            </Position>
            <AltitudeMeters>504.79998779296875</AltitudeMeters>
            <DistanceMeters>7768.1933583457</DistanceMeters>
          </Trackpoint>
          <Trackpoint>
            <Time>2018-06-21T09:03:45.000Z</Time>
            <Position>
              <LatitudeDegrees>41.74262487329542636871337890625</LatitudeDegrees>
              <LongitudeDegrees>1.780875138938426971435546875</LongitudeDegrees>
            </Position>
            <AltitudeMeters>502.79998779296875</AltitudeMeters>
            <DistanceMeters>7780.1840579559</DistanceMeters>
          </Trackpoint>
          <Trackpoint>
            <Time>2018-06-21T09:03:47.000Z</Time>
            <Position>
              <LatitudeDegrees>41.742627136409282684326171875</LatitudeDegrees>
              <LongitudeDegrees>1.7809188924729824066162109375</LongitudeDegrees>
            </Position>
            <AltitudeMeters>502.20001220703125</AltitudeMeters>
            <DistanceMeters>7783.8261977522</DistanceMeters>
          </Trackpoint>
          <Trackpoint>
            <Time>2018-06-21T09:03:53.000Z</Time>
            <Position>
              <LatitudeDegrees>41.742625795304775238037109375</LatitudeDegrees>
              <LongitudeDegrees>1.7810077406466007232666015625</LongitudeDegrees>
            </Position>
            <AltitudeMeters>500.79998779296875</AltitudeMeters>
            <DistanceMeters>7791.206537928</DistanceMeters>
          </Trackpoint>
          <Trackpoint>
            <Time>2018-06-21T09:03:58.000Z</Time>
            <Position>
              <LatitudeDegrees>41.742651946842670440673828125</LatitudeDegrees>
              <LongitudeDegrees>1.781087033450603485107421875</LongitudeDegrees>
            </Position>
            <AltitudeMeters>498.399993896484375</AltitudeMeters>
            <DistanceMeters>7798.4060267146</DistanceMeters>
          </Trackpoint>
          <Trackpoint>
            <Time>2018-06-21T09:04:01.000Z</Time>
            <Position>
              <LatitudeDegrees>41.74267063848674297332763671875</LatitudeDegrees>
              <LongitudeDegrees>1.78114847280085086822509765625</LongitudeDegrees>
            </Position>
            <AltitudeMeters>496.600006103515625</AltitudeMeters>
            <DistanceMeters>7803.9159375128</DistanceMeters>
          </Trackpoint>
          <Trackpoint>
            <Time>2018-06-21T09:04:05.000Z</Time>
            <Position>
              <LatitudeDegrees>41.7426757514476776123046875</LatitudeDegrees>
              <LongitudeDegrees>1.7812310345470905303955078125</LongitudeDegrees>
            </Position>
            <AltitudeMeters>494.399993896484375</AltitudeMeters>
            <DistanceMeters>7810.7960291342</DistanceMeters>
          </Trackpoint>
          <Trackpoint>
            <Time>2018-06-21T09:04:07.000Z</Time>
            <Position>
              <LatitudeDegrees>41.7426864802837371826171875</LatitudeDegrees>
              <LongitudeDegrees>1.78128325380384922027587890625</LongitudeDegrees>
            </Position>
            <AltitudeMeters>493</AltitudeMeters>
            <DistanceMeters>7815.295521482</DistanceMeters>
          </Trackpoint>
          <Trackpoint>
            <Time>2018-06-21T09:04:12.000Z</Time>
            <Position>
              <LatitudeDegrees>41.74272595904767513275146484375</LatitudeDegrees>
              <LongitudeDegrees>1.781331785023212432861328125</LongitudeDegrees>
            </Position>
            <AltitudeMeters>491.399993896484375</AltitudeMeters>
            <DistanceMeters>7821.2587790679</DistanceMeters>
          </Trackpoint>
          <Trackpoint>
            <Time>2018-06-21T09:04:16.000Z</Time>
            <Position>
              <LatitudeDegrees>41.74276954494416713714599609375</LatitudeDegrees>
              <LongitudeDegrees>1.78135667927563190460205078125</LongitudeDegrees>
            </Position>
            <AltitudeMeters>490.20001220703125</AltitudeMeters>
            <DistanceMeters>7826.532547687</DistanceMeters>
          </Trackpoint>
          <Trackpoint>
            <Time>2018-06-21T09:04:19.000Z</Time>
            <Position>
              <LatitudeDegrees>41.74277876503765583038330078125</LatitudeDegrees>
              <LongitudeDegrees>1.7813993431627750396728515625</LongitudeDegrees>
            </Position>
            <AltitudeMeters>489</AltitudeMeters>
            <DistanceMeters>7830.2214940408</DistanceMeters>
          </Trackpoint>
          <Trackpoint>
            <Time>2018-06-21T09:04:24.000Z</Time>
            <Position>
              <LatitudeDegrees>41.74277926795184612274169921875</LatitudeDegrees>
              <LongitudeDegrees>1.78145424462854862213134765625</LongitudeDegrees>
            </Position>
            <AltitudeMeters>487.600006103515625</AltitudeMeters>
            <DistanceMeters>7834.7807961775</DistanceMeters>
          </Trackpoint>
          <Trackpoint>
            <Time>2018-06-21T09:04:29.000Z</Time>
            <Position>
              <LatitudeDegrees>41.74278563819825649261474609375</LatitudeDegrees>
              <LongitudeDegrees>1.78150638006627559661865234375</LongitudeDegrees>
            </Position>
            <AltitudeMeters>486.20001220703125</AltitudeMeters>
            <DistanceMeters>7839.1685203004</DistanceMeters>
          </Trackpoint>
          <Trackpoint>
            <Time>2018-06-21T09:04:33.000Z</Time>
            <Position>
              <LatitudeDegrees>41.74276585690677165985107421875</LatitudeDegrees>
              <LongitudeDegrees>1.7815411649644374847412109375</LongitudeDegrees>
            </Position>
            <AltitudeMeters>485.399993896484375</AltitudeMeters>
            <DistanceMeters>7842.7994859582</DistanceMeters>
          </Trackpoint>
          <Trackpoint>
            <Time>2018-06-21T09:04:39.000Z</Time>
            <Position>
              <LatitudeDegrees>41.74272076226770877838134765625</LatitudeDegrees>
              <LongitudeDegrees>1.781590282917022705078125</LongitudeDegrees>
            </Position>
            <AltitudeMeters>484</AltitudeMeters>
            <DistanceMeters>7849.2668899264</DistanceMeters>
          </Trackpoint>
          <Trackpoint>
            <Time>2018-06-21T09:04:44.000Z</Time>
            <Position>
              <LatitudeDegrees>41.7426876537501811981201171875</LatitudeDegrees>
              <LongitudeDegrees>1.781663037836551666259765625</LongitudeDegrees>
            </Position>
            <AltitudeMeters>481.399993896484375</AltitudeMeters>
            <DistanceMeters>7856.3436691344</DistanceMeters>
          </Trackpoint>
          <Trackpoint>
            <Time>2018-06-21T09:04:48.000Z</Time>
            <Position>
              <LatitudeDegrees>41.74264498986303806304931640625</LatitudeDegrees>
              <LongitudeDegrees>1.7816997505724430084228515625</LongitudeDegrees>
            </Position>
            <AltitudeMeters>480.399993896484375</AltitudeMeters>
            <DistanceMeters>7861.9863679161</DistanceMeters>
          </Trackpoint>
          <Trackpoint>
            <Time>2018-06-21T09:04:52.000Z</Time>
            <Position>
              <LatitudeDegrees>41.74261565320193767547607421875</LatitudeDegrees>
              <LongitudeDegrees>1.78177376277744770050048828125</LongitudeDegrees>
            </Position>
            <AltitudeMeters>477.600006103515625</AltitudeMeters>
            <DistanceMeters>7868.9460611597</DistanceMeters>
          </Trackpoint>
          <Trackpoint>
            <Time>2018-06-21T09:04:54.000Z</Time>
            <Position>
              <LatitudeDegrees>41.74260576255619525909423828125</LatitudeDegrees>
              <LongitudeDegrees>1.7818008363246917724609375</LongitudeDegrees>
            </Position>
            <AltitudeMeters>476.79998779296875</AltitudeMeters>
            <DistanceMeters>7871.4494334956</DistanceMeters>
          </Trackpoint>
          <Trackpoint>
            <Time>2018-06-21T09:04:57.000Z</Time>
            <Position>
              <LatitudeDegrees>41.74257424660027027130126953125</LatitudeDegrees>
              <LongitudeDegrees>1.781837046146392822265625</LongitudeDegrees>
            </Position>
            <AltitudeMeters>475.600006103515625</AltitudeMeters>
            <DistanceMeters>7876.0697257714</DistanceMeters>
          </Trackpoint>
          <Trackpoint>
            <Time>2018-06-21T09:05:03.000Z</Time>
            <Position>
              <LatitudeDegrees>41.74258765764534473419189453125</LatitudeDegrees>
              <LongitudeDegrees>1.7818901874125003814697265625</LongitudeDegrees>
            </Position>
            <AltitudeMeters>473.600006103515625</AltitudeMeters>
            <DistanceMeters>7880.7289428485</DistanceMeters>
          </Trackpoint>
          <Trackpoint>
            <Time>2018-06-21T09:05:06.000Z</Time>
            <Position>
              <LatitudeDegrees>41.7426274716854095458984375</LatitudeDegrees>
              <LongitudeDegrees>1.78189647383987903594970703125</LongitudeDegrees>
            </Position>
            <AltitudeMeters>472.79998779296875</AltitudeMeters>
            <DistanceMeters>7885.1911529017</DistanceMeters>
          </Trackpoint>
          <Trackpoint>
            <Time>2018-06-21T09:05:08.000Z</Time>
            <Position>
              <LatitudeDegrees>41.74266007728874683380126953125</LatitudeDegrees>
              <LongitudeDegrees>1.78190016187727451324462890625</LongitudeDegrees>
            </Position>
            <AltitudeMeters>472.399993896484375</AltitudeMeters>
            <DistanceMeters>7888.8357711875</DistanceMeters>
          </Trackpoint>
          <Trackpoint>
            <Time>2018-06-21T09:05:14.000Z</Time>
            <Position>
              <LatitudeDegrees>41.742699556052684783935546875</LatitudeDegrees>
              <LongitudeDegrees>1.78196419961750507354736328125</LongitudeDegrees>
            </Position>
            <AltitudeMeters>469.399993896484375</AltitudeMeters>
            <DistanceMeters>7895.7348677179</DistanceMeters>
          </Trackpoint>
          <Trackpoint>
            <Time>2018-06-21T09:05:22.000Z</Time>
            <Position>
              <LatitudeDegrees>41.74274926073849201202392578125</LatitudeDegrees>
              <LongitudeDegrees>1.7820762656629085540771484375</LongitudeDegrees>
            </Position>
            <AltitudeMeters>464.600006103515625</AltitudeMeters>
            <DistanceMeters>7906.5620766101</DistanceMeters>
          </Trackpoint>
          <Trackpoint>
            <Time>2018-06-21T09:05:25.000Z</Time>
            <Position>
              <LatitudeDegrees>41.74276099540293216705322265625</LatitudeDegrees>
              <LongitudeDegrees>1.78212127648293972015380859375</LongitudeDegrees>
            </Position>
            <AltitudeMeters>462.79998779296875</AltitudeMeters>
            <DistanceMeters>7910.5213963379</DistanceMeters>
          </Trackpoint>
          <Trackpoint>
            <Time>2018-06-21T09:05:32.000Z</Time>
            <Position>
              <LatitudeDegrees>41.7427025735378265380859375</LatitudeDegrees>
              <LongitudeDegrees>1.78225957788527011871337890625</LongitudeDegrees>
            </Position>
            <AltitudeMeters>458</AltitudeMeters>
            <DistanceMeters>7923.7201930541</DistanceMeters>
          </Trackpoint>
          <Trackpoint>
            <Time>2018-06-21T09:05:36.000Z</Time>
            <Position>
              <LatitudeDegrees>41.74270986579358577728271484375</LatitudeDegrees>
              <LongitudeDegrees>1.78233325481414794921875</LongitudeDegrees>
            </Position>
            <AltitudeMeters>455.20001220703125</AltitudeMeters>
            <DistanceMeters>7929.8925420816</DistanceMeters>
          </Trackpoint>
          <Trackpoint>
            <Time>2018-06-21T09:05:42.000Z</Time>
            <Position>
              <LatitudeDegrees>41.7427161522209644317626953125</LatitudeDegrees>
              <LongitudeDegrees>1.78242453373968601226806640625</LongitudeDegrees>
            </Position>
            <AltitudeMeters>451.600006103515625</AltitudeMeters>
            <DistanceMeters>7937.5047691237</DistanceMeters>
          </Trackpoint>
          <Trackpoint>
            <Time>2018-06-21T09:05:46.000Z</Time>
            <Position>
              <LatitudeDegrees>41.74269796349108219146728515625</LatitudeDegrees>
              <LongitudeDegrees>1.782511956989765167236328125</LongitudeDegrees>
            </Position>
            <AltitudeMeters>448.399993896484375</AltitudeMeters>
            <DistanceMeters>7945.04129225</DistanceMeters>
          </Trackpoint>
          <Trackpoint>
            <Time>2018-06-21T09:05:50.000Z</Time>
            <Position>
              <LatitudeDegrees>41.7426913417875766754150390625</LatitudeDegrees>
              <LongitudeDegrees>1.7825905792415142059326171875</LongitudeDegrees>
            </Position>
            <AltitudeMeters>445.600006103515625</AltitudeMeters>
            <DistanceMeters>7951.6112059025</DistanceMeters>
          </Trackpoint>
          <Trackpoint>
            <Time>2018-06-21T09:05:55.000Z</Time>
            <Position>
              <LatitudeDegrees>41.74265353940427303314208984375</LatitudeDegrees>
              <LongitudeDegrees>1.78265956230461597442626953125</LongitudeDegrees>
            </Position>
            <AltitudeMeters>443.20001220703125</AltitudeMeters>
            <DistanceMeters>7958.7185434932</DistanceMeters>
          </Trackpoint>
          <Trackpoint>
            <Time>2018-06-21T09:05:58.000Z</Time>
            <Position>
              <LatitudeDegrees>41.7426462471485137939453125</LatitudeDegrees>
              <LongitudeDegrees>1.7827015556395053863525390625</LongitudeDegrees>
            </Position>
            <AltitudeMeters>441.79998779296875</AltitudeMeters>
            <DistanceMeters>7962.2994244672</DistanceMeters>
          </Trackpoint>
          <Trackpoint>
            <Time>2018-06-21T09:06:02.000Z</Time>
            <Position>
              <LatitudeDegrees>41.74265638925135135650634765625</LatitudeDegrees>
              <LongitudeDegrees>1.78276433609426021575927734375</LongitudeDegrees>
            </Position>
            <AltitudeMeters>439.399993896484375</AltitudeMeters>
            <DistanceMeters>7967.6336320818</DistanceMeters>
          </Trackpoint>
          <Trackpoint>
            <Time>2018-06-21T09:06:06.000Z</Time>
            <Position>
              <LatitudeDegrees>41.74264649860560894012451171875</LatitudeDegrees>
              <LongitudeDegrees>1.7828178964555263519287109375</LongitudeDegrees>
            </Position>
            <AltitudeMeters>437.600006103515625</AltitudeMeters>
            <DistanceMeters>7972.2156543135</DistanceMeters>
          </Trackpoint>
          <Trackpoint>
            <Time>2018-06-21T09:06:11.000Z</Time>
            <Position>
              <LatitudeDegrees>41.7426651902496814727783203125</LatitudeDegrees>
              <LongitudeDegrees>1.78289727307856082916259765625</LongitudeDegrees>
            </Position>
            <AltitudeMeters>434.600006103515625</AltitudeMeters>
            <DistanceMeters>7979.1278272327</DistanceMeters>
          </Trackpoint>
          <Trackpoint>
            <Time>2018-06-21T09:06:12.000Z</Time>
            <Position>
              <LatitudeDegrees>41.74266527406871318817138671875</LatitudeDegrees>
              <LongitudeDegrees>1.782915294170379638671875</LongitudeDegrees>
            </Position>
            <AltitudeMeters>434</AltitudeMeters>
            <DistanceMeters>7980.6243094271</DistanceMeters>
          </Trackpoint>
          <Trackpoint>
            <Time>2018-06-21T09:06:15.000Z</Time>
            <Position>
              <LatitudeDegrees>41.742649264633655548095703125</LatitudeDegrees>
              <LongitudeDegrees>1.78296558558940887451171875</LongitudeDegrees>
            </Position>
            <AltitudeMeters>432.399993896484375</AltitudeMeters>
            <DistanceMeters>7985.1637625269</DistanceMeters>
          </Trackpoint>
          <Trackpoint>
            <Time>2018-06-21T09:06:20.000Z</Time>
            <Position>
              <LatitudeDegrees>41.742607690393924713134765625</LatitudeDegrees>
              <LongitudeDegrees>1.783024258911609649658203125</LongitudeDegrees>
            </Position>
            <AltitudeMeters>430.79998779296875</AltitudeMeters>
            <DistanceMeters>7991.8831659394</DistanceMeters>
          </Trackpoint>
          <Trackpoint>
            <Time>2018-06-21T09:06:24.000Z</Time>
            <Position>
              <LatitudeDegrees>41.74256737343966960906982421875</LatitudeDegrees>
              <LongitudeDegrees>1.78308737464249134063720703125</LongitudeDegrees>
            </Position>
            <AltitudeMeters>429</AltitudeMeters>
            <DistanceMeters>7998.7842255077</DistanceMeters>
          </Trackpoint>
          <Trackpoint>
            <Time>2018-06-21T09:06:31.000Z</Time>
            <Position>
              <LatitudeDegrees>41.74255245365202426910400390625</LatitudeDegrees>
              <LongitudeDegrees>1.78317354060709476470947265625</LongitudeDegrees>
            </Position>
            <AltitudeMeters>426</AltitudeMeters>
            <DistanceMeters>8006.1302269254</DistanceMeters>
          </Trackpoint>
          <Trackpoint>
            <Time>2018-06-21T09:06:32.000Z</Time>
            <Position>
              <LatitudeDegrees>41.74255765043199062347412109375</LatitudeDegrees>
              <LongitudeDegrees>1.7831786535680294036865234375</LongitudeDegrees>
            </Position>
            <AltitudeMeters>425.79998779296875</AltitudeMeters>
            <DistanceMeters>8006.8413417409</DistanceMeters>
          </Trackpoint>
          <Trackpoint>
            <Time>2018-06-21T09:06:34.000Z</Time>
            <Position>
              <LatitudeDegrees>41.74256988801062107086181640625</LatitudeDegrees>
              <LongitudeDegrees>1.7832004465162754058837890625</LongitudeDegrees>
            </Position>
            <AltitudeMeters>424.79998779296875</AltitudeMeters>
            <DistanceMeters>8009.1060897225</DistanceMeters>
          </Trackpoint>
          <Trackpoint>
            <Time>2018-06-21T09:06:40.000Z</Time>
            <Position>
              <LatitudeDegrees>41.74261816777288913726806640625</LatitudeDegrees>
              <LongitudeDegrees>1.78326859138906002044677734375</LongitudeDegrees>
            </Position>
            <AltitudeMeters>421.600006103515625</AltitudeMeters>
            <DistanceMeters>8016.90986032</DistanceMeters>
          </Trackpoint>
          <Trackpoint>
            <Time>2018-06-21T09:06:45.000Z</Time>
            <Position>
              <LatitudeDegrees>41.74263007007539272308349609375</LatitudeDegrees>
              <LongitudeDegrees>1.78332944400608539581298828125</LongitudeDegrees>
            </Position>
            <AltitudeMeters>419</AltitudeMeters>
            <DistanceMeters>8022.1337373298</DistanceMeters>
          </Trackpoint>
          <Trackpoint>
            <Time>2018-06-21T09:06:50.000Z</Time>
            <Position>
              <LatitudeDegrees>41.7426973767578601837158203125</LatitudeDegrees>
              <LongitudeDegrees>1.783362887799739837646484375</LongitudeDegrees>
            </Position>
            <AltitudeMeters>416.600006103515625</AltitudeMeters>
            <DistanceMeters>8030.1233312107</DistanceMeters>
          </Trackpoint>
          <Trackpoint>
            <Time>2018-06-21T09:06:55.000Z</Time>
            <Position>
              <LatitudeDegrees>41.7427588999271392822265625</LatitudeDegrees>
              <LongitudeDegrees>1.78339415229856967926025390625</LongitudeDegrees>
            </Position>
            <AltitudeMeters>414.600006103515625</AltitudeMeters>
            <DistanceMeters>8037.4471726944</DistanceMeters>
          </Trackpoint>
          <Trackpoint>
            <Time>2018-06-21T09:07:00.000Z</Time>
            <Position>
              <LatitudeDegrees>41.74275579862296581268310546875</LatitudeDegrees>
              <LongitudeDegrees>1.78347998298704624176025390625</LongitudeDegrees>
            </Position>
            <AltitudeMeters>411.20001220703125</AltitudeMeters>
            <DistanceMeters>8044.5824071678</DistanceMeters>
          </Trackpoint>
          <Trackpoint>
            <Time>2018-06-21T09:07:05.000Z</Time>
            <Position>
              <LatitudeDegrees>41.74270483665168285369873046875</LatitudeDegrees>
              <LongitudeDegrees>1.783533878624439239501953125</LongitudeDegrees>
            </Position>
            <AltitudeMeters>409.600006103515625</AltitudeMeters>
            <DistanceMeters>8051.8075626625</DistanceMeters>
          </Trackpoint>
          <Trackpoint>
            <Time>2018-06-21T09:07:06.000Z</Time>
            <Position>
              <LatitudeDegrees>41.74268857575953006744384765625</LatitudeDegrees>
              <LongitudeDegrees>1.783545948565006256103515625</LongitudeDegrees>
            </Position>
            <AltitudeMeters>409.399993896484375</AltitudeMeters>
            <DistanceMeters>8053.8764406759</DistanceMeters>
          </Trackpoint>
          <Trackpoint>
            <Time>2018-06-21T09:07:08.000Z</Time>
            <Position>
              <LatitudeDegrees>41.7426621727645397186279296875</LatitudeDegrees>
              <LongitudeDegrees>1.78355994634330272674560546875</LongitudeDegrees>
            </Position>
            <AltitudeMeters>409.20001220703125</AltitudeMeters>
            <DistanceMeters>8057.0367040426</DistanceMeters>
          </Trackpoint>
          <Trackpoint>
            <Time>2018-06-21T09:07:14.000Z</Time>
            <Position>
              <LatitudeDegrees>41.74263174645602703094482421875</LatitudeDegrees>
              <LongitudeDegrees>1.7836865969002246856689453125</LongitudeDegrees>
            </Position>
            <AltitudeMeters>405</AltitudeMeters>
            <DistanceMeters>8068.0868033035</DistanceMeters>
          </Trackpoint>
          <Trackpoint>
            <Time>2018-06-21T09:07:15.000Z</Time>
            <Position>
              <LatitudeDegrees>41.742619760334491729736328125</LatitudeDegrees>
              <LongitudeDegrees>1.78371635265648365020751953125</LongitudeDegrees>
            </Position>
            <AltitudeMeters>404.20001220703125</AltitudeMeters>
            <DistanceMeters>8070.8929085508</DistanceMeters>
          </Trackpoint>
          <Trackpoint>
            <Time>2018-06-21T09:07:18.000Z</Time>
            <Position>
              <LatitudeDegrees>41.74258665181696414947509765625</LatitudeDegrees>
              <LongitudeDegrees>1.78379246033728122711181640625</LongitudeDegrees>
            </Position>
            <AltitudeMeters>402</AltitudeMeters>
            <DistanceMeters>8078.2081141533</DistanceMeters>
          </Trackpoint>
          <Trackpoint>
            <Time>2018-06-21T09:07:22.000Z</Time>
            <Position>
              <LatitudeDegrees>41.74260073341429233551025390625</LatitudeDegrees>
              <LongitudeDegrees>1.78385163657367229461669921875</LongitudeDegrees>
            </Position>
            <AltitudeMeters>399.399993896484375</AltitudeMeters>
            <DistanceMeters>8083.3667608054</DistanceMeters>
          </Trackpoint>
          <Trackpoint>
            <Time>2018-06-21T09:07:28.000Z</Time>
            <Position>
              <LatitudeDegrees>41.74262336455285549163818359375</LatitudeDegrees>
              <LongitudeDegrees>1.78397007286548614501953125</LongitudeDegrees>
            </Position>
            <AltitudeMeters>394.600006103515625</AltitudeMeters>
            <DistanceMeters>8093.5199550163</DistanceMeters>
          </Trackpoint>
          <Trackpoint>
            <Time>2018-06-21T09:07:30.000Z</Time>
            <Position>
              <LatitudeDegrees>41.7426336742937564849853515625</LatitudeDegrees>
              <LongitudeDegrees>1.78398055024445056915283203125</LongitudeDegrees>
            </Position>
            <AltitudeMeters>394.20001220703125</AltitudeMeters>
            <DistanceMeters>8094.9611064941</DistanceMeters>
          </Trackpoint>
          <Trackpoint>
            <Time>2018-06-21T09:07:35.000Z</Time>
            <Position>
              <LatitudeDegrees>41.74267784692347049713134765625</LatitudeDegrees>
              <LongitudeDegrees>1.784001253545284271240234375</LongitudeDegrees>
            </Position>
            <AltitudeMeters>392.600006103515625</AltitudeMeters>
            <DistanceMeters>8100.1694027259</DistanceMeters>
          </Trackpoint>
          <Trackpoint>
            <Time>2018-06-21T09:07:39.000Z</Time>
            <Position>
              <LatitudeDegrees>41.7426658608019351959228515625</LatitudeDegrees>
              <LongitudeDegrees>1.78405548445880413055419921875</LongitudeDegrees>
            </Position>
            <AltitudeMeters>390.79998779296875</AltitudeMeters>
            <DistanceMeters>8104.8652995173</DistanceMeters>
          </Trackpoint>
          <Trackpoint>
            <Time>2018-06-21T09:07:44.000Z</Time>
            <Position>
              <LatitudeDegrees>41.74268639646470546722412109375</LatitudeDegrees>
              <LongitudeDegrees>1.78410879336297512054443359375</LongitudeDegrees>
            </Position>
            <AltitudeMeters>389.20001220703125</AltitudeMeters>
            <DistanceMeters>8109.8485424595</DistanceMeters>
          </Trackpoint>
          <Trackpoint>
            <Time>2018-06-21T09:07:50.000Z</Time>
            <Position>
              <LatitudeDegrees>41.7427144758403301239013671875</LatitudeDegrees>
              <LongitudeDegrees>1.78418473340570926666259765625</LongitudeDegrees>
            </Position>
            <AltitudeMeters>386.79998779296875</AltitudeMeters>
            <DistanceMeters>8116.8856540274</DistanceMeters>
          </Trackpoint>
          <Trackpoint>
            <Time>2018-06-21T09:07:56.000Z</Time>
            <Position>
              <LatitudeDegrees>41.74273937009274959564208984375</LatitudeDegrees>
              <LongitudeDegrees>1.78425975143909454345703125</LongitudeDegrees>
            </Position>
            <AltitudeMeters>384.600006103515625</AltitudeMeters>
            <DistanceMeters>8123.7037793954</DistanceMeters>
          </Trackpoint>
          <Trackpoint>
            <Time>2018-06-21T09:08:01.000Z</Time>
            <Position>
              <LatitudeDegrees>41.74275345169007778167724609375</LatitudeDegrees>
              <LongitudeDegrees>1.784326136112213134765625</LongitudeDegrees>
            </Position>
            <AltitudeMeters>382.600006103515625</AltitudeMeters>
            <DistanceMeters>8129.4353950579</DistanceMeters>
          </Trackpoint>
          <Trackpoint>
            <Time>2018-06-21T09:08:08.000Z</Time>
            <Position>
              <LatitudeDegrees>41.742747835814952850341796875</LatitudeDegrees>
              <LongitudeDegrees>1.7844275571405887603759765625</LongitudeDegrees>
            </Position>
            <AltitudeMeters>380</AltitudeMeters>
            <DistanceMeters>8137.8815541795</DistanceMeters>
          </Trackpoint>
          <Trackpoint>
            <Time>2018-06-21T09:08:12.000Z</Time>
            <Position>
              <LatitudeDegrees>41.74273819662630558013916015625</LatitudeDegrees>
              <LongitudeDegrees>1.7845036648213863372802734375</LongitudeDegrees>
            </Position>
            <AltitudeMeters>377.399993896484375</AltitudeMeters>
            <DistanceMeters>8144.292160851</DistanceMeters>
          </Trackpoint>
          <Trackpoint>
            <Time>2018-06-21T09:08:18.000Z</Time>
            <Position>
              <LatitudeDegrees>41.74271154217422008514404296875</LatitudeDegrees>
              <LongitudeDegrees>1.7845874838531017303466796875</LongitudeDegrees>
            </Position>
            <AltitudeMeters>374.600006103515625</AltitudeMeters>
            <DistanceMeters>8151.8585790693</DistanceMeters>
          </Trackpoint>
          <Trackpoint>
            <Time>2018-06-21T09:08:22.000Z</Time>
            <Position>
              <LatitudeDegrees>41.74273073673248291015625</LatitudeDegrees>
              <LongitudeDegrees>1.78463735617697238922119140625</LongitudeDegrees>
            </Position>
            <AltitudeMeters>372.600006103515625</AltitudeMeters>
            <DistanceMeters>8156.5197338537</DistanceMeters>
          </Trackpoint>
          <Trackpoint>
            <Time>2018-06-21T09:08:27.000Z</Time>
            <Position>
              <LatitudeDegrees>41.7427213490009307861328125</LatitudeDegrees>
              <LongitudeDegrees>1.78472083993256092071533203125</LongitudeDegrees>
            </Position>
            <AltitudeMeters>369.600006103515625</AltitudeMeters>
            <DistanceMeters>8163.531778223</DistanceMeters>
          </Trackpoint>
          <Trackpoint>
            <Time>2018-06-21T09:08:32.000Z</Time>
            <Position>
              <LatitudeDegrees>41.74276619218289852142333984375</LatitudeDegrees>
              <LongitudeDegrees>1.78476895205676555633544921875</LongitudeDegrees>
            </Position>
            <AltitudeMeters>367.600006103515625</AltitudeMeters>
            <DistanceMeters>8169.9261653038</DistanceMeters>
          </Trackpoint>
          <Trackpoint>
            <Time>2018-06-21T09:08:34.000Z</Time>
            <Position>
              <LatitudeDegrees>41.7427627556025981903076171875</LatitudeDegrees>
              <LongitudeDegrees>1.78479745052754878997802734375</LongitudeDegrees>
            </Position>
            <AltitudeMeters>366.600006103515625</AltitudeMeters>
            <DistanceMeters>8172.3245311422</DistanceMeters>
          </Trackpoint>
          <Trackpoint>
            <Time>2018-06-21T09:08:36.000Z</Time>
            <Position>
              <LatitudeDegrees>41.74275554716587066650390625</LatitudeDegrees>
              <LongitudeDegrees>1.78482175804674625396728515625</LongitudeDegrees>
            </Position>
            <AltitudeMeters>365.79998779296875</AltitudeMeters>
            <DistanceMeters>8174.4997920591</DistanceMeters>
          </Trackpoint>
          <Trackpoint>
            <Time>2018-06-21T09:08:41.000Z</Time>
            <Position>
              <LatitudeDegrees>41.74277055077254772186279296875</LatitudeDegrees>
              <LongitudeDegrees>1.78490524180233478546142578125</LongitudeDegrees>
            </Position>
            <AltitudeMeters>363.20001220703125</AltitudeMeters>
            <DistanceMeters>8181.631228838</DistanceMeters>
          </Trackpoint>
          <Trackpoint>
            <Time>2018-06-21T09:08:42.000Z</Time>
            <Position>
              <LatitudeDegrees>41.742762587964534759521484375</LatitudeDegrees>
              <LongitudeDegrees>1.78491865284740924835205078125</LongitudeDegrees>
            </Position>
            <AltitudeMeters>363</AltitudeMeters>
            <DistanceMeters>8183.0534584691</DistanceMeters>
          </Trackpoint>
          <Trackpoint>
            <Time>2018-06-21T09:08:44.000Z</Time>
            <Position>
              <LatitudeDegrees>41.7427530325949192047119140625</LatitudeDegrees>
              <LongitudeDegrees>1.7849428765475749969482421875</LongitudeDegrees>
            </Position>
            <AltitudeMeters>362.600006103515625</AltitudeMeters>
            <DistanceMeters>8185.3261669251</DistanceMeters>
          </Trackpoint>
          <Trackpoint>
            <Time>2018-06-21T09:08:47.000Z</Time>
            <Position>
              <LatitudeDegrees>41.74275345169007778167724609375</LatitudeDegrees>
              <LongitudeDegrees>1.7849767394363880157470703125</LongitudeDegrees>
            </Position>
            <AltitudeMeters>361.79998779296875</AltitudeMeters>
            <DistanceMeters>8188.1387008297</DistanceMeters>
          </Trackpoint>
          <Trackpoint>
            <Time>2018-06-21T09:08:52.000Z</Time>
            <Position>
              <LatitudeDegrees>41.74278295598924160003662109375</LatitudeDegrees>
              <LongitudeDegrees>1.7849837802350521087646484375</LongitudeDegrees>
            </Position>
            <AltitudeMeters>361.600006103515625</AltitudeMeters>
            <DistanceMeters>8191.4741249675</DistanceMeters>
          </Trackpoint>
          <Trackpoint>
            <Time>2018-06-21T09:08:55.000Z</Time>
            <Position>
              <LatitudeDegrees>41.7428110353648662567138671875</LatitudeDegrees>
              <LongitudeDegrees>1.785010434687137603759765625</LongitudeDegrees>
            </Position>
            <AltitudeMeters>360.79998779296875</AltitudeMeters>
            <DistanceMeters>8195.3035954459</DistanceMeters>
          </Trackpoint>
          <Trackpoint>
            <Time>2018-06-21T09:09:01.000Z</Time>
            <Position>
              <LatitudeDegrees>41.742837689816951751708984375</LatitudeDegrees>
              <LongitudeDegrees>1.7850950919091701507568359375</LongitudeDegrees>
            </Position>
            <AltitudeMeters>359.20001220703125</AltitudeMeters>
            <DistanceMeters>8202.9341873568</DistanceMeters>
          </Trackpoint>
          <Trackpoint>
            <Time>2018-06-21T09:09:07.000Z</Time>
            <Position>
              <LatitudeDegrees>41.74282796680927276611328125</LatitudeDegrees>
              <LongitudeDegrees>1.78520095534622669219970703125</LongitudeDegrees>
            </Position>
            <AltitudeMeters>357.20001220703125</AltitudeMeters>
            <DistanceMeters>8211.7925937766</DistanceMeters>
          </Trackpoint>
          <Trackpoint>
            <Time>2018-06-21T09:09:11.000Z</Time>
            <Position>
              <LatitudeDegrees>41.7428703792393207550048828125</LatitudeDegrees>
              <LongitudeDegrees>1.7852355726063251495361328125</LongitudeDegrees>
            </Position>
            <AltitudeMeters>356.20001220703125</AltitudeMeters>
            <DistanceMeters>8217.3205028466</DistanceMeters>
          </Trackpoint>
          <Trackpoint>
            <Time>2018-06-21T09:09:16.000Z</Time>
            <Position>
              <LatitudeDegrees>41.74293265677988529205322265625</LatitudeDegrees>
              <LongitudeDegrees>1.78529114462435245513916015625</LongitudeDegrees>
            </Position>
            <AltitudeMeters>354.79998779296875</AltitudeMeters>
            <DistanceMeters>8225.6482268508</DistanceMeters>
          </Trackpoint>
          <Trackpoint>
            <Time>2018-06-21T09:09:21.000Z</Time>
            <Position>
              <LatitudeDegrees>41.7429417930543422698974609375</LatitudeDegrees>
              <LongitudeDegrees>1.78534545935690402984619140625</LongitudeDegrees>
            </Position>
            <AltitudeMeters>353.600006103515625</AltitudeMeters>
            <DistanceMeters>8230.2714498546</DistanceMeters>
          </Trackpoint>
          <Trackpoint>
            <Time>2018-06-21T09:09:28.000Z</Time>
            <Position>
              <LatitudeDegrees>41.7429424636065959930419921875</LatitudeDegrees>
              <LongitudeDegrees>1.785465739667415618896484375</LongitudeDegrees>
            </Position>
            <AltitudeMeters>351.20001220703125</AltitudeMeters>
            <DistanceMeters>8240.2601091555</DistanceMeters>
          </Trackpoint>
          <Trackpoint>
            <Time>2018-06-21T09:09:32.000Z</Time>
            <Position>
              <LatitudeDegrees>41.74291974864900112152099609375</LatitudeDegrees>
              <LongitudeDegrees>1.785540841519832611083984375</LongitudeDegrees>
            </Position>
            <AltitudeMeters>349.20001220703125</AltitudeMeters>
            <DistanceMeters>8246.9895841251</DistanceMeters>
          </Trackpoint>
          <Trackpoint>
            <Time>2018-06-21T09:09:38.000Z</Time>
            <Position>
              <LatitudeDegrees>41.7428700439631938934326171875</LatitudeDegrees>
              <LongitudeDegrees>1.78558115847408771514892578125</LongitudeDegrees>
            </Position>
            <AltitudeMeters>348.20001220703125</AltitudeMeters>
            <DistanceMeters>8253.4555916982</DistanceMeters>
          </Trackpoint>
          <Trackpoint>
            <Time>2018-06-21T09:09:42.000Z</Time>
            <Position>
              <LatitudeDegrees>41.74284003674983978271484375</LatitudeDegrees>
              <LongitudeDegrees>1.78555819205939769744873046875</LongitudeDegrees>
            </Position>
            <AltitudeMeters>348.600006103515625</AltitudeMeters>
            <DistanceMeters>8257.3015330934</DistanceMeters>
          </Trackpoint>
          <Trackpoint>
            <Time>2018-06-21T09:09:50.000Z</Time>
            <Position>
              <LatitudeDegrees>41.742819584906101226806640625</LatitudeDegrees>
              <LongitudeDegrees>1.78569666109979152679443359375</LongitudeDegrees>
            </Position>
            <AltitudeMeters>345</AltitudeMeters>
            <DistanceMeters>8269.0241481312</DistanceMeters>
          </Trackpoint>
          <Trackpoint>
            <Time>2018-06-21T09:09:51.000Z</Time>
            <Position>
              <LatitudeDegrees>41.7428205907344818115234375</LatitudeDegrees>
              <LongitudeDegrees>1.7857116647064685821533203125</LongitudeDegrees>
            </Position>
            <AltitudeMeters>344.600006103515625</AltitudeMeters>
            <DistanceMeters>8270.2740294155</DistanceMeters>
          </Trackpoint>
          <Trackpoint>
            <Time>2018-06-21T09:09:59.000Z</Time>
            <Position>
              <LatitudeDegrees>41.7428730614483356475830078125</LatitudeDegrees>
              <LongitudeDegrees>1.7858697474002838134765625</LongitudeDegrees>
            </Position>
            <AltitudeMeters>342</AltitudeMeters>
            <DistanceMeters>8284.6428730646</DistanceMeters>
          </Trackpoint>
          <Trackpoint>
            <Time>2018-06-21T09:10:02.000Z</Time>
            <Position>
              <LatitudeDegrees>41.742897368967533111572265625</LatitudeDegrees>
              <LongitudeDegrees>1.78593085147440433502197265625</LongitudeDegrees>
            </Position>
            <AltitudeMeters>341</AltitudeMeters>
            <DistanceMeters>8290.3941485766</DistanceMeters>
          </Trackpoint>
          <Trackpoint>
            <Time>2018-06-21T09:10:07.000Z</Time>
            <Position>
              <LatitudeDegrees>41.7428673617541790008544921875</LatitudeDegrees>
              <LongitudeDegrees>1.78600226528942584991455078125</LongitudeDegrees>
            </Position>
            <AltitudeMeters>339.79998779296875</AltitudeMeters>
            <DistanceMeters>8297.2003437073</DistanceMeters>
          </Trackpoint>
          <Trackpoint>
            <Time>2018-06-21T09:10:12.000Z</Time>
            <Position>
              <LatitudeDegrees>41.74293114803731441497802734375</LatitudeDegrees>
              <LongitudeDegrees>1.78611458279192447662353515625</LongitudeDegrees>
            </Position>
            <AltitudeMeters>338</AltitudeMeters>
            <DistanceMeters>8308.9221884073</DistanceMeters>
          </Trackpoint>
          <Trackpoint>
            <Time>2018-06-21T09:10:13.000Z</Time>
            <Position>
              <LatitudeDegrees>41.74293969757854938507080078125</LatitudeDegrees>
              <LongitudeDegrees>1.78614056669175624847412109375</LongitudeDegrees>
            </Position>
            <AltitudeMeters>337.600006103515625</AltitudeMeters>
            <DistanceMeters>8311.2806894333</DistanceMeters>
          </Trackpoint>
          <Trackpoint>
            <Time>2018-06-21T09:10:14.000Z</Time>
            <Position>
              <LatitudeDegrees>41.74294455908238887786865234375</LatitudeDegrees>
              <LongitudeDegrees>1.78616856224834918975830078125</LongitudeDegrees>
            </Position>
            <AltitudeMeters>337</AltitudeMeters>
            <DistanceMeters>8313.6658410343</DistanceMeters>
          </Trackpoint>
          <Trackpoint>
            <Time>2018-06-21T09:10:15.000Z</Time>
            <Position>
              <LatitudeDegrees>41.7429493367671966552734375</LatitudeDegrees>
              <LongitudeDegrees>1.78619488142430782318115234375</LongitudeDegrees>
            </Position>
            <AltitudeMeters>336.600006103515625</AltitudeMeters>
            <DistanceMeters>8315.9145835292</DistanceMeters>
          </Trackpoint>
          <Trackpoint>
            <Time>2018-06-21T09:10:19.000Z</Time>
            <Position>
              <LatitudeDegrees>41.7429008893668651580810546875</LatitudeDegrees>
              <LongitudeDegrees>1.7862118966877460479736328125</LongitudeDegrees>
            </Position>
            <AltitudeMeters>336.20001220703125</AltitudeMeters>
            <DistanceMeters>8321.4888541581</DistanceMeters>
          </Trackpoint>
          <Trackpoint>
            <Time>2018-06-21T09:10:27.000Z</Time>
            <Position>
              <LatitudeDegrees>41.74276988022029399871826171875</LatitudeDegrees>
              <LongitudeDegrees>1.78615716286003589630126953125</LongitudeDegrees>
            </Position>
            <AltitudeMeters>337</AltitudeMeters>
            <DistanceMeters>8336.7624586722</DistanceMeters>
          </Trackpoint>
          <Trackpoint>
            <Time>2018-06-21T09:10:33.000Z</Time>
            <Position>
              <LatitudeDegrees>41.742678768932819366455078125</LatitudeDegrees>
              <LongitudeDegrees>1.78611894138157367706298828125</LongitudeDegrees>
            </Position>
            <AltitudeMeters>337.600006103515625</AltitudeMeters>
            <DistanceMeters>8347.3884680762</DistanceMeters>
          </Trackpoint>
          <Trackpoint>
            <Time>2018-06-21T09:10:43.000Z</Time>
            <Position>
              <LatitudeDegrees>41.74254708923399448394775390625</LatitudeDegrees>
              <LongitudeDegrees>1.7860318534076213836669921875</LongitudeDegrees>
            </Position>
            <AltitudeMeters>339</AltitudeMeters>
            <DistanceMeters>8363.7322342055</DistanceMeters>
          </Trackpoint>
          <Trackpoint>
            <Time>2018-06-21T09:10:49.000Z</Time>
            <Position>
              <LatitudeDegrees>41.74247567541897296905517578125</LatitudeDegrees>
              <LongitudeDegrees>1.78594593890011310577392578125</LongitudeDegrees>
            </Position>
            <AltitudeMeters>340.399993896484375</AltitudeMeters>
            <DistanceMeters>8374.4124928934</DistanceMeters>
          </Trackpoint>
          <Trackpoint>
            <Time>2018-06-21T09:10:51.000Z</Time>
            <Position>
              <LatitudeDegrees>41.742451451718807220458984375</LatitudeDegrees>
              <LongitudeDegrees>1.7859168536961078643798828125</LongitudeDegrees>
            </Position>
            <AltitudeMeters>340.79998779296875</AltitudeMeters>
            <DistanceMeters>8378.0310023716</DistanceMeters>
          </Trackpoint>
          <Trackpoint>
            <Time>2018-06-21T09:10:56.000Z</Time>
            <Position>
              <LatitudeDegrees>41.74237073399126529693603515625</LatitudeDegrees>
              <LongitudeDegrees>1.7858779616653919219970703125</LongitudeDegrees>
            </Position>
            <AltitudeMeters>341.399993896484375</AltitudeMeters>
            <DistanceMeters>8387.5772860188</DistanceMeters>
          </Trackpoint>
          <Trackpoint>
            <Time>2018-06-21T09:11:04.000Z</Time>
            <Position>
              <LatitudeDegrees>41.74226713366806507110595703125</LatitudeDegrees>
              <LongitudeDegrees>1.78580076433718204498291015625</LongitudeDegrees>
            </Position>
            <AltitudeMeters>341.600006103515625</AltitudeMeters>
            <DistanceMeters>8400.7706083272</DistanceMeters>
          </Trackpoint>
          <Trackpoint>
            <Time>2018-06-21T09:11:07.000Z</Time>
            <Position>
              <LatitudeDegrees>41.74222455359995365142822265625</LatitudeDegrees>
              <LongitudeDegrees>1.785749383270740509033203125</LongitudeDegrees>
            </Position>
            <AltitudeMeters>342</AltitudeMeters>
            <DistanceMeters>8407.1473186254</DistanceMeters>
          </Trackpoint>
          <Trackpoint>
            <Time>2018-06-21T09:11:15.000Z</Time>
            <Position>
              <LatitudeDegrees>41.7421106435358524322509765625</LatitudeDegrees>
              <LongitudeDegrees>1.785710155963897705078125</LongitudeDegrees>
            </Position>
            <AltitudeMeters>341.600006103515625</AltitudeMeters>
            <DistanceMeters>8420.2375718926</DistanceMeters>
          </Trackpoint>
          <Trackpoint>
            <Time>2018-06-21T09:11:22.000Z</Time>
            <Position>
              <LatitudeDegrees>41.74198885448276996612548828125</LatitudeDegrees>
              <LongitudeDegrees>1.7856298573315143585205078125</LongitudeDegrees>
            </Position>
            <AltitudeMeters>342.399993896484375</AltitudeMeters>
            <DistanceMeters>8435.3447275496</DistanceMeters>
          </Trackpoint>
          <Trackpoint>
            <Time>2018-06-21T09:11:27.000Z</Time>
            <Position>
              <LatitudeDegrees>41.74191735684871673583984375</LatitudeDegrees>
              <LongitudeDegrees>1.78558987565338611602783203125</LongitudeDegrees>
            </Position>
            <AltitudeMeters>342.79998779296875</AltitudeMeters>
            <DistanceMeters>8443.9675837724</DistanceMeters>
          </Trackpoint>
          <Trackpoint>
            <Time>2018-06-21T09:11:32.000Z</Time>
            <Position>
              <LatitudeDegrees>41.74185725860297679901123046875</LatitudeDegrees>
              <LongitudeDegrees>1.78553505800664424896240234375</LongitudeDegrees>
            </Position>
            <AltitudeMeters>343.600006103515625</AltitudeMeters>
            <DistanceMeters>8452.0588169429</DistanceMeters>
          </Trackpoint>
          <Trackpoint>
            <Time>2018-06-21T09:11:36.000Z</Time>
            <Position>
              <LatitudeDegrees>41.7418045364320278167724609375</LatitudeDegrees>
              <LongitudeDegrees>1.78548795171082019805908203125</LongitudeDegrees>
            </Position>
            <AltitudeMeters>344.20001220703125</AltitudeMeters>
            <DistanceMeters>8459.1113101937</DistanceMeters>
          </Trackpoint>
          <Trackpoint>
            <Time>2018-06-21T09:11:44.000Z</Time>
            <Position>
              <LatitudeDegrees>41.7416821606457233428955078125</LatitudeDegrees>
              <LongitudeDegrees>1.78547604940831661224365234375</LongitudeDegrees>
            </Position>
            <AltitudeMeters>343.399993896484375</AltitudeMeters>
            <DistanceMeters>8472.767412812</DistanceMeters>
          </Trackpoint>
          <Trackpoint>
            <Time>2018-06-21T09:11:45.000Z</Time>
            <Position>
              <LatitudeDegrees>41.7416697554290294647216796875</LatitudeDegrees>
              <LongitudeDegrees>1.78547068499028682708740234375</LongitudeDegrees>
            </Position>
            <AltitudeMeters>343.399993896484375</AltitudeMeters>
            <DistanceMeters>8474.2179326538</DistanceMeters>
          </Trackpoint>
          <Trackpoint>
            <Time>2018-06-21T09:11:51.000Z</Time>
            <Position>
              <LatitudeDegrees>41.74159415066242218017578125</LatitudeDegrees>
              <LongitudeDegrees>1.7854759655892848968505859375</LongitudeDegrees>
            </Position>
            <AltitudeMeters>342.600006103515625</AltitudeMeters>
            <DistanceMeters>8482.6442895819</DistanceMeters>
          </Trackpoint>
          <Trackpoint>
            <Time>2018-06-21T09:11:52.000Z</Time>
            <Position>
              <LatitudeDegrees>41.74157529138028621673583984375</LatitudeDegrees>
              <LongitudeDegrees>1.7854823358356952667236328125</LongitudeDegrees>
            </Position>
            <AltitudeMeters>342.20001220703125</AltitudeMeters>
            <DistanceMeters>8484.8091474697</DistanceMeters>
          </Trackpoint>
          <Trackpoint>
            <Time>2018-06-21T09:11:55.000Z</Time>
            <Position>
              <LatitudeDegrees>41.74152868799865245819091796875</LatitudeDegrees>
              <LongitudeDegrees>1.7855044640600681304931640625</LongitudeDegrees>
            </Position>
            <AltitudeMeters>341.399993896484375</AltitudeMeters>
            <DistanceMeters>8490.3116783707</DistanceMeters>
          </Trackpoint>
          <Trackpoint>
            <Time>2018-06-21T09:12:02.000Z</Time>
            <Position>
              <LatitudeDegrees>41.74142508767545223236083984375</LatitudeDegrees>
              <LongitudeDegrees>1.785524748265743255615234375</LongitudeDegrees>
            </Position>
            <AltitudeMeters>341</AltitudeMeters>
            <DistanceMeters>8501.9651465086</DistanceMeters>
          </Trackpoint>
          <Trackpoint>
            <Time>2018-06-21T09:12:06.000Z</Time>
            <Position>
              <LatitudeDegrees>41.741364486515522003173828125</LatitudeDegrees>
              <LongitudeDegrees>1.78551829420030117034912109375</LongitudeDegrees>
            </Position>
            <AltitudeMeters>341.20001220703125</AltitudeMeters>
            <DistanceMeters>8508.7320895146</DistanceMeters>
          </Trackpoint>
          <Trackpoint>
            <Time>2018-06-21T09:12:11.000Z</Time>
            <Position>
              <LatitudeDegrees>41.74131595529615879058837890625</LatitudeDegrees>
              <LongitudeDegrees>1.78549448959529399871826171875</LongitudeDegrees>
            </Position>
            <AltitudeMeters>341.79998779296875</AltitudeMeters>
            <DistanceMeters>8514.4841500229</DistanceMeters>
          </Trackpoint>
          <Trackpoint>
            <Time>2018-06-21T09:12:14.000Z</Time>
            <Position>
              <LatitudeDegrees>41.74127253703773021697998046875</LatitudeDegrees>
              <LongitudeDegrees>1.78546817041933536529541015625</LongitudeDegrees>
            </Position>
            <AltitudeMeters>342.600006103515625</AltitudeMeters>
            <DistanceMeters>8519.7886498296</DistanceMeters>
          </Trackpoint>
          <Trackpoint>
            <Time>2018-06-21T09:12:20.000Z</Time>
            <Position>
              <LatitudeDegrees>41.7411946691572666168212890625</LatitudeDegrees>
              <LongitudeDegrees>1.78545844741165637969970703125</LongitudeDegrees>
            </Position>
            <AltitudeMeters>343.20001220703125</AltitudeMeters>
            <DistanceMeters>8528.4928063864</DistanceMeters>
          </Trackpoint>
          <Trackpoint>
            <Time>2018-06-21T09:12:27.000Z</Time>
            <Position>
              <LatitudeDegrees>41.74110724590718746185302734375</LatitudeDegrees>
              <LongitudeDegrees>1.78544704802334308624267578125</LongitudeDegrees>
            </Position>
            <AltitudeMeters>344</AltitudeMeters>
            <DistanceMeters>8538.2690187962</DistanceMeters>
          </Trackpoint>
          <Trackpoint>
            <Time>2018-06-21T09:12:34.000Z</Time>
            <Position>
              <LatitudeDegrees>41.74100616015493869781494140625</LatitudeDegrees>
              <LongitudeDegrees>1.78546163253486156463623046875</LongitudeDegrees>
            </Position>
            <AltitudeMeters>344.399993896484375</AltitudeMeters>
            <DistanceMeters>8549.5851804269</DistanceMeters>
          </Trackpoint>
          <Trackpoint>
            <Time>2018-06-21T09:12:35.000Z</Time>
            <Position>
              <LatitudeDegrees>41.74099174328148365020751953125</LatitudeDegrees>
              <LongitudeDegrees>1.78546314127743244171142578125</LongitudeDegrees>
            </Position>
            <AltitudeMeters>344.399993896484375</AltitudeMeters>
            <DistanceMeters>8551.1950350599</DistanceMeters>
          </Trackpoint>
          <Trackpoint>
            <Time>2018-06-21T09:12:41.000Z</Time>
            <Position>
              <LatitudeDegrees>41.74091798253357410430908203125</LatitudeDegrees>
              <LongitudeDegrees>1.78538787178695201873779296875</LongitudeDegrees>
            </Position>
            <AltitudeMeters>346.399993896484375</AltitudeMeters>
            <DistanceMeters>8561.5140786894</DistanceMeters>
          </Trackpoint>
          <Trackpoint>
            <Time>2018-06-21T09:12:45.000Z</Time>
            <Position>
              <LatitudeDegrees>41.740923933684825897216796875</LatitudeDegrees>
              <LongitudeDegrees>1.78532165475189685821533203125</LongitudeDegrees>
            </Position>
            <AltitudeMeters>347.79998779296875</AltitudeMeters>
            <DistanceMeters>8567.0534107571</DistanceMeters>
          </Trackpoint>
          <Trackpoint>
            <Time>2018-06-21T09:12:49.000Z</Time>
            <Position>
              <LatitudeDegrees>41.74089007079601287841796875</LatitudeDegrees>
              <LongitudeDegrees>1.78526884876191616058349609375</LongitudeDegrees>
            </Position>
            <AltitudeMeters>349</AltitudeMeters>
            <DistanceMeters>8572.8367837477</DistanceMeters>
          </Trackpoint>
          <Trackpoint>
            <Time>2018-06-21T09:12:56.000Z</Time>
            <Position>
              <LatitudeDegrees>41.74081228673458099365234375</LatitudeDegrees>
              <LongitudeDegrees>1.78514295257627964019775390625</LongitudeDegrees>
            </Position>
            <AltitudeMeters>352</AltitudeMeters>
            <DistanceMeters>8586.4113091507</DistanceMeters>
          </Trackpoint>
          <Trackpoint>
            <Time>2018-06-21T09:12:59.000Z</Time>
            <Position>
              <LatitudeDegrees>41.7407802678644657135009765625</LatitudeDegrees>
              <LongitudeDegrees>1.7850860394537448883056640625</LongitudeDegrees>
            </Position>
            <AltitudeMeters>353.399993896484375</AltitudeMeters>
            <DistanceMeters>8592.3304895502</DistanceMeters>
          </Trackpoint>
          <Trackpoint>
            <Time>2018-06-21T09:13:01.000Z</Time>
            <Position>
              <LatitudeDegrees>41.740753948688507080078125</LatitudeDegrees>
              <LongitudeDegrees>1.7850719578564167022705078125</LongitudeDegrees>
            </Position>
            <AltitudeMeters>353.79998779296875</AltitudeMeters>
            <DistanceMeters>8595.4850329786</DistanceMeters>
          </Trackpoint>
          <Trackpoint>
            <Time>2018-06-21T09:13:06.000Z</Time>
            <Position>
              <LatitudeDegrees>41.7406538687646389007568359375</LatitudeDegrees>
              <LongitudeDegrees>1.78508209995925426483154296875</LongitudeDegrees>
            </Position>
            <AltitudeMeters>353.399993896484375</AltitudeMeters>
            <DistanceMeters>8606.6562306071</DistanceMeters>
          </Trackpoint>
          <Trackpoint>
            <Time>2018-06-21T09:13:13.000Z</Time>
            <Position>
              <LatitudeDegrees>41.74054733477532863616943359375</LatitudeDegrees>
              <LongitudeDegrees>1.785077154636383056640625</LongitudeDegrees>
            </Position>
            <AltitudeMeters>352.20001220703125</AltitudeMeters>
            <DistanceMeters>8618.5212587049</DistanceMeters>
          </Trackpoint>
          <Trackpoint>
            <Time>2018-06-21T09:13:15.000Z</Time>
            <Position>
              <LatitudeDegrees>41.74052185378968715667724609375</LatitudeDegrees>
              <LongitudeDegrees>1.78508587181568145751953125</LongitudeDegrees>
            </Position>
            <AltitudeMeters>351.79998779296875</AltitudeMeters>
            <DistanceMeters>8621.4470940504</DistanceMeters>
          </Trackpoint>
          <Trackpoint>
            <Time>2018-06-21T09:13:20.000Z</Time>
            <Position>
              <LatitudeDegrees>41.7404664494097232818603515625</LatitudeDegrees>
              <LongitudeDegrees>1.78506533615291118621826171875</LongitudeDegrees>
            </Position>
            <AltitudeMeters>351.600006103515625</AltitudeMeters>
            <DistanceMeters>8627.8450106269</DistanceMeters>
          </Trackpoint>
          <Trackpoint>
            <Time>2018-06-21T09:13:28.000Z</Time>
            <Position>
              <LatitudeDegrees>41.74040165729820728302001953125</LatitudeDegrees>
              <LongitudeDegrees>1.78494648076593875885009765625</LongitudeDegrees>
            </Position>
            <AltitudeMeters>353.399993896484375</AltitudeMeters>
            <DistanceMeters>8640.069893659</DistanceMeters>
          </Trackpoint>
          <Trackpoint>
            <Time>2018-06-21T09:13:34.000Z</Time>
            <Position>
              <LatitudeDegrees>41.74035924486815929412841796875</LatitudeDegrees>
              <LongitudeDegrees>1.78483399562537670135498046875</LongitudeDegrees>
            </Position>
            <AltitudeMeters>355.79998779296875</AltitudeMeters>
            <DistanceMeters>8650.5366451807</DistanceMeters>
          </Trackpoint>
          <Trackpoint>
            <Time>2018-06-21T09:13:36.000Z</Time>
            <Position>
              <LatitudeDegrees>41.74033175222575664520263671875</LatitudeDegrees>
              <LongitudeDegrees>1.78479577414691448211669921875</LongitudeDegrees>
            </Position>
            <AltitudeMeters>356.600006103515625</AltitudeMeters>
            <DistanceMeters>8654.9449015829</DistanceMeters>
          </Trackpoint>
          <Trackpoint>
            <Time>2018-06-21T09:13:42.000Z</Time>
            <Position>
              <LatitudeDegrees>41.7402431555092334747314453125</LatitudeDegrees>
              <LongitudeDegrees>1.784739196300506591796875</LongitudeDegrees>
            </Position>
            <AltitudeMeters>357.399993896484375</AltitudeMeters>
            <DistanceMeters>8665.8684280341</DistanceMeters>
          </Trackpoint>
          <Trackpoint>
            <Time>2018-06-21T09:13:47.000Z</Time>
            <Position>
              <LatitudeDegrees>41.74016855657100677490234375</LatitudeDegrees>
              <LongitudeDegrees>1.784689240157604217529296875</LongitudeDegrees>
            </Position>
            <AltitudeMeters>358.20001220703125</AltitudeMeters>
            <DistanceMeters>8675.150937901</DistanceMeters>
          </Trackpoint>
          <Trackpoint>
            <Time>2018-06-21T09:13:53.000Z</Time>
            <Position>
              <LatitudeDegrees>41.74007945694029331207275390625</LatitudeDegrees>
              <LongitudeDegrees>1.78465277887880802154541015625</LongitudeDegrees>
            </Position>
            <AltitudeMeters>358.399993896484375</AltitudeMeters>
            <DistanceMeters>8685.520177035</DistanceMeters>
          </Trackpoint>
          <Trackpoint>
            <Time>2018-06-21T09:13:56.000Z</Time>
            <Position>
              <LatitudeDegrees>41.74003033898770809173583984375</LatitudeDegrees>
              <LongitudeDegrees>1.784669458866119384765625</LongitudeDegrees>
            </Position>
            <AltitudeMeters>357.20001220703125</AltitudeMeters>
            <DistanceMeters>8691.1596742852</DistanceMeters>
          </Trackpoint>
          <Trackpoint>
            <Time>2018-06-21T09:14:04.000Z</Time>
            <Position>
              <LatitudeDegrees>41.73990863375365734100341796875</LatitudeDegrees>
              <LongitudeDegrees>1.78465294651687145233154296875</LongitudeDegrees>
            </Position>
            <AltitudeMeters>356.399993896484375</AltitudeMeters>
            <DistanceMeters>8704.7747177755</DistanceMeters>
          </Trackpoint>
          <Trackpoint>
            <Time>2018-06-21T09:14:09.000Z</Time>
            <Position>
              <LatitudeDegrees>41.73983604647219181060791015625</LatitudeDegrees>
              <LongitudeDegrees>1.78463526070117950439453125</LongitudeDegrees>
            </Position>
            <AltitudeMeters>356</AltitudeMeters>
            <DistanceMeters>8712.9861476636</DistanceMeters>
          </Trackpoint>
          <Trackpoint>
            <Time>2018-06-21T09:14:17.000Z</Time>
            <Position>
              <LatitudeDegrees>41.73973177559673786163330078125</LatitudeDegrees>
              <LongitudeDegrees>1.78453593514859676361083984375</LongitudeDegrees>
            </Position>
            <AltitudeMeters>357</AltitudeMeters>
            <DistanceMeters>8727.2243082248</DistanceMeters>
          </Trackpoint>
          <Trackpoint>
            <Time>2018-06-21T09:14:19.000Z</Time>
            <Position>
              <LatitudeDegrees>41.73970428295433521270751953125</LatitudeDegrees>
              <LongitudeDegrees>1.7845165729522705078125</LongitudeDegrees>
            </Position>
            <AltitudeMeters>357.20001220703125</AltitudeMeters>
            <DistanceMeters>8730.6807212694</DistanceMeters>
          </Trackpoint>
          <Trackpoint>
            <Time>2018-06-21T09:14:26.000Z</Time>
            <Position>
              <LatitudeDegrees>41.73959934152662754058837890625</LatitudeDegrees>
              <LongitudeDegrees>1.784463264048099517822265625</LongitudeDegrees>
            </Position>
            <AltitudeMeters>356.79998779296875</AltitudeMeters>
            <DistanceMeters>8743.1723072757</DistanceMeters>
          </Trackpoint>
          <Trackpoint>
            <Time>2018-06-21T09:14:32.000Z</Time>
            <Position>
              <LatitudeDegrees>41.739502362906932830810546875</LatitudeDegrees>
              <LongitudeDegrees>1.78444826044142246246337890625</LongitudeDegrees>
            </Position>
            <AltitudeMeters>355.399993896484375</AltitudeMeters>
            <DistanceMeters>8754.0386442657</DistanceMeters>
          </Trackpoint>
          <Trackpoint>
            <Time>2018-06-21T09:14:33.000Z</Time>
            <Position>
              <LatitudeDegrees>41.7394874431192874908447265625</LatitudeDegrees>
              <LongitudeDegrees>1.784438788890838623046875</LongitudeDegrees>
            </Position>
            <AltitudeMeters>355.399993896484375</AltitudeMeters>
            <DistanceMeters>8755.8763734596</DistanceMeters>
          </Trackpoint>
          <Trackpoint>
            <Time>2018-06-21T09:14:37.000Z</Time>
            <Position>
              <LatitudeDegrees>41.739417873322963714599609375</LatitudeDegrees>
              <LongitudeDegrees>1.78445965982973575592041015625</LongitudeDegrees>
            </Position>
            <AltitudeMeters>353.79998779296875</AltitudeMeters>
            <DistanceMeters>8763.8109618527</DistanceMeters>
          </Trackpoint>
          <Trackpoint>
            <Time>2018-06-21T09:14:44.000Z</Time>
            <Position>
              <LatitudeDegrees>41.7392973415553569793701171875</LatitudeDegrees>
              <LongitudeDegrees>1.7844637669622898101806640625</LongitudeDegrees>
            </Position>
            <AltitudeMeters>352.600006103515625</AltitudeMeters>
            <DistanceMeters>8777.2309411596</DistanceMeters>
          </Trackpoint>
          <Trackpoint>
            <Time>2018-06-21T09:14:50.000Z</Time>
            <Position>
              <LatitudeDegrees>41.73920405097305774688720703125</LatitudeDegrees>
              <LongitudeDegrees>1.784405596554279327392578125</LongitudeDegrees>
            </Position>
            <AltitudeMeters>353</AltitudeMeters>
            <DistanceMeters>8788.6835330212</DistanceMeters>
          </Trackpoint>
          <Trackpoint>
            <Time>2018-06-21T09:14:54.000Z</Time>
            <Position>
              <LatitudeDegrees>41.73913263715803623199462890625</LatitudeDegrees>
              <LongitudeDegrees>1.78438405506312847137451171875</LongitudeDegrees>
            </Position>
            <AltitudeMeters>353</AltitudeMeters>
            <DistanceMeters>8796.8314850348</DistanceMeters>
          </Trackpoint>
          <Trackpoint>
            <Time>2018-06-21T09:14:58.000Z</Time>
            <Position>
              <LatitudeDegrees>41.73906759358942508697509765625</LatitudeDegrees>
              <LongitudeDegrees>1.78437014110386371612548828125</LongitudeDegrees>
            </Position>
            <AltitudeMeters>352.600006103515625</AltitudeMeters>
            <DistanceMeters>8804.1627206056</DistanceMeters>
          </Trackpoint>
          <Trackpoint>
            <Time>2018-06-21T09:15:05.000Z</Time>
            <Position>
              <LatitudeDegrees>41.738990060985088348388671875</LatitudeDegrees>
              <LongitudeDegrees>1.78428196348249912261962890625</LongitudeDegrees>
            </Position>
            <AltitudeMeters>353.20001220703125</AltitudeMeters>
            <DistanceMeters>8815.4808770117</DistanceMeters>
          </Trackpoint>
          <Trackpoint>
            <Time>2018-06-21T09:15:12.000Z</Time>
            <Position>
              <LatitudeDegrees>41.73891169019043445587158203125</LatitudeDegrees>
              <LongitudeDegrees>1.7841670475900173187255859375</LongitudeDegrees>
            </Position>
            <AltitudeMeters>354</AltitudeMeters>
            <DistanceMeters>8828.4100987644</DistanceMeters>
          </Trackpoint>
          <Trackpoint>
            <Time>2018-06-21T09:15:13.000Z</Time>
            <Position>
              <LatitudeDegrees>41.7388956807553768157958984375</LatitudeDegrees>
              <LongitudeDegrees>1.78414969705045223236083984375</LongitudeDegrees>
            </Position>
            <AltitudeMeters>354.20001220703125</AltitudeMeters>
            <DistanceMeters>8830.7025874755</DistanceMeters>
          </Trackpoint>
          <Trackpoint>
            <Time>2018-06-21T09:15:19.000Z</Time>
            <Position>
              <LatitudeDegrees>41.73882787115871906280517578125</LatitudeDegrees>
              <LongitudeDegrees>1.7840486951172351837158203125</LongitudeDegrees>
            </Position>
            <AltitudeMeters>355</AltitudeMeters>
            <DistanceMeters>8841.9863846139</DistanceMeters>
          </Trackpoint>
          <Trackpoint>
            <Time>2018-06-21T09:15:25.000Z</Time>
            <Position>
              <LatitudeDegrees>41.73878596164286136627197265625</LatitudeDegrees>
              <LongitudeDegrees>1.7839707434177398681640625</LongitudeDegrees>
            </Position>
            <AltitudeMeters>354.399993896484375</AltitudeMeters>
            <DistanceMeters>8849.965234088</DistanceMeters>
          </Trackpoint>
          <Trackpoint>
            <Time>2018-06-21T09:15:26.000Z</Time>
            <Position>
              <LatitudeDegrees>41.73878026194870471954345703125</LatitudeDegrees>
              <LongitudeDegrees>1.78395473398268222808837890625</LongitudeDegrees>
            </Position>
            <AltitudeMeters>354.399993896484375</AltitudeMeters>
            <DistanceMeters>8851.4373816168</DistanceMeters>
          </Trackpoint>
          <Trackpoint>
            <Time>2018-06-21T09:15:32.000Z</Time>
            <Position>
              <LatitudeDegrees>41.73873349092900753021240234375</LatitudeDegrees>
              <LongitudeDegrees>1.783869154751300811767578125</LongitudeDegrees>
            </Position>
            <AltitudeMeters>354</AltitudeMeters>
            <DistanceMeters>8860.2467219416</DistanceMeters>
          </Trackpoint>
          <Trackpoint>
            <Time>2018-06-21T09:15:35.000Z</Time>
            <Position>
              <LatitudeDegrees>41.7387008853256702423095703125</LatitudeDegrees>
              <LongitudeDegrees>1.783816851675510406494140625</LongitudeDegrees>
            </Position>
            <AltitudeMeters>353.600006103515625</AltitudeMeters>
            <DistanceMeters>8865.906996778</DistanceMeters>
          </Trackpoint>
          <Trackpoint>
            <Time>2018-06-21T09:15:40.000Z</Time>
            <Position>
              <LatitudeDegrees>41.738640367984771728515625</LatitudeDegrees>
              <LongitudeDegrees>1.78374635986983776092529296875</LongitudeDegrees>
            </Position>
            <AltitudeMeters>352.79998779296875</AltitudeMeters>
            <DistanceMeters>8874.8314168844</DistanceMeters>
          </Trackpoint>
          <Trackpoint>
            <Time>2018-06-21T09:15:46.000Z</Time>
            <Position>
              <LatitudeDegrees>41.73862083815038204193115234375</LatitudeDegrees>
              <LongitudeDegrees>1.78360235877335071563720703125</LongitudeDegrees>
            </Position>
            <AltitudeMeters>353.399993896484375</AltitudeMeters>
            <DistanceMeters>8886.9874100947</DistanceMeters>
          </Trackpoint>
          <Trackpoint>
            <Time>2018-06-21T09:15:48.000Z</Time>
            <Position>
              <LatitudeDegrees>41.73863626085221767425537109375</LatitudeDegrees>
              <LongitudeDegrees>1.78356707096099853515625</LongitudeDegrees>
            </Position>
            <AltitudeMeters>354.79998779296875</AltitudeMeters>
            <DistanceMeters>8890.3845320671</DistanceMeters>
          </Trackpoint>
          <Trackpoint>
            <Time>2018-06-21T09:15:50.000Z</Time>
            <Position>
              <LatitudeDegrees>41.73866308294236660003662109375</LatitudeDegrees>
              <LongitudeDegrees>1.7835343815386295318603515625</LongitudeDegrees>
            </Position>
            <AltitudeMeters>356.399993896484375</AltitudeMeters>
            <DistanceMeters>8894.4184132939</DistanceMeters>
          </Trackpoint>
          <Trackpoint>
            <Time>2018-06-21T09:15:57.000Z</Time>
            <Position>
              <LatitudeDegrees>41.738696359097957611083984375</LatitudeDegrees>
              <LongitudeDegrees>1.78340144455432891845703125</LongitudeDegrees>
            </Position>
            <AltitudeMeters>360.20001220703125</AltitudeMeters>
            <DistanceMeters>8906.0637423161</DistanceMeters>
          </Trackpoint>
          <Trackpoint>
            <Time>2018-06-21T09:16:02.000Z</Time>
            <Position>
              <LatitudeDegrees>41.73871253617107868194580078125</LatitudeDegrees>
              <LongitudeDegrees>1.78329407237470149993896484375</LongitudeDegrees>
            </Position>
            <AltitudeMeters>363</AltitudeMeters>
            <DistanceMeters>8915.161030407</DistanceMeters>
          </Trackpoint>
          <Trackpoint>
            <Time>2018-06-21T09:16:08.000Z</Time>
            <Position>
              <LatitudeDegrees>41.73872016370296478271484375</LatitudeDegrees>
              <LongitudeDegrees>1.78317639045417308807373046875</LongitudeDegrees>
            </Position>
            <AltitudeMeters>365.20001220703125</AltitudeMeters>
            <DistanceMeters>8924.9713593892</DistanceMeters>
          </Trackpoint>
          <Trackpoint>
            <Time>2018-06-21T09:16:09.000Z</Time>
            <Position>
              <LatitudeDegrees>41.73872443847358226776123046875</LatitudeDegrees>
              <LongitudeDegrees>1.783156357705593109130859375</LongitudeDegrees>
            </Position>
            <AltitudeMeters>365.600006103515625</AltitudeMeters>
            <DistanceMeters>8926.7028285283</DistanceMeters>
          </Trackpoint>
          <Trackpoint>
            <Time>2018-06-21T09:16:16.000Z</Time>
            <Position>
              <LatitudeDegrees>41.73872955143451690673828125</LatitudeDegrees>
              <LongitudeDegrees>1.783022247254848480224609375</LongitudeDegrees>
            </Position>
            <AltitudeMeters>367.20001220703125</AltitudeMeters>
            <DistanceMeters>8937.8554189421</DistanceMeters>
          </Trackpoint>
          <Trackpoint>
            <Time>2018-06-21T09:16:21.000Z</Time>
            <Position>
              <LatitudeDegrees>41.738720834255218505859375</LatitudeDegrees>
              <LongitudeDegrees>1.78291806019842624664306640625</LongitudeDegrees>
            </Position>
            <AltitudeMeters>368</AltitudeMeters>
            <DistanceMeters>8946.5626872752</DistanceMeters>
          </Trackpoint>
          <Trackpoint>
            <Time>2018-06-21T09:16:29.000Z</Time>
            <Position>
              <LatitudeDegrees>41.7387699522078037261962890625</LatitudeDegrees>
              <LongitudeDegrees>1.78279669024050235748291015625</LongitudeDegrees>
            </Position>
            <AltitudeMeters>372.399993896484375</AltitudeMeters>
            <DistanceMeters>8958.0298566372</DistanceMeters>
          </Trackpoint>
          <Trackpoint>
            <Time>2018-06-21T09:16:36.000Z</Time>
            <Position>
              <LatitudeDegrees>41.73876668326556682586669921875</LatitudeDegrees>
              <LongitudeDegrees>1.7827065847814083099365234375</LongitudeDegrees>
            </Position>
            <AltitudeMeters>374</AltitudeMeters>
            <DistanceMeters>8965.522518731</DistanceMeters>
          </Trackpoint>
          <Trackpoint>
            <Time>2018-06-21T09:16:38.000Z</Time>
            <Position>
              <LatitudeDegrees>41.73876735381782054901123046875</LatitudeDegrees>
              <LongitudeDegrees>1.782681941986083984375</LongitudeDegrees>
            </Position>
            <AltitudeMeters>374.399993896484375</AltitudeMeters>
            <DistanceMeters>8967.5694568028</DistanceMeters>
          </Trackpoint>
          <Trackpoint>
            <Time>2018-06-21T09:16:40.000Z</Time>
            <Position>
              <LatitudeDegrees>41.7387704551219940185546875</LatitudeDegrees>
              <LongitudeDegrees>1.7826519347727298736572265625</LongitudeDegrees>
            </Position>
            <AltitudeMeters>375.20001220703125</AltitudeMeters>
            <DistanceMeters>8970.0854225393</DistanceMeters>
          </Trackpoint>
          <Trackpoint>
            <Time>2018-06-21T09:16:47.000Z</Time>
            <Position>
              <LatitudeDegrees>41.7386760748922824859619140625</LatitudeDegrees>
              <LongitudeDegrees>1.782554872334003448486328125</LongitudeDegrees>
            </Position>
            <AltitudeMeters>373</AltitudeMeters>
            <DistanceMeters>8983.3272511286</DistanceMeters>
          </Trackpoint>
          <Trackpoint>
            <Time>2018-06-21T09:17:14.000Z</Time>
            <Position>
              <LatitudeDegrees>41.73833769746124744415283203125</LatitudeDegrees>
              <LongitudeDegrees>1.78229679353535175323486328125</LongitudeDegrees>
            </Position>
            <AltitudeMeters>363</AltitudeMeters>
            <DistanceMeters>9026.6615167505</DistanceMeters>
          </Trackpoint>
          <Trackpoint>
            <Time>2018-06-21T09:17:19.000Z</Time>
            <Position>
              <LatitudeDegrees>41.738300733268260955810546875</LatitudeDegrees>
              <LongitudeDegrees>1.782206855714321136474609375</LongitudeDegrees>
            </Position>
            <AltitudeMeters>362.79998779296875</AltitudeMeters>
            <DistanceMeters>9035.1896018626</DistanceMeters>
          </Trackpoint>
          <Trackpoint>
            <Time>2018-06-21T09:17:20.000Z</Time>
            <Position>
              <LatitudeDegrees>41.7382851429283618927001953125</LatitudeDegrees>
              <LongitudeDegrees>1.78219906054437160491943359375</LongitudeDegrees>
            </Position>
            <AltitudeMeters>362.20001220703125</AltitudeMeters>
            <DistanceMeters>9037.0420135471</DistanceMeters>
          </Trackpoint>
          <Trackpoint>
            <Time>2018-06-21T09:17:27.000Z</Time>
            <Position>
              <LatitudeDegrees>41.7381835542619228363037109375</LatitudeDegrees>
              <LongitudeDegrees>1.782167963683605194091796875</LongitudeDegrees>
            </Position>
            <AltitudeMeters>358.600006103515625</AltitudeMeters>
            <DistanceMeters>9048.6407237711</DistanceMeters>
          </Trackpoint>
          <Trackpoint>
            <Time>2018-06-21T09:17:28.000Z</Time>
            <Position>
              <LatitudeDegrees>41.73816905356943607330322265625</LatitudeDegrees>
              <LongitudeDegrees>1.782161258161067962646484375</LongitudeDegrees>
            </Position>
            <AltitudeMeters>358.20001220703125</AltitudeMeters>
            <DistanceMeters>9050.3512046298</DistanceMeters>
          </Trackpoint>
          <Trackpoint>
            <Time>2018-06-21T09:17:34.000Z</Time>
            <Position>
              <LatitudeDegrees>41.7380623519420623779296875</LatitudeDegrees>
              <LongitudeDegrees>1.78214089013636112213134765625</LongitudeDegrees>
            </Position>
            <AltitudeMeters>354.79998779296875</AltitudeMeters>
            <DistanceMeters>9062.3467983264</DistanceMeters>
          </Trackpoint>
          <Trackpoint>
            <Time>2018-06-21T09:17:38.000Z</Time>
            <Position>
              <LatitudeDegrees>41.7380390502512454986572265625</LatitudeDegrees>
              <LongitudeDegrees>1.78207349963486194610595703125</LongitudeDegrees>
            </Position>
            <AltitudeMeters>355.20001220703125</AltitudeMeters>
            <DistanceMeters>9068.5154887981</DistanceMeters>
          </Trackpoint>
          <Trackpoint>
            <Time>2018-06-21T09:17:41.000Z</Time>
            <Position>
              <LatitudeDegrees>41.73801834695041179656982421875</LatitudeDegrees>
              <LongitudeDegrees>1.782001666724681854248046875</LongitudeDegrees>
            </Position>
            <AltitudeMeters>355.600006103515625</AltitudeMeters>
            <DistanceMeters>9074.9105819338</DistanceMeters>
          </Trackpoint>
          <Trackpoint>
            <Time>2018-06-21T09:17:45.000Z</Time>
            <Position>
              <LatitudeDegrees>41.737994961440563201904296875</LatitudeDegrees>
              <LongitudeDegrees>1.7819491960108280181884765625</LongitudeDegrees>
            </Position>
            <AltitudeMeters>355.600006103515625</AltitudeMeters>
            <DistanceMeters>9079.9853999619</DistanceMeters>
          </Trackpoint>
          <Trackpoint>
            <Time>2018-06-21T09:17:49.000Z</Time>
            <Position>
              <LatitudeDegrees>41.73792916350066661834716796875</LatitudeDegrees>
              <LongitudeDegrees>1.781938634812831878662109375</LongitudeDegrees>
            </Position>
            <AltitudeMeters>353.600006103515625</AltitudeMeters>
            <DistanceMeters>9087.360232192</DistanceMeters>
          </Trackpoint>
          <Trackpoint>
            <Time>2018-06-21T09:17:50.000Z</Time>
            <Position>
              <LatitudeDegrees>41.73792279325425624847412109375</LatitudeDegrees>
              <LongitudeDegrees>1.78191726095974445343017578125</LongitudeDegrees>
            </Position>
            <AltitudeMeters>353.600006103515625</AltitudeMeters>
            <DistanceMeters>9089.2702455122</DistanceMeters>
          </Trackpoint>
          <Trackpoint>
            <Time>2018-06-21T09:17:56.000Z</Time>
            <Position>
              <LatitudeDegrees>41.737857498228549957275390625</LatitudeDegrees>
              <LongitudeDegrees>1.78182388655841350555419921875</LongitudeDegrees>
            </Position>
            <AltitudeMeters>353</AltitudeMeters>
            <DistanceMeters>9099.897954398</DistanceMeters>
          </Trackpoint>
          <Trackpoint>
            <Time>2018-06-21T09:18:00.000Z</Time>
            <Position>
              <LatitudeDegrees>41.7378264851868152618408203125</LatitudeDegrees>
              <LongitudeDegrees>1.7817446775734424591064453125</LongitudeDegrees>
            </Position>
            <AltitudeMeters>353.20001220703125</AltitudeMeters>
            <DistanceMeters>9107.3270746168</DistanceMeters>
          </Trackpoint>
          <Trackpoint>
            <Time>2018-06-21T09:18:04.000Z</Time>
            <Position>
              <LatitudeDegrees>41.73780695535242557525634765625</LatitudeDegrees>
              <LongitudeDegrees>1.78166144527494907379150390625</LongitudeDegrees>
            </Position>
            <AltitudeMeters>353.79998779296875</AltitudeMeters>
            <DistanceMeters>9114.5740687935</DistanceMeters>
          </Trackpoint>
          <Trackpoint>
            <Time>2018-06-21T09:18:05.000Z</Time>
            <Position>
              <LatitudeDegrees>41.7378008365631103515625</LatitudeDegrees>
              <LongitudeDegrees>1.78164199925959110260009765625</LongitudeDegrees>
            </Position>
            <AltitudeMeters>353.79998779296875</AltitudeMeters>
            <DistanceMeters>9116.3288497107</DistanceMeters>
          </Trackpoint>
          <Trackpoint>
            <Time>2018-06-21T09:18:12.000Z</Time>
            <Position>
              <LatitudeDegrees>41.73777376301586627960205078125</LatitudeDegrees>
              <LongitudeDegrees>1.781504787504673004150390625</LongitudeDegrees>
            </Position>
            <AltitudeMeters>354.399993896484375</AltitudeMeters>
            <DistanceMeters>9128.1163764336</DistanceMeters>
          </Trackpoint>
          <Trackpoint>
            <Time>2018-06-21T09:18:17.000Z</Time>
            <Position>
              <LatitudeDegrees>41.73777066171169281005859375</LatitudeDegrees>
              <LongitudeDegrees>1.7814234830439090728759765625</LongitudeDegrees>
            </Position>
            <AltitudeMeters>354.399993896484375</AltitudeMeters>
            <DistanceMeters>9134.8786472883</DistanceMeters>
          </Trackpoint>
          <Trackpoint>
            <Time>2018-06-21T09:18:22.000Z</Time>
            <Position>
              <LatitudeDegrees>41.73773235641419887542724609375</LatitudeDegrees>
              <LongitudeDegrees>1.78134284913539886474609375</LongitudeDegrees>
            </Position>
            <AltitudeMeters>353</AltitudeMeters>
            <DistanceMeters>9142.8172179092</DistanceMeters>
          </Trackpoint>
          <Trackpoint>
            <Time>2018-06-21T09:18:24.000Z</Time>
            <Position>
              <LatitudeDegrees>41.7377064563333988189697265625</LatitudeDegrees>
              <LongitudeDegrees>1.78131728433072566986083984375</LongitudeDegrees>
            </Position>
            <AltitudeMeters>352.20001220703125</AltitudeMeters>
            <DistanceMeters>9146.3968377876</DistanceMeters>
          </Trackpoint>
          <Trackpoint>
            <Time>2018-06-21T09:18:27.000Z</Time>
            <Position>
              <LatitudeDegrees>41.737669743597507476806640625</LatitudeDegrees>
              <LongitudeDegrees>1.78128425963222980499267578125</LongitudeDegrees>
            </Position>
            <AltitudeMeters>351</AltitudeMeters>
            <DistanceMeters>9151.3180840752</DistanceMeters>
          </Trackpoint>
          <Trackpoint>
            <Time>2018-06-21T09:18:32.000Z</Time>
            <Position>
              <LatitudeDegrees>41.7376256547868251800537109375</LatitudeDegrees>
              <LongitudeDegrees>1.7812169529497623443603515625</LongitudeDegrees>
            </Position>
            <AltitudeMeters>349.399993896484375</AltitudeMeters>
            <DistanceMeters>9158.7569219178</DistanceMeters>
          </Trackpoint>
          <Trackpoint>
            <Time>2018-06-21T09:18:35.000Z</Time>
            <Position>
              <LatitudeDegrees>41.737625487148761749267578125</LatitudeDegrees>
              <LongitudeDegrees>1.78115936927497386932373046875</LongitudeDegrees>
            </Position>
            <AltitudeMeters>349.399993896484375</AltitudeMeters>
            <DistanceMeters>9163.540457609</DistanceMeters>
          </Trackpoint>
          <Trackpoint>
            <Time>2018-06-21T09:18:38.000Z</Time>
            <Position>
              <LatitudeDegrees>41.73764996230602264404296875</LatitudeDegrees>
              <LongitudeDegrees>1.7811007797718048095703125</LongitudeDegrees>
            </Position>
            <AltitudeMeters>350.399993896484375</AltitudeMeters>
            <DistanceMeters>9169.1171576433</DistanceMeters>
          </Trackpoint>
          <Trackpoint>
            <Time>2018-06-21T09:18:45.000Z</Time>
            <Position>
              <LatitudeDegrees>41.737723387777805328369140625</LatitudeDegrees>
              <LongitudeDegrees>1.7810147814452648162841796875</LongitudeDegrees>
            </Position>
            <AltitudeMeters>352.79998779296875</AltitudeMeters>
            <DistanceMeters>9179.9710222678</DistanceMeters>
          </Trackpoint>
          <Trackpoint>
            <Time>2018-06-21T09:18:49.000Z</Time>
            <Position>
              <LatitudeDegrees>41.73777409829199314117431640625</LatitudeDegrees>
              <LongitudeDegrees>1.78096105344593524932861328125</LongitudeDegrees>
            </Position>
            <AltitudeMeters>354.20001220703125</AltitudeMeters>
            <DistanceMeters>9187.166119783</DistanceMeters>
          </Trackpoint>
          <Trackpoint>
            <Time>2018-06-21T09:18:55.000Z</Time>
            <Position>
              <LatitudeDegrees>41.737826652824878692626953125</LatitudeDegrees>
              <LongitudeDegrees>1.7808625660836696624755859375</LongitudeDegrees>
            </Position>
            <AltitudeMeters>355.79998779296875</AltitudeMeters>
            <DistanceMeters>9197.2228019483</DistanceMeters>
          </Trackpoint>
          <Trackpoint>
            <Time>2018-06-21T09:19:00.000Z</Time>
            <Position>
              <LatitudeDegrees>41.73786227591335773468017578125</LatitudeDegrees>
              <LongitudeDegrees>1.78077598102390766143798828125</LongitudeDegrees>
            </Position>
            <AltitudeMeters>357</AltitudeMeters>
            <DistanceMeters>9205.4347816659</DistanceMeters>
          </Trackpoint>
          <Trackpoint>
            <Time>2018-06-21T09:19:06.000Z</Time>
            <Position>
              <LatitudeDegrees>41.73787116073071956634521484375</LatitudeDegrees>
              <LongitudeDegrees>1.780662238597869873046875</LongitudeDegrees>
            </Position>
            <AltitudeMeters>357.20001220703125</AltitudeMeters>
            <DistanceMeters>9214.9327005788</DistanceMeters>
          </Trackpoint>
          <Trackpoint>
            <Time>2018-06-21T09:19:11.000Z</Time>
            <Position>
              <LatitudeDegrees>41.7378388904035091400146484375</LatitudeDegrees>
              <LongitudeDegrees>1.78056098520755767822265625</LongitudeDegrees>
            </Position>
            <AltitudeMeters>356.20001220703125</AltitudeMeters>
            <DistanceMeters>9224.0770161831</DistanceMeters>
          </Trackpoint>
          <Trackpoint>
            <Time>2018-06-21T09:19:14.000Z</Time>
            <Position>
              <LatitudeDegrees>41.73784467391669750213623046875</LatitudeDegrees>
              <LongitudeDegrees>1.7804823629558086395263671875</LongitudeDegrees>
            </Position>
            <AltitudeMeters>356.600006103515625</AltitudeMeters>
            <DistanceMeters>9230.6386778998</DistanceMeters>
          </Trackpoint>
          <Trackpoint>
            <Time>2018-06-21T09:19:19.000Z</Time>
            <Position>
              <LatitudeDegrees>41.73782975412905216217041015625</LatitudeDegrees>
              <LongitudeDegrees>1.78038588725030422210693359375</LongitudeDegrees>
            </Position>
            <AltitudeMeters>356.20001220703125</AltitudeMeters>
            <DistanceMeters>9238.8220174937</DistanceMeters>
          </Trackpoint>
          <Trackpoint>
            <Time>2018-06-21T09:19:21.000Z</Time>
            <Position>
              <LatitudeDegrees>41.73783545382320880889892578125</LatitudeDegrees>
              <LongitudeDegrees>1.78034548647701740264892578125</LongitudeDegrees>
            </Position>
            <AltitudeMeters>356.399993896484375</AltitudeMeters>
            <DistanceMeters>9242.2376958693</DistanceMeters>
          </Trackpoint>
          <Trackpoint>
            <Time>2018-06-21T09:19:27.000Z</Time>
            <Position>
              <LatitudeDegrees>41.7378281615674495697021484375</LatitudeDegrees>
              <LongitudeDegrees>1.78024155087769031524658203125</LongitudeDegrees>
            </Position>
            <AltitudeMeters>356.399993896484375</AltitudeMeters>
            <DistanceMeters>9250.9075491736</DistanceMeters>
          </Trackpoint>
          <Trackpoint>
            <Time>2018-06-21T09:19:29.000Z</Time>
            <Position>
              <LatitudeDegrees>41.73782103694975376129150390625</LatitudeDegrees>
              <LongitudeDegrees>1.78019888699054718017578125</LongitudeDegrees>
            </Position>
            <AltitudeMeters>356.20001220703125</AltitudeMeters>
            <DistanceMeters>9254.5385148315</DistanceMeters>
          </Trackpoint>
          <Trackpoint>
            <Time>2018-06-21T09:19:33.000Z</Time>
            <Position>
              <LatitudeDegrees>41.737785078585147857666015625</LatitudeDegrees>
              <LongitudeDegrees>1.7801356874406337738037109375</LongitudeDegrees>
            </Position>
            <AltitudeMeters>355</AltitudeMeters>
            <DistanceMeters>9261.1399653477</DistanceMeters>
          </Trackpoint>
          <Trackpoint>
            <Time>2018-06-21T09:19:38.000Z</Time>
            <Position>
              <LatitudeDegrees>41.73775616101920604705810546875</LatitudeDegrees>
              <LongitudeDegrees>1.78002127446234226226806640625</LongitudeDegrees>
            </Position>
            <AltitudeMeters>354.20001220703125</AltitudeMeters>
            <DistanceMeters>9271.1723744325</DistanceMeters>
          </Trackpoint>
          <Trackpoint>
            <Time>2018-06-21T09:19:41.000Z</Time>
            <Position>
              <LatitudeDegrees>41.7377446778118610382080078125</LatitudeDegrees>
              <LongitudeDegrees>1.77994935773313045501708984375</LongitudeDegrees>
            </Position>
            <AltitudeMeters>354</AltitudeMeters>
            <DistanceMeters>9277.2807519475</DistanceMeters>
          </Trackpoint>
          <Trackpoint>
            <Time>2018-06-21T09:19:46.000Z</Time>
            <Position>
              <LatitudeDegrees>41.73776127398014068603515625</LatitudeDegrees>
              <LongitudeDegrees>1.77985288202762603759765625</LongitudeDegrees>
            </Position>
            <AltitudeMeters>354.600006103515625</AltitudeMeters>
            <DistanceMeters>9285.5037205363</DistanceMeters>
          </Trackpoint>
          <Trackpoint>
            <Time>2018-06-21T09:19:50.000Z</Time>
            <Position>
              <LatitudeDegrees>41.737766973674297332763671875</LatitudeDegrees>
              <LongitudeDegrees>1.77976495586335659027099609375</LongitudeDegrees>
            </Position>
            <AltitudeMeters>354.399993896484375</AltitudeMeters>
            <DistanceMeters>9292.8337242772</DistanceMeters>
          </Trackpoint>
          <Trackpoint>
            <Time>2018-06-21T09:19:56.000Z</Time>
            <Position>
              <LatitudeDegrees>41.7377644591033458709716796875</LatitudeDegrees>
              <LongitudeDegrees>1.7796384729444980621337890625</LongitudeDegrees>
            </Position>
            <AltitudeMeters>354</AltitudeMeters>
            <DistanceMeters>9303.3426649902</DistanceMeters>
          </Trackpoint>
          <Trackpoint>
            <Time>2018-06-21T09:20:03.000Z</Time>
            <Position>
              <LatitudeDegrees>41.73775649629533290863037109375</LatitudeDegrees>
              <LongitudeDegrees>1.7794976569712162017822265625</LongitudeDegrees>
            </Position>
            <AltitudeMeters>353.600006103515625</AltitudeMeters>
            <DistanceMeters>9315.0718258564</DistanceMeters>
          </Trackpoint>
          <Trackpoint>
            <Time>2018-06-21T09:20:08.000Z</Time>
            <Position>
              <LatitudeDegrees>41.7377500422298908233642578125</LatitudeDegrees>
              <LongitudeDegrees>1.77939129061996936798095703125</LongitudeDegrees>
            </Position>
            <AltitudeMeters>353.399993896484375</AltitudeMeters>
            <DistanceMeters>9323.9353277074</DistanceMeters>
          </Trackpoint>
          <Trackpoint>
            <Time>2018-06-21T09:20:12.000Z</Time>
            <Position>
              <LatitudeDegrees>41.7377369664609432220458984375</LatitudeDegrees>
              <LongitudeDegrees>1.779293976724147796630859375</LongitudeDegrees>
            </Position>
            <AltitudeMeters>353.399993896484375</AltitudeMeters>
            <DistanceMeters>9332.147307425</DistanceMeters>
          </Trackpoint>
          <Trackpoint>
            <Time>2018-06-21T09:20:17.000Z</Time>
            <Position>
              <LatitudeDegrees>41.73773445188999176025390625</LatitudeDegrees>
              <LongitudeDegrees>1.77918945439159870147705078125</LongitudeDegrees>
            </Position>
            <AltitudeMeters>354.20001220703125</AltitudeMeters>
            <DistanceMeters>9340.833289735</DistanceMeters>
          </Trackpoint>
          <Trackpoint>
            <Time>2018-06-21T09:20:22.000Z</Time>
            <Position>
              <LatitudeDegrees>41.737742163240909576416015625</LatitudeDegrees>
              <LongitudeDegrees>1.7790864408016204833984375</LongitudeDegrees>
            </Position>
            <AltitudeMeters>355.20001220703125</AltitudeMeters>
            <DistanceMeters>9349.4315009354</DistanceMeters>
          </Trackpoint>
          <Trackpoint>
            <Time>2018-06-21T09:20:27.000Z</Time>
            <Position>
              <LatitudeDegrees>41.73775725066661834716796875</LatitudeDegrees>
              <LongitudeDegrees>1.77899633534252643585205078125</LongitudeDegrees>
            </Position>
            <AltitudeMeters>355.79998779296875</AltitudeMeters>
            <DistanceMeters>9357.1010457691</DistanceMeters>
          </Trackpoint>
          <Trackpoint>
            <Time>2018-06-21T09:20:32.000Z</Time>
            <Position>
              <LatitudeDegrees>41.7377949692308902740478515625</LatitudeDegrees>
              <LongitudeDegrees>1.7789112590253353118896484375</LongitudeDegrees>
            </Position>
            <AltitudeMeters>357</AltitudeMeters>
            <DistanceMeters>9365.3196205726</DistanceMeters>
          </Trackpoint>
          <Trackpoint>
            <Time>2018-06-21T09:20:38.000Z</Time>
            <Position>
              <LatitudeDegrees>41.73784987069666385650634765625</LatitudeDegrees>
              <LongitudeDegrees>1.778813190758228302001953125</LongitudeDegrees>
            </Position>
            <AltitudeMeters>358.79998779296875</AltitudeMeters>
            <DistanceMeters>9375.5021221184</DistanceMeters>
          </Trackpoint>
          <Trackpoint>
            <Time>2018-06-21T09:20:40.000Z</Time>
            <Position>
              <LatitudeDegrees>41.737869568169116973876953125</LatitudeDegrees>
              <LongitudeDegrees>1.7787784896790981292724609375</LongitudeDegrees>
            </Position>
            <AltitudeMeters>359.600006103515625</AltitudeMeters>
            <DistanceMeters>9379.1231262604</DistanceMeters>
          </Trackpoint>
          <Trackpoint>
            <Time>2018-06-21T09:20:43.000Z</Time>
            <Position>
              <LatitudeDegrees>41.73788859508931636810302734375</LatitudeDegrees>
              <LongitudeDegrees>1.77871939726173877716064453125</LongitudeDegrees>
            </Position>
            <AltitudeMeters>360</AltitudeMeters>
            <DistanceMeters>9384.4683261508</DistanceMeters>
          </Trackpoint>
          <Trackpoint>
            <Time>2018-06-21T09:20:45.000Z</Time>
            <Position>
              <LatitudeDegrees>41.73791139386594295501708984375</LatitudeDegrees>
              <LongitudeDegrees>1.77869458682835102081298828125</LongitudeDegrees>
            </Position>
            <AltitudeMeters>360.20001220703125</AltitudeMeters>
            <DistanceMeters>9387.7367478545</DistanceMeters>
          </Trackpoint>
          <Trackpoint>
            <Time>2018-06-21T09:20:49.000Z</Time>
            <Position>
              <LatitudeDegrees>41.7379173450171947479248046875</LatitudeDegrees>
              <LongitudeDegrees>1.77862367592751979827880859375</LongitudeDegrees>
            </Position>
            <AltitudeMeters>359</AltitudeMeters>
            <DistanceMeters>9393.6635511554</DistanceMeters>
          </Trackpoint>
          <Trackpoint>
            <Time>2018-06-21T09:20:55.000Z</Time>
            <Position>
              <LatitudeDegrees>41.7379109747707843780517578125</LatitudeDegrees>
              <LongitudeDegrees>1.7785226739943027496337890625</LongitudeDegrees>
            </Position>
            <AltitudeMeters>357</AltitudeMeters>
            <DistanceMeters>9402.0824032154</DistanceMeters>
          </Trackpoint>
          <Trackpoint>
            <Time>2018-06-21T09:21:01.000Z</Time>
            <Position>
              <LatitudeDegrees>41.73787149600684642791748046875</LatitudeDegrees>
              <LongitudeDegrees>1.77838437259197235107421875</LongitudeDegrees>
            </Position>
            <AltitudeMeters>353.399993896484375</AltitudeMeters>
            <DistanceMeters>9414.3801965249</DistanceMeters>
          </Trackpoint>
          <Trackpoint>
            <Time>2018-06-21T09:21:02.000Z</Time>
            <Position>
              <LatitudeDegrees>41.73786596395075321197509765625</LatitudeDegrees>
              <LongitudeDegrees>1.77836065180599689483642578125</LongitudeDegrees>
            </Position>
            <AltitudeMeters>352.79998779296875</AltitudeMeters>
            <DistanceMeters>9416.4447052029</DistanceMeters>
          </Trackpoint>
          <Trackpoint>
            <Time>2018-06-21T09:21:07.000Z</Time>
            <Position>
              <LatitudeDegrees>41.7378509603440761566162109375</LatitudeDegrees>
              <LongitudeDegrees>1.77829183638095855712890625</LongitudeDegrees>
            </Position>
            <AltitudeMeters>351.20001220703125</AltitudeMeters>
            <DistanceMeters>9422.3988701418</DistanceMeters>
          </Trackpoint>
          <Trackpoint>
            <Time>2018-06-21T09:21:13.000Z</Time>
            <Position>
              <LatitudeDegrees>41.7378888465464115142822265625</LatitudeDegrees>
              <LongitudeDegrees>1.7782440595328807830810546875</LongitudeDegrees>
            </Position>
            <AltitudeMeters>351.399993896484375</AltitudeMeters>
            <DistanceMeters>9428.1892651055</DistanceMeters>
          </Trackpoint>
          <Trackpoint>
            <Time>2018-06-21T09:21:18.000Z</Time>
            <Position>
              <LatitudeDegrees>41.73795045353472232818603515625</LatitudeDegrees>
              <LongitudeDegrees>1.778262667357921600341796875</LongitudeDegrees>
            </Position>
            <AltitudeMeters>353.600006103515625</AltitudeMeters>
            <DistanceMeters>9435.2180308738</DistanceMeters>
          </Trackpoint>
          <Trackpoint>
            <Time>2018-06-21T09:21:19.000Z</Time>
            <Position>
              <LatitudeDegrees>41.7379575781524181365966796875</LatitudeDegrees>
              <LongitudeDegrees>1.77827415056526660919189453125</LongitudeDegrees>
            </Position>
            <AltitudeMeters>354</AltitudeMeters>
            <DistanceMeters>9436.4570276435</DistanceMeters>
          </Trackpoint>
          <Trackpoint>
            <Time>2018-06-21T09:21:23.000Z</Time>
            <Position>
              <LatitudeDegrees>41.738003678619861602783203125</LatitudeDegrees>
              <LongitudeDegrees>1.7782792635262012481689453125</LongitudeDegrees>
            </Position>
            <AltitudeMeters>355.399993896484375</AltitudeMeters>
            <DistanceMeters>9441.6060376881</DistanceMeters>
          </Trackpoint>
          <Trackpoint>
            <Time>2018-06-21T09:21:27.000Z</Time>
            <Position>
              <LatitudeDegrees>41.7380641959607601165771484375</LatitudeDegrees>
              <LongitudeDegrees>1.77826476283371448516845703125</LongitudeDegrees>
            </Position>
            <AltitudeMeters>356.79998779296875</AltitudeMeters>
            <DistanceMeters>9448.4479611228</DistanceMeters>
          </Trackpoint>
          <Trackpoint>
            <Time>2018-06-21T09:21:32.000Z</Time>
            <Position>
              <LatitudeDegrees>41.73814608715474605560302734375</LatitudeDegrees>
              <LongitudeDegrees>1.77823374979197978973388671875</LongitudeDegrees>
            </Position>
            <AltitudeMeters>358.600006103515625</AltitudeMeters>
            <DistanceMeters>9457.9192218305</DistanceMeters>
          </Trackpoint>
          <Trackpoint>
            <Time>2018-06-21T09:21:34.000Z</Time>
            <Position>
              <LatitudeDegrees>41.73817743547260761260986328125</LatitudeDegrees>
              <LongitudeDegrees>1.77821715362370014190673828125</LongitudeDegrees>
            </Position>
            <AltitudeMeters>359.20001220703125</AltitudeMeters>
            <DistanceMeters>9461.6700696147</DistanceMeters>
          </Trackpoint>
          <Trackpoint>
            <Time>2018-06-21T09:21:41.000Z</Time>
            <Position>
              <LatitudeDegrees>41.7382586561143398284912109375</LatitudeDegrees>
              <LongitudeDegrees>1.778132580220699310302734375</LongitudeDegrees>
            </Position>
            <AltitudeMeters>361</AltitudeMeters>
            <DistanceMeters>9473.1187184251</DistanceMeters>
          </Trackpoint>
          <Trackpoint>
            <Time>2018-06-21T09:21:45.000Z</Time>
            <Position>
              <LatitudeDegrees>41.73830173909664154052734375</LatitudeDegrees>
              <LongitudeDegrees>1.77808857522904872894287109375</LongitudeDegrees>
            </Position>
            <AltitudeMeters>362.20001220703125</AltitudeMeters>
            <DistanceMeters>9479.1474875936</DistanceMeters>
          </Trackpoint>
          <Trackpoint>
            <Time>2018-06-21T09:21:52.000Z</Time>
            <Position>
              <LatitudeDegrees>41.73834658227860927581787109375</LatitudeDegrees>
              <LongitudeDegrees>1.77797759883105754852294921875</LongitudeDegrees>
            </Position>
            <AltitudeMeters>362.600006103515625</AltitudeMeters>
            <DistanceMeters>9489.6288954197</DistanceMeters>
          </Trackpoint>
          <Trackpoint>
            <Time>2018-06-21T09:21:55.000Z</Time>
            <Position>
              <LatitudeDegrees>41.73838379792869091033935546875</LatitudeDegrees>
              <LongitudeDegrees>1.7779285646975040435791015625</LongitudeDegrees>
            </Position>
            <AltitudeMeters>363.399993896484375</AltitudeMeters>
            <DistanceMeters>9495.435641965</DistanceMeters>
          </Trackpoint>
          <Trackpoint>
            <Time>2018-06-21T09:21:59.000Z</Time>
            <Position>
              <LatitudeDegrees>41.7384190857410430908203125</LatitudeDegrees>
              <LongitudeDegrees>1.7778712324798107147216796875</LongitudeDegrees>
            </Position>
            <AltitudeMeters>364.20001220703125</AltitudeMeters>
            <DistanceMeters>9501.6072594548</DistanceMeters>
          </Trackpoint>
          <Trackpoint>
            <Time>2018-06-21T09:22:05.000Z</Time>
            <Position>
              <LatitudeDegrees>41.73842587508261203765869140625</LatitudeDegrees>
              <LongitudeDegrees>1.7777662910521030426025390625</LongitudeDegrees>
            </Position>
            <AltitudeMeters>362.79998779296875</AltitudeMeters>
            <DistanceMeters>9510.3553962772</DistanceMeters>
          </Trackpoint>
          <Trackpoint>
            <Time>2018-06-21T09:22:09.000Z</Time>
            <Position>
              <LatitudeDegrees>41.73839184455573558807373046875</LatitudeDegrees>
              <LongitudeDegrees>1.777698062360286712646484375</LongitudeDegrees>
            </Position>
            <AltitudeMeters>360.20001220703125</AltitudeMeters>
            <DistanceMeters>9517.170872286</DistanceMeters>
          </Trackpoint>
          <Trackpoint>
            <Time>2018-06-21T09:22:14.000Z</Time>
            <Position>
              <LatitudeDegrees>41.7383793555200099945068359375</LatitudeDegrees>
              <LongitudeDegrees>1.7775976471602916717529296875</LongitudeDegrees>
            </Position>
            <AltitudeMeters>358</AltitudeMeters>
            <DistanceMeters>9525.6255801539</DistanceMeters>
          </Trackpoint>
          <Trackpoint>
            <Time>2018-06-21T09:22:17.000Z</Time>
            <Position>
              <LatitudeDegrees>41.73835764639079570770263671875</LatitudeDegrees>
              <LongitudeDegrees>1.777552552521228790283203125</LongitudeDegrees>
            </Position>
            <AltitudeMeters>356.399993896484375</AltitudeMeters>
            <DistanceMeters>9530.0827281407</DistanceMeters>
          </Trackpoint>
          <Trackpoint>
            <Time>2018-06-21T09:22:22.000Z</Time>
            <Position>
              <LatitudeDegrees>41.73834105022251605987548828125</LatitudeDegrees>
              <LongitudeDegrees>1.777456663548946380615234375</LongitudeDegrees>
            </Position>
            <AltitudeMeters>354.20001220703125</AltitudeMeters>
            <DistanceMeters>9538.2572352014</DistanceMeters>
          </Trackpoint>
          <Trackpoint>
            <Time>2018-06-21T09:22:27.000Z</Time>
            <Position>
              <LatitudeDegrees>41.738356053829193115234375</LatitudeDegrees>
              <LongitudeDegrees>1.7773572541773319244384765625</LongitudeDegrees>
            </Position>
            <AltitudeMeters>353.20001220703125</AltitudeMeters>
            <DistanceMeters>9546.6803765762</DistanceMeters>
          </Trackpoint>
          <Trackpoint>
            <Time>2018-06-21T09:22:31.000Z</Time>
            <Position>
              <LatitudeDegrees>41.73838245682418346405029296875</LatitudeDegrees>
              <LongitudeDegrees>1.77729413844645023345947265625</LongitudeDegrees>
            </Position>
            <AltitudeMeters>353.399993896484375</AltitudeMeters>
            <DistanceMeters>9552.6896423966</DistanceMeters>
          </Trackpoint>
          <Trackpoint>
            <Time>2018-06-21T09:22:36.000Z</Time>
            <Position>
              <LatitudeDegrees>41.738415062427520751953125</LatitudeDegrees>
              <LongitudeDegrees>1.77719439379870891571044921875</LongitudeDegrees>
            </Position>
            <AltitudeMeters>353.399993896484375</AltitudeMeters>
            <DistanceMeters>9561.7336698418</DistanceMeters>
          </Trackpoint>
          <Trackpoint>
            <Time>2018-06-21T09:22:43.000Z</Time>
            <Position>
              <LatitudeDegrees>41.738424785435199737548828125</LatitudeDegrees>
              <LongitudeDegrees>1.7770615406334400177001953125</LongitudeDegrees>
            </Position>
            <AltitudeMeters>351.79998779296875</AltitudeMeters>
            <DistanceMeters>9572.8204818522</DistanceMeters>
          </Trackpoint>
          <Trackpoint>
            <Time>2018-06-21T09:22:51.000Z</Time>
            <Position>
              <LatitudeDegrees>41.73841866664588451385498046875</LatitudeDegrees>
              <LongitudeDegrees>1.776891387999057769775390625</LongitudeDegrees>
            </Position>
            <AltitudeMeters>349.20001220703125</AltitudeMeters>
            <DistanceMeters>9586.9682970354</DistanceMeters>
          </Trackpoint>
          <Trackpoint>
            <Time>2018-06-21T09:22:52.000Z</Time>
            <Position>
              <LatitudeDegrees>41.73841447569429874420166015625</LatitudeDegrees>
              <LongitudeDegrees>1.77687286399304866790771484375</LongitudeDegrees>
            </Position>
            <AltitudeMeters>348.600006103515625</AltitudeMeters>
            <DistanceMeters>9588.5781516684</DistanceMeters>
          </Trackpoint>
          <Trackpoint>
            <Time>2018-06-21T09:22:56.000Z</Time>
            <Position>
              <LatitudeDegrees>41.73842453397810459136962890625</LatitudeDegrees>
              <LongitudeDegrees>1.77679709158837795257568359375</LongitudeDegrees>
            </Position>
            <AltitudeMeters>348</AltitudeMeters>
            <DistanceMeters>9594.9697137492</DistanceMeters>
          </Trackpoint>
          <Trackpoint>
            <Time>2018-06-21T09:23:03.000Z</Time>
            <Position>
              <LatitudeDegrees>41.73850114457309246063232421875</LatitudeDegrees>
              <LongitudeDegrees>1.77668058313429355621337890625</LongitudeDegrees>
            </Position>
            <AltitudeMeters>348.399993896484375</AltitudeMeters>
            <DistanceMeters>9607.8667679902</DistanceMeters>
          </Trackpoint>
          <Trackpoint>
            <Time>2018-06-21T09:23:05.000Z</Time>
            <Position>
              <LatitudeDegrees>41.7385255359113216400146484375</LatitudeDegrees>
              <LongitudeDegrees>1.77664504386484622955322265625</LongitudeDegrees>
            </Position>
            <AltitudeMeters>348.399993896484375</AltitudeMeters>
            <DistanceMeters>9611.877075478</DistanceMeters>
          </Trackpoint>
          <Trackpoint>
            <Time>2018-06-21T09:23:12.000Z</Time>
            <Position>
              <LatitudeDegrees>41.73862704075872898101806640625</LatitudeDegrees>
              <LongitudeDegrees>1.77660338580608367919921875</LongitudeDegrees>
            </Position>
            <AltitudeMeters>351</AltitudeMeters>
            <DistanceMeters>9623.6929128119</DistanceMeters>
          </Trackpoint>
          <Trackpoint>
            <Time>2018-06-21T09:23:13.000Z</Time>
            <Position>
              <LatitudeDegrees>41.73864615149796009063720703125</LatitudeDegrees>
              <LongitudeDegrees>1.77659994922578334808349609375</LongitudeDegrees>
            </Position>
            <AltitudeMeters>351.600006103515625</AltitudeMeters>
            <DistanceMeters>9625.8389181675</DistanceMeters>
          </Trackpoint>
          <Trackpoint>
            <Time>2018-06-21T09:23:19.000Z</Time>
            <Position>
              <LatitudeDegrees>41.73872343264520168304443359375</LatitudeDegrees>
              <LongitudeDegrees>1.77658989094197750091552734375</LongitudeDegrees>
            </Position>
            <AltitudeMeters>354</AltitudeMeters>
            <DistanceMeters>9634.4811263499</DistanceMeters>
          </Trackpoint>
          <Trackpoint>
            <Time>2018-06-21T09:23:24.000Z</Time>
            <Position>
              <LatitudeDegrees>41.73878696747124195098876953125</LatitudeDegrees>
              <LongitudeDegrees>1.7765257693827152252197265625</LongitudeDegrees>
            </Position>
            <AltitudeMeters>355</AltitudeMeters>
            <DistanceMeters>9643.3334143808</DistanceMeters>
          </Trackpoint>
          <Trackpoint>
            <Time>2018-06-21T09:23:26.000Z</Time>
            <Position>
              <LatitudeDegrees>41.7388108558952808380126953125</LatitudeDegrees>
              <LongitudeDegrees>1.77650255151093006134033203125</LongitudeDegrees>
            </Position>
            <AltitudeMeters>355.600006103515625</AltitudeMeters>
            <DistanceMeters>9646.6169964604</DistanceMeters>
          </Trackpoint>
          <Trackpoint>
            <Time>2018-06-21T09:23:30.000Z</Time>
            <Position>
              <LatitudeDegrees>41.738854944705963134765625</LatitudeDegrees>
              <LongitudeDegrees>1.77644605748355388641357421875</LongitudeDegrees>
            </Position>
            <AltitudeMeters>356.399993896484375</AltitudeMeters>
            <DistanceMeters>9653.4065870406</DistanceMeters>
          </Trackpoint>
          <Trackpoint>
            <Time>2018-06-21T09:23:37.000Z</Time>
            <Position>
              <LatitudeDegrees>41.73894505016505718231201171875</LatitudeDegrees>
              <LongitudeDegrees>1.77635553292930126190185546875</LongitudeDegrees>
            </Position>
            <AltitudeMeters>358.20001220703125</AltitudeMeters>
            <DistanceMeters>9665.940751152</DistanceMeters>
          </Trackpoint>
          <Trackpoint>
            <Time>2018-06-21T09:23:39.000Z</Time>
            <Position>
              <LatitudeDegrees>41.73897606320679187774658203125</LatitudeDegrees>
              <LongitudeDegrees>1.776340194046497344970703125</LongitudeDegrees>
            </Position>
            <AltitudeMeters>359</AltitudeMeters>
            <DistanceMeters>9669.621119974</DistanceMeters>
          </Trackpoint>
          <Trackpoint>
            <Time>2018-06-21T09:23:41.000Z</Time>
            <Position>
              <LatitudeDegrees>41.73900104127824306488037109375</LatitudeDegrees>
              <LongitudeDegrees>1.77631295286118984222412109375</LongitudeDegrees>
            </Position>
            <AltitudeMeters>359.399993896484375</AltitudeMeters>
            <DistanceMeters>9673.2057815731</DistanceMeters>
          </Trackpoint>
          <Trackpoint>
            <Time>2018-06-21T09:23:47.000Z</Time>
            <Position>
              <LatitudeDegrees>41.73904546536505222320556640625</LatitudeDegrees>
              <LongitudeDegrees>1.77618336863815784454345703125</LongitudeDegrees>
            </Position>
            <AltitudeMeters>359</AltitudeMeters>
            <DistanceMeters>9685.0494806355</DistanceMeters>
          </Trackpoint>
          <Trackpoint>
            <Time>2018-06-21T09:23:52.000Z</Time>
            <Position>
              <LatitudeDegrees>41.73901579342782497406005859375</LatitudeDegrees>
              <LongitudeDegrees>1.77610944025218486785888671875</LongitudeDegrees>
            </Position>
            <AltitudeMeters>357</AltitudeMeters>
            <DistanceMeters>9692.0214890619</DistanceMeters>
          </Trackpoint>
          <Trackpoint>
            <Time>2018-06-21T09:23:58.000Z</Time>
            <Position>
              <LatitudeDegrees>41.7389362491667270660400390625</LatitudeDegrees>
              <LongitudeDegrees>1.77604909054934978485107421875</LongitudeDegrees>
            </Position>
            <AltitudeMeters>353.399993896484375</AltitudeMeters>
            <DistanceMeters>9702.1951185126</DistanceMeters>
          </Trackpoint>
          <Trackpoint>
            <Time>2018-06-21T09:24:04.000Z</Time>
            <Position>
              <LatitudeDegrees>41.7388777434825897216796875</LatitudeDegrees>
              <LongitudeDegrees>1.77595965564250946044921875</LongitudeDegrees>
            </Position>
            <AltitudeMeters>350.20001220703125</AltitudeMeters>
            <DistanceMeters>9712.0733271586</DistanceMeters>
          </Trackpoint>
          <Trackpoint>
            <Time>2018-06-21T09:24:08.000Z</Time>
            <Position>
              <LatitudeDegrees>41.738858632743358612060546875</LatitudeDegrees>
              <LongitudeDegrees>1.77590525709092617034912109375</LongitudeDegrees>
            </Position>
            <AltitudeMeters>348.79998779296875</AltitudeMeters>
            <DistanceMeters>9717.0674307957</DistanceMeters>
          </Trackpoint>
          <Trackpoint>
            <Time>2018-06-21T09:24:17.000Z</Time>
            <Position>
              <LatitudeDegrees>41.73890699632465839385986328125</LatitudeDegrees>
              <LongitudeDegrees>1.77569805644452571868896484375</LongitudeDegrees>
            </Position>
            <AltitudeMeters>347.600006103515625</AltitudeMeters>
            <DistanceMeters>9735.0979829818</DistanceMeters>
          </Trackpoint>
          <Trackpoint>
            <Time>2018-06-21T09:24:21.000Z</Time>
            <Position>
              <LatitudeDegrees>41.73894085921347141265869140625</LatitudeDegrees>
              <LongitudeDegrees>1.7756027542054653167724609375</LongitudeDegrees>
            </Position>
            <AltitudeMeters>348.399993896484375</AltitudeMeters>
            <DistanceMeters>9743.8646802284</DistanceMeters>
          </Trackpoint>
          <Trackpoint>
            <Time>2018-06-21T09:24:27.000Z</Time>
            <Position>
              <LatitudeDegrees>41.73900255002081394195556640625</LatitudeDegrees>
              <LongitudeDegrees>1.77553586661815643310546875</LongitudeDegrees>
            </Position>
            <AltitudeMeters>349.79998779296875</AltitudeMeters>
            <DistanceMeters>9752.6970542241</DistanceMeters>
          </Trackpoint>
          <Trackpoint>
            <Time>2018-06-21T09:24:32.000Z</Time>
            <Position>
              <LatitudeDegrees>41.739008836448192596435546875</LatitudeDegrees>
              <LongitudeDegrees>1.77543335594236850738525390625</LongitudeDegrees>
            </Position>
            <AltitudeMeters>349.399993896484375</AltitudeMeters>
            <DistanceMeters>9761.2399505608</DistanceMeters>
          </Trackpoint>
          <Trackpoint>
            <Time>2018-06-21T09:24:37.000Z</Time>
            <Position>
              <LatitudeDegrees>41.73899098299443721771240234375</LatitudeDegrees>
              <LongitudeDegrees>1.775335036218166351318359375</LongitudeDegrees>
            </Position>
            <AltitudeMeters>348.399993896484375</AltitudeMeters>
            <DistanceMeters>9769.6443100215</DistanceMeters>
          </Trackpoint>
          <Trackpoint>
            <Time>2018-06-21T09:24:44.000Z</Time>
            <Position>
              <LatitudeDegrees>41.738994754850864410400390625</LatitudeDegrees>
              <LongitudeDegrees>1.7751903645694255828857421875</LongitudeDegrees>
            </Position>
            <AltitudeMeters>347.600006103515625</AltitudeMeters>
            <DistanceMeters>9781.6669733554</DistanceMeters>
          </Trackpoint>
          <Trackpoint>
            <Time>2018-06-21T09:24:48.000Z</Time>
            <Position>
              <LatitudeDegrees>41.7389945872128009796142578125</LatitudeDegrees>
              <LongitudeDegrees>1.77514216862618923187255859375</LongitudeDegrees>
            </Position>
            <AltitudeMeters>347.20001220703125</AltitudeMeters>
            <DistanceMeters>9785.670519994</DistanceMeters>
          </Trackpoint>
          <Trackpoint>
            <Time>2018-06-21T09:24:50.000Z</Time>
            <Position>
              <LatitudeDegrees>41.73898276872932910919189453125</LatitudeDegrees>
              <LongitudeDegrees>1.77512347698211669921875</LongitudeDegrees>
            </Position>
            <AltitudeMeters>346.79998779296875</AltitudeMeters>
            <DistanceMeters>9787.7041804896</DistanceMeters>
          </Trackpoint>
          <Trackpoint>
            <Time>2018-06-21T09:24:57.000Z</Time>
            <Position>
              <LatitudeDegrees>41.73893935047090053558349609375</LatitudeDegrees>
              <LongitudeDegrees>1.77522229962050914764404296875</LongitudeDegrees>
            </Position>
            <AltitudeMeters>346.20001220703125</AltitudeMeters>
            <DistanceMeters>9797.228682994</DistanceMeters>
          </Trackpoint>
          <Trackpoint>
            <Time>2018-06-21T09:24:59.000Z</Time>
            <Position>
              <LatitudeDegrees>41.7389392666518688201904296875</LatitudeDegrees>
              <LongitudeDegrees>1.775252558290958404541015625</LongitudeDegrees>
            </Position>
            <AltitudeMeters>346.399993896484375</AltitudeMeters>
            <DistanceMeters>9799.739259294</DistanceMeters>
          </Trackpoint>
          <Trackpoint>
            <Time>2018-06-21T09:25:02.000Z</Time>
            <Position>
              <LatitudeDegrees>41.7389211617410182952880859375</LatitudeDegrees>
              <LongitudeDegrees>1.77531215362250804901123046875</LongitudeDegrees>
            </Position>
            <AltitudeMeters>346.20001220703125</AltitudeMeters>
            <DistanceMeters>9805.0827695368</DistanceMeters>
          </Trackpoint>
          <Trackpoint>
            <Time>2018-06-21T09:25:06.000Z</Time>
            <Position>
              <LatitudeDegrees>41.73889609985053539276123046875</LatitudeDegrees>
              <LongitudeDegrees>1.77540536038577556610107421875</LongitudeDegrees>
            </Position>
            <AltitudeMeters>346</AltitudeMeters>
            <DistanceMeters>9813.3112270579</DistanceMeters>
          </Trackpoint>
          <Trackpoint>
            <Time>2018-06-21T09:25:12.000Z</Time>
            <Position>
              <LatitudeDegrees>41.73880423419177532196044921875</LatitudeDegrees>
              <LongitudeDegrees>1.77547375671565532684326171875</LongitudeDegrees>
            </Position>
            <AltitudeMeters>343.79998779296875</AltitudeMeters>
            <DistanceMeters>9825.0083941628</DistanceMeters>
          </Trackpoint>
          <Trackpoint>
            <Time>2018-06-21T09:25:16.000Z</Time>
            <Position>
              <LatitudeDegrees>41.73875595442950725555419921875</LatitudeDegrees>
              <LongitudeDegrees>1.77553595043718814849853515625</LongitudeDegrees>
            </Position>
            <AltitudeMeters>342.399993896484375</AltitudeMeters>
            <DistanceMeters>9832.4617846855</DistanceMeters>
          </Trackpoint>
          <Trackpoint>
            <Time>2018-06-21T09:25:20.000Z</Time>
            <Position>
              <LatitudeDegrees>41.73872997052967548370361328125</LatitudeDegrees>
              <LongitudeDegrees>1.77559697069227695465087890625</LongitudeDegrees>
            </Position>
            <AltitudeMeters>341.600006103515625</AltitudeMeters>
            <DistanceMeters>9838.296455901</DistanceMeters>
          </Trackpoint>
          <Trackpoint>
            <Time>2018-06-21T09:25:25.000Z</Time>
            <Position>
              <LatitudeDegrees>41.73871924169361591339111328125</LatitudeDegrees>
              <LongitudeDegrees>1.775678694248199462890625</LongitudeDegrees>
            </Position>
            <AltitudeMeters>341.600006103515625</AltitudeMeters>
            <DistanceMeters>9845.187694688</DistanceMeters>
          </Trackpoint>
          <Trackpoint>
            <Time>2018-06-21T09:25:29.000Z</Time>
            <Position>
              <LatitudeDegrees>41.73870415426790714263916015625</LatitudeDegrees>
              <LongitudeDegrees>1.775734685361385345458984375</LongitudeDegrees>
            </Position>
            <AltitudeMeters>341.399993896484375</AltitudeMeters>
            <DistanceMeters>9850.1318242305</DistanceMeters>
          </Trackpoint>
          <Trackpoint>
            <Time>2018-06-21T09:25:34.000Z</Time>
            <Position>
              <LatitudeDegrees>41.738664843142032623291015625</LatitudeDegrees>
              <LongitudeDegrees>1.7758384533226490020751953125</LongitudeDegrees>
            </Position>
            <AltitudeMeters>341.600006103515625</AltitudeMeters>
            <DistanceMeters>9859.7965596504</DistanceMeters>
          </Trackpoint>
          <Trackpoint>
            <Time>2018-06-21T09:25:37.000Z</Time>
            <Position>
              <LatitudeDegrees>41.73865838907659053802490234375</LatitudeDegrees>
              <LongitudeDegrees>1.7759021557867527008056640625</LongitudeDegrees>
            </Position>
            <AltitudeMeters>342.399993896484375</AltitudeMeters>
            <DistanceMeters>9865.1358434351</DistanceMeters>
          </Trackpoint>
          <Trackpoint>
            <Time>2018-06-21T09:25:45.000Z</Time>
            <Position>
              <LatitudeDegrees>41.7385999672114849090576171875</LatitudeDegrees>
              <LongitudeDegrees>1.7760684527456760406494140625</LongitudeDegrees>
            </Position>
            <AltitudeMeters>342.79998779296875</AltitudeMeters>
            <DistanceMeters>9880.4011686106</DistanceMeters>
          </Trackpoint>
          <Trackpoint>
            <Time>2018-06-21T09:25:52.000Z</Time>
            <Position>
              <LatitudeDegrees>41.738524697721004486083984375</LatitudeDegrees>
              <LongitudeDegrees>1.77615788765251636505126953125</LongitudeDegrees>
            </Position>
            <AltitudeMeters>341.399993896484375</AltitudeMeters>
            <DistanceMeters>9891.5973966002</DistanceMeters>
          </Trackpoint>
          <Trackpoint>
            <Time>2018-06-21T09:25:54.000Z</Time>
            <Position>
              <LatitudeDegrees>41.7385057546198368072509765625</LatitudeDegrees>
              <LongitudeDegrees>1.77616895176470279693603515625</LongitudeDegrees>
            </Position>
            <AltitudeMeters>340.79998779296875</AltitudeMeters>
            <DistanceMeters>9893.8977497896</DistanceMeters>
          </Trackpoint>
          <Trackpoint>
            <Time>2018-06-21T09:25:58.000Z</Time>
            <Position>
              <LatitudeDegrees>41.7384618334472179412841796875</LatitudeDegrees>
              <LongitudeDegrees>1.77616828121244907379150390625</LongitudeDegrees>
            </Position>
            <AltitudeMeters>339.399993896484375</AltitudeMeters>
            <DistanceMeters>9898.7877030025</DistanceMeters>
          </Trackpoint>
          <Trackpoint>
            <Time>2018-06-21T09:26:03.000Z</Time>
            <Position>
              <LatitudeDegrees>41.73838815651834011077880859375</LatitudeDegrees>
              <LongitudeDegrees>1.7761626653373241424560546875</LongitudeDegrees>
            </Position>
            <AltitudeMeters>336.79998779296875</AltitudeMeters>
            <DistanceMeters>9907.001331988</DistanceMeters>
          </Trackpoint>
          <Trackpoint>
            <Time>2018-06-21T09:26:09.000Z</Time>
            <Position>
              <LatitudeDegrees>41.7382921837270259857177734375</LatitudeDegrees>
              <LongitudeDegrees>1.7761834524571895599365234375</LongitudeDegrees>
            </Position>
            <AltitudeMeters>333.600006103515625</AltitudeMeters>
            <DistanceMeters>9917.821866687</DistanceMeters>
          </Trackpoint>
          <Trackpoint>
            <Time>2018-06-21T09:26:14.000Z</Time>
            <Position>
              <LatitudeDegrees>41.73820509575307369232177734375</LatitudeDegrees>
              <LongitudeDegrees>1.77621505223214626312255859375</LongitudeDegrees>
            </Position>
            <AltitudeMeters>331</AltitudeMeters>
            <DistanceMeters>9927.8641718868</DistanceMeters>
          </Trackpoint>
          <Trackpoint>
            <Time>2018-06-21T09:26:18.000Z</Time>
            <Position>
              <LatitudeDegrees>41.738143153488636016845703125</LatitudeDegrees>
              <LongitudeDegrees>1.77624556235969066619873046875</LongitudeDegrees>
            </Position>
            <AltitudeMeters>330.399993896484375</AltitudeMeters>
            <DistanceMeters>9935.2089439511</DistanceMeters>
          </Trackpoint>
          <Trackpoint>
            <Time>2018-06-21T09:26:25.000Z</Time>
            <Position>
              <LatitudeDegrees>41.7380274832248687744140625</LatitudeDegrees>
              <LongitudeDegrees>1.77630624733865261077880859375</LongitudeDegrees>
            </Position>
            <AltitudeMeters>329.20001220703125</AltitudeMeters>
            <DistanceMeters>9949.0345961298</DistanceMeters>
          </Trackpoint>
          <Trackpoint>
            <Time>2018-06-21T09:26:29.000Z</Time>
            <Position>
              <LatitudeDegrees>41.7379602603614330291748046875</LatitudeDegrees>
              <LongitudeDegrees>1.77628126926720142364501953125</LongitudeDegrees>
            </Position>
            <AltitudeMeters>327.600006103515625</AltitudeMeters>
            <DistanceMeters>9956.7989241973</DistanceMeters>
          </Trackpoint>
          <Trackpoint>
            <Time>2018-06-21T09:26:34.000Z</Time>
            <Position>
              <LatitudeDegrees>41.73789664171636104583740234375</LatitudeDegrees>
              <LongitudeDegrees>1.77622117102146148681640625</LongitudeDegrees>
            </Position>
            <AltitudeMeters>325.79998779296875</AltitudeMeters>
            <DistanceMeters>9965.4625259542</DistanceMeters>
          </Trackpoint>
          <Trackpoint>
            <Time>2018-06-21T09:26:38.000Z</Time>
            <Position>
              <LatitudeDegrees>41.7378241382539272308349609375</LatitudeDegrees>
              <LongitudeDegrees>1.77621086128056049346923828125</LongitudeDegrees>
            </Position>
            <AltitudeMeters>324.399993896484375</AltitudeMeters>
            <DistanceMeters>9973.5771619552</DistanceMeters>
          </Trackpoint>
          <Trackpoint>
            <Time>2018-06-21T09:26:42.000Z</Time>
            <Position>
              <LatitudeDegrees>41.73775498755276203155517578125</LatitudeDegrees>
              <LongitudeDegrees>1.776182949542999267578125</LongitudeDegrees>
            </Position>
            <AltitudeMeters>322.79998779296875</AltitudeMeters>
            <DistanceMeters>9981.6146470644</DistanceMeters>
          </Trackpoint>
          <Trackpoint>
            <Time>2018-06-21T09:26:43.000Z</Time>
            <Position>
              <LatitudeDegrees>41.7377364635467529296875</LatitudeDegrees>
              <LongitudeDegrees>1.77617716602981090545654296875</LongitudeDegrees>
            </Position>
            <AltitudeMeters>322.399993896484375</AltitudeMeters>
            <DistanceMeters>9983.7309924795</DistanceMeters>
          </Trackpoint>
          <Trackpoint>
            <Time>2018-06-21T09:26:45.000Z</Time>
            <Position>
              <LatitudeDegrees>41.7377104796469211578369140625</LatitudeDegrees>
              <LongitudeDegrees>1.77617155015468597412109375</LongitudeDegrees>
            </Position>
            <AltitudeMeters>321.79998779296875</AltitudeMeters>
            <DistanceMeters>9986.6599125231</DistanceMeters>
          </Trackpoint>
          <Trackpoint>
            <Time>2018-06-21T09:26:51.000Z</Time>
            <Position>
              <LatitudeDegrees>41.737610064446926116943359375</LatitudeDegrees>
              <LongitudeDegrees>1.77618605084717273712158203125</LongitudeDegrees>
            </Position>
            <AltitudeMeters>320</AltitudeMeters>
            <DistanceMeters>9997.9008137183</DistanceMeters>
          </Trackpoint>
          <Trackpoint>
            <Time>2018-06-21T09:26:55.000Z</Time>
            <Position>
              <LatitudeDegrees>41.7375552468001842498779296875</LatitudeDegrees>
              <LongitudeDegrees>1.77620767615735530853271484375</LongitudeDegrees>
            </Position>
            <AltitudeMeters>319.20001220703125</AltitudeMeters>
            <DistanceMeters>10004.261217988</DistanceMeters>
          </Trackpoint>
          <Trackpoint>
            <Time>2018-06-21T09:27:01.000Z</Time>
            <Position>
              <LatitudeDegrees>41.73746463842689990997314453125</LatitudeDegrees>
              <LongitudeDegrees>1.7762246914207935333251953125</LongitudeDegrees>
            </Position>
            <AltitudeMeters>317.600006103515625</AltitudeMeters>
            <DistanceMeters>10014.444606318</DistanceMeters>
          </Trackpoint>
          <Trackpoint>
            <Time>2018-06-21T09:27:03.000Z</Time>
            <Position>
              <LatitudeDegrees>41.73742876388132572174072265625</LatitudeDegrees>
              <LongitudeDegrees>1.7762330733239650726318359375</LongitudeDegrees>
            </Position>
            <AltitudeMeters>317</AltitudeMeters>
            <DistanceMeters>10018.49635643</DistanceMeters>
          </Trackpoint>
          <Trackpoint>
            <Time>2018-06-21T09:27:09.000Z</Time>
            <Position>
              <LatitudeDegrees>41.73733656294643878936767578125</LatitudeDegrees>
              <LongitudeDegrees>1.776244975626468658447265625</LongitudeDegrees>
            </Position>
            <AltitudeMeters>316</AltitudeMeters>
            <DistanceMeters>10028.805769592</DistanceMeters>
          </Trackpoint>
          <Trackpoint>
            <Time>2018-06-21T09:27:17.000Z</Time>
            <Position>
              <LatitudeDegrees>41.7372112534940242767333984375</LatitudeDegrees>
              <LongitudeDegrees>1.7762746475636959075927734375</LongitudeDegrees>
            </Position>
            <AltitudeMeters>315.79998779296875</AltitudeMeters>
            <DistanceMeters>10042.96953245</DistanceMeters>
          </Trackpoint>
          <Trackpoint>
            <Time>2018-06-21T09:27:18.000Z</Time>
            <Position>
              <LatitudeDegrees>41.737198345363140106201171875</LatitudeDegrees>
              <LongitudeDegrees>1.77628126926720142364501953125</LongitudeDegrees>
            </Position>
            <AltitudeMeters>315.79998779296875</AltitudeMeters>
            <DistanceMeters>10044.507674195</DistanceMeters>
          </Trackpoint>
          <Trackpoint>
            <Time>2018-06-21T09:27:26.000Z</Time>
            <Position>
              <LatitudeDegrees>41.737069599330425262451171875</LatitudeDegrees>
              <LongitudeDegrees>1.7763205803930759429931640625</LongitudeDegrees>
            </Position>
            <AltitudeMeters>315.20001220703125</AltitudeMeters>
            <DistanceMeters>10059.20459321</DistanceMeters>
          </Trackpoint>
          <Trackpoint>
            <Time>2018-06-21T09:27:32.000Z</Time>
            <Position>
              <LatitudeDegrees>41.7369711957871913909912109375</LatitudeDegrees>
              <LongitudeDegrees>1.77633776329457759857177734375</LongitudeDegrees>
            </Position>
            <AltitudeMeters>314.399993896484375</AltitudeMeters>
            <DistanceMeters>10070.249788218</DistanceMeters>
          </Trackpoint>
          <Trackpoint>
            <Time>2018-06-21T09:27:39.000Z</Time>
            <Position>
              <LatitudeDegrees>41.7368598841130733489990234375</LatitudeDegrees>
              <LongitudeDegrees>1.776363663375377655029296875</LongitudeDegrees>
            </Position>
            <AltitudeMeters>313.399993896484375</AltitudeMeters>
            <DistanceMeters>10082.824232084</DistanceMeters>
          </Trackpoint>
          <Trackpoint>
            <Time>2018-06-21T09:27:47.000Z</Time>
            <Position>
              <LatitudeDegrees>41.7367324791848659515380859375</LatitudeDegrees>
              <LongitudeDegrees>1.77640029229223728179931640625</LongitudeDegrees>
            </Position>
            <AltitudeMeters>312.399993896484375</AltitudeMeters>
            <DistanceMeters>10097.327251445</DistanceMeters>
          </Trackpoint>
          <Trackpoint>
            <Time>2018-06-21T09:27:56.000Z</Time>
            <Position>
              <LatitudeDegrees>41.73660499043762683868408203125</LatitudeDegrees>
              <LongitudeDegrees>1.776454858481884002685546875</LongitudeDegrees>
            </Position>
            <AltitudeMeters>311.20001220703125</AltitudeMeters>
            <DistanceMeters>10112.223124645</DistanceMeters>
          </Trackpoint>
          <Trackpoint>
            <Time>2018-06-21T09:28:02.000Z</Time>
            <Position>
              <LatitudeDegrees>41.73652804456651210784912109375</LatitudeDegrees>
              <LongitudeDegrees>1.77651755511760711669921875</LongitudeDegrees>
            </Position>
            <AltitudeMeters>310.79998779296875</AltitudeMeters>
            <DistanceMeters>10122.245627844</DistanceMeters>
          </Trackpoint>
          <Trackpoint>
            <Time>2018-06-21T09:28:11.000Z</Time>
            <Position>
              <LatitudeDegrees>41.7364518530666828155517578125</LatitudeDegrees>
              <LongitudeDegrees>1.77667303942143917083740234375</LongitudeDegrees>
            </Position>
            <AltitudeMeters>311.79998779296875</AltitudeMeters>
            <DistanceMeters>10137.694996134</DistanceMeters>
          </Trackpoint>
          <Trackpoint>
            <Time>2018-06-21T09:28:15.000Z</Time>
            <Position>
              <LatitudeDegrees>41.73642913810908794403076171875</LatitudeDegrees>
              <LongitudeDegrees>1.77673489786684513092041015625</LongitudeDegrees>
            </Position>
            <AltitudeMeters>312.20001220703125</AltitudeMeters>
            <DistanceMeters>10143.421094943</DistanceMeters>
          </Trackpoint>
        </Track>
      </Lap>
    </Activity>
  </Activities>
</TrainingCenterDatabase>
